<?xml version="1.0" encoding="UTF-8" standalone="no" ?>
<gpx xmlns="http://www.topografix.com/GPX/1/1" xmlns:xsi="http://www.w3.org/2001/XMLSchema-instance" xsi:schemaLocation="http://www.topografix.com/GPX/1/1 http://www.topografix.com/GPX/1/1/gpx.xsd" version="1.1" creator="VisuGPX - https://www.visugpx.com">
  <metadata>
    <name>lundi 2015 03 02</name>
    <desc><![CDATA[rando du lundi]]></desc>
  </metadata>
  <trk>
    <name><![CDATA[02/03/2015 20:19]]></name>
    <desc><![CDATA[]]></desc>
    <trkseg>
      <trkpt lat="48.85739" lon="2.34729">
        <ele>89.4</ele>
        <time>2015-03-02T19:19:52.735Z</time>
      </trkpt>
      <trkpt lat="48.85743" lon="2.34739">
        <ele>88.4</ele>
        <time>2015-03-02T19:19:59.613Z</time>
      </trkpt>
      <trkpt lat="48.85745" lon="2.3474">
        <ele>86.9</ele>
        <time>2015-03-02T19:20:00.625Z</time>
      </trkpt>
      <trkpt lat="48.85752" lon="2.34744">
        <ele>85</ele>
        <time>2015-03-02T19:20:03.578Z</time>
      </trkpt>
      <trkpt lat="48.85754" lon="2.34745">
        <ele>84.5</ele>
        <time>2015-03-02T19:20:04.588Z</time>
      </trkpt>
      <trkpt lat="48.8576" lon="2.34752">
        <ele>83.8</ele>
        <time>2015-03-02T19:20:08.629Z</time>
      </trkpt>
      <trkpt lat="48.85761" lon="2.34753">
        <ele>84.1</ele>
        <time>2015-03-02T19:20:09.691Z</time>
      </trkpt>
      <trkpt lat="48.85769" lon="2.34757">
        <ele>84.6</ele>
        <time>2015-03-02T19:20:14.656Z</time>
      </trkpt>
      <trkpt lat="48.85771" lon="2.34758">
        <ele>84.6</ele>
        <time>2015-03-02T19:20:15.669Z</time>
      </trkpt>
      <trkpt lat="48.85777" lon="2.34765">
        <ele>83.8</ele>
        <time>2015-03-02T19:20:25.626Z</time>
      </trkpt>
      <trkpt lat="48.85778" lon="2.34766">
        <ele>83.8</ele>
        <time>2015-03-02T19:20:26.643Z</time>
      </trkpt>
      <trkpt lat="48.85778" lon="2.34767">
        <ele>83.6</ele>
        <time>2015-03-02T19:20:27.651Z</time>
      </trkpt>
      <trkpt lat="48.85783" lon="2.34776">
        <ele>83.2</ele>
        <time>2015-03-02T19:20:31.596Z</time>
      </trkpt>
      <trkpt lat="48.85785" lon="2.34778">
        <ele>83.1</ele>
        <time>2015-03-02T19:20:32.667Z</time>
      </trkpt>
      <trkpt lat="48.85791" lon="2.34787">
        <ele>83.3</ele>
        <time>2015-03-02T19:20:36.634Z</time>
      </trkpt>
      <trkpt lat="48.85793" lon="2.34788">
        <ele>83.2</ele>
        <time>2015-03-02T19:20:37.645Z</time>
      </trkpt>
      <trkpt lat="48.858" lon="2.34794">
        <ele>82.8</ele>
        <time>2015-03-02T19:20:40.730Z</time>
      </trkpt>
      <trkpt lat="48.85802" lon="2.34796">
        <ele>82.7</ele>
        <time>2015-03-02T19:20:41.601Z</time>
      </trkpt>
      <trkpt lat="48.8581" lon="2.34803">
        <ele>82.3</ele>
        <time>2015-03-02T19:20:44.647Z</time>
      </trkpt>
      <trkpt lat="48.85812" lon="2.34806">
        <ele>82.2</ele>
        <time>2015-03-02T19:20:45.647Z</time>
      </trkpt>
      <trkpt lat="48.85819" lon="2.34809">
        <ele>82</ele>
        <time>2015-03-02T19:20:49.603Z</time>
      </trkpt>
      <trkpt lat="48.8582" lon="2.34809">
        <ele>82.2</ele>
        <time>2015-03-02T19:20:50.637Z</time>
      </trkpt>
      <trkpt lat="48.85828" lon="2.34815">
        <ele>84</ele>
        <time>2015-03-02T19:20:55.595Z</time>
      </trkpt>
      <trkpt lat="48.8583" lon="2.34814">
        <ele>84.2</ele>
        <time>2015-03-02T19:20:56.637Z</time>
      </trkpt>
      <trkpt lat="48.85837" lon="2.34819">
        <ele>85.9</ele>
        <time>2015-03-02T19:21:04.684Z</time>
      </trkpt>
      <trkpt lat="48.85838" lon="2.3482">
        <ele>86</ele>
        <time>2015-03-02T19:21:05.567Z</time>
      </trkpt>
      <trkpt lat="48.85847" lon="2.34823">
        <ele>86.7</ele>
        <time>2015-03-02T19:21:09.612Z</time>
      </trkpt>
      <trkpt lat="48.85849" lon="2.34824">
        <ele>86.8</ele>
        <time>2015-03-02T19:21:10.608Z</time>
      </trkpt>
      <trkpt lat="48.85856" lon="2.34827">
        <ele>87.4</ele>
        <time>2015-03-02T19:21:13.652Z</time>
      </trkpt>
      <trkpt lat="48.85858" lon="2.34829">
        <ele>87.4</ele>
        <time>2015-03-02T19:21:14.709Z</time>
      </trkpt>
      <trkpt lat="48.85864" lon="2.34831">
        <ele>87.8</ele>
        <time>2015-03-02T19:21:16.611Z</time>
      </trkpt>
      <trkpt lat="48.85867" lon="2.34832">
        <ele>87.9</ele>
        <time>2015-03-02T19:21:17.620Z</time>
      </trkpt>
      <trkpt lat="48.85874" lon="2.34834">
        <ele>88.5</ele>
        <time>2015-03-02T19:21:20.685Z</time>
      </trkpt>
      <trkpt lat="48.85877" lon="2.34835">
        <ele>88.7</ele>
        <time>2015-03-02T19:21:21.702Z</time>
      </trkpt>
      <trkpt lat="48.85884" lon="2.34839">
        <ele>89.2</ele>
        <time>2015-03-02T19:21:23.618Z</time>
      </trkpt>
      <trkpt lat="48.85887" lon="2.34841">
        <ele>89.5</ele>
        <time>2015-03-02T19:21:24.693Z</time>
      </trkpt>
      <trkpt lat="48.85894" lon="2.34842">
        <ele>89.9</ele>
        <time>2015-03-02T19:21:26.681Z</time>
      </trkpt>
      <trkpt lat="48.85897" lon="2.34844">
        <ele>90.1</ele>
        <time>2015-03-02T19:21:27.704Z</time>
      </trkpt>
      <trkpt lat="48.85905" lon="2.34849">
        <ele>90.8</ele>
        <time>2015-03-02T19:21:29.621Z</time>
      </trkpt>
      <trkpt lat="48.85907" lon="2.34852">
        <ele>91</ele>
        <time>2015-03-02T19:21:30.632Z</time>
      </trkpt>
      <trkpt lat="48.85913" lon="2.34859">
        <ele>91.2</ele>
        <time>2015-03-02T19:21:32.657Z</time>
      </trkpt>
      <trkpt lat="48.85916" lon="2.34862">
        <ele>91.3</ele>
        <time>2015-03-02T19:21:33.637Z</time>
      </trkpt>
      <trkpt lat="48.85922" lon="2.34867">
        <ele>91.6</ele>
        <time>2015-03-02T19:21:35.604Z</time>
      </trkpt>
      <trkpt lat="48.85924" lon="2.3487">
        <ele>91.9</ele>
        <time>2015-03-02T19:21:36.612Z</time>
      </trkpt>
      <trkpt lat="48.85929" lon="2.34876">
        <ele>92</ele>
        <time>2015-03-02T19:21:38.628Z</time>
      </trkpt>
      <trkpt lat="48.85932" lon="2.34879">
        <ele>92.1</ele>
        <time>2015-03-02T19:21:39.680Z</time>
      </trkpt>
      <trkpt lat="48.85939" lon="2.34883">
        <ele>92.3</ele>
        <time>2015-03-02T19:21:41.599Z</time>
      </trkpt>
      <trkpt lat="48.85942" lon="2.34885">
        <ele>92.6</ele>
        <time>2015-03-02T19:21:42.768Z</time>
      </trkpt>
      <trkpt lat="48.85949" lon="2.3489">
        <ele>92.8</ele>
        <time>2015-03-02T19:21:44.620Z</time>
      </trkpt>
      <trkpt lat="48.85953" lon="2.34892">
        <ele>92.8</ele>
        <time>2015-03-02T19:21:45.669Z</time>
      </trkpt>
      <trkpt lat="48.8596" lon="2.34897">
        <ele>93.1</ele>
        <time>2015-03-02T19:21:47.655Z</time>
      </trkpt>
      <trkpt lat="48.85963" lon="2.34899">
        <ele>93.2</ele>
        <time>2015-03-02T19:21:48.695Z</time>
      </trkpt>
      <trkpt lat="48.8597" lon="2.34905">
        <ele>93.5</ele>
        <time>2015-03-02T19:21:50.633Z</time>
      </trkpt>
      <trkpt lat="48.85973" lon="2.34908">
        <ele>93.5</ele>
        <time>2015-03-02T19:21:51.746Z</time>
      </trkpt>
      <trkpt lat="48.85977" lon="2.34914">
        <ele>93.7</ele>
        <time>2015-03-02T19:21:53.592Z</time>
      </trkpt>
      <trkpt lat="48.85981" lon="2.34917">
        <ele>93.9</ele>
        <time>2015-03-02T19:21:54.603Z</time>
      </trkpt>
      <trkpt lat="48.85987" lon="2.34922">
        <ele>94</ele>
        <time>2015-03-02T19:21:56.626Z</time>
      </trkpt>
      <trkpt lat="48.8599" lon="2.34925">
        <ele>94.3</ele>
        <time>2015-03-02T19:21:57.658Z</time>
      </trkpt>
      <trkpt lat="48.85997" lon="2.3493">
        <ele>94.7</ele>
        <time>2015-03-02T19:21:59.689Z</time>
      </trkpt>
      <trkpt lat="48.86" lon="2.34934">
        <ele>94.8</ele>
        <time>2015-03-02T19:22:00.626Z</time>
      </trkpt>
      <trkpt lat="48.86008" lon="2.34939">
        <ele>95</ele>
        <time>2015-03-02T19:22:03.082Z</time>
      </trkpt>
      <trkpt lat="48.86011" lon="2.34941">
        <ele>95.3</ele>
        <time>2015-03-02T19:22:03.630Z</time>
      </trkpt>
      <trkpt lat="48.86017" lon="2.34945">
        <ele>95.4</ele>
        <time>2015-03-02T19:22:05.791Z</time>
      </trkpt>
      <trkpt lat="48.8602" lon="2.34947">
        <ele>95.5</ele>
        <time>2015-03-02T19:22:06.636Z</time>
      </trkpt>
      <trkpt lat="48.86025" lon="2.34949">
        <ele>95.6</ele>
        <time>2015-03-02T19:22:07.630Z</time>
      </trkpt>
      <trkpt lat="48.8603" lon="2.34951">
        <ele>95.7</ele>
        <time>2015-03-02T19:22:08.696Z</time>
      </trkpt>
      <trkpt lat="48.86035" lon="2.34952">
        <ele>95.8</ele>
        <time>2015-03-02T19:22:09.601Z</time>
      </trkpt>
      <trkpt lat="48.8604" lon="2.34953">
        <ele>95.9</ele>
        <time>2015-03-02T19:22:10.612Z</time>
      </trkpt>
      <trkpt lat="48.86046" lon="2.34955">
        <ele>96</ele>
        <time>2015-03-02T19:22:11.605Z</time>
      </trkpt>
      <trkpt lat="48.86052" lon="2.34958">
        <ele>96.1</ele>
        <time>2015-03-02T19:22:12.608Z</time>
      </trkpt>
      <trkpt lat="48.86059" lon="2.3496">
        <ele>96.1</ele>
        <time>2015-03-02T19:22:13.645Z</time>
      </trkpt>
      <trkpt lat="48.86065" lon="2.34963">
        <ele>96.1</ele>
        <time>2015-03-02T19:22:14.674Z</time>
      </trkpt>
      <trkpt lat="48.8607" lon="2.34965">
        <ele>96.1</ele>
        <time>2015-03-02T19:22:15.670Z</time>
      </trkpt>
      <trkpt lat="48.86075" lon="2.34968">
        <ele>96</ele>
        <time>2015-03-02T19:22:16.658Z</time>
      </trkpt>
      <trkpt lat="48.86079" lon="2.34971">
        <ele>96</ele>
        <time>2015-03-02T19:22:18.068Z</time>
      </trkpt>
      <trkpt lat="48.86084" lon="2.34974">
        <ele>96</ele>
        <time>2015-03-02T19:22:18.589Z</time>
      </trkpt>
      <trkpt lat="48.86087" lon="2.34978">
        <ele>96</ele>
        <time>2015-03-02T19:22:19.625Z</time>
      </trkpt>
      <trkpt lat="48.86092" lon="2.34981">
        <ele>96.1</ele>
        <time>2015-03-02T19:22:20.643Z</time>
      </trkpt>
      <trkpt lat="48.86098" lon="2.34983">
        <ele>96.2</ele>
        <time>2015-03-02T19:22:21.664Z</time>
      </trkpt>
      <trkpt lat="48.86104" lon="2.34986">
        <ele>96.3</ele>
        <time>2015-03-02T19:22:22.667Z</time>
      </trkpt>
      <trkpt lat="48.8611" lon="2.34988">
        <ele>96.3</ele>
        <time>2015-03-02T19:22:23.675Z</time>
      </trkpt>
      <trkpt lat="48.86119" lon="2.34989">
        <ele>96.3</ele>
        <time>2015-03-02T19:22:24.685Z</time>
      </trkpt>
      <trkpt lat="48.86125" lon="2.34992">
        <ele>96.3</ele>
        <time>2015-03-02T19:22:25.595Z</time>
      </trkpt>
      <trkpt lat="48.86131" lon="2.34994">
        <ele>96.4</ele>
        <time>2015-03-02T19:22:26.628Z</time>
      </trkpt>
      <trkpt lat="48.86138" lon="2.34995">
        <ele>96.5</ele>
        <time>2015-03-02T19:22:27.655Z</time>
      </trkpt>
      <trkpt lat="48.86143" lon="2.34995">
        <ele>96.6</ele>
        <time>2015-03-02T19:22:28.658Z</time>
      </trkpt>
      <trkpt lat="48.86148" lon="2.34996">
        <ele>96.8</ele>
        <time>2015-03-02T19:22:29.570Z</time>
      </trkpt>
      <trkpt lat="48.86153" lon="2.34995">
        <ele>96.8</ele>
        <time>2015-03-02T19:22:30.597Z</time>
      </trkpt>
      <trkpt lat="48.86161" lon="2.34996">
        <ele>96.8</ele>
        <time>2015-03-02T19:22:32.643Z</time>
      </trkpt>
      <trkpt lat="48.86164" lon="2.34998">
        <ele>97.3</ele>
        <time>2015-03-02T19:22:33.662Z</time>
      </trkpt>
      <trkpt lat="48.86171" lon="2.35004">
        <ele>97.9</ele>
        <time>2015-03-02T19:22:37.654Z</time>
      </trkpt>
      <trkpt lat="48.86173" lon="2.35005">
        <ele>98.2</ele>
        <time>2015-03-02T19:22:38.679Z</time>
      </trkpt>
      <trkpt lat="48.86179" lon="2.35011">
        <ele>98.7</ele>
        <time>2015-03-02T19:22:41.611Z</time>
      </trkpt>
      <trkpt lat="48.86182" lon="2.35014">
        <ele>98.9</ele>
        <time>2015-03-02T19:22:42.701Z</time>
      </trkpt>
      <trkpt lat="48.86187" lon="2.35019">
        <ele>99.3</ele>
        <time>2015-03-02T19:22:44.636Z</time>
      </trkpt>
      <trkpt lat="48.8619" lon="2.35023">
        <ele>99.8</ele>
        <time>2015-03-02T19:22:45.702Z</time>
      </trkpt>
      <trkpt lat="48.86197" lon="2.3503">
        <ele>100.4</ele>
        <time>2015-03-02T19:22:49.610Z</time>
      </trkpt>
      <trkpt lat="48.86199" lon="2.35033">
        <ele>100.7</ele>
        <time>2015-03-02T19:22:50.736Z</time>
      </trkpt>
      <trkpt lat="48.86204" lon="2.35039">
        <ele>100.9</ele>
        <time>2015-03-02T19:22:52.604Z</time>
      </trkpt>
      <trkpt lat="48.86206" lon="2.35042">
        <ele>101</ele>
        <time>2015-03-02T19:22:53.627Z</time>
      </trkpt>
      <trkpt lat="48.86211" lon="2.35052">
        <ele>101.7</ele>
        <time>2015-03-02T19:22:57.645Z</time>
      </trkpt>
      <trkpt lat="48.86214" lon="2.35054">
        <ele>102</ele>
        <time>2015-03-02T19:22:58.658Z</time>
      </trkpt>
      <trkpt lat="48.86221" lon="2.35059">
        <ele>102.2</ele>
        <time>2015-03-02T19:23:00.576Z</time>
      </trkpt>
      <trkpt lat="48.86224" lon="2.35061">
        <ele>102.4</ele>
        <time>2015-03-02T19:23:01.612Z</time>
      </trkpt>
      <trkpt lat="48.8623" lon="2.35065">
        <ele>102.2</ele>
        <time>2015-03-02T19:23:03.639Z</time>
      </trkpt>
      <trkpt lat="48.86233" lon="2.35067">
        <ele>102.3</ele>
        <time>2015-03-02T19:23:04.655Z</time>
      </trkpt>
      <trkpt lat="48.86242" lon="2.35071">
        <ele>102.6</ele>
        <time>2015-03-02T19:23:06.680Z</time>
      </trkpt>
      <trkpt lat="48.86247" lon="2.35073">
        <ele>102.8</ele>
        <time>2015-03-02T19:23:07.732Z</time>
      </trkpt>
      <trkpt lat="48.86252" lon="2.35074">
        <ele>103.4</ele>
        <time>2015-03-02T19:23:08.603Z</time>
      </trkpt>
      <trkpt lat="48.86258" lon="2.35075">
        <ele>103.5</ele>
        <time>2015-03-02T19:23:09.615Z</time>
      </trkpt>
      <trkpt lat="48.86263" lon="2.35077">
        <ele>103.6</ele>
        <time>2015-03-02T19:23:10.618Z</time>
      </trkpt>
      <trkpt lat="48.86269" lon="2.35079">
        <ele>103.8</ele>
        <time>2015-03-02T19:23:11.628Z</time>
      </trkpt>
      <trkpt lat="48.86273" lon="2.35081">
        <ele>103.9</ele>
        <time>2015-03-02T19:23:12.650Z</time>
      </trkpt>
      <trkpt lat="48.86278" lon="2.35082">
        <ele>104</ele>
        <time>2015-03-02T19:23:13.665Z</time>
      </trkpt>
      <trkpt lat="48.86286" lon="2.35085">
        <ele>104.3</ele>
        <time>2015-03-02T19:23:15.605Z</time>
      </trkpt>
      <trkpt lat="48.8629" lon="2.35087">
        <ele>104.3</ele>
        <time>2015-03-02T19:23:16.650Z</time>
      </trkpt>
      <trkpt lat="48.86296" lon="2.35095">
        <ele>103.5</ele>
        <time>2015-03-02T19:23:18.591Z</time>
      </trkpt>
      <trkpt lat="48.86297" lon="2.35102">
        <ele>104</ele>
        <time>2015-03-02T19:23:19.623Z</time>
      </trkpt>
      <trkpt lat="48.863" lon="2.35112">
        <ele>104.5</ele>
        <time>2015-03-02T19:23:21.636Z</time>
      </trkpt>
      <trkpt lat="48.86302" lon="2.35117">
        <ele>104.5</ele>
        <time>2015-03-02T19:23:22.652Z</time>
      </trkpt>
      <trkpt lat="48.86305" lon="2.35129">
        <ele>104.5</ele>
        <time>2015-03-02T19:23:24.590Z</time>
      </trkpt>
      <trkpt lat="48.86306" lon="2.35135">
        <ele>104.6</ele>
        <time>2015-03-02T19:23:25.598Z</time>
      </trkpt>
      <trkpt lat="48.86307" lon="2.35147">
        <ele>104.9</ele>
        <time>2015-03-02T19:23:27.632Z</time>
      </trkpt>
      <trkpt lat="48.86306" lon="2.35152">
        <ele>104.9</ele>
        <time>2015-03-02T19:23:28.654Z</time>
      </trkpt>
      <trkpt lat="48.86305" lon="2.35163">
        <ele>104.9</ele>
        <time>2015-03-02T19:23:30.591Z</time>
      </trkpt>
      <trkpt lat="48.86306" lon="2.35169">
        <ele>104.1</ele>
        <time>2015-03-02T19:23:31.608Z</time>
      </trkpt>
      <trkpt lat="48.86306" lon="2.35176">
        <ele>103.4</ele>
        <time>2015-03-02T19:23:32.708Z</time>
      </trkpt>
      <trkpt lat="48.86306" lon="2.35184">
        <ele>102.7</ele>
        <time>2015-03-02T19:23:33.611Z</time>
      </trkpt>
      <trkpt lat="48.86305" lon="2.35191">
        <ele>102.2</ele>
        <time>2015-03-02T19:23:34.614Z</time>
      </trkpt>
      <trkpt lat="48.86305" lon="2.35198">
        <ele>101.7</ele>
        <time>2015-03-02T19:23:35.618Z</time>
      </trkpt>
      <trkpt lat="48.86305" lon="2.3521">
        <ele>101.1</ele>
        <time>2015-03-02T19:23:37.640Z</time>
      </trkpt>
      <trkpt lat="48.86305" lon="2.35216">
        <ele>100.8</ele>
        <time>2015-03-02T19:23:38.777Z</time>
      </trkpt>
      <trkpt lat="48.86305" lon="2.35225">
        <ele>100.2</ele>
        <time>2015-03-02T19:23:40.599Z</time>
      </trkpt>
      <trkpt lat="48.86305" lon="2.35229">
        <ele>100.1</ele>
        <time>2015-03-02T19:23:41.621Z</time>
      </trkpt>
      <trkpt lat="48.86301" lon="2.35241">
        <ele>99.5</ele>
        <time>2015-03-02T19:23:44.671Z</time>
      </trkpt>
      <trkpt lat="48.863" lon="2.35245">
        <ele>99.1</ele>
        <time>2015-03-02T19:23:45.600Z</time>
      </trkpt>
      <trkpt lat="48.86296" lon="2.35257">
        <ele>98.4</ele>
        <time>2015-03-02T19:23:48.662Z</time>
      </trkpt>
      <trkpt lat="48.86295" lon="2.35262">
        <ele>98.2</ele>
        <time>2015-03-02T19:23:49.678Z</time>
      </trkpt>
      <trkpt lat="48.86291" lon="2.35272">
        <ele>98</ele>
        <time>2015-03-02T19:23:51.565Z</time>
      </trkpt>
      <trkpt lat="48.8629" lon="2.35276">
        <ele>98.1</ele>
        <time>2015-03-02T19:23:52.580Z</time>
      </trkpt>
      <trkpt lat="48.86286" lon="2.35287">
        <ele>97.7</ele>
        <time>2015-03-02T19:23:54.588Z</time>
      </trkpt>
      <trkpt lat="48.86285" lon="2.35292">
        <ele>97.7</ele>
        <time>2015-03-02T19:23:55.604Z</time>
      </trkpt>
      <trkpt lat="48.86284" lon="2.35303">
        <ele>97.4</ele>
        <time>2015-03-02T19:23:57.631Z</time>
      </trkpt>
      <trkpt lat="48.86284" lon="2.35309">
        <ele>97.3</ele>
        <time>2015-03-02T19:23:58.642Z</time>
      </trkpt>
      <trkpt lat="48.86284" lon="2.3532">
        <ele>96.6</ele>
        <time>2015-03-02T19:24:00.626Z</time>
      </trkpt>
      <trkpt lat="48.86284" lon="2.35327">
        <ele>96.5</ele>
        <time>2015-03-02T19:24:01.590Z</time>
      </trkpt>
      <trkpt lat="48.86284" lon="2.3534">
        <ele>95.4</ele>
        <time>2015-03-02T19:24:03.637Z</time>
      </trkpt>
      <trkpt lat="48.86283" lon="2.35346">
        <ele>94.8</ele>
        <time>2015-03-02T19:24:04.565Z</time>
      </trkpt>
      <trkpt lat="48.86281" lon="2.35358">
        <ele>94.2</ele>
        <time>2015-03-02T19:24:06.662Z</time>
      </trkpt>
      <trkpt lat="48.86281" lon="2.35365">
        <ele>94</ele>
        <time>2015-03-02T19:24:07.689Z</time>
      </trkpt>
      <trkpt lat="48.86278" lon="2.35376">
        <ele>94.1</ele>
        <time>2015-03-02T19:24:09.582Z</time>
      </trkpt>
      <trkpt lat="48.86277" lon="2.35382">
        <ele>94.4</ele>
        <time>2015-03-02T19:24:10.589Z</time>
      </trkpt>
      <trkpt lat="48.86274" lon="2.35388">
        <ele>95.1</ele>
        <time>2015-03-02T19:24:11.605Z</time>
      </trkpt>
      <trkpt lat="48.86273" lon="2.35394">
        <ele>95.5</ele>
        <time>2015-03-02T19:24:12.619Z</time>
      </trkpt>
      <trkpt lat="48.8627" lon="2.35407">
        <ele>96.1</ele>
        <time>2015-03-02T19:24:15.662Z</time>
      </trkpt>
      <trkpt lat="48.86269" lon="2.3541">
        <ele>96.6</ele>
        <time>2015-03-02T19:24:16.675Z</time>
      </trkpt>
      <trkpt lat="48.86262" lon="2.35411">
        <ele>97.4</ele>
        <time>2015-03-02T19:24:18.593Z</time>
      </trkpt>
      <trkpt lat="48.86258" lon="2.3541">
        <ele>97.7</ele>
        <time>2015-03-02T19:24:19.608Z</time>
      </trkpt>
      <trkpt lat="48.8625" lon="2.35408">
        <ele>98.1</ele>
        <time>2015-03-02T19:24:21.643Z</time>
      </trkpt>
      <trkpt lat="48.86247" lon="2.35406">
        <ele>98.3</ele>
        <time>2015-03-02T19:24:22.649Z</time>
      </trkpt>
      <trkpt lat="48.8624" lon="2.35403">
        <ele>98.6</ele>
        <time>2015-03-02T19:24:24.584Z</time>
      </trkpt>
      <trkpt lat="48.86235" lon="2.35402">
        <ele>99</ele>
        <time>2015-03-02T19:24:25.613Z</time>
      </trkpt>
      <trkpt lat="48.8623" lon="2.35403">
        <ele>100</ele>
        <time>2015-03-02T19:24:26.631Z</time>
      </trkpt>
      <trkpt lat="48.86225" lon="2.35403">
        <ele>100.7</ele>
        <time>2015-03-02T19:24:27.635Z</time>
      </trkpt>
      <trkpt lat="48.86221" lon="2.35403">
        <ele>101.3</ele>
        <time>2015-03-02T19:24:28.646Z</time>
      </trkpt>
      <trkpt lat="48.86216" lon="2.35402">
        <ele>101.6</ele>
        <time>2015-03-02T19:24:29.654Z</time>
      </trkpt>
      <trkpt lat="48.86209" lon="2.35397">
        <ele>101.5</ele>
        <time>2015-03-02T19:24:31.586Z</time>
      </trkpt>
      <trkpt lat="48.86205" lon="2.35395">
        <ele>101.5</ele>
        <time>2015-03-02T19:24:32.642Z</time>
      </trkpt>
      <trkpt lat="48.86198" lon="2.3539">
        <ele>101.6</ele>
        <time>2015-03-02T19:24:34.578Z</time>
      </trkpt>
      <trkpt lat="48.86194" lon="2.35388">
        <ele>101.6</ele>
        <time>2015-03-02T19:24:35.593Z</time>
      </trkpt>
      <trkpt lat="48.86188" lon="2.35382">
        <ele>101.7</ele>
        <time>2015-03-02T19:24:37.606Z</time>
      </trkpt>
      <trkpt lat="48.86184" lon="2.35379">
        <ele>101.8</ele>
        <time>2015-03-02T19:24:38.665Z</time>
      </trkpt>
      <trkpt lat="48.86175" lon="2.35377">
        <ele>102.4</ele>
        <time>2015-03-02T19:24:40.647Z</time>
      </trkpt>
      <trkpt lat="48.86171" lon="2.35375">
        <ele>102.8</ele>
        <time>2015-03-02T19:24:41.676Z</time>
      </trkpt>
      <trkpt lat="48.86164" lon="2.3537">
        <ele>103.3</ele>
        <time>2015-03-02T19:24:43.617Z</time>
      </trkpt>
      <trkpt lat="48.8616" lon="2.35367">
        <ele>103.5</ele>
        <time>2015-03-02T19:24:44.654Z</time>
      </trkpt>
      <trkpt lat="48.86156" lon="2.35364">
        <ele>103.6</ele>
        <time>2015-03-02T19:24:45.580Z</time>
      </trkpt>
      <trkpt lat="48.86151" lon="2.35361">
        <ele>104</ele>
        <time>2015-03-02T19:24:46.588Z</time>
      </trkpt>
      <trkpt lat="48.86147" lon="2.35358">
        <ele>104.6</ele>
        <time>2015-03-02T19:24:47.604Z</time>
      </trkpt>
      <trkpt lat="48.86143" lon="2.35356">
        <ele>105.1</ele>
        <time>2015-03-02T19:24:48.612Z</time>
      </trkpt>
      <trkpt lat="48.86135" lon="2.35351">
        <ele>106.3</ele>
        <time>2015-03-02T19:24:50.686Z</time>
      </trkpt>
      <trkpt lat="48.86131" lon="2.3535">
        <ele>107</ele>
        <time>2015-03-02T19:24:51.602Z</time>
      </trkpt>
      <trkpt lat="48.86124" lon="2.35347">
        <ele>108.2</ele>
        <time>2015-03-02T19:24:53.667Z</time>
      </trkpt>
      <trkpt lat="48.86121" lon="2.35347">
        <ele>108.5</ele>
        <time>2015-03-02T19:24:54.589Z</time>
      </trkpt>
      <trkpt lat="48.86117" lon="2.35346">
        <ele>109.8</ele>
        <time>2015-03-02T19:24:57.652Z</time>
      </trkpt>
      <trkpt lat="48.86116" lon="2.35345">
        <ele>110.4</ele>
        <time>2015-03-02T19:24:58.663Z</time>
      </trkpt>
      <trkpt lat="48.86117" lon="2.35345">
        <ele>111.6</ele>
        <time>2015-03-02T19:25:06.619Z</time>
      </trkpt>
      <trkpt lat="48.86117" lon="2.35348">
        <ele>114.3</ele>
        <time>2015-03-02T19:25:07.601Z</time>
      </trkpt>
      <trkpt lat="48.86121" lon="2.35351">
        <ele>113.3</ele>
        <time>2015-03-02T19:25:12.574Z</time>
      </trkpt>
      <trkpt lat="48.86119" lon="2.35352">
        <ele>113.2</ele>
        <time>2015-03-02T19:25:13.585Z</time>
      </trkpt>
      <trkpt lat="48.86117" lon="2.35354">
        <ele>113.3</ele>
        <time>2015-03-02T19:25:14.614Z</time>
      </trkpt>
      <trkpt lat="48.8611" lon="2.35358">
        <ele>115.6</ele>
        <time>2015-03-02T19:25:17.603Z</time>
      </trkpt>
      <trkpt lat="48.86107" lon="2.3536">
        <ele>116.6</ele>
        <time>2015-03-02T19:25:18.608Z</time>
      </trkpt>
      <trkpt lat="48.86098" lon="2.35363">
        <ele>117.3</ele>
        <time>2015-03-02T19:25:22.605Z</time>
      </trkpt>
      <trkpt lat="48.86096" lon="2.35364">
        <ele>117.6</ele>
        <time>2015-03-02T19:25:23.620Z</time>
      </trkpt>
      <trkpt lat="48.86089" lon="2.35371">
        <ele>117</ele>
        <time>2015-03-02T19:25:27.689Z</time>
      </trkpt>
      <trkpt lat="48.86087" lon="2.35373">
        <ele>116</ele>
        <time>2015-03-02T19:25:28.600Z</time>
      </trkpt>
      <trkpt lat="48.86082" lon="2.35381">
        <ele>115.4</ele>
        <time>2015-03-02T19:25:32.667Z</time>
      </trkpt>
      <trkpt lat="48.86082" lon="2.35385">
        <ele>115</ele>
        <time>2015-03-02T19:25:33.631Z</time>
      </trkpt>
      <trkpt lat="48.86079" lon="2.35395">
        <ele>114.6</ele>
        <time>2015-03-02T19:25:36.682Z</time>
      </trkpt>
      <trkpt lat="48.86077" lon="2.35398">
        <ele>113.1</ele>
        <time>2015-03-02T19:25:37.588Z</time>
      </trkpt>
      <trkpt lat="48.86071" lon="2.35408">
        <ele>107.9</ele>
        <time>2015-03-02T19:25:41.693Z</time>
      </trkpt>
      <trkpt lat="48.8607" lon="2.35411">
        <ele>110.4</ele>
        <time>2015-03-02T19:25:42.588Z</time>
      </trkpt>
      <trkpt lat="48.86066" lon="2.35422">
        <ele>110.2</ele>
        <time>2015-03-02T19:25:45.623Z</time>
      </trkpt>
      <trkpt lat="48.86065" lon="2.35426">
        <ele>110.2</ele>
        <time>2015-03-02T19:25:46.649Z</time>
      </trkpt>
      <trkpt lat="48.86062" lon="2.35435">
        <ele>109.4</ele>
        <time>2015-03-02T19:25:48.575Z</time>
      </trkpt>
      <trkpt lat="48.86061" lon="2.35441">
        <ele>108.5</ele>
        <time>2015-03-02T19:25:49.591Z</time>
      </trkpt>
      <trkpt lat="48.86061" lon="2.35448">
        <ele>108.7</ele>
        <time>2015-03-02T19:25:50.638Z</time>
      </trkpt>
      <trkpt lat="48.86062" lon="2.35456">
        <ele>110.2</ele>
        <time>2015-03-02T19:25:51.642Z</time>
      </trkpt>
      <trkpt lat="48.86063" lon="2.35464">
        <ele>112.2</ele>
        <time>2015-03-02T19:25:52.670Z</time>
      </trkpt>
      <trkpt lat="48.86066" lon="2.35472">
        <ele>107.9</ele>
        <time>2015-03-02T19:25:53.605Z</time>
      </trkpt>
      <trkpt lat="48.86065" lon="2.3548">
        <ele>110.2</ele>
        <time>2015-03-02T19:25:54.609Z</time>
      </trkpt>
      <trkpt lat="48.86062" lon="2.35488">
        <ele>112.5</ele>
        <time>2015-03-02T19:25:55.615Z</time>
      </trkpt>
      <trkpt lat="48.86059" lon="2.35496">
        <ele>113.7</ele>
        <time>2015-03-02T19:25:56.622Z</time>
      </trkpt>
      <trkpt lat="48.86056" lon="2.35502">
        <ele>113.3</ele>
        <time>2015-03-02T19:25:57.659Z</time>
      </trkpt>
      <trkpt lat="48.86051" lon="2.35512">
        <ele>112.4</ele>
        <time>2015-03-02T19:25:59.603Z</time>
      </trkpt>
      <trkpt lat="48.86048" lon="2.35518">
        <ele>111.9</ele>
        <time>2015-03-02T19:26:00.674Z</time>
      </trkpt>
      <trkpt lat="48.86045" lon="2.35524">
        <ele>111.4</ele>
        <time>2015-03-02T19:26:01.586Z</time>
      </trkpt>
      <trkpt lat="48.86043" lon="2.35532">
        <ele>110.8</ele>
        <time>2015-03-02T19:26:02.690Z</time>
      </trkpt>
      <trkpt lat="48.86041" lon="2.35539">
        <ele>110.8</ele>
        <time>2015-03-02T19:26:03.611Z</time>
      </trkpt>
      <trkpt lat="48.8604" lon="2.35546">
        <ele>110.5</ele>
        <time>2015-03-02T19:26:04.620Z</time>
      </trkpt>
      <trkpt lat="48.86038" lon="2.35555">
        <ele>109.3</ele>
        <time>2015-03-02T19:26:05.637Z</time>
      </trkpt>
      <trkpt lat="48.86036" lon="2.35563">
        <ele>108.1</ele>
        <time>2015-03-02T19:26:06.641Z</time>
      </trkpt>
      <trkpt lat="48.86034" lon="2.35575">
        <ele>107.1</ele>
        <time>2015-03-02T19:26:07.655Z</time>
      </trkpt>
      <trkpt lat="48.86032" lon="2.35587">
        <ele>106.7</ele>
        <time>2015-03-02T19:26:09.602Z</time>
      </trkpt>
      <trkpt lat="48.86029" lon="2.35594">
        <ele>106.6</ele>
        <time>2015-03-02T19:26:10.553Z</time>
      </trkpt>
      <trkpt lat="48.86027" lon="2.35601">
        <ele>106.3</ele>
        <time>2015-03-02T19:26:11.559Z</time>
      </trkpt>
      <trkpt lat="48.86023" lon="2.3561">
        <ele>105.1</ele>
        <time>2015-03-02T19:26:12.583Z</time>
      </trkpt>
      <trkpt lat="48.86021" lon="2.35618">
        <ele>104.4</ele>
        <time>2015-03-02T19:26:13.605Z</time>
      </trkpt>
      <trkpt lat="48.86018" lon="2.35625">
        <ele>103.7</ele>
        <time>2015-03-02T19:26:14.615Z</time>
      </trkpt>
      <trkpt lat="48.86015" lon="2.35631">
        <ele>103.1</ele>
        <time>2015-03-02T19:26:15.622Z</time>
      </trkpt>
      <trkpt lat="48.8601" lon="2.35639">
        <ele>102.4</ele>
        <time>2015-03-02T19:26:16.563Z</time>
      </trkpt>
      <trkpt lat="48.86007" lon="2.35646">
        <ele>102.5</ele>
        <time>2015-03-02T19:26:17.579Z</time>
      </trkpt>
      <trkpt lat="48.86005" lon="2.35652">
        <ele>101.8</ele>
        <time>2015-03-02T19:26:18.621Z</time>
      </trkpt>
      <trkpt lat="48.86006" lon="2.35661">
        <ele>97.4</ele>
        <time>2015-03-02T19:26:19.630Z</time>
      </trkpt>
      <trkpt lat="48.86005" lon="2.35673">
        <ele>91.7</ele>
        <time>2015-03-02T19:26:21.615Z</time>
      </trkpt>
      <trkpt lat="48.86003" lon="2.35677">
        <ele>90.8</ele>
        <time>2015-03-02T19:26:22.625Z</time>
      </trkpt>
      <trkpt lat="48.86" lon="2.35685">
        <ele>91.7</ele>
        <time>2015-03-02T19:26:24.934Z</time>
      </trkpt>
      <trkpt lat="48.85998" lon="2.3569">
        <ele>92</ele>
        <time>2015-03-02T19:26:25.657Z</time>
      </trkpt>
      <trkpt lat="48.85993" lon="2.35699">
        <ele>92.6</ele>
        <time>2015-03-02T19:26:27.610Z</time>
      </trkpt>
      <trkpt lat="48.85991" lon="2.35703">
        <ele>91.9</ele>
        <time>2015-03-02T19:26:28.633Z</time>
      </trkpt>
      <trkpt lat="48.85985" lon="2.35711">
        <ele>89.6</ele>
        <time>2015-03-02T19:26:30.818Z</time>
      </trkpt>
      <trkpt lat="48.85983" lon="2.35715">
        <ele>90.2</ele>
        <time>2015-03-02T19:26:31.778Z</time>
      </trkpt>
      <trkpt lat="48.85977" lon="2.35723">
        <ele>88.8</ele>
        <time>2015-03-02T19:26:33.677Z</time>
      </trkpt>
      <trkpt lat="48.85974" lon="2.35728">
        <ele>89.4</ele>
        <time>2015-03-02T19:26:34.599Z</time>
      </trkpt>
      <trkpt lat="48.85967" lon="2.35732">
        <ele>91.6</ele>
        <time>2015-03-02T19:26:36.574Z</time>
      </trkpt>
      <trkpt lat="48.85964" lon="2.35732">
        <ele>92.7</ele>
        <time>2015-03-02T19:26:37.575Z</time>
      </trkpt>
      <trkpt lat="48.85911" lon="2.35785">
        <ele>88.4</ele>
        <time>2015-03-02T19:26:53.567Z</time>
      </trkpt>
      <trkpt lat="48.85909" lon="2.35795">
        <ele>88.9</ele>
        <time>2015-03-02T19:26:54.578Z</time>
      </trkpt>
      <trkpt lat="48.85907" lon="2.35807">
        <ele>89.7</ele>
        <time>2015-03-02T19:26:55.586Z</time>
      </trkpt>
      <trkpt lat="48.85905" lon="2.35819">
        <ele>90.4</ele>
        <time>2015-03-02T19:26:56.602Z</time>
      </trkpt>
      <trkpt lat="48.85903" lon="2.35829">
        <ele>90.9</ele>
        <time>2015-03-02T19:26:57.607Z</time>
      </trkpt>
      <trkpt lat="48.85901" lon="2.35837">
        <ele>91.4</ele>
        <time>2015-03-02T19:26:58.571Z</time>
      </trkpt>
      <trkpt lat="48.859" lon="2.35846">
        <ele>92.2</ele>
        <time>2015-03-02T19:26:59.582Z</time>
      </trkpt>
      <trkpt lat="48.85894" lon="2.35857">
        <ele>93.1</ele>
        <time>2015-03-02T19:27:01.613Z</time>
      </trkpt>
      <trkpt lat="48.85889" lon="2.35861">
        <ele>92.5</ele>
        <time>2015-03-02T19:27:02.619Z</time>
      </trkpt>
      <trkpt lat="48.85885" lon="2.35866">
        <ele>93</ele>
        <time>2015-03-02T19:27:03.623Z</time>
      </trkpt>
      <trkpt lat="48.85879" lon="2.35874">
        <ele>93.2</ele>
        <time>2015-03-02T19:27:05.612Z</time>
      </trkpt>
      <trkpt lat="48.85873" lon="2.35883">
        <ele>92.1</ele>
        <time>2015-03-02T19:27:07.690Z</time>
      </trkpt>
      <trkpt lat="48.85869" lon="2.35889">
        <ele>93</ele>
        <time>2015-03-02T19:27:08.664Z</time>
      </trkpt>
      <trkpt lat="48.85866" lon="2.35894">
        <ele>93.3</ele>
        <time>2015-03-02T19:27:09.602Z</time>
      </trkpt>
      <trkpt lat="48.85863" lon="2.35899">
        <ele>93.4</ele>
        <time>2015-03-02T19:27:10.599Z</time>
      </trkpt>
      <trkpt lat="48.85856" lon="2.35908">
        <ele>92.8</ele>
        <time>2015-03-02T19:27:12.630Z</time>
      </trkpt>
      <trkpt lat="48.85853" lon="2.35912">
        <ele>92.7</ele>
        <time>2015-03-02T19:27:13.642Z</time>
      </trkpt>
      <trkpt lat="48.85847" lon="2.35921">
        <ele>92.4</ele>
        <time>2015-03-02T19:27:15.582Z</time>
      </trkpt>
      <trkpt lat="48.85843" lon="2.35924">
        <ele>91.1</ele>
        <time>2015-03-02T19:27:16.655Z</time>
      </trkpt>
      <trkpt lat="48.85836" lon="2.3593">
        <ele>90.5</ele>
        <time>2015-03-02T19:27:18.577Z</time>
      </trkpt>
      <trkpt lat="48.85834" lon="2.35935">
        <ele>90.5</ele>
        <time>2015-03-02T19:27:19.590Z</time>
      </trkpt>
      <trkpt lat="48.85828" lon="2.35943">
        <ele>90.3</ele>
        <time>2015-03-02T19:27:21.619Z</time>
      </trkpt>
      <trkpt lat="48.85826" lon="2.35948">
        <ele>89.6</ele>
        <time>2015-03-02T19:27:22.623Z</time>
      </trkpt>
      <trkpt lat="48.8582" lon="2.35956">
        <ele>89.8</ele>
        <time>2015-03-02T19:27:24.653Z</time>
      </trkpt>
      <trkpt lat="48.85818" lon="2.35961">
        <ele>89.7</ele>
        <time>2015-03-02T19:27:25.594Z</time>
      </trkpt>
      <trkpt lat="48.85813" lon="2.35972">
        <ele>93.5</ele>
        <time>2015-03-02T19:27:27.630Z</time>
      </trkpt>
      <trkpt lat="48.8581" lon="2.35976">
        <ele>95.6</ele>
        <time>2015-03-02T19:27:28.643Z</time>
      </trkpt>
      <trkpt lat="48.85804" lon="2.35983">
        <ele>97.2</ele>
        <time>2015-03-02T19:27:30.576Z</time>
      </trkpt>
      <trkpt lat="48.85801" lon="2.35987">
        <ele>98.6</ele>
        <time>2015-03-02T19:27:31.587Z</time>
      </trkpt>
      <trkpt lat="48.85798" lon="2.35998">
        <ele>97.3</ele>
        <time>2015-03-02T19:27:35.652Z</time>
      </trkpt>
      <trkpt lat="48.85797" lon="2.36004">
        <ele>98.4</ele>
        <time>2015-03-02T19:27:36.609Z</time>
      </trkpt>
      <trkpt lat="48.85794" lon="2.36012">
        <ele>98.6</ele>
        <time>2015-03-02T19:27:38.635Z</time>
      </trkpt>
      <trkpt lat="48.85791" lon="2.36015">
        <ele>98.7</ele>
        <time>2015-03-02T19:27:39.635Z</time>
      </trkpt>
      <trkpt lat="48.85786" lon="2.36022">
        <ele>100</ele>
        <time>2015-03-02T19:27:41.667Z</time>
      </trkpt>
      <trkpt lat="48.85784" lon="2.36027">
        <ele>100.7</ele>
        <time>2015-03-02T19:27:42.710Z</time>
      </trkpt>
      <trkpt lat="48.8578" lon="2.36037">
        <ele>100.5</ele>
        <time>2015-03-02T19:27:44.632Z</time>
      </trkpt>
      <trkpt lat="48.85778" lon="2.36043">
        <ele>100.1</ele>
        <time>2015-03-02T19:27:45.639Z</time>
      </trkpt>
      <trkpt lat="48.85774" lon="2.36054">
        <ele>99.7</ele>
        <time>2015-03-02T19:27:47.598Z</time>
      </trkpt>
      <trkpt lat="48.85772" lon="2.36058">
        <ele>99.8</ele>
        <time>2015-03-02T19:27:48.600Z</time>
      </trkpt>
      <trkpt lat="48.85768" lon="2.36066">
        <ele>99.7</ele>
        <time>2015-03-02T19:27:50.650Z</time>
      </trkpt>
      <trkpt lat="48.85766" lon="2.36069">
        <ele>99.1</ele>
        <time>2015-03-02T19:27:51.619Z</time>
      </trkpt>
      <trkpt lat="48.85761" lon="2.36076">
        <ele>97.8</ele>
        <time>2015-03-02T19:27:53.733Z</time>
      </trkpt>
      <trkpt lat="48.85759" lon="2.36081">
        <ele>98</ele>
        <time>2015-03-02T19:27:54.604Z</time>
      </trkpt>
      <trkpt lat="48.85755" lon="2.36092">
        <ele>98.1</ele>
        <time>2015-03-02T19:27:56.640Z</time>
      </trkpt>
      <trkpt lat="48.85754" lon="2.36098">
        <ele>97.8</ele>
        <time>2015-03-02T19:27:57.653Z</time>
      </trkpt>
      <trkpt lat="48.85749" lon="2.36108">
        <ele>97.7</ele>
        <time>2015-03-02T19:27:59.584Z</time>
      </trkpt>
      <trkpt lat="48.85746" lon="2.36112">
        <ele>97.6</ele>
        <time>2015-03-02T19:28:00.636Z</time>
      </trkpt>
      <trkpt lat="48.85739" lon="2.36121">
        <ele>97.2</ele>
        <time>2015-03-02T19:28:02.659Z</time>
      </trkpt>
      <trkpt lat="48.85736" lon="2.36125">
        <ele>97</ele>
        <time>2015-03-02T19:28:03.678Z</time>
      </trkpt>
      <trkpt lat="48.85733" lon="2.3613">
        <ele>96.6</ele>
        <time>2015-03-02T19:28:04.575Z</time>
      </trkpt>
      <trkpt lat="48.85729" lon="2.36134">
        <ele>96.3</ele>
        <time>2015-03-02T19:28:05.570Z</time>
      </trkpt>
      <trkpt lat="48.85726" lon="2.3614">
        <ele>96.2</ele>
        <time>2015-03-02T19:28:06.588Z</time>
      </trkpt>
      <trkpt lat="48.85726" lon="2.36148">
        <ele>93.5</ele>
        <time>2015-03-02T19:28:07.601Z</time>
      </trkpt>
      <trkpt lat="48.85724" lon="2.36161">
        <ele>92.3</ele>
        <time>2015-03-02T19:28:09.589Z</time>
      </trkpt>
      <trkpt lat="48.85722" lon="2.36166">
        <ele>92.6</ele>
        <time>2015-03-02T19:28:10.665Z</time>
      </trkpt>
      <trkpt lat="48.85719" lon="2.36178">
        <ele>92.9</ele>
        <time>2015-03-02T19:28:12.579Z</time>
      </trkpt>
      <trkpt lat="48.85716" lon="2.36184">
        <ele>93.4</ele>
        <time>2015-03-02T19:28:13.592Z</time>
      </trkpt>
      <trkpt lat="48.85713" lon="2.36189">
        <ele>93.3</ele>
        <time>2015-03-02T19:28:14.624Z</time>
      </trkpt>
      <trkpt lat="48.8571" lon="2.36196">
        <ele>93</ele>
        <time>2015-03-02T19:28:15.628Z</time>
      </trkpt>
      <trkpt lat="48.85707" lon="2.36202">
        <ele>93</ele>
        <time>2015-03-02T19:28:16.734Z</time>
      </trkpt>
      <trkpt lat="48.85704" lon="2.36207">
        <ele>93.1</ele>
        <time>2015-03-02T19:28:17.572Z</time>
      </trkpt>
      <trkpt lat="48.85701" lon="2.36218">
        <ele>93.1</ele>
        <time>2015-03-02T19:28:19.615Z</time>
      </trkpt>
      <trkpt lat="48.857" lon="2.36225">
        <ele>93.1</ele>
        <time>2015-03-02T19:28:20.631Z</time>
      </trkpt>
      <trkpt lat="48.85698" lon="2.36232">
        <ele>93</ele>
        <time>2015-03-02T19:28:21.651Z</time>
      </trkpt>
      <trkpt lat="48.85695" lon="2.36243">
        <ele>92.8</ele>
        <time>2015-03-02T19:28:23.628Z</time>
      </trkpt>
      <trkpt lat="48.8569" lon="2.36252">
        <ele>92.9</ele>
        <time>2015-03-02T19:28:25.753Z</time>
      </trkpt>
      <trkpt lat="48.85689" lon="2.36256">
        <ele>92.9</ele>
        <time>2015-03-02T19:28:26.605Z</time>
      </trkpt>
      <trkpt lat="48.85685" lon="2.36267">
        <ele>94.3</ele>
        <time>2015-03-02T19:28:29.648Z</time>
      </trkpt>
      <trkpt lat="48.85684" lon="2.3627">
        <ele>94.5</ele>
        <time>2015-03-02T19:28:30.729Z</time>
      </trkpt>
      <trkpt lat="48.85683" lon="2.36283">
        <ele>94</ele>
        <time>2015-03-02T19:28:33.625Z</time>
      </trkpt>
      <trkpt lat="48.85682" lon="2.36288">
        <ele>93.7</ele>
        <time>2015-03-02T19:28:34.647Z</time>
      </trkpt>
      <trkpt lat="48.85679" lon="2.36297">
        <ele>93.5</ele>
        <time>2015-03-02T19:28:36.589Z</time>
      </trkpt>
      <trkpt lat="48.85677" lon="2.36302">
        <ele>93.5</ele>
        <time>2015-03-02T19:28:37.598Z</time>
      </trkpt>
      <trkpt lat="48.85675" lon="2.36314">
        <ele>93.3</ele>
        <time>2015-03-02T19:28:39.623Z</time>
      </trkpt>
      <trkpt lat="48.85674" lon="2.3632">
        <ele>93.3</ele>
        <time>2015-03-02T19:28:40.629Z</time>
      </trkpt>
      <trkpt lat="48.85671" lon="2.36332">
        <ele>92.5</ele>
        <time>2015-03-02T19:28:42.572Z</time>
      </trkpt>
      <trkpt lat="48.85669" lon="2.36338">
        <ele>92.5</ele>
        <time>2015-03-02T19:28:43.575Z</time>
      </trkpt>
      <trkpt lat="48.85667" lon="2.3635">
        <ele>92.3</ele>
        <time>2015-03-02T19:28:45.620Z</time>
      </trkpt>
      <trkpt lat="48.85667" lon="2.36358">
        <ele>91.5</ele>
        <time>2015-03-02T19:28:46.636Z</time>
      </trkpt>
      <trkpt lat="48.85664" lon="2.3637">
        <ele>91.5</ele>
        <time>2015-03-02T19:28:48.571Z</time>
      </trkpt>
      <trkpt lat="48.85664" lon="2.36375">
        <ele>91.3</ele>
        <time>2015-03-02T19:28:49.590Z</time>
      </trkpt>
      <trkpt lat="48.85663" lon="2.36386">
        <ele>90.6</ele>
        <time>2015-03-02T19:28:51.643Z</time>
      </trkpt>
      <trkpt lat="48.85661" lon="2.3639">
        <ele>90.2</ele>
        <time>2015-03-02T19:28:52.664Z</time>
      </trkpt>
      <trkpt lat="48.8566" lon="2.36402">
        <ele>88.9</ele>
        <time>2015-03-02T19:28:55.604Z</time>
      </trkpt>
      <trkpt lat="48.8566" lon="2.36406">
        <ele>89</ele>
        <time>2015-03-02T19:28:56.638Z</time>
      </trkpt>
      <trkpt lat="48.85656" lon="2.36418">
        <ele>96.3</ele>
        <time>2015-03-02T19:29:00.726Z</time>
      </trkpt>
      <trkpt lat="48.85655" lon="2.36421">
        <ele>97.6</ele>
        <time>2015-03-02T19:29:01.602Z</time>
      </trkpt>
      <trkpt lat="48.85652" lon="2.36426">
        <ele>95.9</ele>
        <time>2015-03-02T19:29:02.628Z</time>
      </trkpt>
      <trkpt lat="48.85649" lon="2.36432">
        <ele>93.9</ele>
        <time>2015-03-02T19:29:03.653Z</time>
      </trkpt>
      <trkpt lat="48.85646" lon="2.36437">
        <ele>92.1</ele>
        <time>2015-03-02T19:29:04.663Z</time>
      </trkpt>
      <trkpt lat="48.85642" lon="2.36444">
        <ele>90.8</ele>
        <time>2015-03-02T19:29:05.685Z</time>
      </trkpt>
      <trkpt lat="48.85639" lon="2.36451">
        <ele>90.1</ele>
        <time>2015-03-02T19:29:06.574Z</time>
      </trkpt>
      <trkpt lat="48.85637" lon="2.36458">
        <ele>89.5</ele>
        <time>2015-03-02T19:29:07.576Z</time>
      </trkpt>
      <trkpt lat="48.85635" lon="2.36464">
        <ele>89.3</ele>
        <time>2015-03-02T19:29:08.623Z</time>
      </trkpt>
      <trkpt lat="48.85633" lon="2.3647">
        <ele>89.4</ele>
        <time>2015-03-02T19:29:09.726Z</time>
      </trkpt>
      <trkpt lat="48.85631" lon="2.36482">
        <ele>89.6</ele>
        <time>2015-03-02T19:29:11.590Z</time>
      </trkpt>
      <trkpt lat="48.8563" lon="2.36489">
        <ele>88.5</ele>
        <time>2015-03-02T19:29:12.601Z</time>
      </trkpt>
      <trkpt lat="48.85629" lon="2.36496">
        <ele>87.9</ele>
        <time>2015-03-02T19:29:13.634Z</time>
      </trkpt>
      <trkpt lat="48.85628" lon="2.36503">
        <ele>87.7</ele>
        <time>2015-03-02T19:29:14.649Z</time>
      </trkpt>
      <trkpt lat="48.85627" lon="2.3651">
        <ele>87.9</ele>
        <time>2015-03-02T19:29:15.575Z</time>
      </trkpt>
      <trkpt lat="48.85625" lon="2.36517">
        <ele>88</ele>
        <time>2015-03-02T19:29:16.575Z</time>
      </trkpt>
      <trkpt lat="48.85625" lon="2.36524">
        <ele>88.3</ele>
        <time>2015-03-02T19:29:17.615Z</time>
      </trkpt>
      <trkpt lat="48.85624" lon="2.36531">
        <ele>88.6</ele>
        <time>2015-03-02T19:29:18.631Z</time>
      </trkpt>
      <trkpt lat="48.85623" lon="2.36538">
        <ele>88.6</ele>
        <time>2015-03-02T19:29:19.647Z</time>
      </trkpt>
      <trkpt lat="48.85622" lon="2.36546">
        <ele>88.4</ele>
        <time>2015-03-02T19:29:20.658Z</time>
      </trkpt>
      <trkpt lat="48.85621" lon="2.36553">
        <ele>87</ele>
        <time>2015-03-02T19:29:21.573Z</time>
      </trkpt>
      <trkpt lat="48.8562" lon="2.3656">
        <ele>86.7</ele>
        <time>2015-03-02T19:29:22.579Z</time>
      </trkpt>
      <trkpt lat="48.8562" lon="2.36566">
        <ele>86.4</ele>
        <time>2015-03-02T19:29:23.588Z</time>
      </trkpt>
      <trkpt lat="48.85619" lon="2.36574">
        <ele>86</ele>
        <time>2015-03-02T19:29:24.597Z</time>
      </trkpt>
      <trkpt lat="48.85617" lon="2.36587">
        <ele>85.9</ele>
        <time>2015-03-02T19:29:26.616Z</time>
      </trkpt>
      <trkpt lat="48.85616" lon="2.36594">
        <ele>85.9</ele>
        <time>2015-03-02T19:29:27.615Z</time>
      </trkpt>
      <trkpt lat="48.85615" lon="2.36601">
        <ele>86.1</ele>
        <time>2015-03-02T19:29:28.630Z</time>
      </trkpt>
      <trkpt lat="48.85614" lon="2.36608">
        <ele>86.2</ele>
        <time>2015-03-02T19:29:29.635Z</time>
      </trkpt>
      <trkpt lat="48.85612" lon="2.36615">
        <ele>86.2</ele>
        <time>2015-03-02T19:29:30.642Z</time>
      </trkpt>
      <trkpt lat="48.85611" lon="2.36621">
        <ele>86.3</ele>
        <time>2015-03-02T19:29:31.654Z</time>
      </trkpt>
      <trkpt lat="48.8561" lon="2.36628">
        <ele>86.4</ele>
        <time>2015-03-02T19:29:33.713Z</time>
      </trkpt>
      <trkpt lat="48.85609" lon="2.36635">
        <ele>86.5</ele>
        <time>2015-03-02T19:29:33.750Z</time>
      </trkpt>
      <trkpt lat="48.85607" lon="2.36646">
        <ele>87.3</ele>
        <time>2015-03-02T19:29:35.943Z</time>
      </trkpt>
      <trkpt lat="48.85606" lon="2.36651">
        <ele>87.4</ele>
        <time>2015-03-02T19:29:36.589Z</time>
      </trkpt>
      <trkpt lat="48.85606" lon="2.36661">
        <ele>87.3</ele>
        <time>2015-03-02T19:29:38.779Z</time>
      </trkpt>
      <trkpt lat="48.85605" lon="2.36665">
        <ele>87.5</ele>
        <time>2015-03-02T19:29:39.613Z</time>
      </trkpt>
      <trkpt lat="48.85603" lon="2.36676">
        <ele>87.8</ele>
        <time>2015-03-02T19:29:41.633Z</time>
      </trkpt>
      <trkpt lat="48.85601" lon="2.36682">
        <ele>88.1</ele>
        <time>2015-03-02T19:29:42.631Z</time>
      </trkpt>
      <trkpt lat="48.85598" lon="2.36695">
        <ele>87.9</ele>
        <time>2015-03-02T19:29:44.626Z</time>
      </trkpt>
      <trkpt lat="48.85597" lon="2.36699">
        <ele>87.9</ele>
        <time>2015-03-02T19:29:45.664Z</time>
      </trkpt>
      <trkpt lat="48.85593" lon="2.36708">
        <ele>87.8</ele>
        <time>2015-03-02T19:29:47.566Z</time>
      </trkpt>
      <trkpt lat="48.85592" lon="2.36713">
        <ele>87.4</ele>
        <time>2015-03-02T19:29:48.599Z</time>
      </trkpt>
      <trkpt lat="48.8559" lon="2.36721">
        <ele>86.9</ele>
        <time>2015-03-02T19:29:51.181Z</time>
      </trkpt>
      <trkpt lat="48.85589" lon="2.36726">
        <ele>86.7</ele>
        <time>2015-03-02T19:29:51.599Z</time>
      </trkpt>
      <trkpt lat="48.85588" lon="2.36735">
        <ele>86.5</ele>
        <time>2015-03-02T19:29:53.575Z</time>
      </trkpt>
      <trkpt lat="48.85587" lon="2.36739">
        <ele>86.5</ele>
        <time>2015-03-02T19:29:54.612Z</time>
      </trkpt>
      <trkpt lat="48.85586" lon="2.36752">
        <ele>86.3</ele>
        <time>2015-03-02T19:29:57.841Z</time>
      </trkpt>
      <trkpt lat="48.85585" lon="2.36757">
        <ele>86.2</ele>
        <time>2015-03-02T19:29:58.596Z</time>
      </trkpt>
      <trkpt lat="48.85583" lon="2.36767">
        <ele>86</ele>
        <time>2015-03-02T19:30:00.597Z</time>
      </trkpt>
      <trkpt lat="48.85581" lon="2.36771">
        <ele>85.9</ele>
        <time>2015-03-02T19:30:01.544Z</time>
      </trkpt>
      <trkpt lat="48.8558" lon="2.36779">
        <ele>86</ele>
        <time>2015-03-02T19:30:03.566Z</time>
      </trkpt>
      <trkpt lat="48.85578" lon="2.36783">
        <ele>86</ele>
        <time>2015-03-02T19:30:04.588Z</time>
      </trkpt>
      <trkpt lat="48.85575" lon="2.36792">
        <ele>86.1</ele>
        <time>2015-03-02T19:30:06.619Z</time>
      </trkpt>
      <trkpt lat="48.85573" lon="2.36796">
        <ele>86</ele>
        <time>2015-03-02T19:30:07.625Z</time>
      </trkpt>
      <trkpt lat="48.85571" lon="2.36807">
        <ele>86.2</ele>
        <time>2015-03-02T19:30:10.567Z</time>
      </trkpt>
      <trkpt lat="48.85572" lon="2.36811">
        <ele>86.4</ele>
        <time>2015-03-02T19:30:11.582Z</time>
      </trkpt>
      <trkpt lat="48.85573" lon="2.36824">
        <ele>87.8</ele>
        <time>2015-03-02T19:30:16.553Z</time>
      </trkpt>
      <trkpt lat="48.85574" lon="2.36826">
        <ele>88.2</ele>
        <time>2015-03-02T19:30:17.611Z</time>
      </trkpt>
      <trkpt lat="48.85573" lon="2.36828">
        <ele>88.8</ele>
        <time>2015-03-02T19:30:19.616Z</time>
      </trkpt>
      <trkpt lat="48.85573" lon="2.36829">
        <ele>89.2</ele>
        <time>2015-03-02T19:30:20.640Z</time>
      </trkpt>
      <trkpt lat="48.85573" lon="2.36831">
        <ele>89.6</ele>
        <time>2015-03-02T19:30:21.640Z</time>
      </trkpt>
      <trkpt lat="48.85575" lon="2.36843">
        <ele>91</ele>
        <time>2015-03-02T19:30:26.673Z</time>
      </trkpt>
      <trkpt lat="48.85575" lon="2.36845">
        <ele>91.2</ele>
        <time>2015-03-02T19:30:27.692Z</time>
      </trkpt>
      <trkpt lat="48.85577" lon="2.36857">
        <ele>91.5</ele>
        <time>2015-03-02T19:30:31.656Z</time>
      </trkpt>
      <trkpt lat="48.85577" lon="2.3686">
        <ele>91.6</ele>
        <time>2015-03-02T19:30:32.666Z</time>
      </trkpt>
      <trkpt lat="48.85579" lon="2.36873">
        <ele>93.3</ele>
        <time>2015-03-02T19:30:36.620Z</time>
      </trkpt>
      <trkpt lat="48.8558" lon="2.36877">
        <ele>93.3</ele>
        <time>2015-03-02T19:30:37.657Z</time>
      </trkpt>
      <trkpt lat="48.85582" lon="2.36888">
        <ele>93.3</ele>
        <time>2015-03-02T19:30:40.619Z</time>
      </trkpt>
      <trkpt lat="48.85582" lon="2.36892">
        <ele>93.7</ele>
        <time>2015-03-02T19:30:41.630Z</time>
      </trkpt>
      <trkpt lat="48.85584" lon="2.36904">
        <ele>94.9</ele>
        <time>2015-03-02T19:30:44.627Z</time>
      </trkpt>
      <trkpt lat="48.85585" lon="2.36909">
        <ele>95.3</ele>
        <time>2015-03-02T19:30:45.639Z</time>
      </trkpt>
      <trkpt lat="48.85584" lon="2.36919">
        <ele>96.1</ele>
        <time>2015-03-02T19:30:49.318Z</time>
      </trkpt>
      <trkpt lat="48.85582" lon="2.36923">
        <ele>96.7</ele>
        <time>2015-03-02T19:30:49.596Z</time>
      </trkpt>
      <trkpt lat="48.85576" lon="2.36929">
        <ele>96.9</ele>
        <time>2015-03-02T19:30:51.632Z</time>
      </trkpt>
      <trkpt lat="48.85573" lon="2.36933">
        <ele>96.9</ele>
        <time>2015-03-02T19:30:52.682Z</time>
      </trkpt>
      <trkpt lat="48.85569" lon="2.36939">
        <ele>97</ele>
        <time>2015-03-02T19:30:54.624Z</time>
      </trkpt>
      <trkpt lat="48.85567" lon="2.36942">
        <ele>96.8</ele>
        <time>2015-03-02T19:30:55.629Z</time>
      </trkpt>
      <trkpt lat="48.85563" lon="2.36951">
        <ele>96.5</ele>
        <time>2015-03-02T19:30:58.013Z</time>
      </trkpt>
      <trkpt lat="48.85561" lon="2.36954">
        <ele>96.5</ele>
        <time>2015-03-02T19:30:58.675Z</time>
      </trkpt>
      <trkpt lat="48.85556" lon="2.36964">
        <ele>96.2</ele>
        <time>2015-03-02T19:31:01.619Z</time>
      </trkpt>
      <trkpt lat="48.85555" lon="2.36967">
        <ele>96</ele>
        <time>2015-03-02T19:31:02.646Z</time>
      </trkpt>
      <trkpt lat="48.85552" lon="2.36978">
        <ele>93.6</ele>
        <time>2015-03-02T19:31:06.590Z</time>
      </trkpt>
      <trkpt lat="48.85553" lon="2.36983">
        <ele>92.7</ele>
        <time>2015-03-02T19:31:07.591Z</time>
      </trkpt>
      <trkpt lat="48.85554" lon="2.36995">
        <ele>90.6</ele>
        <time>2015-03-02T19:31:10.641Z</time>
      </trkpt>
      <trkpt lat="48.85554" lon="2.36998">
        <ele>90.5</ele>
        <time>2015-03-02T19:31:11.806Z</time>
      </trkpt>
      <trkpt lat="48.85555" lon="2.37012">
        <ele>91</ele>
        <time>2015-03-02T19:31:15.628Z</time>
      </trkpt>
      <trkpt lat="48.85556" lon="2.37013">
        <ele>91</ele>
        <time>2015-03-02T19:31:16.650Z</time>
      </trkpt>
      <trkpt lat="48.85562" lon="2.37019">
        <ele>92.3</ele>
        <time>2015-03-02T19:31:19.599Z</time>
      </trkpt>
      <trkpt lat="48.85564" lon="2.3702">
        <ele>92.5</ele>
        <time>2015-03-02T19:31:20.628Z</time>
      </trkpt>
      <trkpt lat="48.8557" lon="2.37025">
        <ele>92.8</ele>
        <time>2015-03-02T19:31:23.603Z</time>
      </trkpt>
      <trkpt lat="48.85572" lon="2.37026">
        <ele>92.8</ele>
        <time>2015-03-02T19:31:24.615Z</time>
      </trkpt>
      <trkpt lat="48.8558" lon="2.3703">
        <ele>92.8</ele>
        <time>2015-03-02T19:31:28.627Z</time>
      </trkpt>
      <trkpt lat="48.85582" lon="2.37031">
        <ele>92.8</ele>
        <time>2015-03-02T19:31:28.691Z</time>
      </trkpt>
      <trkpt lat="48.8559" lon="2.37036">
        <ele>92.7</ele>
        <time>2015-03-02T19:31:31.626Z</time>
      </trkpt>
      <trkpt lat="48.85593" lon="2.37037">
        <ele>93.1</ele>
        <time>2015-03-02T19:31:32.638Z</time>
      </trkpt>
      <trkpt lat="48.85599" lon="2.37039">
        <ele>93.9</ele>
        <time>2015-03-02T19:31:34.696Z</time>
      </trkpt>
      <trkpt lat="48.85602" lon="2.37041">
        <ele>94.1</ele>
        <time>2015-03-02T19:31:35.620Z</time>
      </trkpt>
      <trkpt lat="48.85608" lon="2.37044">
        <ele>91.7</ele>
        <time>2015-03-02T19:31:36.663Z</time>
      </trkpt>
      <trkpt lat="48.85613" lon="2.37046">
        <ele>89.8</ele>
        <time>2015-03-02T19:31:37.669Z</time>
      </trkpt>
      <trkpt lat="48.8562" lon="2.37052">
        <ele>89.9</ele>
        <time>2015-03-02T19:31:39.590Z</time>
      </trkpt>
      <trkpt lat="48.85622" lon="2.37056">
        <ele>90.1</ele>
        <time>2015-03-02T19:31:40.650Z</time>
      </trkpt>
      <trkpt lat="48.85626" lon="2.37065">
        <ele>90.4</ele>
        <time>2015-03-02T19:31:43.814Z</time>
      </trkpt>
      <trkpt lat="48.85629" lon="2.37067">
        <ele>90.7</ele>
        <time>2015-03-02T19:31:44.659Z</time>
      </trkpt>
      <trkpt lat="48.85637" lon="2.37071">
        <ele>91.9</ele>
        <time>2015-03-02T19:31:48.879Z</time>
      </trkpt>
      <trkpt lat="48.85638" lon="2.37071">
        <ele>92.1</ele>
        <time>2015-03-02T19:31:49.674Z</time>
      </trkpt>
      <trkpt lat="48.85645" lon="2.37077">
        <ele>93.9</ele>
        <time>2015-03-02T19:31:53.649Z</time>
      </trkpt>
      <trkpt lat="48.85647" lon="2.37079">
        <ele>94.1</ele>
        <time>2015-03-02T19:31:54.657Z</time>
      </trkpt>
      <trkpt lat="48.85651" lon="2.37089">
        <ele>95</ele>
        <time>2015-03-02T19:31:58.588Z</time>
      </trkpt>
      <trkpt lat="48.85653" lon="2.37092">
        <ele>95.2</ele>
        <time>2015-03-02T19:31:59.590Z</time>
      </trkpt>
      <trkpt lat="48.85658" lon="2.37101">
        <ele>96.3</ele>
        <time>2015-03-02T19:32:03.667Z</time>
      </trkpt>
      <trkpt lat="48.85658" lon="2.37105">
        <ele>96.5</ele>
        <time>2015-03-02T19:32:04.595Z</time>
      </trkpt>
      <trkpt lat="48.85663" lon="2.37114">
        <ele>97</ele>
        <time>2015-03-02T19:32:07.870Z</time>
      </trkpt>
      <trkpt lat="48.85666" lon="2.37116">
        <ele>97.2</ele>
        <time>2015-03-02T19:32:08.660Z</time>
      </trkpt>
      <trkpt lat="48.85671" lon="2.37119">
        <ele>97.7</ele>
        <time>2015-03-02T19:32:10.655Z</time>
      </trkpt>
      <trkpt lat="48.85674" lon="2.37121">
        <ele>98.1</ele>
        <time>2015-03-02T19:32:11.556Z</time>
      </trkpt>
      <trkpt lat="48.85681" lon="2.37126">
        <ele>98.2</ele>
        <time>2015-03-02T19:32:13.621Z</time>
      </trkpt>
      <trkpt lat="48.85684" lon="2.3713">
        <ele>98.6</ele>
        <time>2015-03-02T19:32:14.665Z</time>
      </trkpt>
      <trkpt lat="48.85688" lon="2.37141">
        <ele>98.8</ele>
        <time>2015-03-02T19:32:17.997Z</time>
      </trkpt>
      <trkpt lat="48.85689" lon="2.37144">
        <ele>98.9</ele>
        <time>2015-03-02T19:32:18.605Z</time>
      </trkpt>
      <trkpt lat="48.85695" lon="2.37152">
        <ele>98.9</ele>
        <time>2015-03-02T19:32:21.627Z</time>
      </trkpt>
      <trkpt lat="48.85699" lon="2.37154">
        <ele>98.7</ele>
        <time>2015-03-02T19:32:22.617Z</time>
      </trkpt>
      <trkpt lat="48.85702" lon="2.37156">
        <ele>98.1</ele>
        <time>2015-03-02T19:32:23.636Z</time>
      </trkpt>
      <trkpt lat="48.85708" lon="2.37159">
        <ele>95.6</ele>
        <time>2015-03-02T19:32:24.647Z</time>
      </trkpt>
      <trkpt lat="48.85715" lon="2.37165">
        <ele>93.6</ele>
        <time>2015-03-02T19:32:26.724Z</time>
      </trkpt>
      <trkpt lat="48.85718" lon="2.37167">
        <ele>93.8</ele>
        <time>2015-03-02T19:32:27.698Z</time>
      </trkpt>
      <trkpt lat="48.85723" lon="2.37173">
        <ele>94.5</ele>
        <time>2015-03-02T19:32:29.602Z</time>
      </trkpt>
      <trkpt lat="48.85726" lon="2.37175">
        <ele>94.9</ele>
        <time>2015-03-02T19:32:30.621Z</time>
      </trkpt>
      <trkpt lat="48.85731" lon="2.37181">
        <ele>95.5</ele>
        <time>2015-03-02T19:32:33.216Z</time>
      </trkpt>
      <trkpt lat="48.85734" lon="2.37183">
        <ele>95.7</ele>
        <time>2015-03-02T19:32:33.615Z</time>
      </trkpt>
      <trkpt lat="48.85741" lon="2.37186">
        <ele>97.1</ele>
        <time>2015-03-02T19:32:35.666Z</time>
      </trkpt>
      <trkpt lat="48.85746" lon="2.37185">
        <ele>97.8</ele>
        <time>2015-03-02T19:32:36.681Z</time>
      </trkpt>
      <trkpt lat="48.85751" lon="2.37185">
        <ele>98.3</ele>
        <time>2015-03-02T19:32:38.500Z</time>
      </trkpt>
      <trkpt lat="48.85756" lon="2.37185">
        <ele>98.6</ele>
        <time>2015-03-02T19:32:38.587Z</time>
      </trkpt>
      <trkpt lat="48.85764" lon="2.37186">
        <ele>99</ele>
        <time>2015-03-02T19:32:40.610Z</time>
      </trkpt>
      <trkpt lat="48.85768" lon="2.37188">
        <ele>99.3</ele>
        <time>2015-03-02T19:32:41.774Z</time>
      </trkpt>
      <trkpt lat="48.85777" lon="2.37188">
        <ele>99.7</ele>
        <time>2015-03-02T19:32:43.614Z</time>
      </trkpt>
      <trkpt lat="48.85782" lon="2.37189">
        <ele>99.7</ele>
        <time>2015-03-02T19:32:44.665Z</time>
      </trkpt>
      <trkpt lat="48.85787" lon="2.37189">
        <ele>99.8</ele>
        <time>2015-03-02T19:32:45.625Z</time>
      </trkpt>
      <trkpt lat="48.85792" lon="2.37189">
        <ele>100</ele>
        <time>2015-03-02T19:32:46.631Z</time>
      </trkpt>
      <trkpt lat="48.85798" lon="2.37189">
        <ele>100.1</ele>
        <time>2015-03-02T19:32:47.651Z</time>
      </trkpt>
      <trkpt lat="48.85803" lon="2.37189">
        <ele>100.3</ele>
        <time>2015-03-02T19:32:48.599Z</time>
      </trkpt>
      <trkpt lat="48.8581" lon="2.37192">
        <ele>100.9</ele>
        <time>2015-03-02T19:32:50.678Z</time>
      </trkpt>
      <trkpt lat="48.85813" lon="2.37194">
        <ele>101.2</ele>
        <time>2015-03-02T19:32:51.756Z</time>
      </trkpt>
      <trkpt lat="48.85816" lon="2.37197">
        <ele>101.4</ele>
        <time>2015-03-02T19:32:52.776Z</time>
      </trkpt>
      <trkpt lat="48.85821" lon="2.37201">
        <ele>102.3</ele>
        <time>2015-03-02T19:32:53.607Z</time>
      </trkpt>
      <trkpt lat="48.85826" lon="2.37202">
        <ele>102.6</ele>
        <time>2015-03-02T19:32:54.617Z</time>
      </trkpt>
      <trkpt lat="48.85831" lon="2.37204">
        <ele>102.7</ele>
        <time>2015-03-02T19:32:55.617Z</time>
      </trkpt>
      <trkpt lat="48.85836" lon="2.37205">
        <ele>102.8</ele>
        <time>2015-03-02T19:32:56.637Z</time>
      </trkpt>
      <trkpt lat="48.8584" lon="2.37206">
        <ele>103.2</ele>
        <time>2015-03-02T19:32:57.645Z</time>
      </trkpt>
      <trkpt lat="48.85848" lon="2.3721">
        <ele>103.7</ele>
        <time>2015-03-02T19:32:59.668Z</time>
      </trkpt>
      <trkpt lat="48.85851" lon="2.37213">
        <ele>103.9</ele>
        <time>2015-03-02T19:33:00.562Z</time>
      </trkpt>
      <trkpt lat="48.85859" lon="2.37217">
        <ele>104.2</ele>
        <time>2015-03-02T19:33:03.119Z</time>
      </trkpt>
      <trkpt lat="48.85863" lon="2.37219">
        <ele>104.5</ele>
        <time>2015-03-02T19:33:03.646Z</time>
      </trkpt>
      <trkpt lat="48.85869" lon="2.37221">
        <ele>104.7</ele>
        <time>2015-03-02T19:33:04.659Z</time>
      </trkpt>
      <trkpt lat="48.85875" lon="2.37223">
        <ele>105</ele>
        <time>2015-03-02T19:33:05.672Z</time>
      </trkpt>
      <trkpt lat="48.85881" lon="2.37224">
        <ele>105.2</ele>
        <time>2015-03-02T19:33:06.606Z</time>
      </trkpt>
      <trkpt lat="48.85889" lon="2.37225">
        <ele>105.2</ele>
        <time>2015-03-02T19:33:07.640Z</time>
      </trkpt>
      <trkpt lat="48.85897" lon="2.37227">
        <ele>105.2</ele>
        <time>2015-03-02T19:33:08.657Z</time>
      </trkpt>
      <trkpt lat="48.85904" lon="2.37229">
        <ele>105.2</ele>
        <time>2015-03-02T19:33:09.581Z</time>
      </trkpt>
      <trkpt lat="48.8591" lon="2.37232">
        <ele>105.3</ele>
        <time>2015-03-02T19:33:10.569Z</time>
      </trkpt>
      <trkpt lat="48.85916" lon="2.37234">
        <ele>105.3</ele>
        <time>2015-03-02T19:33:11.571Z</time>
      </trkpt>
      <trkpt lat="48.85921" lon="2.37237">
        <ele>105.5</ele>
        <time>2015-03-02T19:33:13.307Z</time>
      </trkpt>
      <trkpt lat="48.85924" lon="2.3724">
        <ele>105.7</ele>
        <time>2015-03-02T19:33:13.625Z</time>
      </trkpt>
      <trkpt lat="48.85928" lon="2.37243">
        <ele>105.8</ele>
        <time>2015-03-02T19:33:14.716Z</time>
      </trkpt>
      <trkpt lat="48.85933" lon="2.37248">
        <ele>105.9</ele>
        <time>2015-03-02T19:33:15.554Z</time>
      </trkpt>
      <trkpt lat="48.8594" lon="2.37256">
        <ele>106.3</ele>
        <time>2015-03-02T19:33:17.665Z</time>
      </trkpt>
      <trkpt lat="48.85943" lon="2.37258">
        <ele>106.6</ele>
        <time>2015-03-02T19:33:18.579Z</time>
      </trkpt>
      <trkpt lat="48.85946" lon="2.37261">
        <ele>106.5</ele>
        <time>2015-03-02T19:33:19.588Z</time>
      </trkpt>
      <trkpt lat="48.85952" lon="2.37263">
        <ele>106.4</ele>
        <time>2015-03-02T19:33:20.630Z</time>
      </trkpt>
      <trkpt lat="48.85957" lon="2.37266">
        <ele>106.4</ele>
        <time>2015-03-02T19:33:21.647Z</time>
      </trkpt>
      <trkpt lat="48.85962" lon="2.37268">
        <ele>106.2</ele>
        <time>2015-03-02T19:33:22.656Z</time>
      </trkpt>
      <trkpt lat="48.8597" lon="2.37274">
        <ele>105.6</ele>
        <time>2015-03-02T19:33:24.738Z</time>
      </trkpt>
      <trkpt lat="48.85974" lon="2.37276">
        <ele>105.5</ele>
        <time>2015-03-02T19:33:25.599Z</time>
      </trkpt>
      <trkpt lat="48.85979" lon="2.37277">
        <ele>105.5</ele>
        <time>2015-03-02T19:33:26.631Z</time>
      </trkpt>
      <trkpt lat="48.85983" lon="2.37278">
        <ele>105.3</ele>
        <time>2015-03-02T19:33:27.635Z</time>
      </trkpt>
      <trkpt lat="48.85989" lon="2.37277">
        <ele>105.4</ele>
        <time>2015-03-02T19:33:28.738Z</time>
      </trkpt>
      <trkpt lat="48.85995" lon="2.37274">
        <ele>105.5</ele>
        <time>2015-03-02T19:33:29.593Z</time>
      </trkpt>
      <trkpt lat="48.86001" lon="2.37273">
        <ele>105.5</ele>
        <time>2015-03-02T19:33:30.651Z</time>
      </trkpt>
      <trkpt lat="48.86005" lon="2.37273">
        <ele>105.6</ele>
        <time>2015-03-02T19:33:31.664Z</time>
      </trkpt>
      <trkpt lat="48.86014" lon="2.37273">
        <ele>106.4</ele>
        <time>2015-03-02T19:33:33.588Z</time>
      </trkpt>
      <trkpt lat="48.8602" lon="2.37273">
        <ele>106.6</ele>
        <time>2015-03-02T19:33:34.622Z</time>
      </trkpt>
      <trkpt lat="48.86027" lon="2.37273">
        <ele>106.8</ele>
        <time>2015-03-02T19:33:35.653Z</time>
      </trkpt>
      <trkpt lat="48.86034" lon="2.37274">
        <ele>107.1</ele>
        <time>2015-03-02T19:33:36.659Z</time>
      </trkpt>
      <trkpt lat="48.8604" lon="2.37275">
        <ele>107.5</ele>
        <time>2015-03-02T19:33:37.676Z</time>
      </trkpt>
      <trkpt lat="48.86045" lon="2.37276">
        <ele>107.8</ele>
        <time>2015-03-02T19:33:38.698Z</time>
      </trkpt>
      <trkpt lat="48.86052" lon="2.37277">
        <ele>108.2</ele>
        <time>2015-03-02T19:33:39.571Z</time>
      </trkpt>
      <trkpt lat="48.86057" lon="2.37277">
        <ele>108.3</ele>
        <time>2015-03-02T19:33:40.573Z</time>
      </trkpt>
      <trkpt lat="48.86063" lon="2.37278">
        <ele>108.5</ele>
        <time>2015-03-02T19:33:41.579Z</time>
      </trkpt>
      <trkpt lat="48.86069" lon="2.37279">
        <ele>108.6</ele>
        <time>2015-03-02T19:33:42.583Z</time>
      </trkpt>
      <trkpt lat="48.86075" lon="2.3728">
        <ele>108.9</ele>
        <time>2015-03-02T19:33:43.600Z</time>
      </trkpt>
      <trkpt lat="48.8608" lon="2.37281">
        <ele>109.1</ele>
        <time>2015-03-02T19:33:44.620Z</time>
      </trkpt>
      <trkpt lat="48.86085" lon="2.37282">
        <ele>109.4</ele>
        <time>2015-03-02T19:33:45.630Z</time>
      </trkpt>
      <trkpt lat="48.86089" lon="2.37283">
        <ele>109.6</ele>
        <time>2015-03-02T19:33:46.658Z</time>
      </trkpt>
      <trkpt lat="48.86095" lon="2.37284">
        <ele>109.7</ele>
        <time>2015-03-02T19:33:47.655Z</time>
      </trkpt>
      <trkpt lat="48.861" lon="2.37283">
        <ele>109.9</ele>
        <time>2015-03-02T19:33:48.665Z</time>
      </trkpt>
      <trkpt lat="48.86106" lon="2.37283">
        <ele>110.1</ele>
        <time>2015-03-02T19:33:49.579Z</time>
      </trkpt>
      <trkpt lat="48.86111" lon="2.37282">
        <ele>110.3</ele>
        <time>2015-03-02T19:33:50.625Z</time>
      </trkpt>
      <trkpt lat="48.86117" lon="2.37281">
        <ele>110.7</ele>
        <time>2015-03-02T19:33:51.614Z</time>
      </trkpt>
      <trkpt lat="48.86125" lon="2.37278">
        <ele>111.1</ele>
        <time>2015-03-02T19:33:52.622Z</time>
      </trkpt>
      <trkpt lat="48.86133" lon="2.37276">
        <ele>111.4</ele>
        <time>2015-03-02T19:33:53.633Z</time>
      </trkpt>
      <trkpt lat="48.8614" lon="2.37275">
        <ele>111.4</ele>
        <time>2015-03-02T19:33:54.645Z</time>
      </trkpt>
      <trkpt lat="48.86144" lon="2.37274">
        <ele>111.3</ele>
        <time>2015-03-02T19:33:55.653Z</time>
      </trkpt>
      <trkpt lat="48.86149" lon="2.37273">
        <ele>111.3</ele>
        <time>2015-03-02T19:33:56.659Z</time>
      </trkpt>
      <trkpt lat="48.86157" lon="2.3727">
        <ele>111.5</ele>
        <time>2015-03-02T19:33:58.594Z</time>
      </trkpt>
      <trkpt lat="48.8616" lon="2.37268">
        <ele>111.7</ele>
        <time>2015-03-02T19:33:59.603Z</time>
      </trkpt>
      <trkpt lat="48.86168" lon="2.37269">
        <ele>111.9</ele>
        <time>2015-03-02T19:34:02.637Z</time>
      </trkpt>
      <trkpt lat="48.86171" lon="2.37272">
        <ele>111.1</ele>
        <time>2015-03-02T19:34:03.593Z</time>
      </trkpt>
      <trkpt lat="48.86175" lon="2.37278">
        <ele>109.6</ele>
        <time>2015-03-02T19:34:04.614Z</time>
      </trkpt>
      <trkpt lat="48.8618" lon="2.37284">
        <ele>108</ele>
        <time>2015-03-02T19:34:05.627Z</time>
      </trkpt>
      <trkpt lat="48.86185" lon="2.37292">
        <ele>106.8</ele>
        <time>2015-03-02T19:34:07.577Z</time>
      </trkpt>
      <trkpt lat="48.86187" lon="2.37297">
        <ele>106.2</ele>
        <time>2015-03-02T19:34:08.634Z</time>
      </trkpt>
      <trkpt lat="48.86189" lon="2.37307">
        <ele>105.7</ele>
        <time>2015-03-02T19:34:10.576Z</time>
      </trkpt>
      <trkpt lat="48.86187" lon="2.37311">
        <ele>105.6</ele>
        <time>2015-03-02T19:34:11.592Z</time>
      </trkpt>
      <trkpt lat="48.86183" lon="2.37321">
        <ele>105.5</ele>
        <time>2015-03-02T19:34:13.596Z</time>
      </trkpt>
      <trkpt lat="48.8618" lon="2.37326">
        <ele>105.5</ele>
        <time>2015-03-02T19:34:14.628Z</time>
      </trkpt>
      <trkpt lat="48.86176" lon="2.37332">
        <ele>105.3</ele>
        <time>2015-03-02T19:34:15.649Z</time>
      </trkpt>
      <trkpt lat="48.86172" lon="2.37338">
        <ele>105.1</ele>
        <time>2015-03-02T19:34:16.664Z</time>
      </trkpt>
      <trkpt lat="48.86167" lon="2.37348">
        <ele>105</ele>
        <time>2015-03-02T19:34:18.590Z</time>
      </trkpt>
      <trkpt lat="48.86165" lon="2.37354">
        <ele>105</ele>
        <time>2015-03-02T19:34:19.636Z</time>
      </trkpt>
      <trkpt lat="48.86162" lon="2.3736">
        <ele>104.9</ele>
        <time>2015-03-02T19:34:21.231Z</time>
      </trkpt>
      <trkpt lat="48.86159" lon="2.37365">
        <ele>104.9</ele>
        <time>2015-03-02T19:34:21.655Z</time>
      </trkpt>
      <trkpt lat="48.86154" lon="2.37376">
        <ele>104.9</ele>
        <time>2015-03-02T19:34:24.305Z</time>
      </trkpt>
      <trkpt lat="48.86151" lon="2.3738">
        <ele>105</ele>
        <time>2015-03-02T19:34:24.633Z</time>
      </trkpt>
      <trkpt lat="48.86148" lon="2.37385">
        <ele>105</ele>
        <time>2015-03-02T19:34:25.555Z</time>
      </trkpt>
      <trkpt lat="48.86145" lon="2.3739">
        <ele>105</ele>
        <time>2015-03-02T19:34:26.593Z</time>
      </trkpt>
      <trkpt lat="48.86139" lon="2.37401">
        <ele>105.2</ele>
        <time>2015-03-02T19:34:28.656Z</time>
      </trkpt>
      <trkpt lat="48.86136" lon="2.37406">
        <ele>105.2</ele>
        <time>2015-03-02T19:34:29.559Z</time>
      </trkpt>
      <trkpt lat="48.8613" lon="2.37416">
        <ele>105.3</ele>
        <time>2015-03-02T19:34:31.610Z</time>
      </trkpt>
      <trkpt lat="48.86126" lon="2.37421">
        <ele>105.3</ele>
        <time>2015-03-02T19:34:32.659Z</time>
      </trkpt>
      <trkpt lat="48.86123" lon="2.37426">
        <ele>105.3</ele>
        <time>2015-03-02T19:34:34.407Z</time>
      </trkpt>
      <trkpt lat="48.8612" lon="2.3743">
        <ele>105.5</ele>
        <time>2015-03-02T19:34:34.597Z</time>
      </trkpt>
      <trkpt lat="48.86114" lon="2.3744">
        <ele>105.8</ele>
        <time>2015-03-02T19:34:36.633Z</time>
      </trkpt>
      <trkpt lat="48.86111" lon="2.37444">
        <ele>105.7</ele>
        <time>2015-03-02T19:34:37.644Z</time>
      </trkpt>
      <trkpt lat="48.86105" lon="2.37453">
        <ele>105.7</ele>
        <time>2015-03-02T19:34:39.551Z</time>
      </trkpt>
      <trkpt lat="48.86102" lon="2.37457">
        <ele>105.7</ele>
        <time>2015-03-02T19:34:40.615Z</time>
      </trkpt>
      <trkpt lat="48.86096" lon="2.37466">
        <ele>105.9</ele>
        <time>2015-03-02T19:34:42.668Z</time>
      </trkpt>
      <trkpt lat="48.86093" lon="2.3747">
        <ele>106</ele>
        <time>2015-03-02T19:34:43.587Z</time>
      </trkpt>
      <trkpt lat="48.8609" lon="2.37476">
        <ele>105.9</ele>
        <time>2015-03-02T19:34:44.535Z</time>
      </trkpt>
      <trkpt lat="48.86087" lon="2.37482">
        <ele>105.7</ele>
        <time>2015-03-02T19:34:45.620Z</time>
      </trkpt>
      <trkpt lat="48.86083" lon="2.37494">
        <ele>103</ele>
        <time>2015-03-02T19:34:47.704Z</time>
      </trkpt>
      <trkpt lat="48.8608" lon="2.375">
        <ele>102.8</ele>
        <time>2015-03-02T19:34:48.621Z</time>
      </trkpt>
      <trkpt lat="48.86077" lon="2.37506">
        <ele>102.9</ele>
        <time>2015-03-02T19:34:49.637Z</time>
      </trkpt>
      <trkpt lat="48.86073" lon="2.37512">
        <ele>103.3</ele>
        <time>2015-03-02T19:34:50.712Z</time>
      </trkpt>
      <trkpt lat="48.8607" lon="2.37518">
        <ele>103.5</ele>
        <time>2015-03-02T19:34:51.616Z</time>
      </trkpt>
      <trkpt lat="48.86067" lon="2.37524">
        <ele>103.6</ele>
        <time>2015-03-02T19:34:52.624Z</time>
      </trkpt>
      <trkpt lat="48.86063" lon="2.37529">
        <ele>103.6</ele>
        <time>2015-03-02T19:34:53.777Z</time>
      </trkpt>
      <trkpt lat="48.86059" lon="2.37533">
        <ele>103.7</ele>
        <time>2015-03-02T19:34:54.664Z</time>
      </trkpt>
      <trkpt lat="48.86056" lon="2.37538">
        <ele>103.7</ele>
        <time>2015-03-02T19:34:55.584Z</time>
      </trkpt>
      <trkpt lat="48.86053" lon="2.37544">
        <ele>103.8</ele>
        <time>2015-03-02T19:34:56.615Z</time>
      </trkpt>
      <trkpt lat="48.86048" lon="2.37553">
        <ele>103.9</ele>
        <time>2015-03-02T19:34:58.579Z</time>
      </trkpt>
      <trkpt lat="48.86045" lon="2.37557">
        <ele>104</ele>
        <time>2015-03-02T19:34:59.577Z</time>
      </trkpt>
      <trkpt lat="48.86042" lon="2.37562">
        <ele>104.2</ele>
        <time>2015-03-02T19:35:00.595Z</time>
      </trkpt>
      <trkpt lat="48.86039" lon="2.37568">
        <ele>104.2</ele>
        <time>2015-03-02T19:35:01.604Z</time>
      </trkpt>
      <trkpt lat="48.86033" lon="2.37578">
        <ele>104.5</ele>
        <time>2015-03-02T19:35:03.650Z</time>
      </trkpt>
      <trkpt lat="48.8603" lon="2.37584">
        <ele>104.4</ele>
        <time>2015-03-02T19:35:04.666Z</time>
      </trkpt>
      <trkpt lat="48.86027" lon="2.37591">
        <ele>104.1</ele>
        <time>2015-03-02T19:35:05.617Z</time>
      </trkpt>
      <trkpt lat="48.86024" lon="2.37597">
        <ele>104</ele>
        <time>2015-03-02T19:35:06.635Z</time>
      </trkpt>
      <trkpt lat="48.86021" lon="2.37603">
        <ele>104.3</ele>
        <time>2015-03-02T19:35:07.654Z</time>
      </trkpt>
      <trkpt lat="48.86017" lon="2.37609">
        <ele>104.5</ele>
        <time>2015-03-02T19:35:08.664Z</time>
      </trkpt>
      <trkpt lat="48.86014" lon="2.37616">
        <ele>104.9</ele>
        <time>2015-03-02T19:35:09.574Z</time>
      </trkpt>
      <trkpt lat="48.86011" lon="2.37622">
        <ele>105.2</ele>
        <time>2015-03-02T19:35:10.575Z</time>
      </trkpt>
      <trkpt lat="48.86007" lon="2.37627">
        <ele>105.4</ele>
        <time>2015-03-02T19:35:11.581Z</time>
      </trkpt>
      <trkpt lat="48.86003" lon="2.37631">
        <ele>105.6</ele>
        <time>2015-03-02T19:35:12.583Z</time>
      </trkpt>
      <trkpt lat="48.86" lon="2.37635">
        <ele>105.8</ele>
        <time>2015-03-02T19:35:13.598Z</time>
      </trkpt>
      <trkpt lat="48.85996" lon="2.37641">
        <ele>106.1</ele>
        <time>2015-03-02T19:35:14.629Z</time>
      </trkpt>
      <trkpt lat="48.85992" lon="2.37646">
        <ele>106.4</ele>
        <time>2015-03-02T19:35:15.630Z</time>
      </trkpt>
      <trkpt lat="48.85988" lon="2.37651">
        <ele>106.7</ele>
        <time>2015-03-02T19:35:16.650Z</time>
      </trkpt>
      <trkpt lat="48.85985" lon="2.37656">
        <ele>107</ele>
        <time>2015-03-02T19:35:17.662Z</time>
      </trkpt>
      <trkpt lat="48.85981" lon="2.37661">
        <ele>107.3</ele>
        <time>2015-03-02T19:35:18.668Z</time>
      </trkpt>
      <trkpt lat="48.85977" lon="2.37668">
        <ele>107.6</ele>
        <time>2015-03-02T19:35:19.585Z</time>
      </trkpt>
      <trkpt lat="48.85974" lon="2.37674">
        <ele>107.8</ele>
        <time>2015-03-02T19:35:20.625Z</time>
      </trkpt>
      <trkpt lat="48.85971" lon="2.3768">
        <ele>108</ele>
        <time>2015-03-02T19:35:21.579Z</time>
      </trkpt>
      <trkpt lat="48.85967" lon="2.37685">
        <ele>108.1</ele>
        <time>2015-03-02T19:35:22.581Z</time>
      </trkpt>
      <trkpt lat="48.85963" lon="2.3769">
        <ele>108.2</ele>
        <time>2015-03-02T19:35:23.595Z</time>
      </trkpt>
      <trkpt lat="48.8596" lon="2.37694">
        <ele>108.4</ele>
        <time>2015-03-02T19:35:24.614Z</time>
      </trkpt>
      <trkpt lat="48.85956" lon="2.37699">
        <ele>108.7</ele>
        <time>2015-03-02T19:35:25.860Z</time>
      </trkpt>
      <trkpt lat="48.85952" lon="2.37705">
        <ele>109</ele>
        <time>2015-03-02T19:35:26.641Z</time>
      </trkpt>
      <trkpt lat="48.85948" lon="2.3771">
        <ele>109.2</ele>
        <time>2015-03-02T19:35:27.649Z</time>
      </trkpt>
      <trkpt lat="48.85945" lon="2.37715">
        <ele>109.5</ele>
        <time>2015-03-02T19:35:28.659Z</time>
      </trkpt>
      <trkpt lat="48.8594" lon="2.37722">
        <ele>109.7</ele>
        <time>2015-03-02T19:35:29.675Z</time>
      </trkpt>
      <trkpt lat="48.85936" lon="2.37729">
        <ele>109.7</ele>
        <time>2015-03-02T19:35:30.578Z</time>
      </trkpt>
      <trkpt lat="48.85933" lon="2.37735">
        <ele>109.8</ele>
        <time>2015-03-02T19:35:31.617Z</time>
      </trkpt>
      <trkpt lat="48.8593" lon="2.37742">
        <ele>109.9</ele>
        <time>2015-03-02T19:35:32.669Z</time>
      </trkpt>
      <trkpt lat="48.85927" lon="2.37748">
        <ele>110.1</ele>
        <time>2015-03-02T19:35:33.576Z</time>
      </trkpt>
      <trkpt lat="48.85924" lon="2.37754">
        <ele>110.2</ele>
        <time>2015-03-02T19:35:34.581Z</time>
      </trkpt>
      <trkpt lat="48.8592" lon="2.3776">
        <ele>110.2</ele>
        <time>2015-03-02T19:35:35.586Z</time>
      </trkpt>
      <trkpt lat="48.85917" lon="2.37766">
        <ele>110.3</ele>
        <time>2015-03-02T19:35:36.605Z</time>
      </trkpt>
      <trkpt lat="48.85914" lon="2.37773">
        <ele>110.5</ele>
        <time>2015-03-02T19:35:37.621Z</time>
      </trkpt>
      <trkpt lat="48.8591" lon="2.37779">
        <ele>110.6</ele>
        <time>2015-03-02T19:35:38.632Z</time>
      </trkpt>
      <trkpt lat="48.85907" lon="2.37786">
        <ele>110.7</ele>
        <time>2015-03-02T19:35:39.646Z</time>
      </trkpt>
      <trkpt lat="48.85903" lon="2.37791">
        <ele>110.8</ele>
        <time>2015-03-02T19:35:40.651Z</time>
      </trkpt>
      <trkpt lat="48.85899" lon="2.37797">
        <ele>110.9</ele>
        <time>2015-03-02T19:35:41.656Z</time>
      </trkpt>
      <trkpt lat="48.85895" lon="2.37804">
        <ele>111.1</ele>
        <time>2015-03-02T19:35:42.660Z</time>
      </trkpt>
      <trkpt lat="48.85892" lon="2.3781">
        <ele>111.2</ele>
        <time>2015-03-02T19:35:43.670Z</time>
      </trkpt>
      <trkpt lat="48.85889" lon="2.37818">
        <ele>111.4</ele>
        <time>2015-03-02T19:35:44.690Z</time>
      </trkpt>
      <trkpt lat="48.85885" lon="2.37824">
        <ele>111.5</ele>
        <time>2015-03-02T19:35:45.564Z</time>
      </trkpt>
      <trkpt lat="48.85882" lon="2.37831">
        <ele>111.7</ele>
        <time>2015-03-02T19:35:46.610Z</time>
      </trkpt>
      <trkpt lat="48.85878" lon="2.37837">
        <ele>111.9</ele>
        <time>2015-03-02T19:35:47.652Z</time>
      </trkpt>
      <trkpt lat="48.85874" lon="2.37845">
        <ele>112</ele>
        <time>2015-03-02T19:35:48.679Z</time>
      </trkpt>
      <trkpt lat="48.8587" lon="2.37852">
        <ele>112</ele>
        <time>2015-03-02T19:35:49.599Z</time>
      </trkpt>
      <trkpt lat="48.85867" lon="2.37857">
        <ele>112.2</ele>
        <time>2015-03-02T19:35:50.634Z</time>
      </trkpt>
      <trkpt lat="48.85864" lon="2.37863">
        <ele>112.2</ele>
        <time>2015-03-02T19:35:51.641Z</time>
      </trkpt>
      <trkpt lat="48.8586" lon="2.37868">
        <ele>112.1</ele>
        <time>2015-03-02T19:35:52.643Z</time>
      </trkpt>
      <trkpt lat="48.85854" lon="2.37875">
        <ele>110.9</ele>
        <time>2015-03-02T19:35:54.580Z</time>
      </trkpt>
      <trkpt lat="48.8585" lon="2.3788">
        <ele>110.8</ele>
        <time>2015-03-02T19:35:55.595Z</time>
      </trkpt>
      <trkpt lat="48.85846" lon="2.37886">
        <ele>110.7</ele>
        <time>2015-03-02T19:35:56.629Z</time>
      </trkpt>
      <trkpt lat="48.85843" lon="2.37891">
        <ele>110.6</ele>
        <time>2015-03-02T19:35:57.636Z</time>
      </trkpt>
      <trkpt lat="48.8584" lon="2.37896">
        <ele>110.6</ele>
        <time>2015-03-02T19:35:58.582Z</time>
      </trkpt>
      <trkpt lat="48.85837" lon="2.37902">
        <ele>110.8</ele>
        <time>2015-03-02T19:35:59.605Z</time>
      </trkpt>
      <trkpt lat="48.85834" lon="2.37908">
        <ele>110.6</ele>
        <time>2015-03-02T19:36:00.603Z</time>
      </trkpt>
      <trkpt lat="48.85831" lon="2.37914">
        <ele>110.5</ele>
        <time>2015-03-02T19:36:01.620Z</time>
      </trkpt>
      <trkpt lat="48.85828" lon="2.37919">
        <ele>110.5</ele>
        <time>2015-03-02T19:36:02.634Z</time>
      </trkpt>
      <trkpt lat="48.85826" lon="2.37924">
        <ele>110.2</ele>
        <time>2015-03-02T19:36:03.643Z</time>
      </trkpt>
      <trkpt lat="48.85819" lon="2.37932">
        <ele>110.5</ele>
        <time>2015-03-02T19:36:05.572Z</time>
      </trkpt>
      <trkpt lat="48.85817" lon="2.37937">
        <ele>107.6</ele>
        <time>2015-03-02T19:36:06.569Z</time>
      </trkpt>
      <trkpt lat="48.85813" lon="2.37946">
        <ele>105.6</ele>
        <time>2015-03-02T19:36:08.610Z</time>
      </trkpt>
      <trkpt lat="48.8581" lon="2.37951">
        <ele>105.5</ele>
        <time>2015-03-02T19:36:09.650Z</time>
      </trkpt>
      <trkpt lat="48.85805" lon="2.3796">
        <ele>105.1</ele>
        <time>2015-03-02T19:36:11.573Z</time>
      </trkpt>
      <trkpt lat="48.85802" lon="2.37964">
        <ele>104.8</ele>
        <time>2015-03-02T19:36:12.626Z</time>
      </trkpt>
      <trkpt lat="48.85797" lon="2.37973">
        <ele>104.1</ele>
        <time>2015-03-02T19:36:14.641Z</time>
      </trkpt>
      <trkpt lat="48.85795" lon="2.37976">
        <ele>104.1</ele>
        <time>2015-03-02T19:36:15.659Z</time>
      </trkpt>
      <trkpt lat="48.85791" lon="2.37983">
        <ele>104</ele>
        <time>2015-03-02T19:36:17.579Z</time>
      </trkpt>
      <trkpt lat="48.85788" lon="2.37987">
        <ele>103.7</ele>
        <time>2015-03-02T19:36:18.603Z</time>
      </trkpt>
      <trkpt lat="48.85784" lon="2.37994">
        <ele>103.3</ele>
        <time>2015-03-02T19:36:20.643Z</time>
      </trkpt>
      <trkpt lat="48.85781" lon="2.37997">
        <ele>103.3</ele>
        <time>2015-03-02T19:36:21.551Z</time>
      </trkpt>
      <trkpt lat="48.85776" lon="2.38006">
        <ele>103.4</ele>
        <time>2015-03-02T19:36:24.623Z</time>
      </trkpt>
      <trkpt lat="48.85773" lon="2.38009">
        <ele>103.2</ele>
        <time>2015-03-02T19:36:25.571Z</time>
      </trkpt>
      <trkpt lat="48.85768" lon="2.38019">
        <ele>103.3</ele>
        <time>2015-03-02T19:36:28.743Z</time>
      </trkpt>
      <trkpt lat="48.85766" lon="2.38022">
        <ele>103.4</ele>
        <time>2015-03-02T19:36:29.575Z</time>
      </trkpt>
      <trkpt lat="48.85761" lon="2.38032">
        <ele>103.2</ele>
        <time>2015-03-02T19:36:32.632Z</time>
      </trkpt>
      <trkpt lat="48.8576" lon="2.38036">
        <ele>103.2</ele>
        <time>2015-03-02T19:36:33.630Z</time>
      </trkpt>
      <trkpt lat="48.85757" lon="2.38044">
        <ele>103</ele>
        <time>2015-03-02T19:36:35.575Z</time>
      </trkpt>
      <trkpt lat="48.85755" lon="2.38048">
        <ele>102.9</ele>
        <time>2015-03-02T19:36:36.593Z</time>
      </trkpt>
      <trkpt lat="48.85748" lon="2.38057">
        <ele>102.7</ele>
        <time>2015-03-02T19:36:39.616Z</time>
      </trkpt>
      <trkpt lat="48.85746" lon="2.3806">
        <ele>102.6</ele>
        <time>2015-03-02T19:36:40.631Z</time>
      </trkpt>
      <trkpt lat="48.85741" lon="2.38068">
        <ele>102.9</ele>
        <time>2015-03-02T19:36:42.579Z</time>
      </trkpt>
      <trkpt lat="48.85739" lon="2.38073">
        <ele>103.1</ele>
        <time>2015-03-02T19:36:43.576Z</time>
      </trkpt>
      <trkpt lat="48.85734" lon="2.38082">
        <ele>103.5</ele>
        <time>2015-03-02T19:36:45.609Z</time>
      </trkpt>
      <trkpt lat="48.85732" lon="2.38086">
        <ele>103.7</ele>
        <time>2015-03-02T19:36:46.619Z</time>
      </trkpt>
      <trkpt lat="48.85727" lon="2.38092">
        <ele>103.9</ele>
        <time>2015-03-02T19:36:48.577Z</time>
      </trkpt>
      <trkpt lat="48.85725" lon="2.38096">
        <ele>104.1</ele>
        <time>2015-03-02T19:36:49.664Z</time>
      </trkpt>
      <trkpt lat="48.8572" lon="2.38104">
        <ele>104.5</ele>
        <time>2015-03-02T19:36:51.599Z</time>
      </trkpt>
      <trkpt lat="48.85718" lon="2.38109">
        <ele>104.5</ele>
        <time>2015-03-02T19:36:52.651Z</time>
      </trkpt>
      <trkpt lat="48.85713" lon="2.38117">
        <ele>104.7</ele>
        <time>2015-03-02T19:36:54.592Z</time>
      </trkpt>
      <trkpt lat="48.85711" lon="2.3812">
        <ele>104.8</ele>
        <time>2015-03-02T19:36:55.597Z</time>
      </trkpt>
      <trkpt lat="48.85706" lon="2.38128">
        <ele>104.9</ele>
        <time>2015-03-02T19:36:57.635Z</time>
      </trkpt>
      <trkpt lat="48.85704" lon="2.38132">
        <ele>105</ele>
        <time>2015-03-02T19:36:58.696Z</time>
      </trkpt>
      <trkpt lat="48.85699" lon="2.3814">
        <ele>105.2</ele>
        <time>2015-03-02T19:37:00.597Z</time>
      </trkpt>
      <trkpt lat="48.85696" lon="2.38143">
        <ele>105.3</ele>
        <time>2015-03-02T19:37:01.608Z</time>
      </trkpt>
      <trkpt lat="48.85691" lon="2.38151">
        <ele>105.7</ele>
        <time>2015-03-02T19:37:03.643Z</time>
      </trkpt>
      <trkpt lat="48.85688" lon="2.38156">
        <ele>105.9</ele>
        <time>2015-03-02T19:37:04.739Z</time>
      </trkpt>
      <trkpt lat="48.85682" lon="2.38162">
        <ele>106.2</ele>
        <time>2015-03-02T19:37:06.624Z</time>
      </trkpt>
      <trkpt lat="48.85679" lon="2.38164">
        <ele>106.3</ele>
        <time>2015-03-02T19:37:07.643Z</time>
      </trkpt>
      <trkpt lat="48.85672" lon="2.38171">
        <ele>106.8</ele>
        <time>2015-03-02T19:37:09.654Z</time>
      </trkpt>
      <trkpt lat="48.85669" lon="2.38176">
        <ele>106.9</ele>
        <time>2015-03-02T19:37:10.581Z</time>
      </trkpt>
      <trkpt lat="48.85664" lon="2.38185">
        <ele>107.3</ele>
        <time>2015-03-02T19:37:12.658Z</time>
      </trkpt>
      <trkpt lat="48.85662" lon="2.3819">
        <ele>107.5</ele>
        <time>2015-03-02T19:37:13.563Z</time>
      </trkpt>
      <trkpt lat="48.85658" lon="2.38199">
        <ele>107.7</ele>
        <time>2015-03-02T19:37:15.612Z</time>
      </trkpt>
      <trkpt lat="48.85656" lon="2.38204">
        <ele>107.8</ele>
        <time>2015-03-02T19:37:16.637Z</time>
      </trkpt>
      <trkpt lat="48.85651" lon="2.38214">
        <ele>107.9</ele>
        <time>2015-03-02T19:37:18.593Z</time>
      </trkpt>
      <trkpt lat="48.85649" lon="2.38218">
        <ele>105.9</ele>
        <time>2015-03-02T19:37:19.610Z</time>
      </trkpt>
      <trkpt lat="48.85645" lon="2.38223">
        <ele>105.9</ele>
        <time>2015-03-02T19:37:20.625Z</time>
      </trkpt>
      <trkpt lat="48.85641" lon="2.38227">
        <ele>106</ele>
        <time>2015-03-02T19:37:21.640Z</time>
      </trkpt>
      <trkpt lat="48.85638" lon="2.38232">
        <ele>106</ele>
        <time>2015-03-02T19:37:22.663Z</time>
      </trkpt>
      <trkpt lat="48.85635" lon="2.38237">
        <ele>106</ele>
        <time>2015-03-02T19:37:23.549Z</time>
      </trkpt>
      <trkpt lat="48.85632" lon="2.38242">
        <ele>106.1</ele>
        <time>2015-03-02T19:37:24.592Z</time>
      </trkpt>
      <trkpt lat="48.85629" lon="2.3825">
        <ele>105.8</ele>
        <time>2015-03-02T19:37:25.637Z</time>
      </trkpt>
      <trkpt lat="48.85625" lon="2.38256">
        <ele>105.8</ele>
        <time>2015-03-02T19:37:26.693Z</time>
      </trkpt>
      <trkpt lat="48.85622" lon="2.38263">
        <ele>105.9</ele>
        <time>2015-03-02T19:37:27.569Z</time>
      </trkpt>
      <trkpt lat="48.85619" lon="2.38267">
        <ele>106</ele>
        <time>2015-03-02T19:37:28.566Z</time>
      </trkpt>
      <trkpt lat="48.85615" lon="2.38272">
        <ele>106.1</ele>
        <time>2015-03-02T19:37:29.586Z</time>
      </trkpt>
      <trkpt lat="48.85611" lon="2.38277">
        <ele>106.2</ele>
        <time>2015-03-02T19:37:30.644Z</time>
      </trkpt>
      <trkpt lat="48.85607" lon="2.38281">
        <ele>106.2</ele>
        <time>2015-03-02T19:37:31.673Z</time>
      </trkpt>
      <trkpt lat="48.85603" lon="2.38287">
        <ele>106.3</ele>
        <time>2015-03-02T19:37:32.715Z</time>
      </trkpt>
      <trkpt lat="48.856" lon="2.38294">
        <ele>106.5</ele>
        <time>2015-03-02T19:37:33.562Z</time>
      </trkpt>
      <trkpt lat="48.85597" lon="2.383">
        <ele>106.7</ele>
        <time>2015-03-02T19:37:34.581Z</time>
      </trkpt>
      <trkpt lat="48.85593" lon="2.38307">
        <ele>106.9</ele>
        <time>2015-03-02T19:37:35.594Z</time>
      </trkpt>
      <trkpt lat="48.8559" lon="2.38313">
        <ele>107</ele>
        <time>2015-03-02T19:37:36.621Z</time>
      </trkpt>
      <trkpt lat="48.85586" lon="2.3832">
        <ele>106.9</ele>
        <time>2015-03-02T19:37:37.633Z</time>
      </trkpt>
      <trkpt lat="48.85582" lon="2.38327">
        <ele>106.9</ele>
        <time>2015-03-02T19:37:38.650Z</time>
      </trkpt>
      <trkpt lat="48.85579" lon="2.38333">
        <ele>107</ele>
        <time>2015-03-02T19:37:39.629Z</time>
      </trkpt>
      <trkpt lat="48.85576" lon="2.38339">
        <ele>107.1</ele>
        <time>2015-03-02T19:37:40.570Z</time>
      </trkpt>
      <trkpt lat="48.85572" lon="2.38346">
        <ele>107.1</ele>
        <time>2015-03-02T19:37:41.578Z</time>
      </trkpt>
      <trkpt lat="48.85568" lon="2.38352">
        <ele>107</ele>
        <time>2015-03-02T19:37:42.594Z</time>
      </trkpt>
      <trkpt lat="48.85565" lon="2.38359">
        <ele>107</ele>
        <time>2015-03-02T19:37:43.588Z</time>
      </trkpt>
      <trkpt lat="48.85562" lon="2.38366">
        <ele>107</ele>
        <time>2015-03-02T19:37:44.600Z</time>
      </trkpt>
      <trkpt lat="48.85558" lon="2.38372">
        <ele>107.1</ele>
        <time>2015-03-02T19:37:45.602Z</time>
      </trkpt>
      <trkpt lat="48.85555" lon="2.38378">
        <ele>107.1</ele>
        <time>2015-03-02T19:37:46.621Z</time>
      </trkpt>
      <trkpt lat="48.85552" lon="2.38384">
        <ele>107.2</ele>
        <time>2015-03-02T19:37:47.703Z</time>
      </trkpt>
      <trkpt lat="48.85549" lon="2.3839">
        <ele>107.3</ele>
        <time>2015-03-02T19:37:48.637Z</time>
      </trkpt>
      <trkpt lat="48.85545" lon="2.38395">
        <ele>107.3</ele>
        <time>2015-03-02T19:37:49.539Z</time>
      </trkpt>
      <trkpt lat="48.85542" lon="2.384">
        <ele>107.4</ele>
        <time>2015-03-02T19:37:50.575Z</time>
      </trkpt>
      <trkpt lat="48.85539" lon="2.38405">
        <ele>107.4</ele>
        <time>2015-03-02T19:37:51.602Z</time>
      </trkpt>
      <trkpt lat="48.85533" lon="2.38414">
        <ele>107.6</ele>
        <time>2015-03-02T19:37:53.655Z</time>
      </trkpt>
      <trkpt lat="48.8553" lon="2.38418">
        <ele>107.7</ele>
        <time>2015-03-02T19:37:54.567Z</time>
      </trkpt>
      <trkpt lat="48.85525" lon="2.38428">
        <ele>107.9</ele>
        <time>2015-03-02T19:37:56.650Z</time>
      </trkpt>
      <trkpt lat="48.85522" lon="2.38434">
        <ele>108</ele>
        <time>2015-03-02T19:37:57.678Z</time>
      </trkpt>
      <trkpt lat="48.85516" lon="2.38444">
        <ele>108</ele>
        <time>2015-03-02T19:37:59.591Z</time>
      </trkpt>
      <trkpt lat="48.85513" lon="2.38449">
        <ele>108.1</ele>
        <time>2015-03-02T19:38:00.603Z</time>
      </trkpt>
      <trkpt lat="48.85508" lon="2.3846">
        <ele>108.2</ele>
        <time>2015-03-02T19:38:02.630Z</time>
      </trkpt>
      <trkpt lat="48.85506" lon="2.38466">
        <ele>108</ele>
        <time>2015-03-02T19:38:03.630Z</time>
      </trkpt>
      <trkpt lat="48.85503" lon="2.38471">
        <ele>107.9</ele>
        <time>2015-03-02T19:38:04.585Z</time>
      </trkpt>
      <trkpt lat="48.855" lon="2.38477">
        <ele>108</ele>
        <time>2015-03-02T19:38:05.576Z</time>
      </trkpt>
      <trkpt lat="48.85497" lon="2.38483">
        <ele>108.1</ele>
        <time>2015-03-02T19:38:06.813Z</time>
      </trkpt>
      <trkpt lat="48.85494" lon="2.38488">
        <ele>108</ele>
        <time>2015-03-02T19:38:07.660Z</time>
      </trkpt>
      <trkpt lat="48.85491" lon="2.38493">
        <ele>108</ele>
        <time>2015-03-02T19:38:08.674Z</time>
      </trkpt>
      <trkpt lat="48.85488" lon="2.38499">
        <ele>108</ele>
        <time>2015-03-02T19:38:09.579Z</time>
      </trkpt>
      <trkpt lat="48.85482" lon="2.38508">
        <ele>107.8</ele>
        <time>2015-03-02T19:38:11.637Z</time>
      </trkpt>
      <trkpt lat="48.85479" lon="2.38513">
        <ele>107.7</ele>
        <time>2015-03-02T19:38:12.537Z</time>
      </trkpt>
      <trkpt lat="48.85474" lon="2.38521">
        <ele>107.5</ele>
        <time>2015-03-02T19:38:14.605Z</time>
      </trkpt>
      <trkpt lat="48.85472" lon="2.38525">
        <ele>107.6</ele>
        <time>2015-03-02T19:38:15.580Z</time>
      </trkpt>
      <trkpt lat="48.85466" lon="2.38534">
        <ele>107.4</ele>
        <time>2015-03-02T19:38:17.605Z</time>
      </trkpt>
      <trkpt lat="48.85463" lon="2.38538">
        <ele>107.6</ele>
        <time>2015-03-02T19:38:18.620Z</time>
      </trkpt>
      <trkpt lat="48.85456" lon="2.38545">
        <ele>108</ele>
        <time>2015-03-02T19:38:20.656Z</time>
      </trkpt>
      <trkpt lat="48.85454" lon="2.38549">
        <ele>108.1</ele>
        <time>2015-03-02T19:38:21.651Z</time>
      </trkpt>
      <trkpt lat="48.85449" lon="2.38556">
        <ele>108</ele>
        <time>2015-03-02T19:38:23.620Z</time>
      </trkpt>
      <trkpt lat="48.85447" lon="2.3856">
        <ele>108</ele>
        <time>2015-03-02T19:38:24.614Z</time>
      </trkpt>
      <trkpt lat="48.85441" lon="2.38569">
        <ele>108</ele>
        <time>2015-03-02T19:38:26.655Z</time>
      </trkpt>
      <trkpt lat="48.85438" lon="2.38573">
        <ele>107.9</ele>
        <time>2015-03-02T19:38:27.584Z</time>
      </trkpt>
      <trkpt lat="48.85432" lon="2.3858">
        <ele>107.9</ele>
        <time>2015-03-02T19:38:29.593Z</time>
      </trkpt>
      <trkpt lat="48.85429" lon="2.38585">
        <ele>107.9</ele>
        <time>2015-03-02T19:38:30.599Z</time>
      </trkpt>
      <trkpt lat="48.85425" lon="2.38592">
        <ele>108.1</ele>
        <time>2015-03-02T19:38:32.644Z</time>
      </trkpt>
      <trkpt lat="48.85422" lon="2.38596">
        <ele>108.3</ele>
        <time>2015-03-02T19:38:33.656Z</time>
      </trkpt>
      <trkpt lat="48.85417" lon="2.38604">
        <ele>108.7</ele>
        <time>2015-03-02T19:38:35.578Z</time>
      </trkpt>
      <trkpt lat="48.85413" lon="2.38608">
        <ele>109</ele>
        <time>2015-03-02T19:38:36.579Z</time>
      </trkpt>
      <trkpt lat="48.85408" lon="2.38617">
        <ele>109.6</ele>
        <time>2015-03-02T19:38:38.609Z</time>
      </trkpt>
      <trkpt lat="48.85405" lon="2.38622">
        <ele>109.8</ele>
        <time>2015-03-02T19:38:39.616Z</time>
      </trkpt>
      <trkpt lat="48.854" lon="2.38631">
        <ele>110.1</ele>
        <time>2015-03-02T19:38:41.613Z</time>
      </trkpt>
      <trkpt lat="48.85398" lon="2.38635">
        <ele>110.2</ele>
        <time>2015-03-02T19:38:42.565Z</time>
      </trkpt>
      <trkpt lat="48.85394" lon="2.38645">
        <ele>110.3</ele>
        <time>2015-03-02T19:38:44.699Z</time>
      </trkpt>
      <trkpt lat="48.85391" lon="2.38651">
        <ele>110.4</ele>
        <time>2015-03-02T19:38:45.692Z</time>
      </trkpt>
      <trkpt lat="48.85387" lon="2.38662">
        <ele>110.9</ele>
        <time>2015-03-02T19:38:47.691Z</time>
      </trkpt>
      <trkpt lat="48.85385" lon="2.38666">
        <ele>111</ele>
        <time>2015-03-02T19:38:48.585Z</time>
      </trkpt>
      <trkpt lat="48.85382" lon="2.38676">
        <ele>111.5</ele>
        <time>2015-03-02T19:38:51.665Z</time>
      </trkpt>
      <trkpt lat="48.85381" lon="2.38679">
        <ele>111.7</ele>
        <time>2015-03-02T19:38:52.688Z</time>
      </trkpt>
      <trkpt lat="48.85375" lon="2.38687">
        <ele>111.7</ele>
        <time>2015-03-02T19:38:54.579Z</time>
      </trkpt>
      <trkpt lat="48.85372" lon="2.38693">
        <ele>111.8</ele>
        <time>2015-03-02T19:38:55.584Z</time>
      </trkpt>
      <trkpt lat="48.85368" lon="2.38699">
        <ele>111.9</ele>
        <time>2015-03-02T19:38:56.621Z</time>
      </trkpt>
      <trkpt lat="48.85366" lon="2.38704">
        <ele>111.9</ele>
        <time>2015-03-02T19:38:57.625Z</time>
      </trkpt>
      <trkpt lat="48.85361" lon="2.38714">
        <ele>112</ele>
        <time>2015-03-02T19:38:59.644Z</time>
      </trkpt>
      <trkpt lat="48.85358" lon="2.38719">
        <ele>112.2</ele>
        <time>2015-03-02T19:39:00.574Z</time>
      </trkpt>
      <trkpt lat="48.85353" lon="2.38727">
        <ele>112.5</ele>
        <time>2015-03-02T19:39:02.650Z</time>
      </trkpt>
      <trkpt lat="48.8535" lon="2.3873">
        <ele>112.8</ele>
        <time>2015-03-02T19:39:03.658Z</time>
      </trkpt>
      <trkpt lat="48.85344" lon="2.38737">
        <ele>113.6</ele>
        <time>2015-03-02T19:39:05.568Z</time>
      </trkpt>
      <trkpt lat="48.8534" lon="2.38743">
        <ele>114.7</ele>
        <time>2015-03-02T19:39:06.577Z</time>
      </trkpt>
      <trkpt lat="48.85335" lon="2.38747">
        <ele>114.8</ele>
        <time>2015-03-02T19:39:07.580Z</time>
      </trkpt>
      <trkpt lat="48.85332" lon="2.3875">
        <ele>114.8</ele>
        <time>2015-03-02T19:39:08.599Z</time>
      </trkpt>
      <trkpt lat="48.85325" lon="2.38757">
        <ele>114.8</ele>
        <time>2015-03-02T19:39:10.617Z</time>
      </trkpt>
      <trkpt lat="48.85322" lon="2.38761">
        <ele>115</ele>
        <time>2015-03-02T19:39:11.629Z</time>
      </trkpt>
      <trkpt lat="48.85315" lon="2.38769">
        <ele>114.9</ele>
        <time>2015-03-02T19:39:13.607Z</time>
      </trkpt>
      <trkpt lat="48.85312" lon="2.38773">
        <ele>115</ele>
        <time>2015-03-02T19:39:14.623Z</time>
      </trkpt>
      <trkpt lat="48.85305" lon="2.38781">
        <ele>115.3</ele>
        <time>2015-03-02T19:39:16.567Z</time>
      </trkpt>
      <trkpt lat="48.85302" lon="2.38785">
        <ele>115.4</ele>
        <time>2015-03-02T19:39:17.621Z</time>
      </trkpt>
      <trkpt lat="48.85296" lon="2.38796">
        <ele>115.7</ele>
        <time>2015-03-02T19:39:19.574Z</time>
      </trkpt>
      <trkpt lat="48.85294" lon="2.38802">
        <ele>115.9</ele>
        <time>2015-03-02T19:39:20.694Z</time>
      </trkpt>
      <trkpt lat="48.85291" lon="2.38808">
        <ele>116.1</ele>
        <time>2015-03-02T19:39:21.572Z</time>
      </trkpt>
      <trkpt lat="48.85289" lon="2.38814">
        <ele>116.2</ele>
        <time>2015-03-02T19:39:22.577Z</time>
      </trkpt>
      <trkpt lat="48.85286" lon="2.3882">
        <ele>115.7</ele>
        <time>2015-03-02T19:39:23.582Z</time>
      </trkpt>
      <trkpt lat="48.85283" lon="2.38827">
        <ele>115.5</ele>
        <time>2015-03-02T19:39:24.608Z</time>
      </trkpt>
      <trkpt lat="48.85279" lon="2.38832">
        <ele>115.4</ele>
        <time>2015-03-02T19:39:25.601Z</time>
      </trkpt>
      <trkpt lat="48.85276" lon="2.38838">
        <ele>115.4</ele>
        <time>2015-03-02T19:39:26.616Z</time>
      </trkpt>
      <trkpt lat="48.85272" lon="2.38843">
        <ele>115.5</ele>
        <time>2015-03-02T19:39:27.704Z</time>
      </trkpt>
      <trkpt lat="48.85268" lon="2.38848">
        <ele>115.5</ele>
        <time>2015-03-02T19:39:28.709Z</time>
      </trkpt>
      <trkpt lat="48.85265" lon="2.38853">
        <ele>115.5</ele>
        <time>2015-03-02T19:39:29.579Z</time>
      </trkpt>
      <trkpt lat="48.85261" lon="2.38859">
        <ele>115.6</ele>
        <time>2015-03-02T19:39:30.578Z</time>
      </trkpt>
      <trkpt lat="48.85255" lon="2.38868">
        <ele>115.9</ele>
        <time>2015-03-02T19:39:32.616Z</time>
      </trkpt>
      <trkpt lat="48.85252" lon="2.38873">
        <ele>116</ele>
        <time>2015-03-02T19:39:33.626Z</time>
      </trkpt>
      <trkpt lat="48.85248" lon="2.3888">
        <ele>115.9</ele>
        <time>2015-03-02T19:39:35.638Z</time>
      </trkpt>
      <trkpt lat="48.85246" lon="2.38884">
        <ele>115.6</ele>
        <time>2015-03-02T19:39:36.655Z</time>
      </trkpt>
      <trkpt lat="48.85244" lon="2.38894">
        <ele>114.7</ele>
        <time>2015-03-02T19:39:38.612Z</time>
      </trkpt>
      <trkpt lat="48.85243" lon="2.38897">
        <ele>114.8</ele>
        <time>2015-03-02T19:39:39.634Z</time>
      </trkpt>
      <trkpt lat="48.85239" lon="2.38909">
        <ele>114.2</ele>
        <time>2015-03-02T19:39:46.621Z</time>
      </trkpt>
      <trkpt lat="48.85238" lon="2.38912">
        <ele>114.4</ele>
        <time>2015-03-02T19:39:47.600Z</time>
      </trkpt>
      <trkpt lat="48.85233" lon="2.38919">
        <ele>115.7</ele>
        <time>2015-03-02T19:39:50.661Z</time>
      </trkpt>
      <trkpt lat="48.85231" lon="2.38922">
        <ele>115.9</ele>
        <time>2015-03-02T19:39:51.667Z</time>
      </trkpt>
      <trkpt lat="48.85226" lon="2.38929">
        <ele>116.3</ele>
        <time>2015-03-02T19:39:53.618Z</time>
      </trkpt>
      <trkpt lat="48.85223" lon="2.38934">
        <ele>116.3</ele>
        <time>2015-03-02T19:39:54.592Z</time>
      </trkpt>
      <trkpt lat="48.85218" lon="2.38945">
        <ele>116.9</ele>
        <time>2015-03-02T19:39:57.629Z</time>
      </trkpt>
      <trkpt lat="48.85217" lon="2.3895">
        <ele>116.5</ele>
        <time>2015-03-02T19:39:58.641Z</time>
      </trkpt>
      <trkpt lat="48.85213" lon="2.38959">
        <ele>116.3</ele>
        <time>2015-03-02T19:40:00.615Z</time>
      </trkpt>
      <trkpt lat="48.8521" lon="2.38964">
        <ele>116.5</ele>
        <time>2015-03-02T19:40:01.595Z</time>
      </trkpt>
      <trkpt lat="48.85204" lon="2.38972">
        <ele>116.8</ele>
        <time>2015-03-02T19:40:03.634Z</time>
      </trkpt>
      <trkpt lat="48.85201" lon="2.38975">
        <ele>116.9</ele>
        <time>2015-03-02T19:40:04.636Z</time>
      </trkpt>
      <trkpt lat="48.85197" lon="2.38983">
        <ele>117.2</ele>
        <time>2015-03-02T19:40:06.638Z</time>
      </trkpt>
      <trkpt lat="48.85195" lon="2.38988">
        <ele>117.4</ele>
        <time>2015-03-02T19:40:07.602Z</time>
      </trkpt>
      <trkpt lat="48.85189" lon="2.38994">
        <ele>117.7</ele>
        <time>2015-03-02T19:40:09.653Z</time>
      </trkpt>
      <trkpt lat="48.85186" lon="2.38997">
        <ele>118</ele>
        <time>2015-03-02T19:40:10.665Z</time>
      </trkpt>
      <trkpt lat="48.85179" lon="2.39006">
        <ele>118.3</ele>
        <time>2015-03-02T19:40:12.580Z</time>
      </trkpt>
      <trkpt lat="48.85175" lon="2.39011">
        <ele>118.4</ele>
        <time>2015-03-02T19:40:13.589Z</time>
      </trkpt>
      <trkpt lat="48.85169" lon="2.3902">
        <ele>118.7</ele>
        <time>2015-03-02T19:40:15.627Z</time>
      </trkpt>
      <trkpt lat="48.85166" lon="2.39025">
        <ele>118.9</ele>
        <time>2015-03-02T19:40:16.642Z</time>
      </trkpt>
      <trkpt lat="48.85161" lon="2.39034">
        <ele>119.1</ele>
        <time>2015-03-02T19:40:18.575Z</time>
      </trkpt>
      <trkpt lat="48.85158" lon="2.39039">
        <ele>119.3</ele>
        <time>2015-03-02T19:40:19.591Z</time>
      </trkpt>
      <trkpt lat="48.85154" lon="2.39048">
        <ele>119.9</ele>
        <time>2015-03-02T19:40:22.222Z</time>
      </trkpt>
      <trkpt lat="48.85152" lon="2.39052">
        <ele>120.1</ele>
        <time>2015-03-02T19:40:22.592Z</time>
      </trkpt>
      <trkpt lat="48.85147" lon="2.39059">
        <ele>120.2</ele>
        <time>2015-03-02T19:40:24.602Z</time>
      </trkpt>
      <trkpt lat="48.85145" lon="2.39062">
        <ele>120.3</ele>
        <time>2015-03-02T19:40:25.621Z</time>
      </trkpt>
      <trkpt lat="48.8514" lon="2.3907">
        <ele>120.4</ele>
        <time>2015-03-02T19:40:27.661Z</time>
      </trkpt>
      <trkpt lat="48.85138" lon="2.39074">
        <ele>120.4</ele>
        <time>2015-03-02T19:40:28.667Z</time>
      </trkpt>
      <trkpt lat="48.85132" lon="2.39082">
        <ele>120.6</ele>
        <time>2015-03-02T19:40:30.848Z</time>
      </trkpt>
      <trkpt lat="48.85129" lon="2.39087">
        <ele>120.6</ele>
        <time>2015-03-02T19:40:31.610Z</time>
      </trkpt>
      <trkpt lat="48.85125" lon="2.39092">
        <ele>120.7</ele>
        <time>2015-03-02T19:40:32.638Z</time>
      </trkpt>
      <trkpt lat="48.85123" lon="2.39097">
        <ele>120.7</ele>
        <time>2015-03-02T19:40:33.643Z</time>
      </trkpt>
      <trkpt lat="48.85118" lon="2.39108">
        <ele>120.8</ele>
        <time>2015-03-02T19:40:35.908Z</time>
      </trkpt>
      <trkpt lat="48.85116" lon="2.39112">
        <ele>120.8</ele>
        <time>2015-03-02T19:40:36.599Z</time>
      </trkpt>
      <trkpt lat="48.85109" lon="2.39122">
        <ele>121</ele>
        <time>2015-03-02T19:40:39.641Z</time>
      </trkpt>
      <trkpt lat="48.85106" lon="2.39126">
        <ele>121.1</ele>
        <time>2015-03-02T19:40:40.659Z</time>
      </trkpt>
      <trkpt lat="48.851" lon="2.39135">
        <ele>121.2</ele>
        <time>2015-03-02T19:40:42.567Z</time>
      </trkpt>
      <trkpt lat="48.85096" lon="2.39139">
        <ele>121.3</ele>
        <time>2015-03-02T19:40:43.584Z</time>
      </trkpt>
      <trkpt lat="48.85091" lon="2.39145">
        <ele>121.5</ele>
        <time>2015-03-02T19:40:46.109Z</time>
      </trkpt>
      <trkpt lat="48.85088" lon="2.3915">
        <ele>121.6</ele>
        <time>2015-03-02T19:40:46.541Z</time>
      </trkpt>
      <trkpt lat="48.85083" lon="2.39161">
        <ele>121.7</ele>
        <time>2015-03-02T19:40:48.551Z</time>
      </trkpt>
      <trkpt lat="48.8508" lon="2.39166">
        <ele>121.8</ele>
        <time>2015-03-02T19:40:49.639Z</time>
      </trkpt>
      <trkpt lat="48.85075" lon="2.39175">
        <ele>122</ele>
        <time>2015-03-02T19:40:51.557Z</time>
      </trkpt>
      <trkpt lat="48.85073" lon="2.39179">
        <ele>122.1</ele>
        <time>2015-03-02T19:40:52.603Z</time>
      </trkpt>
      <trkpt lat="48.85069" lon="2.39186">
        <ele>122.2</ele>
        <time>2015-03-02T19:40:54.634Z</time>
      </trkpt>
      <trkpt lat="48.85066" lon="2.3919">
        <ele>122.2</ele>
        <time>2015-03-02T19:40:55.648Z</time>
      </trkpt>
      <trkpt lat="48.85059" lon="2.39198">
        <ele>122.2</ele>
        <time>2015-03-02T19:40:57.922Z</time>
      </trkpt>
      <trkpt lat="48.85055" lon="2.39201">
        <ele>122.2</ele>
        <time>2015-03-02T19:40:58.608Z</time>
      </trkpt>
      <trkpt lat="48.85051" lon="2.39205">
        <ele>122.2</ele>
        <time>2015-03-02T19:40:59.620Z</time>
      </trkpt>
      <trkpt lat="48.85048" lon="2.39211">
        <ele>122.1</ele>
        <time>2015-03-02T19:41:00.629Z</time>
      </trkpt>
      <trkpt lat="48.85045" lon="2.39218">
        <ele>121.8</ele>
        <time>2015-03-02T19:41:01.646Z</time>
      </trkpt>
      <trkpt lat="48.85042" lon="2.39225">
        <ele>121.3</ele>
        <time>2015-03-02T19:41:02.655Z</time>
      </trkpt>
      <trkpt lat="48.85039" lon="2.39232">
        <ele>121</ele>
        <time>2015-03-02T19:41:04.480Z</time>
      </trkpt>
      <trkpt lat="48.85037" lon="2.39238">
        <ele>120.8</ele>
        <time>2015-03-02T19:41:04.569Z</time>
      </trkpt>
      <trkpt lat="48.85034" lon="2.39244">
        <ele>120.4</ele>
        <time>2015-03-02T19:41:05.621Z</time>
      </trkpt>
      <trkpt lat="48.85032" lon="2.3925">
        <ele>120.3</ele>
        <time>2015-03-02T19:41:06.681Z</time>
      </trkpt>
      <trkpt lat="48.8503" lon="2.39256">
        <ele>120.2</ele>
        <time>2015-03-02T19:41:08.017Z</time>
      </trkpt>
      <trkpt lat="48.85027" lon="2.39261">
        <ele>120.2</ele>
        <time>2015-03-02T19:41:08.609Z</time>
      </trkpt>
      <trkpt lat="48.85022" lon="2.39272">
        <ele>120.3</ele>
        <time>2015-03-02T19:41:10.646Z</time>
      </trkpt>
      <trkpt lat="48.8502" lon="2.39277">
        <ele>120.6</ele>
        <time>2015-03-02T19:41:11.676Z</time>
      </trkpt>
      <trkpt lat="48.85014" lon="2.39286">
        <ele>120.9</ele>
        <time>2015-03-02T19:41:13.573Z</time>
      </trkpt>
      <trkpt lat="48.85011" lon="2.39291">
        <ele>121</ele>
        <time>2015-03-02T19:41:14.614Z</time>
      </trkpt>
      <trkpt lat="48.85005" lon="2.39299">
        <ele>121</ele>
        <time>2015-03-02T19:41:16.659Z</time>
      </trkpt>
      <trkpt lat="48.85002" lon="2.39305">
        <ele>120.9</ele>
        <time>2015-03-02T19:41:17.756Z</time>
      </trkpt>
      <trkpt lat="48.84998" lon="2.39311">
        <ele>120.9</ele>
        <time>2015-03-02T19:41:18.581Z</time>
      </trkpt>
      <trkpt lat="48.84995" lon="2.39316">
        <ele>120.7</ele>
        <time>2015-03-02T19:41:19.580Z</time>
      </trkpt>
      <trkpt lat="48.84992" lon="2.39321">
        <ele>120.7</ele>
        <time>2015-03-02T19:41:20.645Z</time>
      </trkpt>
      <trkpt lat="48.84988" lon="2.39326">
        <ele>120.7</ele>
        <time>2015-03-02T19:41:21.657Z</time>
      </trkpt>
      <trkpt lat="48.84985" lon="2.39331">
        <ele>120.6</ele>
        <time>2015-03-02T19:41:23.229Z</time>
      </trkpt>
      <trkpt lat="48.84982" lon="2.39336">
        <ele>120.4</ele>
        <time>2015-03-02T19:41:23.582Z</time>
      </trkpt>
      <trkpt lat="48.84976" lon="2.39346">
        <ele>120.5</ele>
        <time>2015-03-02T19:41:25.651Z</time>
      </trkpt>
      <trkpt lat="48.84973" lon="2.39352">
        <ele>120.4</ele>
        <time>2015-03-02T19:41:26.660Z</time>
      </trkpt>
      <trkpt lat="48.8497" lon="2.39357">
        <ele>120.4</ele>
        <time>2015-03-02T19:41:28.251Z</time>
      </trkpt>
      <trkpt lat="48.84967" lon="2.39363">
        <ele>120.6</ele>
        <time>2015-03-02T19:41:28.584Z</time>
      </trkpt>
      <trkpt lat="48.84963" lon="2.39369">
        <ele>120.7</ele>
        <time>2015-03-02T19:41:29.598Z</time>
      </trkpt>
      <trkpt lat="48.8496" lon="2.39376">
        <ele>120.7</ele>
        <time>2015-03-02T19:41:30.646Z</time>
      </trkpt>
      <trkpt lat="48.84956" lon="2.39381">
        <ele>120.7</ele>
        <time>2015-03-02T19:41:31.655Z</time>
      </trkpt>
      <trkpt lat="48.84953" lon="2.39387">
        <ele>120.8</ele>
        <time>2015-03-02T19:41:32.664Z</time>
      </trkpt>
      <trkpt lat="48.84949" lon="2.39392">
        <ele>120.9</ele>
        <time>2015-03-02T19:41:33.542Z</time>
      </trkpt>
      <trkpt lat="48.84945" lon="2.39399">
        <ele>120.9</ele>
        <time>2015-03-02T19:41:34.568Z</time>
      </trkpt>
      <trkpt lat="48.84941" lon="2.39406">
        <ele>121</ele>
        <time>2015-03-02T19:41:35.602Z</time>
      </trkpt>
      <trkpt lat="48.84937" lon="2.39412">
        <ele>121.3</ele>
        <time>2015-03-02T19:41:36.618Z</time>
      </trkpt>
      <trkpt lat="48.84934" lon="2.39419">
        <ele>121.3</ele>
        <time>2015-03-02T19:41:37.631Z</time>
      </trkpt>
      <trkpt lat="48.84931" lon="2.39425">
        <ele>121.3</ele>
        <time>2015-03-02T19:41:38.638Z</time>
      </trkpt>
      <trkpt lat="48.84928" lon="2.3943">
        <ele>121.5</ele>
        <time>2015-03-02T19:41:39.650Z</time>
      </trkpt>
      <trkpt lat="48.84925" lon="2.39436">
        <ele>121.9</ele>
        <time>2015-03-02T19:41:40.573Z</time>
      </trkpt>
      <trkpt lat="48.84922" lon="2.39442">
        <ele>121.8</ele>
        <time>2015-03-02T19:41:41.559Z</time>
      </trkpt>
      <trkpt lat="48.84919" lon="2.39447">
        <ele>121.9</ele>
        <time>2015-03-02T19:41:42.561Z</time>
      </trkpt>
      <trkpt lat="48.84913" lon="2.39457">
        <ele>122.1</ele>
        <time>2015-03-02T19:41:44.597Z</time>
      </trkpt>
      <trkpt lat="48.8491" lon="2.39462">
        <ele>122.1</ele>
        <time>2015-03-02T19:41:45.599Z</time>
      </trkpt>
      <trkpt lat="48.84905" lon="2.39473">
        <ele>122.1</ele>
        <time>2015-03-02T19:41:47.537Z</time>
      </trkpt>
      <trkpt lat="48.84903" lon="2.39478">
        <ele>122</ele>
        <time>2015-03-02T19:41:48.763Z</time>
      </trkpt>
      <trkpt lat="48.84898" lon="2.39488">
        <ele>119.8</ele>
        <time>2015-03-02T19:41:51.612Z</time>
      </trkpt>
      <trkpt lat="48.84897" lon="2.39491">
        <ele>117.8</ele>
        <time>2015-03-02T19:41:52.636Z</time>
      </trkpt>
      <trkpt lat="48.84893" lon="2.39498">
        <ele>117.8</ele>
        <time>2015-03-02T19:41:54.572Z</time>
      </trkpt>
      <trkpt lat="48.84891" lon="2.39502">
        <ele>117.7</ele>
        <time>2015-03-02T19:41:55.714Z</time>
      </trkpt>
      <trkpt lat="48.84886" lon="2.39512">
        <ele>113.4</ele>
        <time>2015-03-02T19:41:59.627Z</time>
      </trkpt>
      <trkpt lat="48.84885" lon="2.39514">
        <ele>113.1</ele>
        <time>2015-03-02T19:42:00.574Z</time>
      </trkpt>
      <trkpt lat="48.84883" lon="2.3952">
        <ele>108.8</ele>
        <time>2015-03-02T19:42:05.666Z</time>
      </trkpt>
      <trkpt lat="48.84883" lon="2.3952">
        <ele>108.8</ele>
        <time>2015-03-02T19:42:06.667Z</time>
      </trkpt>
      <trkpt lat="48.84882" lon="2.39521">
        <ele>108.5</ele>
        <time>2015-03-02T19:42:38.642Z</time>
      </trkpt>
      <trkpt lat="48.84882" lon="2.39517">
        <ele>106</ele>
        <time>2015-03-02T19:42:39.655Z</time>
      </trkpt>
      <trkpt lat="48.84875" lon="2.39519">
        <ele>105.3</ele>
        <time>2015-03-02T19:42:44.603Z</time>
      </trkpt>
      <trkpt lat="48.84872" lon="2.39516">
        <ele>105.1</ele>
        <time>2015-03-02T19:42:45.721Z</time>
      </trkpt>
      <trkpt lat="48.84864" lon="2.39512">
        <ele>105.2</ele>
        <time>2015-03-02T19:42:48.645Z</time>
      </trkpt>
      <trkpt lat="48.84861" lon="2.39511">
        <ele>105.2</ele>
        <time>2015-03-02T19:42:49.544Z</time>
      </trkpt>
      <trkpt lat="48.84855" lon="2.39508">
        <ele>105.1</ele>
        <time>2015-03-02T19:42:51.566Z</time>
      </trkpt>
      <trkpt lat="48.84851" lon="2.39507">
        <ele>105</ele>
        <time>2015-03-02T19:42:52.582Z</time>
      </trkpt>
      <trkpt lat="48.84844" lon="2.39506">
        <ele>105</ele>
        <time>2015-03-02T19:42:54.656Z</time>
      </trkpt>
      <trkpt lat="48.8484" lon="2.39505">
        <ele>105</ele>
        <time>2015-03-02T19:42:55.723Z</time>
      </trkpt>
      <trkpt lat="48.84833" lon="2.39506">
        <ele>105.1</ele>
        <time>2015-03-02T19:42:57.628Z</time>
      </trkpt>
      <trkpt lat="48.84829" lon="2.39506">
        <ele>105</ele>
        <time>2015-03-02T19:42:58.637Z</time>
      </trkpt>
      <trkpt lat="48.84822" lon="2.3951">
        <ele>104.8</ele>
        <time>2015-03-02T19:43:00.579Z</time>
      </trkpt>
      <trkpt lat="48.84818" lon="2.39512">
        <ele>104.8</ele>
        <time>2015-03-02T19:43:01.583Z</time>
      </trkpt>
      <trkpt lat="48.84812" lon="2.39518">
        <ele>104.5</ele>
        <time>2015-03-02T19:43:03.613Z</time>
      </trkpt>
      <trkpt lat="48.84809" lon="2.39522">
        <ele>104.6</ele>
        <time>2015-03-02T19:43:04.620Z</time>
      </trkpt>
      <trkpt lat="48.84803" lon="2.3953">
        <ele>104.6</ele>
        <time>2015-03-02T19:43:06.588Z</time>
      </trkpt>
      <trkpt lat="48.848" lon="2.39534">
        <ele>104.9</ele>
        <time>2015-03-02T19:43:07.609Z</time>
      </trkpt>
      <trkpt lat="48.84795" lon="2.39542">
        <ele>105.2</ele>
        <time>2015-03-02T19:43:09.671Z</time>
      </trkpt>
      <trkpt lat="48.84793" lon="2.39546">
        <ele>105.2</ele>
        <time>2015-03-02T19:43:10.581Z</time>
      </trkpt>
      <trkpt lat="48.84791" lon="2.39555">
        <ele>105</ele>
        <time>2015-03-02T19:43:12.609Z</time>
      </trkpt>
      <trkpt lat="48.8479" lon="2.39559">
        <ele>105.1</ele>
        <time>2015-03-02T19:43:13.622Z</time>
      </trkpt>
      <trkpt lat="48.84788" lon="2.39569">
        <ele>104.9</ele>
        <time>2015-03-02T19:43:15.657Z</time>
      </trkpt>
      <trkpt lat="48.84787" lon="2.39574">
        <ele>104.5</ele>
        <time>2015-03-02T19:43:16.580Z</time>
      </trkpt>
      <trkpt lat="48.84785" lon="2.39586">
        <ele>104.3</ele>
        <time>2015-03-02T19:43:18.574Z</time>
      </trkpt>
      <trkpt lat="48.84785" lon="2.39591">
        <ele>104.2</ele>
        <time>2015-03-02T19:43:19.592Z</time>
      </trkpt>
      <trkpt lat="48.84784" lon="2.39602">
        <ele>103.6</ele>
        <time>2015-03-02T19:43:21.618Z</time>
      </trkpt>
      <trkpt lat="48.84784" lon="2.39607">
        <ele>103.3</ele>
        <time>2015-03-02T19:43:22.624Z</time>
      </trkpt>
      <trkpt lat="48.84785" lon="2.39618">
        <ele>102.8</ele>
        <time>2015-03-02T19:43:24.544Z</time>
      </trkpt>
      <trkpt lat="48.84785" lon="2.39623">
        <ele>102.4</ele>
        <time>2015-03-02T19:43:25.580Z</time>
      </trkpt>
      <trkpt lat="48.84786" lon="2.39633">
        <ele>102.1</ele>
        <time>2015-03-02T19:43:27.626Z</time>
      </trkpt>
      <trkpt lat="48.84785" lon="2.39638">
        <ele>102.1</ele>
        <time>2015-03-02T19:43:28.664Z</time>
      </trkpt>
      <trkpt lat="48.84781" lon="2.39646">
        <ele>101.5</ele>
        <time>2015-03-02T19:43:30.564Z</time>
      </trkpt>
      <trkpt lat="48.84778" lon="2.39649">
        <ele>101.3</ele>
        <time>2015-03-02T19:43:31.590Z</time>
      </trkpt>
      <trkpt lat="48.84772" lon="2.39654">
        <ele>100.7</ele>
        <time>2015-03-02T19:43:33.654Z</time>
      </trkpt>
      <trkpt lat="48.84769" lon="2.39656">
        <ele>100.6</ele>
        <time>2015-03-02T19:43:34.576Z</time>
      </trkpt>
      <trkpt lat="48.84763" lon="2.39659">
        <ele>100.3</ele>
        <time>2015-03-02T19:43:36.558Z</time>
      </trkpt>
      <trkpt lat="48.84759" lon="2.39661">
        <ele>100.3</ele>
        <time>2015-03-02T19:43:37.661Z</time>
      </trkpt>
      <trkpt lat="48.84753" lon="2.39665">
        <ele>100</ele>
        <time>2015-03-02T19:43:39.593Z</time>
      </trkpt>
      <trkpt lat="48.84749" lon="2.39667">
        <ele>100</ele>
        <time>2015-03-02T19:43:40.589Z</time>
      </trkpt>
      <trkpt lat="48.84742" lon="2.39671">
        <ele>99.9</ele>
        <time>2015-03-02T19:43:42.612Z</time>
      </trkpt>
      <trkpt lat="48.84739" lon="2.39673">
        <ele>99.7</ele>
        <time>2015-03-02T19:43:43.639Z</time>
      </trkpt>
      <trkpt lat="48.84732" lon="2.39679">
        <ele>99.6</ele>
        <time>2015-03-02T19:43:45.561Z</time>
      </trkpt>
      <trkpt lat="48.84728" lon="2.39681">
        <ele>99.6</ele>
        <time>2015-03-02T19:43:46.575Z</time>
      </trkpt>
      <trkpt lat="48.8472" lon="2.39685">
        <ele>99.8</ele>
        <time>2015-03-02T19:43:48.570Z</time>
      </trkpt>
      <trkpt lat="48.84716" lon="2.39688">
        <ele>99.9</ele>
        <time>2015-03-02T19:43:49.584Z</time>
      </trkpt>
      <trkpt lat="48.84708" lon="2.39693">
        <ele>99.8</ele>
        <time>2015-03-02T19:43:51.633Z</time>
      </trkpt>
      <trkpt lat="48.84704" lon="2.39696">
        <ele>99.7</ele>
        <time>2015-03-02T19:43:52.640Z</time>
      </trkpt>
      <trkpt lat="48.84699" lon="2.397">
        <ele>99.7</ele>
        <time>2015-03-02T19:43:53.563Z</time>
      </trkpt>
      <trkpt lat="48.84695" lon="2.39703">
        <ele>99.6</ele>
        <time>2015-03-02T19:43:54.563Z</time>
      </trkpt>
      <trkpt lat="48.8469" lon="2.39706">
        <ele>99.6</ele>
        <time>2015-03-02T19:43:55.587Z</time>
      </trkpt>
      <trkpt lat="48.84686" lon="2.39709">
        <ele>99.6</ele>
        <time>2015-03-02T19:43:56.598Z</time>
      </trkpt>
      <trkpt lat="48.84682" lon="2.39713">
        <ele>99.7</ele>
        <time>2015-03-02T19:43:57.622Z</time>
      </trkpt>
      <trkpt lat="48.84677" lon="2.39717">
        <ele>99.8</ele>
        <time>2015-03-02T19:43:58.648Z</time>
      </trkpt>
      <trkpt lat="48.84672" lon="2.3972">
        <ele>99.9</ele>
        <time>2015-03-02T19:43:59.671Z</time>
      </trkpt>
      <trkpt lat="48.84667" lon="2.39723">
        <ele>99.9</ele>
        <time>2015-03-02T19:44:00.580Z</time>
      </trkpt>
      <trkpt lat="48.84663" lon="2.39726">
        <ele>99.9</ele>
        <time>2015-03-02T19:44:01.623Z</time>
      </trkpt>
      <trkpt lat="48.84658" lon="2.39729">
        <ele>100</ele>
        <time>2015-03-02T19:44:02.630Z</time>
      </trkpt>
      <trkpt lat="48.84654" lon="2.39733">
        <ele>100.2</ele>
        <time>2015-03-02T19:44:03.575Z</time>
      </trkpt>
      <trkpt lat="48.8465" lon="2.39736">
        <ele>100.2</ele>
        <time>2015-03-02T19:44:04.584Z</time>
      </trkpt>
      <trkpt lat="48.84646" lon="2.39739">
        <ele>100.4</ele>
        <time>2015-03-02T19:44:05.590Z</time>
      </trkpt>
      <trkpt lat="48.84641" lon="2.39743">
        <ele>100.4</ele>
        <time>2015-03-02T19:44:06.601Z</time>
      </trkpt>
      <trkpt lat="48.84637" lon="2.39747">
        <ele>100.3</ele>
        <time>2015-03-02T19:44:07.598Z</time>
      </trkpt>
      <trkpt lat="48.84632" lon="2.39751">
        <ele>100.3</ele>
        <time>2015-03-02T19:44:08.596Z</time>
      </trkpt>
      <trkpt lat="48.84628" lon="2.39755">
        <ele>100.4</ele>
        <time>2015-03-02T19:44:09.602Z</time>
      </trkpt>
      <trkpt lat="48.84624" lon="2.39758">
        <ele>100.6</ele>
        <time>2015-03-02T19:44:10.648Z</time>
      </trkpt>
      <trkpt lat="48.84619" lon="2.39762">
        <ele>100.6</ele>
        <time>2015-03-02T19:44:11.652Z</time>
      </trkpt>
      <trkpt lat="48.84615" lon="2.39765">
        <ele>100.7</ele>
        <time>2015-03-02T19:44:12.676Z</time>
      </trkpt>
      <trkpt lat="48.84611" lon="2.39768">
        <ele>100.8</ele>
        <time>2015-03-02T19:44:13.597Z</time>
      </trkpt>
      <trkpt lat="48.84606" lon="2.39771">
        <ele>100.8</ele>
        <time>2015-03-02T19:44:14.616Z</time>
      </trkpt>
      <trkpt lat="48.84602" lon="2.39774">
        <ele>100.9</ele>
        <time>2015-03-02T19:44:15.610Z</time>
      </trkpt>
      <trkpt lat="48.84598" lon="2.39777">
        <ele>100.8</ele>
        <time>2015-03-02T19:44:16.625Z</time>
      </trkpt>
      <trkpt lat="48.84593" lon="2.3978">
        <ele>100.8</ele>
        <time>2015-03-02T19:44:17.639Z</time>
      </trkpt>
      <trkpt lat="48.84589" lon="2.39782">
        <ele>100.9</ele>
        <time>2015-03-02T19:44:18.663Z</time>
      </trkpt>
      <trkpt lat="48.84585" lon="2.39785">
        <ele>100.8</ele>
        <time>2015-03-02T19:44:19.564Z</time>
      </trkpt>
      <trkpt lat="48.8458" lon="2.39788">
        <ele>100.8</ele>
        <time>2015-03-02T19:44:20.615Z</time>
      </trkpt>
      <trkpt lat="48.84573" lon="2.39794">
        <ele>100.6</ele>
        <time>2015-03-02T19:44:22.651Z</time>
      </trkpt>
      <trkpt lat="48.8457" lon="2.39797">
        <ele>100.7</ele>
        <time>2015-03-02T19:44:23.564Z</time>
      </trkpt>
      <trkpt lat="48.84563" lon="2.39803">
        <ele>100.9</ele>
        <time>2015-03-02T19:44:25.586Z</time>
      </trkpt>
      <trkpt lat="48.84559" lon="2.39804">
        <ele>100.9</ele>
        <time>2015-03-02T19:44:26.614Z</time>
      </trkpt>
      <trkpt lat="48.84553" lon="2.39807">
        <ele>101.1</ele>
        <time>2015-03-02T19:44:28.652Z</time>
      </trkpt>
      <trkpt lat="48.84549" lon="2.39809">
        <ele>101.2</ele>
        <time>2015-03-02T19:44:29.581Z</time>
      </trkpt>
      <trkpt lat="48.84542" lon="2.39815">
        <ele>101.5</ele>
        <time>2015-03-02T19:44:32.656Z</time>
      </trkpt>
      <trkpt lat="48.84539" lon="2.39816">
        <ele>101.7</ele>
        <time>2015-03-02T19:44:33.636Z</time>
      </trkpt>
      <trkpt lat="48.84533" lon="2.39825">
        <ele>102.2</ele>
        <time>2015-03-02T19:44:37.557Z</time>
      </trkpt>
      <trkpt lat="48.84531" lon="2.3983">
        <ele>102</ele>
        <time>2015-03-02T19:44:38.612Z</time>
      </trkpt>
      <trkpt lat="48.84528" lon="2.3984">
        <ele>101.8</ele>
        <time>2015-03-02T19:44:40.559Z</time>
      </trkpt>
      <trkpt lat="48.84527" lon="2.39846">
        <ele>101.6</ele>
        <time>2015-03-02T19:44:41.573Z</time>
      </trkpt>
      <trkpt lat="48.84524" lon="2.39858">
        <ele>101.7</ele>
        <time>2015-03-02T19:44:43.603Z</time>
      </trkpt>
      <trkpt lat="48.84522" lon="2.39865">
        <ele>101.5</ele>
        <time>2015-03-02T19:44:44.617Z</time>
      </trkpt>
      <trkpt lat="48.84521" lon="2.39871">
        <ele>101.4</ele>
        <time>2015-03-02T19:44:45.629Z</time>
      </trkpt>
      <trkpt lat="48.8452" lon="2.39878">
        <ele>101.4</ele>
        <time>2015-03-02T19:44:46.638Z</time>
      </trkpt>
      <trkpt lat="48.84517" lon="2.3989">
        <ele>101.5</ele>
        <time>2015-03-02T19:44:48.570Z</time>
      </trkpt>
      <trkpt lat="48.84515" lon="2.39897">
        <ele>101.5</ele>
        <time>2015-03-02T19:44:49.577Z</time>
      </trkpt>
      <trkpt lat="48.84513" lon="2.39903">
        <ele>101.4</ele>
        <time>2015-03-02T19:44:50.603Z</time>
      </trkpt>
      <trkpt lat="48.84512" lon="2.3991">
        <ele>101.3</ele>
        <time>2015-03-02T19:44:51.607Z</time>
      </trkpt>
      <trkpt lat="48.84512" lon="2.39918">
        <ele>100.9</ele>
        <time>2015-03-02T19:44:52.626Z</time>
      </trkpt>
      <trkpt lat="48.84511" lon="2.39925">
        <ele>100.5</ele>
        <time>2015-03-02T19:44:53.633Z</time>
      </trkpt>
      <trkpt lat="48.84512" lon="2.39932">
        <ele>100.2</ele>
        <time>2015-03-02T19:44:54.646Z</time>
      </trkpt>
      <trkpt lat="48.84512" lon="2.3994">
        <ele>100.2</ele>
        <time>2015-03-02T19:44:55.660Z</time>
      </trkpt>
      <trkpt lat="48.84513" lon="2.39947">
        <ele>100</ele>
        <time>2015-03-02T19:44:56.601Z</time>
      </trkpt>
      <trkpt lat="48.84514" lon="2.39954">
        <ele>99.8</ele>
        <time>2015-03-02T19:44:57.608Z</time>
      </trkpt>
      <trkpt lat="48.84515" lon="2.39961">
        <ele>99.6</ele>
        <time>2015-03-02T19:44:58.625Z</time>
      </trkpt>
      <trkpt lat="48.84515" lon="2.39967">
        <ele>99.4</ele>
        <time>2015-03-02T19:44:59.639Z</time>
      </trkpt>
      <trkpt lat="48.84515" lon="2.3998">
        <ele>99.4</ele>
        <time>2015-03-02T19:45:01.604Z</time>
      </trkpt>
      <trkpt lat="48.84515" lon="2.39987">
        <ele>99.3</ele>
        <time>2015-03-02T19:45:02.614Z</time>
      </trkpt>
      <trkpt lat="48.84515" lon="2.40001">
        <ele>99.1</ele>
        <time>2015-03-02T19:45:04.557Z</time>
      </trkpt>
      <trkpt lat="48.84516" lon="2.40008">
        <ele>98.8</ele>
        <time>2015-03-02T19:45:05.569Z</time>
      </trkpt>
      <trkpt lat="48.84516" lon="2.40015">
        <ele>98.8</ele>
        <time>2015-03-02T19:45:06.632Z</time>
      </trkpt>
      <trkpt lat="48.84516" lon="2.40023">
        <ele>98.9</ele>
        <time>2015-03-02T19:45:07.642Z</time>
      </trkpt>
      <trkpt lat="48.84515" lon="2.4003">
        <ele>99</ele>
        <time>2015-03-02T19:45:08.676Z</time>
      </trkpt>
      <trkpt lat="48.84514" lon="2.40037">
        <ele>99.1</ele>
        <time>2015-03-02T19:45:09.558Z</time>
      </trkpt>
      <trkpt lat="48.84515" lon="2.4005">
        <ele>99.4</ele>
        <time>2015-03-02T19:45:11.580Z</time>
      </trkpt>
      <trkpt lat="48.84516" lon="2.40057">
        <ele>99.2</ele>
        <time>2015-03-02T19:45:12.573Z</time>
      </trkpt>
      <trkpt lat="48.84516" lon="2.40064">
        <ele>99.2</ele>
        <time>2015-03-02T19:45:13.654Z</time>
      </trkpt>
      <trkpt lat="48.84516" lon="2.40071">
        <ele>99.2</ele>
        <time>2015-03-02T19:45:14.674Z</time>
      </trkpt>
      <trkpt lat="48.84515" lon="2.40079">
        <ele>99</ele>
        <time>2015-03-02T19:45:15.563Z</time>
      </trkpt>
      <trkpt lat="48.84515" lon="2.40086">
        <ele>99</ele>
        <time>2015-03-02T19:45:16.579Z</time>
      </trkpt>
      <trkpt lat="48.84515" lon="2.40094">
        <ele>99</ele>
        <time>2015-03-02T19:45:17.613Z</time>
      </trkpt>
      <trkpt lat="48.84515" lon="2.40101">
        <ele>99.1</ele>
        <time>2015-03-02T19:45:18.619Z</time>
      </trkpt>
      <trkpt lat="48.84515" lon="2.40108">
        <ele>99.1</ele>
        <time>2015-03-02T19:45:19.622Z</time>
      </trkpt>
      <trkpt lat="48.84515" lon="2.40115">
        <ele>99.3</ele>
        <time>2015-03-02T19:45:20.644Z</time>
      </trkpt>
      <trkpt lat="48.84514" lon="2.40128">
        <ele>99.4</ele>
        <time>2015-03-02T19:45:22.579Z</time>
      </trkpt>
      <trkpt lat="48.84513" lon="2.40135">
        <ele>99.6</ele>
        <time>2015-03-02T19:45:23.592Z</time>
      </trkpt>
      <trkpt lat="48.84511" lon="2.40147">
        <ele>99.9</ele>
        <time>2015-03-02T19:45:25.633Z</time>
      </trkpt>
      <trkpt lat="48.84509" lon="2.40153">
        <ele>100</ele>
        <time>2015-03-02T19:45:26.644Z</time>
      </trkpt>
      <trkpt lat="48.84507" lon="2.4016">
        <ele>100</ele>
        <time>2015-03-02T19:45:27.648Z</time>
      </trkpt>
      <trkpt lat="48.84504" lon="2.40166">
        <ele>100.1</ele>
        <time>2015-03-02T19:45:28.562Z</time>
      </trkpt>
      <trkpt lat="48.84501" lon="2.40173">
        <ele>100.5</ele>
        <time>2015-03-02T19:45:29.569Z</time>
      </trkpt>
      <trkpt lat="48.84499" lon="2.4018">
        <ele>100.9</ele>
        <time>2015-03-02T19:45:30.578Z</time>
      </trkpt>
      <trkpt lat="48.84496" lon="2.40186">
        <ele>101.4</ele>
        <time>2015-03-02T19:45:31.613Z</time>
      </trkpt>
      <trkpt lat="48.84492" lon="2.40191">
        <ele>101.8</ele>
        <time>2015-03-02T19:45:32.636Z</time>
      </trkpt>
      <trkpt lat="48.84486" lon="2.402">
        <ele>102.6</ele>
        <time>2015-03-02T19:45:34.569Z</time>
      </trkpt>
      <trkpt lat="48.84483" lon="2.40205">
        <ele>102.9</ele>
        <time>2015-03-02T19:45:35.573Z</time>
      </trkpt>
      <trkpt lat="48.84481" lon="2.40213">
        <ele>102.3</ele>
        <time>2015-03-02T19:45:37.564Z</time>
      </trkpt>
      <trkpt lat="48.84481" lon="2.40218">
        <ele>102.4</ele>
        <time>2015-03-02T19:45:38.621Z</time>
      </trkpt>
      <trkpt lat="48.8448" lon="2.4023">
        <ele>102.4</ele>
        <time>2015-03-02T19:45:40.536Z</time>
      </trkpt>
      <trkpt lat="48.84481" lon="2.40236">
        <ele>102.5</ele>
        <time>2015-03-02T19:45:41.557Z</time>
      </trkpt>
      <trkpt lat="48.84482" lon="2.40248">
        <ele>102.9</ele>
        <time>2015-03-02T19:45:43.599Z</time>
      </trkpt>
      <trkpt lat="48.84483" lon="2.40254">
        <ele>103</ele>
        <time>2015-03-02T19:45:44.622Z</time>
      </trkpt>
      <trkpt lat="48.84483" lon="2.40268">
        <ele>102.9</ele>
        <time>2015-03-02T19:45:46.569Z</time>
      </trkpt>
      <trkpt lat="48.84483" lon="2.40275">
        <ele>102.7</ele>
        <time>2015-03-02T19:45:47.669Z</time>
      </trkpt>
      <trkpt lat="48.84484" lon="2.40282">
        <ele>102.7</ele>
        <time>2015-03-02T19:45:48.554Z</time>
      </trkpt>
      <trkpt lat="48.84485" lon="2.4029">
        <ele>102.8</ele>
        <time>2015-03-02T19:45:49.560Z</time>
      </trkpt>
      <trkpt lat="48.84485" lon="2.40297">
        <ele>102.9</ele>
        <time>2015-03-02T19:45:50.597Z</time>
      </trkpt>
      <trkpt lat="48.84484" lon="2.40305">
        <ele>102.9</ele>
        <time>2015-03-02T19:45:51.608Z</time>
      </trkpt>
      <trkpt lat="48.84484" lon="2.40313">
        <ele>102.9</ele>
        <time>2015-03-02T19:45:52.643Z</time>
      </trkpt>
      <trkpt lat="48.84483" lon="2.40321">
        <ele>102.9</ele>
        <time>2015-03-02T19:45:53.561Z</time>
      </trkpt>
      <trkpt lat="48.84482" lon="2.4033">
        <ele>103.1</ele>
        <time>2015-03-02T19:45:54.617Z</time>
      </trkpt>
      <trkpt lat="48.84481" lon="2.40338">
        <ele>103.2</ele>
        <time>2015-03-02T19:45:55.628Z</time>
      </trkpt>
      <trkpt lat="48.84482" lon="2.40346">
        <ele>102.7</ele>
        <time>2015-03-02T19:45:56.643Z</time>
      </trkpt>
      <trkpt lat="48.84481" lon="2.40354">
        <ele>102.8</ele>
        <time>2015-03-02T19:45:57.543Z</time>
      </trkpt>
      <trkpt lat="48.84481" lon="2.40363">
        <ele>102.7</ele>
        <time>2015-03-02T19:45:58.579Z</time>
      </trkpt>
      <trkpt lat="48.84481" lon="2.40371">
        <ele>102.6</ele>
        <time>2015-03-02T19:45:59.587Z</time>
      </trkpt>
      <trkpt lat="48.84481" lon="2.4038">
        <ele>102.4</ele>
        <time>2015-03-02T19:46:00.602Z</time>
      </trkpt>
      <trkpt lat="48.8448" lon="2.40388">
        <ele>102.3</ele>
        <time>2015-03-02T19:46:01.608Z</time>
      </trkpt>
      <trkpt lat="48.8448" lon="2.40397">
        <ele>102.2</ele>
        <time>2015-03-02T19:46:02.651Z</time>
      </trkpt>
      <trkpt lat="48.84478" lon="2.40406">
        <ele>102.3</ele>
        <time>2015-03-02T19:46:03.555Z</time>
      </trkpt>
      <trkpt lat="48.84475" lon="2.40414">
        <ele>102.2</ele>
        <time>2015-03-02T19:46:04.556Z</time>
      </trkpt>
      <trkpt lat="48.84472" lon="2.40423">
        <ele>102.3</ele>
        <time>2015-03-02T19:46:05.577Z</time>
      </trkpt>
      <trkpt lat="48.8447" lon="2.40432">
        <ele>102.3</ele>
        <time>2015-03-02T19:46:06.582Z</time>
      </trkpt>
      <trkpt lat="48.84468" lon="2.40441">
        <ele>102.4</ele>
        <time>2015-03-02T19:46:07.600Z</time>
      </trkpt>
      <trkpt lat="48.84465" lon="2.40449">
        <ele>102.5</ele>
        <time>2015-03-02T19:46:08.659Z</time>
      </trkpt>
      <trkpt lat="48.84463" lon="2.40458">
        <ele>102.6</ele>
        <time>2015-03-02T19:46:09.561Z</time>
      </trkpt>
      <trkpt lat="48.84461" lon="2.40467">
        <ele>102.6</ele>
        <time>2015-03-02T19:46:10.564Z</time>
      </trkpt>
      <trkpt lat="48.84458" lon="2.40477">
        <ele>102.5</ele>
        <time>2015-03-02T19:46:11.570Z</time>
      </trkpt>
      <trkpt lat="48.84455" lon="2.40486">
        <ele>102.4</ele>
        <time>2015-03-02T19:46:12.601Z</time>
      </trkpt>
      <trkpt lat="48.84452" lon="2.40494">
        <ele>102.4</ele>
        <time>2015-03-02T19:46:13.625Z</time>
      </trkpt>
      <trkpt lat="48.84449" lon="2.40502">
        <ele>102.5</ele>
        <time>2015-03-02T19:46:14.637Z</time>
      </trkpt>
      <trkpt lat="48.84448" lon="2.40509">
        <ele>102.7</ele>
        <time>2015-03-02T19:46:15.535Z</time>
      </trkpt>
      <trkpt lat="48.84446" lon="2.40517">
        <ele>102.9</ele>
        <time>2015-03-02T19:46:16.574Z</time>
      </trkpt>
      <trkpt lat="48.84444" lon="2.40524">
        <ele>103</ele>
        <time>2015-03-02T19:46:17.621Z</time>
      </trkpt>
      <trkpt lat="48.84447" lon="2.4053">
        <ele>102.9</ele>
        <time>2015-03-02T19:46:18.634Z</time>
      </trkpt>
      <trkpt lat="48.84448" lon="2.40538">
        <ele>102.9</ele>
        <time>2015-03-02T19:46:19.646Z</time>
      </trkpt>
      <trkpt lat="48.84447" lon="2.40545">
        <ele>103</ele>
        <time>2015-03-02T19:46:20.659Z</time>
      </trkpt>
      <trkpt lat="48.84446" lon="2.40553">
        <ele>103.1</ele>
        <time>2015-03-02T19:46:21.557Z</time>
      </trkpt>
      <trkpt lat="48.84444" lon="2.4056">
        <ele>103.2</ele>
        <time>2015-03-02T19:46:22.623Z</time>
      </trkpt>
      <trkpt lat="48.84442" lon="2.40566">
        <ele>103</ele>
        <time>2015-03-02T19:46:23.625Z</time>
      </trkpt>
      <trkpt lat="48.84445" lon="2.40578">
        <ele>100.3</ele>
        <time>2015-03-02T19:46:25.589Z</time>
      </trkpt>
      <trkpt lat="48.84444" lon="2.40585">
        <ele>100.5</ele>
        <time>2015-03-02T19:46:26.610Z</time>
      </trkpt>
      <trkpt lat="48.84444" lon="2.40597">
        <ele>100.7</ele>
        <time>2015-03-02T19:46:28.557Z</time>
      </trkpt>
      <trkpt lat="48.84445" lon="2.40602">
        <ele>100.8</ele>
        <time>2015-03-02T19:46:29.669Z</time>
      </trkpt>
      <trkpt lat="48.84447" lon="2.40614">
        <ele>100.8</ele>
        <time>2015-03-02T19:46:31.560Z</time>
      </trkpt>
      <trkpt lat="48.84448" lon="2.40621">
        <ele>100.8</ele>
        <time>2015-03-02T19:46:32.627Z</time>
      </trkpt>
      <trkpt lat="48.8445" lon="2.40633">
        <ele>101</ele>
        <time>2015-03-02T19:46:34.574Z</time>
      </trkpt>
      <trkpt lat="48.8445" lon="2.40639">
        <ele>101</ele>
        <time>2015-03-02T19:46:35.604Z</time>
      </trkpt>
      <trkpt lat="48.84452" lon="2.40651">
        <ele>101.2</ele>
        <time>2015-03-02T19:46:37.570Z</time>
      </trkpt>
      <trkpt lat="48.84453" lon="2.40656">
        <ele>101.3</ele>
        <time>2015-03-02T19:46:38.612Z</time>
      </trkpt>
      <trkpt lat="48.84452" lon="2.4067">
        <ele>101.4</ele>
        <time>2015-03-02T19:46:40.610Z</time>
      </trkpt>
      <trkpt lat="48.84452" lon="2.40677">
        <ele>101.3</ele>
        <time>2015-03-02T19:46:41.616Z</time>
      </trkpt>
      <trkpt lat="48.8445" lon="2.40684">
        <ele>101.3</ele>
        <time>2015-03-02T19:46:42.568Z</time>
      </trkpt>
      <trkpt lat="48.8445" lon="2.40692">
        <ele>101.2</ele>
        <time>2015-03-02T19:46:43.583Z</time>
      </trkpt>
      <trkpt lat="48.84451" lon="2.40699">
        <ele>101.4</ele>
        <time>2015-03-02T19:46:44.631Z</time>
      </trkpt>
      <trkpt lat="48.8445" lon="2.40707">
        <ele>101.4</ele>
        <time>2015-03-02T19:46:45.626Z</time>
      </trkpt>
      <trkpt lat="48.84449" lon="2.40715">
        <ele>101.5</ele>
        <time>2015-03-02T19:46:46.633Z</time>
      </trkpt>
      <trkpt lat="48.84448" lon="2.40722">
        <ele>101.5</ele>
        <time>2015-03-02T19:46:47.661Z</time>
      </trkpt>
      <trkpt lat="48.84446" lon="2.4073">
        <ele>101.6</ele>
        <time>2015-03-02T19:46:48.601Z</time>
      </trkpt>
      <trkpt lat="48.84445" lon="2.40741">
        <ele>103.9</ele>
        <time>2015-03-02T19:46:49.570Z</time>
      </trkpt>
      <trkpt lat="48.84443" lon="2.40749">
        <ele>104.3</ele>
        <time>2015-03-02T19:46:50.606Z</time>
      </trkpt>
      <trkpt lat="48.84442" lon="2.40757">
        <ele>104.9</ele>
        <time>2015-03-02T19:46:51.634Z</time>
      </trkpt>
      <trkpt lat="48.8444" lon="2.40768">
        <ele>105</ele>
        <time>2015-03-02T19:46:53.565Z</time>
      </trkpt>
      <trkpt lat="48.84439" lon="2.40774">
        <ele>105</ele>
        <time>2015-03-02T19:46:54.608Z</time>
      </trkpt>
      <trkpt lat="48.84436" lon="2.40786">
        <ele>105.3</ele>
        <time>2015-03-02T19:46:56.627Z</time>
      </trkpt>
      <trkpt lat="48.84434" lon="2.40792">
        <ele>105.3</ele>
        <time>2015-03-02T19:46:57.585Z</time>
      </trkpt>
      <trkpt lat="48.84432" lon="2.40805">
        <ele>105.3</ele>
        <time>2015-03-02T19:47:00.416Z</time>
      </trkpt>
      <trkpt lat="48.84432" lon="2.40812">
        <ele>105.2</ele>
        <time>2015-03-02T19:47:00.627Z</time>
      </trkpt>
      <trkpt lat="48.84431" lon="2.40819">
        <ele>105.2</ele>
        <time>2015-03-02T19:47:01.640Z</time>
      </trkpt>
      <trkpt lat="48.8443" lon="2.40826">
        <ele>105</ele>
        <time>2015-03-02T19:47:02.675Z</time>
      </trkpt>
      <trkpt lat="48.84429" lon="2.40833">
        <ele>105.1</ele>
        <time>2015-03-02T19:47:03.568Z</time>
      </trkpt>
      <trkpt lat="48.84427" lon="2.4084">
        <ele>105.1</ele>
        <time>2015-03-02T19:47:04.570Z</time>
      </trkpt>
      <trkpt lat="48.84426" lon="2.40847">
        <ele>105.2</ele>
        <time>2015-03-02T19:47:05.581Z</time>
      </trkpt>
      <trkpt lat="48.84426" lon="2.40854">
        <ele>105.3</ele>
        <time>2015-03-02T19:47:06.705Z</time>
      </trkpt>
      <trkpt lat="48.84426" lon="2.40861">
        <ele>105.3</ele>
        <time>2015-03-02T19:47:07.606Z</time>
      </trkpt>
      <trkpt lat="48.84425" lon="2.40868">
        <ele>105.4</ele>
        <time>2015-03-02T19:47:08.649Z</time>
      </trkpt>
      <trkpt lat="48.84426" lon="2.40881">
        <ele>105.7</ele>
        <time>2015-03-02T19:47:10.547Z</time>
      </trkpt>
      <trkpt lat="48.84429" lon="2.40887">
        <ele>105.7</ele>
        <time>2015-03-02T19:47:11.570Z</time>
      </trkpt>
      <trkpt lat="48.8443" lon="2.40895">
        <ele>105.6</ele>
        <time>2015-03-02T19:47:12.586Z</time>
      </trkpt>
      <trkpt lat="48.84432" lon="2.40902">
        <ele>105.4</ele>
        <time>2015-03-02T19:47:13.600Z</time>
      </trkpt>
      <trkpt lat="48.84432" lon="2.4091">
        <ele>105.4</ele>
        <time>2015-03-02T19:47:14.615Z</time>
      </trkpt>
      <trkpt lat="48.84433" lon="2.40917">
        <ele>105.4</ele>
        <time>2015-03-02T19:47:15.629Z</time>
      </trkpt>
      <trkpt lat="48.84432" lon="2.40925">
        <ele>105.2</ele>
        <time>2015-03-02T19:47:16.645Z</time>
      </trkpt>
      <trkpt lat="48.84432" lon="2.40933">
        <ele>105.1</ele>
        <time>2015-03-02T19:47:17.571Z</time>
      </trkpt>
      <trkpt lat="48.84431" lon="2.40941">
        <ele>105.1</ele>
        <time>2015-03-02T19:47:18.586Z</time>
      </trkpt>
      <trkpt lat="48.84431" lon="2.40949">
        <ele>105.1</ele>
        <time>2015-03-02T19:47:19.597Z</time>
      </trkpt>
      <trkpt lat="48.84429" lon="2.40957">
        <ele>105.3</ele>
        <time>2015-03-02T19:47:20.604Z</time>
      </trkpt>
      <trkpt lat="48.84427" lon="2.40965">
        <ele>105.4</ele>
        <time>2015-03-02T19:47:21.616Z</time>
      </trkpt>
      <trkpt lat="48.84426" lon="2.40973">
        <ele>105.5</ele>
        <time>2015-03-02T19:47:22.655Z</time>
      </trkpt>
      <trkpt lat="48.84428" lon="2.40979">
        <ele>104.3</ele>
        <time>2015-03-02T19:47:23.569Z</time>
      </trkpt>
      <trkpt lat="48.84427" lon="2.40992">
        <ele>103.8</ele>
        <time>2015-03-02T19:47:25.557Z</time>
      </trkpt>
      <trkpt lat="48.84427" lon="2.40996">
        <ele>103.1</ele>
        <time>2015-03-02T19:47:26.582Z</time>
      </trkpt>
      <trkpt lat="48.84427" lon="2.41009">
        <ele>102.8</ele>
        <time>2015-03-02T19:47:29.629Z</time>
      </trkpt>
      <trkpt lat="48.84426" lon="2.41013">
        <ele>102.8</ele>
        <time>2015-03-02T19:47:30.642Z</time>
      </trkpt>
      <trkpt lat="48.84423" lon="2.41024">
        <ele>103</ele>
        <time>2015-03-02T19:47:34.576Z</time>
      </trkpt>
      <trkpt lat="48.84423" lon="2.41027">
        <ele>103.2</ele>
        <time>2015-03-02T19:47:35.668Z</time>
      </trkpt>
      <trkpt lat="48.84421" lon="2.41039">
        <ele>104.7</ele>
        <time>2015-03-02T19:47:39.682Z</time>
      </trkpt>
      <trkpt lat="48.84421" lon="2.41042">
        <ele>105.1</ele>
        <time>2015-03-02T19:47:40.729Z</time>
      </trkpt>
      <trkpt lat="48.8442" lon="2.41055">
        <ele>106.3</ele>
        <time>2015-03-02T19:47:43.611Z</time>
      </trkpt>
      <trkpt lat="48.8442" lon="2.4106">
        <ele>106.5</ele>
        <time>2015-03-02T19:47:44.634Z</time>
      </trkpt>
      <trkpt lat="48.84419" lon="2.4107">
        <ele>106.8</ele>
        <time>2015-03-02T19:47:46.557Z</time>
      </trkpt>
      <trkpt lat="48.84418" lon="2.41075">
        <ele>106.8</ele>
        <time>2015-03-02T19:47:47.570Z</time>
      </trkpt>
      <trkpt lat="48.84415" lon="2.41085">
        <ele>107.1</ele>
        <time>2015-03-02T19:47:49.597Z</time>
      </trkpt>
      <trkpt lat="48.84415" lon="2.4109">
        <ele>107.3</ele>
        <time>2015-03-02T19:47:50.615Z</time>
      </trkpt>
      <trkpt lat="48.84412" lon="2.411">
        <ele>107.2</ele>
        <time>2015-03-02T19:47:52.557Z</time>
      </trkpt>
      <trkpt lat="48.84411" lon="2.41105">
        <ele>107.3</ele>
        <time>2015-03-02T19:47:53.573Z</time>
      </trkpt>
      <trkpt lat="48.84409" lon="2.41115">
        <ele>107.6</ele>
        <time>2015-03-02T19:47:55.623Z</time>
      </trkpt>
      <trkpt lat="48.8441" lon="2.4112">
        <ele>107.8</ele>
        <time>2015-03-02T19:47:56.651Z</time>
      </trkpt>
      <trkpt lat="48.84409" lon="2.41131">
        <ele>107.8</ele>
        <time>2015-03-02T19:47:58.556Z</time>
      </trkpt>
      <trkpt lat="48.84408" lon="2.41136">
        <ele>107.8</ele>
        <time>2015-03-02T19:47:59.597Z</time>
      </trkpt>
      <trkpt lat="48.84408" lon="2.41149">
        <ele>107.6</ele>
        <time>2015-03-02T19:48:01.611Z</time>
      </trkpt>
      <trkpt lat="48.84408" lon="2.41155">
        <ele>107.5</ele>
        <time>2015-03-02T19:48:02.671Z</time>
      </trkpt>
      <trkpt lat="48.8441" lon="2.41165">
        <ele>105.9</ele>
        <time>2015-03-02T19:48:04.556Z</time>
      </trkpt>
      <trkpt lat="48.8441" lon="2.41171">
        <ele>105.7</ele>
        <time>2015-03-02T19:48:05.562Z</time>
      </trkpt>
      <trkpt lat="48.84408" lon="2.41182">
        <ele>105.6</ele>
        <time>2015-03-02T19:48:07.590Z</time>
      </trkpt>
      <trkpt lat="48.84407" lon="2.41188">
        <ele>105.6</ele>
        <time>2015-03-02T19:48:08.608Z</time>
      </trkpt>
      <trkpt lat="48.84406" lon="2.41201">
        <ele>105.5</ele>
        <time>2015-03-02T19:48:10.670Z</time>
      </trkpt>
      <trkpt lat="48.84405" lon="2.41207">
        <ele>105.6</ele>
        <time>2015-03-02T19:48:11.573Z</time>
      </trkpt>
      <trkpt lat="48.84406" lon="2.41219">
        <ele>104.7</ele>
        <time>2015-03-02T19:48:13.607Z</time>
      </trkpt>
      <trkpt lat="48.84406" lon="2.41224">
        <ele>104.4</ele>
        <time>2015-03-02T19:48:14.648Z</time>
      </trkpt>
      <trkpt lat="48.84405" lon="2.41237">
        <ele>104.2</ele>
        <time>2015-03-02T19:48:16.560Z</time>
      </trkpt>
      <trkpt lat="48.84405" lon="2.41243">
        <ele>104.2</ele>
        <time>2015-03-02T19:48:17.575Z</time>
      </trkpt>
      <trkpt lat="48.84404" lon="2.41255">
        <ele>104</ele>
        <time>2015-03-02T19:48:19.599Z</time>
      </trkpt>
      <trkpt lat="48.84403" lon="2.41261">
        <ele>104</ele>
        <time>2015-03-02T19:48:20.641Z</time>
      </trkpt>
      <trkpt lat="48.84402" lon="2.41273">
        <ele>103.3</ele>
        <time>2015-03-02T19:48:22.602Z</time>
      </trkpt>
      <trkpt lat="48.84402" lon="2.41278">
        <ele>103.3</ele>
        <time>2015-03-02T19:48:23.628Z</time>
      </trkpt>
      <trkpt lat="48.844" lon="2.41288">
        <ele>103.3</ele>
        <time>2015-03-02T19:48:25.556Z</time>
      </trkpt>
      <trkpt lat="48.844" lon="2.41295">
        <ele>103.3</ele>
        <time>2015-03-02T19:48:26.609Z</time>
      </trkpt>
      <trkpt lat="48.84399" lon="2.41308">
        <ele>103.4</ele>
        <time>2015-03-02T19:48:28.631Z</time>
      </trkpt>
      <trkpt lat="48.84398" lon="2.41314">
        <ele>103.3</ele>
        <time>2015-03-02T19:48:29.646Z</time>
      </trkpt>
      <trkpt lat="48.84397" lon="2.41327">
        <ele>103.1</ele>
        <time>2015-03-02T19:48:31.558Z</time>
      </trkpt>
      <trkpt lat="48.84397" lon="2.41333">
        <ele>102.9</ele>
        <time>2015-03-02T19:48:32.634Z</time>
      </trkpt>
      <trkpt lat="48.84396" lon="2.41345">
        <ele>102.3</ele>
        <time>2015-03-02T19:48:34.548Z</time>
      </trkpt>
      <trkpt lat="48.84396" lon="2.41351">
        <ele>102.2</ele>
        <time>2015-03-02T19:48:35.633Z</time>
      </trkpt>
      <trkpt lat="48.84395" lon="2.41362">
        <ele>102.3</ele>
        <time>2015-03-02T19:48:37.550Z</time>
      </trkpt>
      <trkpt lat="48.84395" lon="2.41368">
        <ele>102.2</ele>
        <time>2015-03-02T19:48:38.608Z</time>
      </trkpt>
      <trkpt lat="48.84394" lon="2.41379">
        <ele>101.9</ele>
        <time>2015-03-02T19:48:40.590Z</time>
      </trkpt>
      <trkpt lat="48.84393" lon="2.41386">
        <ele>101.7</ele>
        <time>2015-03-02T19:48:41.603Z</time>
      </trkpt>
      <trkpt lat="48.84392" lon="2.41397">
        <ele>101</ele>
        <time>2015-03-02T19:48:43.662Z</time>
      </trkpt>
      <trkpt lat="48.84392" lon="2.41402">
        <ele>100.8</ele>
        <time>2015-03-02T19:48:44.669Z</time>
      </trkpt>
      <trkpt lat="48.84391" lon="2.41413">
        <ele>100.3</ele>
        <time>2015-03-02T19:48:46.559Z</time>
      </trkpt>
      <trkpt lat="48.84391" lon="2.41419">
        <ele>100.1</ele>
        <time>2015-03-02T19:48:47.582Z</time>
      </trkpt>
      <trkpt lat="48.84391" lon="2.41432">
        <ele>99.8</ele>
        <time>2015-03-02T19:48:49.621Z</time>
      </trkpt>
      <trkpt lat="48.8439" lon="2.41438">
        <ele>99.8</ele>
        <time>2015-03-02T19:48:50.626Z</time>
      </trkpt>
      <trkpt lat="48.8439" lon="2.41449">
        <ele>99.6</ele>
        <time>2015-03-02T19:48:52.568Z</time>
      </trkpt>
      <trkpt lat="48.8439" lon="2.41455">
        <ele>99.6</ele>
        <time>2015-03-02T19:48:53.593Z</time>
      </trkpt>
      <trkpt lat="48.84389" lon="2.41467">
        <ele>99.7</ele>
        <time>2015-03-02T19:48:55.570Z</time>
      </trkpt>
      <trkpt lat="48.84389" lon="2.41473">
        <ele>99.8</ele>
        <time>2015-03-02T19:48:56.614Z</time>
      </trkpt>
      <trkpt lat="48.84388" lon="2.41485">
        <ele>99.5</ele>
        <time>2015-03-02T19:48:58.576Z</time>
      </trkpt>
      <trkpt lat="48.84388" lon="2.41492">
        <ele>99.5</ele>
        <time>2015-03-02T19:48:59.591Z</time>
      </trkpt>
      <trkpt lat="48.84387" lon="2.41504">
        <ele>99.3</ele>
        <time>2015-03-02T19:49:01.620Z</time>
      </trkpt>
      <trkpt lat="48.84387" lon="2.41511">
        <ele>99.2</ele>
        <time>2015-03-02T19:49:02.631Z</time>
      </trkpt>
      <trkpt lat="48.84386" lon="2.41523">
        <ele>99.1</ele>
        <time>2015-03-02T19:49:04.554Z</time>
      </trkpt>
      <trkpt lat="48.84385" lon="2.4153">
        <ele>99.3</ele>
        <time>2015-03-02T19:49:05.585Z</time>
      </trkpt>
      <trkpt lat="48.84385" lon="2.41537">
        <ele>99.6</ele>
        <time>2015-03-02T19:49:06.647Z</time>
      </trkpt>
      <trkpt lat="48.84384" lon="2.41543">
        <ele>99.7</ele>
        <time>2015-03-02T19:49:07.661Z</time>
      </trkpt>
      <trkpt lat="48.84381" lon="2.41556">
        <ele>100.1</ele>
        <time>2015-03-02T19:49:09.580Z</time>
      </trkpt>
      <trkpt lat="48.84378" lon="2.41563">
        <ele>100.2</ele>
        <time>2015-03-02T19:49:10.589Z</time>
      </trkpt>
      <trkpt lat="48.84377" lon="2.41569">
        <ele>100.3</ele>
        <time>2015-03-02T19:49:11.624Z</time>
      </trkpt>
      <trkpt lat="48.84376" lon="2.41576">
        <ele>100.5</ele>
        <time>2015-03-02T19:49:12.655Z</time>
      </trkpt>
      <trkpt lat="48.84374" lon="2.41583">
        <ele>100.7</ele>
        <time>2015-03-02T19:49:13.620Z</time>
      </trkpt>
      <trkpt lat="48.84373" lon="2.4159">
        <ele>100.9</ele>
        <time>2015-03-02T19:49:14.706Z</time>
      </trkpt>
      <trkpt lat="48.84371" lon="2.41597">
        <ele>101</ele>
        <time>2015-03-02T19:49:15.639Z</time>
      </trkpt>
      <trkpt lat="48.8437" lon="2.41605">
        <ele>101.2</ele>
        <time>2015-03-02T19:49:16.664Z</time>
      </trkpt>
      <trkpt lat="48.84368" lon="2.41612">
        <ele>101.4</ele>
        <time>2015-03-02T19:49:17.559Z</time>
      </trkpt>
      <trkpt lat="48.84367" lon="2.41619">
        <ele>101.5</ele>
        <time>2015-03-02T19:49:18.556Z</time>
      </trkpt>
      <trkpt lat="48.84366" lon="2.41627">
        <ele>101.7</ele>
        <time>2015-03-02T19:49:19.572Z</time>
      </trkpt>
      <trkpt lat="48.84364" lon="2.41635">
        <ele>101.8</ele>
        <time>2015-03-02T19:49:20.684Z</time>
      </trkpt>
      <trkpt lat="48.84363" lon="2.41643">
        <ele>101.8</ele>
        <time>2015-03-02T19:49:21.559Z</time>
      </trkpt>
      <trkpt lat="48.84361" lon="2.4165">
        <ele>102</ele>
        <time>2015-03-02T19:49:22.576Z</time>
      </trkpt>
      <trkpt lat="48.84359" lon="2.41658">
        <ele>102.1</ele>
        <time>2015-03-02T19:49:23.607Z</time>
      </trkpt>
      <trkpt lat="48.84357" lon="2.41666">
        <ele>102.3</ele>
        <time>2015-03-02T19:49:24.621Z</time>
      </trkpt>
      <trkpt lat="48.84356" lon="2.41673">
        <ele>102.4</ele>
        <time>2015-03-02T19:49:25.591Z</time>
      </trkpt>
      <trkpt lat="48.84354" lon="2.41682">
        <ele>102.5</ele>
        <time>2015-03-02T19:49:26.595Z</time>
      </trkpt>
      <trkpt lat="48.84354" lon="2.41689">
        <ele>102.7</ele>
        <time>2015-03-02T19:49:27.605Z</time>
      </trkpt>
      <trkpt lat="48.84354" lon="2.41697">
        <ele>102.7</ele>
        <time>2015-03-02T19:49:28.626Z</time>
      </trkpt>
      <trkpt lat="48.84354" lon="2.41705">
        <ele>102.8</ele>
        <time>2015-03-02T19:49:29.789Z</time>
      </trkpt>
      <trkpt lat="48.84355" lon="2.41713">
        <ele>102.8</ele>
        <time>2015-03-02T19:49:30.584Z</time>
      </trkpt>
      <trkpt lat="48.84355" lon="2.41726">
        <ele>102.9</ele>
        <time>2015-03-02T19:49:32.621Z</time>
      </trkpt>
      <trkpt lat="48.84355" lon="2.41731">
        <ele>103</ele>
        <time>2015-03-02T19:49:33.631Z</time>
      </trkpt>
      <trkpt lat="48.84356" lon="2.41743">
        <ele>103.1</ele>
        <time>2015-03-02T19:49:36.567Z</time>
      </trkpt>
      <trkpt lat="48.84356" lon="2.41745">
        <ele>103.2</ele>
        <time>2015-03-02T19:49:37.574Z</time>
      </trkpt>
      <trkpt lat="48.84359" lon="2.4175">
        <ele>103.3</ele>
        <time>2015-03-02T19:49:40.628Z</time>
      </trkpt>
      <trkpt lat="48.84359" lon="2.41751">
        <ele>103.3</ele>
        <time>2015-03-02T19:49:41.559Z</time>
      </trkpt>
      <trkpt lat="48.84359" lon="2.41751">
        <ele>103.3</ele>
        <time>2015-03-02T19:49:42.555Z</time>
      </trkpt>
      <trkpt lat="48.84359" lon="2.41752">
        <ele>103.2</ele>
        <time>2015-03-02T19:49:43.571Z</time>
      </trkpt>
      <trkpt lat="48.84361" lon="2.41763">
        <ele>103.1</ele>
        <time>2015-03-02T19:49:51.586Z</time>
      </trkpt>
      <trkpt lat="48.84361" lon="2.41765">
        <ele>103</ele>
        <time>2015-03-02T19:49:52.600Z</time>
      </trkpt>
      <trkpt lat="48.8436" lon="2.41776">
        <ele>103</ele>
        <time>2015-03-02T19:49:56.605Z</time>
      </trkpt>
      <trkpt lat="48.8436" lon="2.4178">
        <ele>102.9</ele>
        <time>2015-03-02T19:49:57.614Z</time>
      </trkpt>
      <trkpt lat="48.84361" lon="2.41793">
        <ele>103.2</ele>
        <time>2015-03-02T19:50:00.558Z</time>
      </trkpt>
      <trkpt lat="48.84361" lon="2.41797">
        <ele>103.2</ele>
        <time>2015-03-02T19:50:01.568Z</time>
      </trkpt>
      <trkpt lat="48.84363" lon="2.4181">
        <ele>103</ele>
        <time>2015-03-02T19:50:04.568Z</time>
      </trkpt>
      <trkpt lat="48.84364" lon="2.41814">
        <ele>102.9</ele>
        <time>2015-03-02T19:50:05.555Z</time>
      </trkpt>
      <trkpt lat="48.84364" lon="2.41823">
        <ele>102.6</ele>
        <time>2015-03-02T19:50:07.572Z</time>
      </trkpt>
      <trkpt lat="48.84364" lon="2.41828">
        <ele>102.5</ele>
        <time>2015-03-02T19:50:08.600Z</time>
      </trkpt>
      <trkpt lat="48.84363" lon="2.4184">
        <ele>102.3</ele>
        <time>2015-03-02T19:50:11.631Z</time>
      </trkpt>
      <trkpt lat="48.84363" lon="2.41844">
        <ele>102.4</ele>
        <time>2015-03-02T19:50:12.561Z</time>
      </trkpt>
      <trkpt lat="48.84362" lon="2.41857">
        <ele>102.5</ele>
        <time>2015-03-02T19:50:15.612Z</time>
      </trkpt>
      <trkpt lat="48.84362" lon="2.41862">
        <ele>102.5</ele>
        <time>2015-03-02T19:50:16.635Z</time>
      </trkpt>
      <trkpt lat="48.84365" lon="2.4187">
        <ele>102.5</ele>
        <time>2015-03-02T19:50:18.558Z</time>
      </trkpt>
      <trkpt lat="48.84366" lon="2.41874">
        <ele>102.5</ele>
        <time>2015-03-02T19:50:19.570Z</time>
      </trkpt>
      <trkpt lat="48.8437" lon="2.41881">
        <ele>102.9</ele>
        <time>2015-03-02T19:50:21.607Z</time>
      </trkpt>
      <trkpt lat="48.84372" lon="2.41886">
        <ele>103.2</ele>
        <time>2015-03-02T19:50:22.619Z</time>
      </trkpt>
      <trkpt lat="48.84377" lon="2.41895">
        <ele>103.5</ele>
        <time>2015-03-02T19:50:24.544Z</time>
      </trkpt>
      <trkpt lat="48.8438" lon="2.419">
        <ele>103.6</ele>
        <time>2015-03-02T19:50:25.557Z</time>
      </trkpt>
      <trkpt lat="48.84383" lon="2.41906">
        <ele>103.6</ele>
        <time>2015-03-02T19:50:26.613Z</time>
      </trkpt>
      <trkpt lat="48.84387" lon="2.4191">
        <ele>103.5</ele>
        <time>2015-03-02T19:50:27.595Z</time>
      </trkpt>
      <trkpt lat="48.84393" lon="2.41914">
        <ele>101.4</ele>
        <time>2015-03-02T19:50:28.617Z</time>
      </trkpt>
      <trkpt lat="48.84396" lon="2.4192">
        <ele>101.4</ele>
        <time>2015-03-02T19:50:29.623Z</time>
      </trkpt>
      <trkpt lat="48.84402" lon="2.41929">
        <ele>101.2</ele>
        <time>2015-03-02T19:50:31.545Z</time>
      </trkpt>
      <trkpt lat="48.84404" lon="2.41935">
        <ele>101.2</ele>
        <time>2015-03-02T19:50:32.598Z</time>
      </trkpt>
      <trkpt lat="48.84409" lon="2.41945">
        <ele>101.3</ele>
        <time>2015-03-02T19:50:34.543Z</time>
      </trkpt>
      <trkpt lat="48.84412" lon="2.41951">
        <ele>101.3</ele>
        <time>2015-03-02T19:50:35.614Z</time>
      </trkpt>
      <trkpt lat="48.84417" lon="2.41961">
        <ele>101.3</ele>
        <time>2015-03-02T19:50:37.545Z</time>
      </trkpt>
      <trkpt lat="48.84419" lon="2.41966">
        <ele>101.4</ele>
        <time>2015-03-02T19:50:38.596Z</time>
      </trkpt>
      <trkpt lat="48.84423" lon="2.41977">
        <ele>101.7</ele>
        <time>2015-03-02T19:50:40.636Z</time>
      </trkpt>
      <trkpt lat="48.84425" lon="2.41981">
        <ele>101.7</ele>
        <time>2015-03-02T19:50:41.642Z</time>
      </trkpt>
      <trkpt lat="48.84427" lon="2.41991">
        <ele>101.6</ele>
        <time>2015-03-02T19:50:43.614Z</time>
      </trkpt>
      <trkpt lat="48.84428" lon="2.41996">
        <ele>101.6</ele>
        <time>2015-03-02T19:50:44.627Z</time>
      </trkpt>
      <trkpt lat="48.84435" lon="2.42003">
        <ele>99.2</ele>
        <time>2015-03-02T19:50:46.553Z</time>
      </trkpt>
      <trkpt lat="48.84437" lon="2.42008">
        <ele>99.4</ele>
        <time>2015-03-02T19:50:47.566Z</time>
      </trkpt>
      <trkpt lat="48.84441" lon="2.42012">
        <ele>98.7</ele>
        <time>2015-03-02T19:50:48.569Z</time>
      </trkpt>
      <trkpt lat="48.84445" lon="2.42016">
        <ele>98</ele>
        <time>2015-03-02T19:50:49.582Z</time>
      </trkpt>
      <trkpt lat="48.84449" lon="2.42021">
        <ele>97.5</ele>
        <time>2015-03-02T19:50:50.619Z</time>
      </trkpt>
      <trkpt lat="48.84451" lon="2.42026">
        <ele>97.7</ele>
        <time>2015-03-02T19:50:51.623Z</time>
      </trkpt>
      <trkpt lat="48.84454" lon="2.42031">
        <ele>98</ele>
        <time>2015-03-02T19:50:52.705Z</time>
      </trkpt>
      <trkpt lat="48.84456" lon="2.42037">
        <ele>98.5</ele>
        <time>2015-03-02T19:50:53.564Z</time>
      </trkpt>
      <trkpt lat="48.8446" lon="2.42049">
        <ele>98.9</ele>
        <time>2015-03-02T19:50:55.572Z</time>
      </trkpt>
      <trkpt lat="48.84462" lon="2.42055">
        <ele>99.4</ele>
        <time>2015-03-02T19:50:56.606Z</time>
      </trkpt>
      <trkpt lat="48.84466" lon="2.42066">
        <ele>100</ele>
        <time>2015-03-02T19:50:58.553Z</time>
      </trkpt>
      <trkpt lat="48.84467" lon="2.42072">
        <ele>100.2</ele>
        <time>2015-03-02T19:50:59.575Z</time>
      </trkpt>
      <trkpt lat="48.8447" lon="2.42083">
        <ele>100.7</ele>
        <time>2015-03-02T19:51:01.625Z</time>
      </trkpt>
      <trkpt lat="48.84471" lon="2.42089">
        <ele>101.1</ele>
        <time>2015-03-02T19:51:02.655Z</time>
      </trkpt>
      <trkpt lat="48.84474" lon="2.42101">
        <ele>101.5</ele>
        <time>2015-03-02T19:51:04.544Z</time>
      </trkpt>
      <trkpt lat="48.84475" lon="2.42107">
        <ele>101.6</ele>
        <time>2015-03-02T19:51:05.580Z</time>
      </trkpt>
      <trkpt lat="48.84477" lon="2.42112">
        <ele>101.9</ele>
        <time>2015-03-02T19:51:06.605Z</time>
      </trkpt>
      <trkpt lat="48.84481" lon="2.42117">
        <ele>102.4</ele>
        <time>2015-03-02T19:51:07.611Z</time>
      </trkpt>
      <trkpt lat="48.84485" lon="2.42127">
        <ele>102.8</ele>
        <time>2015-03-02T19:51:09.530Z</time>
      </trkpt>
      <trkpt lat="48.84486" lon="2.42133">
        <ele>102.9</ele>
        <time>2015-03-02T19:51:10.551Z</time>
      </trkpt>
      <trkpt lat="48.84488" lon="2.42144">
        <ele>103.2</ele>
        <time>2015-03-02T19:51:12.642Z</time>
      </trkpt>
      <trkpt lat="48.84489" lon="2.42149">
        <ele>103.3</ele>
        <time>2015-03-02T19:51:13.726Z</time>
      </trkpt>
      <trkpt lat="48.84494" lon="2.42159">
        <ele>103.5</ele>
        <time>2015-03-02T19:51:15.610Z</time>
      </trkpt>
      <trkpt lat="48.84496" lon="2.42164">
        <ele>103.4</ele>
        <time>2015-03-02T19:51:16.624Z</time>
      </trkpt>
      <trkpt lat="48.84499" lon="2.42169">
        <ele>103.6</ele>
        <time>2015-03-02T19:51:17.542Z</time>
      </trkpt>
      <trkpt lat="48.84503" lon="2.42174">
        <ele>103.6</ele>
        <time>2015-03-02T19:51:18.550Z</time>
      </trkpt>
      <trkpt lat="48.84506" lon="2.4218">
        <ele>103.7</ele>
        <time>2015-03-02T19:51:19.567Z</time>
      </trkpt>
      <trkpt lat="48.8451" lon="2.42186">
        <ele>103.8</ele>
        <time>2015-03-02T19:51:20.596Z</time>
      </trkpt>
      <trkpt lat="48.84516" lon="2.4219">
        <ele>102.6</ele>
        <time>2015-03-02T19:51:21.608Z</time>
      </trkpt>
      <trkpt lat="48.84522" lon="2.42195">
        <ele>101.6</ele>
        <time>2015-03-02T19:51:22.623Z</time>
      </trkpt>
      <trkpt lat="48.84525" lon="2.422">
        <ele>101.7</ele>
        <time>2015-03-02T19:51:23.630Z</time>
      </trkpt>
      <trkpt lat="48.84528" lon="2.42205">
        <ele>101.9</ele>
        <time>2015-03-02T19:51:24.545Z</time>
      </trkpt>
      <trkpt lat="48.84533" lon="2.42215">
        <ele>102</ele>
        <time>2015-03-02T19:51:26.579Z</time>
      </trkpt>
      <trkpt lat="48.84536" lon="2.42221">
        <ele>102</ele>
        <time>2015-03-02T19:51:27.600Z</time>
      </trkpt>
      <trkpt lat="48.8454" lon="2.42232">
        <ele>102.1</ele>
        <time>2015-03-02T19:51:29.542Z</time>
      </trkpt>
      <trkpt lat="48.84542" lon="2.42237">
        <ele>102</ele>
        <time>2015-03-02T19:51:30.552Z</time>
      </trkpt>
      <trkpt lat="48.84546" lon="2.42248">
        <ele>102</ele>
        <time>2015-03-02T19:51:32.620Z</time>
      </trkpt>
      <trkpt lat="48.84548" lon="2.42253">
        <ele>102</ele>
        <time>2015-03-02T19:51:33.640Z</time>
      </trkpt>
      <trkpt lat="48.84551" lon="2.42264">
        <ele>102.2</ele>
        <time>2015-03-02T19:51:35.537Z</time>
      </trkpt>
      <trkpt lat="48.84555" lon="2.42269">
        <ele>101.1</ele>
        <time>2015-03-02T19:51:36.553Z</time>
      </trkpt>
      <trkpt lat="48.84559" lon="2.42274">
        <ele>99.9</ele>
        <time>2015-03-02T19:51:37.689Z</time>
      </trkpt>
      <trkpt lat="48.84563" lon="2.42279">
        <ele>98.9</ele>
        <time>2015-03-02T19:51:38.575Z</time>
      </trkpt>
      <trkpt lat="48.84567" lon="2.42284">
        <ele>98.2</ele>
        <time>2015-03-02T19:51:39.580Z</time>
      </trkpt>
      <trkpt lat="48.84571" lon="2.42289">
        <ele>97</ele>
        <time>2015-03-02T19:51:40.589Z</time>
      </trkpt>
      <trkpt lat="48.84576" lon="2.42297">
        <ele>95.9</ele>
        <time>2015-03-02T19:51:42.550Z</time>
      </trkpt>
      <trkpt lat="48.84577" lon="2.42301">
        <ele>95.9</ele>
        <time>2015-03-02T19:51:43.584Z</time>
      </trkpt>
      <trkpt lat="48.84581" lon="2.42312">
        <ele>96.3</ele>
        <time>2015-03-02T19:51:48.573Z</time>
      </trkpt>
      <trkpt lat="48.84582" lon="2.42313">
        <ele>96.4</ele>
        <time>2015-03-02T19:51:49.591Z</time>
      </trkpt>
      <trkpt lat="48.84585" lon="2.42324">
        <ele>97.2</ele>
        <time>2015-03-02T19:51:54.586Z</time>
      </trkpt>
      <trkpt lat="48.84585" lon="2.42328">
        <ele>97.4</ele>
        <time>2015-03-02T19:51:55.565Z</time>
      </trkpt>
      <trkpt lat="48.84586" lon="2.42341">
        <ele>98.5</ele>
        <time>2015-03-02T19:51:58.564Z</time>
      </trkpt>
      <trkpt lat="48.84586" lon="2.42345">
        <ele>98.8</ele>
        <time>2015-03-02T19:51:59.566Z</time>
      </trkpt>
      <trkpt lat="48.84587" lon="2.42354">
        <ele>98.9</ele>
        <time>2015-03-02T19:52:01.615Z</time>
      </trkpt>
      <trkpt lat="48.84587" lon="2.42359">
        <ele>99.2</ele>
        <time>2015-03-02T19:52:02.638Z</time>
      </trkpt>
      <trkpt lat="48.84589" lon="2.42371">
        <ele>98.2</ele>
        <time>2015-03-02T19:52:05.599Z</time>
      </trkpt>
      <trkpt lat="48.84589" lon="2.42376">
        <ele>98.3</ele>
        <time>2015-03-02T19:52:06.640Z</time>
      </trkpt>
      <trkpt lat="48.84588" lon="2.42386">
        <ele>98.8</ele>
        <time>2015-03-02T19:52:08.588Z</time>
      </trkpt>
      <trkpt lat="48.84588" lon="2.4239">
        <ele>99</ele>
        <time>2015-03-02T19:52:09.537Z</time>
      </trkpt>
      <trkpt lat="48.84588" lon="2.424">
        <ele>99.4</ele>
        <time>2015-03-02T19:52:11.557Z</time>
      </trkpt>
      <trkpt lat="48.84589" lon="2.42404">
        <ele>99.4</ele>
        <time>2015-03-02T19:52:12.571Z</time>
      </trkpt>
      <trkpt lat="48.84591" lon="2.42413">
        <ele>99.3</ele>
        <time>2015-03-02T19:52:14.602Z</time>
      </trkpt>
      <trkpt lat="48.84594" lon="2.42418">
        <ele>98.9</ele>
        <time>2015-03-02T19:52:15.601Z</time>
      </trkpt>
      <trkpt lat="48.84597" lon="2.42425">
        <ele>98.6</ele>
        <time>2015-03-02T19:52:17.551Z</time>
      </trkpt>
      <trkpt lat="48.846" lon="2.42429">
        <ele>98.5</ele>
        <time>2015-03-02T19:52:18.564Z</time>
      </trkpt>
      <trkpt lat="48.84606" lon="2.42436">
        <ele>98.4</ele>
        <time>2015-03-02T19:52:21.602Z</time>
      </trkpt>
      <trkpt lat="48.84607" lon="2.42437">
        <ele>98.3</ele>
        <time>2015-03-02T19:52:22.617Z</time>
      </trkpt>
      <trkpt lat="48.84612" lon="2.42446">
        <ele>98</ele>
        <time>2015-03-02T19:52:27.656Z</time>
      </trkpt>
      <trkpt lat="48.84613" lon="2.42448">
        <ele>97.9</ele>
        <time>2015-03-02T19:52:28.536Z</time>
      </trkpt>
      <trkpt lat="48.84616" lon="2.42459">
        <ele>97.9</ele>
        <time>2015-03-02T19:52:32.616Z</time>
      </trkpt>
      <trkpt lat="48.84616" lon="2.42463">
        <ele>97.8</ele>
        <time>2015-03-02T19:52:33.531Z</time>
      </trkpt>
      <trkpt lat="48.84618" lon="2.42476">
        <ele>97.6</ele>
        <time>2015-03-02T19:52:36.611Z</time>
      </trkpt>
      <trkpt lat="48.84619" lon="2.4248">
        <ele>97.6</ele>
        <time>2015-03-02T19:52:37.634Z</time>
      </trkpt>
      <trkpt lat="48.84623" lon="2.4249">
        <ele>97.5</ele>
        <time>2015-03-02T19:52:39.581Z</time>
      </trkpt>
      <trkpt lat="48.84625" lon="2.42496">
        <ele>97.4</ele>
        <time>2015-03-02T19:52:40.626Z</time>
      </trkpt>
      <trkpt lat="48.84629" lon="2.42507">
        <ele>97.8</ele>
        <time>2015-03-02T19:52:42.579Z</time>
      </trkpt>
      <trkpt lat="48.84631" lon="2.42513">
        <ele>98.1</ele>
        <time>2015-03-02T19:52:43.628Z</time>
      </trkpt>
      <trkpt lat="48.84636" lon="2.42522">
        <ele>98.7</ele>
        <time>2015-03-02T19:52:45.585Z</time>
      </trkpt>
      <trkpt lat="48.84638" lon="2.42527">
        <ele>98.9</ele>
        <time>2015-03-02T19:52:46.628Z</time>
      </trkpt>
      <trkpt lat="48.84641" lon="2.42537">
        <ele>98.8</ele>
        <time>2015-03-02T19:52:48.591Z</time>
      </trkpt>
      <trkpt lat="48.84642" lon="2.42542">
        <ele>99</ele>
        <time>2015-03-02T19:52:49.661Z</time>
      </trkpt>
      <trkpt lat="48.84644" lon="2.42549">
        <ele>99</ele>
        <time>2015-03-02T19:52:50.594Z</time>
      </trkpt>
      <trkpt lat="48.84646" lon="2.42555">
        <ele>99.1</ele>
        <time>2015-03-02T19:52:51.606Z</time>
      </trkpt>
      <trkpt lat="48.84648" lon="2.42561">
        <ele>99.2</ele>
        <time>2015-03-02T19:52:53.024Z</time>
      </trkpt>
      <trkpt lat="48.84651" lon="2.42567">
        <ele>99.4</ele>
        <time>2015-03-02T19:52:53.642Z</time>
      </trkpt>
      <trkpt lat="48.84654" lon="2.42574">
        <ele>99.5</ele>
        <time>2015-03-02T19:52:54.536Z</time>
      </trkpt>
      <trkpt lat="48.84656" lon="2.4258">
        <ele>99.4</ele>
        <time>2015-03-02T19:52:55.563Z</time>
      </trkpt>
      <trkpt lat="48.8466" lon="2.42591">
        <ele>99.2</ele>
        <time>2015-03-02T19:52:58.067Z</time>
      </trkpt>
      <trkpt lat="48.84661" lon="2.42597">
        <ele>99.2</ele>
        <time>2015-03-02T19:52:58.568Z</time>
      </trkpt>
      <trkpt lat="48.84662" lon="2.42604">
        <ele>99.2</ele>
        <time>2015-03-02T19:52:59.599Z</time>
      </trkpt>
      <trkpt lat="48.84663" lon="2.4261">
        <ele>99</ele>
        <time>2015-03-02T19:53:00.641Z</time>
      </trkpt>
      <trkpt lat="48.84664" lon="2.42618">
        <ele>98.8</ele>
        <time>2015-03-02T19:53:01.532Z</time>
      </trkpt>
      <trkpt lat="48.84666" lon="2.42625">
        <ele>98.7</ele>
        <time>2015-03-02T19:53:02.596Z</time>
      </trkpt>
      <trkpt lat="48.84668" lon="2.42632">
        <ele>98.5</ele>
        <time>2015-03-02T19:53:03.600Z</time>
      </trkpt>
      <trkpt lat="48.8467" lon="2.42639">
        <ele>98.6</ele>
        <time>2015-03-02T19:53:04.692Z</time>
      </trkpt>
      <trkpt lat="48.84671" lon="2.42647">
        <ele>98.6</ele>
        <time>2015-03-02T19:53:05.561Z</time>
      </trkpt>
      <trkpt lat="48.84674" lon="2.42655">
        <ele>98.6</ele>
        <time>2015-03-02T19:53:06.561Z</time>
      </trkpt>
      <trkpt lat="48.84677" lon="2.42662">
        <ele>98.3</ele>
        <time>2015-03-02T19:53:07.569Z</time>
      </trkpt>
      <trkpt lat="48.84679" lon="2.42669">
        <ele>98.3</ele>
        <time>2015-03-02T19:53:08.605Z</time>
      </trkpt>
      <trkpt lat="48.84681" lon="2.42678">
        <ele>98.2</ele>
        <time>2015-03-02T19:53:09.646Z</time>
      </trkpt>
      <trkpt lat="48.84683" lon="2.42685">
        <ele>98.2</ele>
        <time>2015-03-02T19:53:10.565Z</time>
      </trkpt>
      <trkpt lat="48.84685" lon="2.42692">
        <ele>98</ele>
        <time>2015-03-02T19:53:11.557Z</time>
      </trkpt>
      <trkpt lat="48.84687" lon="2.427">
        <ele>97.8</ele>
        <time>2015-03-02T19:53:12.563Z</time>
      </trkpt>
      <trkpt lat="48.84688" lon="2.42707">
        <ele>97.6</ele>
        <time>2015-03-02T19:53:13.572Z</time>
      </trkpt>
      <trkpt lat="48.84691" lon="2.42714">
        <ele>97.4</ele>
        <time>2015-03-02T19:53:14.606Z</time>
      </trkpt>
      <trkpt lat="48.84692" lon="2.42721">
        <ele>97.3</ele>
        <time>2015-03-02T19:53:15.659Z</time>
      </trkpt>
      <trkpt lat="48.84694" lon="2.42729">
        <ele>97.3</ele>
        <time>2015-03-02T19:53:16.555Z</time>
      </trkpt>
      <trkpt lat="48.84695" lon="2.42735">
        <ele>97.3</ele>
        <time>2015-03-02T19:53:17.570Z</time>
      </trkpt>
      <trkpt lat="48.84696" lon="2.42742">
        <ele>97.2</ele>
        <time>2015-03-02T19:53:18.570Z</time>
      </trkpt>
      <trkpt lat="48.84699" lon="2.42754">
        <ele>97.4</ele>
        <time>2015-03-02T19:53:20.601Z</time>
      </trkpt>
      <trkpt lat="48.847" lon="2.4276">
        <ele>97.6</ele>
        <time>2015-03-02T19:53:21.618Z</time>
      </trkpt>
      <trkpt lat="48.847" lon="2.4277">
        <ele>97.6</ele>
        <time>2015-03-02T19:53:23.560Z</time>
      </trkpt>
      <trkpt lat="48.847" lon="2.42775">
        <ele>97.8</ele>
        <time>2015-03-02T19:53:24.607Z</time>
      </trkpt>
      <trkpt lat="48.847" lon="2.42785">
        <ele>98</ele>
        <time>2015-03-02T19:53:26.637Z</time>
      </trkpt>
      <trkpt lat="48.84701" lon="2.42792">
        <ele>98.5</ele>
        <time>2015-03-02T19:53:27.653Z</time>
      </trkpt>
      <trkpt lat="48.84702" lon="2.42798">
        <ele>98.8</ele>
        <time>2015-03-02T19:53:28.554Z</time>
      </trkpt>
      <trkpt lat="48.84703" lon="2.42805">
        <ele>98.9</ele>
        <time>2015-03-02T19:53:29.558Z</time>
      </trkpt>
      <trkpt lat="48.84705" lon="2.42818">
        <ele>98.9</ele>
        <time>2015-03-02T19:53:31.638Z</time>
      </trkpt>
      <trkpt lat="48.84705" lon="2.42825">
        <ele>99</ele>
        <time>2015-03-02T19:53:32.670Z</time>
      </trkpt>
      <trkpt lat="48.84707" lon="2.42837">
        <ele>98.9</ele>
        <time>2015-03-02T19:53:34.581Z</time>
      </trkpt>
      <trkpt lat="48.84708" lon="2.42844">
        <ele>98.9</ele>
        <time>2015-03-02T19:53:35.616Z</time>
      </trkpt>
      <trkpt lat="48.84709" lon="2.4285">
        <ele>98.9</ele>
        <time>2015-03-02T19:53:36.546Z</time>
      </trkpt>
      <trkpt lat="48.84711" lon="2.42858">
        <ele>99</ele>
        <time>2015-03-02T19:53:37.568Z</time>
      </trkpt>
      <trkpt lat="48.84713" lon="2.42866">
        <ele>99</ele>
        <time>2015-03-02T19:53:38.605Z</time>
      </trkpt>
      <trkpt lat="48.84714" lon="2.42874">
        <ele>99.1</ele>
        <time>2015-03-02T19:53:39.613Z</time>
      </trkpt>
      <trkpt lat="48.84715" lon="2.42882">
        <ele>99.2</ele>
        <time>2015-03-02T19:53:40.627Z</time>
      </trkpt>
      <trkpt lat="48.84716" lon="2.42891">
        <ele>99.5</ele>
        <time>2015-03-02T19:53:41.626Z</time>
      </trkpt>
      <trkpt lat="48.84716" lon="2.42898">
        <ele>99.8</ele>
        <time>2015-03-02T19:53:42.570Z</time>
      </trkpt>
      <trkpt lat="48.84716" lon="2.42905">
        <ele>100</ele>
        <time>2015-03-02T19:53:43.564Z</time>
      </trkpt>
      <trkpt lat="48.84717" lon="2.42917">
        <ele>100.1</ele>
        <time>2015-03-02T19:53:45.621Z</time>
      </trkpt>
      <trkpt lat="48.84716" lon="2.42923">
        <ele>100.1</ele>
        <time>2015-03-02T19:53:46.636Z</time>
      </trkpt>
      <trkpt lat="48.84716" lon="2.42934">
        <ele>100.1</ele>
        <time>2015-03-02T19:53:48.649Z</time>
      </trkpt>
      <trkpt lat="48.8472" lon="2.4294">
        <ele>100.7</ele>
        <time>2015-03-02T19:53:49.580Z</time>
      </trkpt>
      <trkpt lat="48.84719" lon="2.42951">
        <ele>100.9</ele>
        <time>2015-03-02T19:53:51.640Z</time>
      </trkpt>
      <trkpt lat="48.84719" lon="2.42957">
        <ele>101</ele>
        <time>2015-03-02T19:53:52.653Z</time>
      </trkpt>
      <trkpt lat="48.8472" lon="2.4297">
        <ele>100.7</ele>
        <time>2015-03-02T19:53:54.556Z</time>
      </trkpt>
      <trkpt lat="48.8472" lon="2.42976">
        <ele>100.7</ele>
        <time>2015-03-02T19:53:55.649Z</time>
      </trkpt>
      <trkpt lat="48.8472" lon="2.42983">
        <ele>100.6</ele>
        <time>2015-03-02T19:53:56.671Z</time>
      </trkpt>
      <trkpt lat="48.84721" lon="2.4299">
        <ele>100.3</ele>
        <time>2015-03-02T19:53:57.548Z</time>
      </trkpt>
      <trkpt lat="48.84721" lon="2.42997">
        <ele>100.1</ele>
        <time>2015-03-02T19:53:58.574Z</time>
      </trkpt>
      <trkpt lat="48.84722" lon="2.43004">
        <ele>100.2</ele>
        <time>2015-03-02T19:53:59.576Z</time>
      </trkpt>
      <trkpt lat="48.84723" lon="2.43017">
        <ele>100.2</ele>
        <time>2015-03-02T19:54:01.621Z</time>
      </trkpt>
      <trkpt lat="48.84723" lon="2.43024">
        <ele>100.3</ele>
        <time>2015-03-02T19:54:02.678Z</time>
      </trkpt>
      <trkpt lat="48.84724" lon="2.43031">
        <ele>100.2</ele>
        <time>2015-03-02T19:54:03.560Z</time>
      </trkpt>
      <trkpt lat="48.84724" lon="2.43038">
        <ele>100.3</ele>
        <time>2015-03-02T19:54:04.561Z</time>
      </trkpt>
      <trkpt lat="48.84725" lon="2.43051">
        <ele>100.1</ele>
        <time>2015-03-02T19:54:07.408Z</time>
      </trkpt>
      <trkpt lat="48.84725" lon="2.43058">
        <ele>100.1</ele>
        <time>2015-03-02T19:54:07.603Z</time>
      </trkpt>
      <trkpt lat="48.84725" lon="2.43069">
        <ele>99.9</ele>
        <time>2015-03-02T19:54:10.160Z</time>
      </trkpt>
      <trkpt lat="48.84725" lon="2.43076">
        <ele>99.9</ele>
        <time>2015-03-02T19:54:10.573Z</time>
      </trkpt>
      <trkpt lat="48.84725" lon="2.43089">
        <ele>99.7</ele>
        <time>2015-03-02T19:54:12.539Z</time>
      </trkpt>
      <trkpt lat="48.84725" lon="2.43096">
        <ele>99.7</ele>
        <time>2015-03-02T19:54:13.561Z</time>
      </trkpt>
      <trkpt lat="48.84724" lon="2.43109">
        <ele>99.8</ele>
        <time>2015-03-02T19:54:15.627Z</time>
      </trkpt>
      <trkpt lat="48.84723" lon="2.43115">
        <ele>99.8</ele>
        <time>2015-03-02T19:54:16.639Z</time>
      </trkpt>
      <trkpt lat="48.8472" lon="2.43126">
        <ele>100</ele>
        <time>2015-03-02T19:54:18.556Z</time>
      </trkpt>
      <trkpt lat="48.8472" lon="2.43132">
        <ele>100.2</ele>
        <time>2015-03-02T19:54:19.667Z</time>
      </trkpt>
      <trkpt lat="48.8472" lon="2.43145">
        <ele>100.6</ele>
        <time>2015-03-02T19:54:23.615Z</time>
      </trkpt>
      <trkpt lat="48.84721" lon="2.43147">
        <ele>100.7</ele>
        <time>2015-03-02T19:54:24.634Z</time>
      </trkpt>
      <trkpt lat="48.84717" lon="2.43159">
        <ele>100.8</ele>
        <time>2015-03-02T19:54:28.610Z</time>
      </trkpt>
      <trkpt lat="48.84716" lon="2.43161">
        <ele>101.2</ele>
        <time>2015-03-02T19:54:29.641Z</time>
      </trkpt>
      <trkpt lat="48.84715" lon="2.43165">
        <ele>101.4</ele>
        <time>2015-03-02T19:54:33.606Z</time>
      </trkpt>
      <trkpt lat="48.84715" lon="2.43165">
        <ele>101.5</ele>
        <time>2015-03-02T19:54:34.655Z</time>
      </trkpt>
      <trkpt lat="48.84715" lon="2.43165">
        <ele>101.4</ele>
        <time>2015-03-02T19:54:36.562Z</time>
      </trkpt>
      <trkpt lat="48.84715" lon="2.43166">
        <ele>101.3</ele>
        <time>2015-03-02T19:54:37.589Z</time>
      </trkpt>
      <trkpt lat="48.84716" lon="2.43178">
        <ele>101.3</ele>
        <time>2015-03-02T19:54:42.590Z</time>
      </trkpt>
      <trkpt lat="48.84715" lon="2.43182">
        <ele>101.3</ele>
        <time>2015-03-02T19:54:43.626Z</time>
      </trkpt>
      <trkpt lat="48.84715" lon="2.43194">
        <ele>101</ele>
        <time>2015-03-02T19:54:46.565Z</time>
      </trkpt>
      <trkpt lat="48.84715" lon="2.43197">
        <ele>100.7</ele>
        <time>2015-03-02T19:54:47.568Z</time>
      </trkpt>
      <trkpt lat="48.84715" lon="2.43208">
        <ele>100.5</ele>
        <time>2015-03-02T19:54:50.587Z</time>
      </trkpt>
      <trkpt lat="48.84716" lon="2.43212">
        <ele>100.3</ele>
        <time>2015-03-02T19:54:51.605Z</time>
      </trkpt>
      <trkpt lat="48.84715" lon="2.43223">
        <ele>100.1</ele>
        <time>2015-03-02T19:54:54.573Z</time>
      </trkpt>
      <trkpt lat="48.84715" lon="2.43228">
        <ele>100.1</ele>
        <time>2015-03-02T19:54:55.548Z</time>
      </trkpt>
      <trkpt lat="48.84715" lon="2.43237">
        <ele>100.4</ele>
        <time>2015-03-02T19:54:58.416Z</time>
      </trkpt>
      <trkpt lat="48.84715" lon="2.43242">
        <ele>100.6</ele>
        <time>2015-03-02T19:54:58.534Z</time>
      </trkpt>
      <trkpt lat="48.84715" lon="2.43254">
        <ele>100.6</ele>
        <time>2015-03-02T19:55:01.579Z</time>
      </trkpt>
      <trkpt lat="48.84715" lon="2.43257">
        <ele>100.6</ele>
        <time>2015-03-02T19:55:02.609Z</time>
      </trkpt>
      <trkpt lat="48.84716" lon="2.4327">
        <ele>100.9</ele>
        <time>2015-03-02T19:55:05.642Z</time>
      </trkpt>
      <trkpt lat="48.84716" lon="2.43275">
        <ele>100.9</ele>
        <time>2015-03-02T19:55:06.654Z</time>
      </trkpt>
      <trkpt lat="48.84717" lon="2.43286">
        <ele>101</ele>
        <time>2015-03-02T19:55:09.638Z</time>
      </trkpt>
      <trkpt lat="48.84717" lon="2.43288">
        <ele>101.2</ele>
        <time>2015-03-02T19:55:10.529Z</time>
      </trkpt>
      <trkpt lat="48.84718" lon="2.43301">
        <ele>101</ele>
        <time>2015-03-02T19:55:14.605Z</time>
      </trkpt>
      <trkpt lat="48.84717" lon="2.43305">
        <ele>101</ele>
        <time>2015-03-02T19:55:15.614Z</time>
      </trkpt>
      <trkpt lat="48.84715" lon="2.43316">
        <ele>100.9</ele>
        <time>2015-03-02T19:55:18.709Z</time>
      </trkpt>
      <trkpt lat="48.84714" lon="2.43323">
        <ele>101.1</ele>
        <time>2015-03-02T19:55:18.770Z</time>
      </trkpt>
      <trkpt lat="48.84715" lon="2.43331">
        <ele>101.2</ele>
        <time>2015-03-02T19:55:19.564Z</time>
      </trkpt>
      <trkpt lat="48.84715" lon="2.43338">
        <ele>101.2</ele>
        <time>2015-03-02T19:55:20.597Z</time>
      </trkpt>
      <trkpt lat="48.84715" lon="2.43352">
        <ele>101.3</ele>
        <time>2015-03-02T19:55:22.605Z</time>
      </trkpt>
      <trkpt lat="48.84715" lon="2.43358">
        <ele>101.1</ele>
        <time>2015-03-02T19:55:23.648Z</time>
      </trkpt>
      <trkpt lat="48.84715" lon="2.43371">
        <ele>101</ele>
        <time>2015-03-02T19:55:26.189Z</time>
      </trkpt>
      <trkpt lat="48.84715" lon="2.43377">
        <ele>100.9</ele>
        <time>2015-03-02T19:55:26.647Z</time>
      </trkpt>
      <trkpt lat="48.84713" lon="2.43388">
        <ele>100.5</ele>
        <time>2015-03-02T19:55:28.819Z</time>
      </trkpt>
      <trkpt lat="48.84713" lon="2.43395">
        <ele>100.7</ele>
        <time>2015-03-02T19:55:29.574Z</time>
      </trkpt>
      <trkpt lat="48.84716" lon="2.43404">
        <ele>101.9</ele>
        <time>2015-03-02T19:55:30.584Z</time>
      </trkpt>
      <trkpt lat="48.84716" lon="2.43409">
        <ele>102</ele>
        <time>2015-03-02T19:55:31.605Z</time>
      </trkpt>
      <trkpt lat="48.84715" lon="2.43419">
        <ele>102</ele>
        <time>2015-03-02T19:55:33.846Z</time>
      </trkpt>
      <trkpt lat="48.84715" lon="2.43424">
        <ele>102.1</ele>
        <time>2015-03-02T19:55:34.558Z</time>
      </trkpt>
      <trkpt lat="48.84713" lon="2.43437">
        <ele>102.2</ele>
        <time>2015-03-02T19:55:37.610Z</time>
      </trkpt>
      <trkpt lat="48.84714" lon="2.4344">
        <ele>102.1</ele>
        <time>2015-03-02T19:55:38.621Z</time>
      </trkpt>
      <trkpt lat="48.84712" lon="2.43452">
        <ele>102.5</ele>
        <time>2015-03-02T19:55:41.594Z</time>
      </trkpt>
      <trkpt lat="48.84712" lon="2.43455">
        <ele>102.6</ele>
        <time>2015-03-02T19:55:42.607Z</time>
      </trkpt>
      <trkpt lat="48.84718" lon="2.43457">
        <ele>102.6</ele>
        <time>2015-03-02T19:55:46.534Z</time>
      </trkpt>
      <trkpt lat="48.84722" lon="2.43457">
        <ele>102.6</ele>
        <time>2015-03-02T19:55:47.542Z</time>
      </trkpt>
      <trkpt lat="48.84729" lon="2.43462">
        <ele>103</ele>
        <time>2015-03-02T19:55:49.557Z</time>
      </trkpt>
      <trkpt lat="48.84731" lon="2.43464">
        <ele>103.2</ele>
        <time>2015-03-02T19:55:50.574Z</time>
      </trkpt>
      <trkpt lat="48.8473" lon="2.43471">
        <ele>103.8</ele>
        <time>2015-03-02T19:55:54.671Z</time>
      </trkpt>
      <trkpt lat="48.84729" lon="2.43478">
        <ele>103.9</ele>
        <time>2015-03-02T19:55:55.592Z</time>
      </trkpt>
      <trkpt lat="48.84728" lon="2.43484">
        <ele>104.1</ele>
        <time>2015-03-02T19:55:56.624Z</time>
      </trkpt>
      <trkpt lat="48.84727" lon="2.43491">
        <ele>104.2</ele>
        <time>2015-03-02T19:55:57.643Z</time>
      </trkpt>
      <trkpt lat="48.84726" lon="2.43505">
        <ele>104.5</ele>
        <time>2015-03-02T19:56:00.506Z</time>
      </trkpt>
      <trkpt lat="48.84726" lon="2.43509">
        <ele>104.5</ele>
        <time>2015-03-02T19:56:01.628Z</time>
      </trkpt>
      <trkpt lat="48.84724" lon="2.43521">
        <ele>104.4</ele>
        <time>2015-03-02T19:56:04.532Z</time>
      </trkpt>
      <trkpt lat="48.84724" lon="2.43524">
        <ele>104.5</ele>
        <time>2015-03-02T19:56:05.558Z</time>
      </trkpt>
      <trkpt lat="48.84726" lon="2.43535">
        <ele>104.7</ele>
        <time>2015-03-02T19:56:09.678Z</time>
      </trkpt>
      <trkpt lat="48.84728" lon="2.43541">
        <ele>104.8</ele>
        <time>2015-03-02T19:56:10.551Z</time>
      </trkpt>
      <trkpt lat="48.8473" lon="2.43549">
        <ele>105.1</ele>
        <time>2015-03-02T19:56:11.550Z</time>
      </trkpt>
      <trkpt lat="48.8473" lon="2.43556">
        <ele>105.3</ele>
        <time>2015-03-02T19:56:12.555Z</time>
      </trkpt>
      <trkpt lat="48.84729" lon="2.43568">
        <ele>105.3</ele>
        <time>2015-03-02T19:56:14.582Z</time>
      </trkpt>
      <trkpt lat="48.84728" lon="2.43574">
        <ele>105.2</ele>
        <time>2015-03-02T19:56:15.582Z</time>
      </trkpt>
      <trkpt lat="48.84726" lon="2.43583">
        <ele>105.3</ele>
        <time>2015-03-02T19:56:18.301Z</time>
      </trkpt>
      <trkpt lat="48.84725" lon="2.43587">
        <ele>105.4</ele>
        <time>2015-03-02T19:56:18.595Z</time>
      </trkpt>
      <trkpt lat="48.84723" lon="2.43597">
        <ele>105.3</ele>
        <time>2015-03-02T19:56:20.656Z</time>
      </trkpt>
      <trkpt lat="48.84722" lon="2.43602">
        <ele>105.3</ele>
        <time>2015-03-02T19:56:21.546Z</time>
      </trkpt>
      <trkpt lat="48.84721" lon="2.43608">
        <ele>105</ele>
        <time>2015-03-02T19:56:23.421Z</time>
      </trkpt>
      <trkpt lat="48.84722" lon="2.43616">
        <ele>104.6</ele>
        <time>2015-03-02T19:56:23.568Z</time>
      </trkpt>
      <trkpt lat="48.84721" lon="2.43631">
        <ele>103.1</ele>
        <time>2015-03-02T19:56:24.627Z</time>
      </trkpt>
      <trkpt lat="48.8472" lon="2.43639">
        <ele>103</ele>
        <time>2015-03-02T19:56:25.636Z</time>
      </trkpt>
      <trkpt lat="48.84721" lon="2.43646">
        <ele>102.7</ele>
        <time>2015-03-02T19:56:26.663Z</time>
      </trkpt>
      <trkpt lat="48.84721" lon="2.43652">
        <ele>102.7</ele>
        <time>2015-03-02T19:56:28.436Z</time>
      </trkpt>
      <trkpt lat="48.84719" lon="2.43661">
        <ele>103.4</ele>
        <time>2015-03-02T19:56:28.537Z</time>
      </trkpt>
      <trkpt lat="48.84718" lon="2.43674">
        <ele>104.7</ele>
        <time>2015-03-02T19:56:31.601Z</time>
      </trkpt>
      <trkpt lat="48.84717" lon="2.43678">
        <ele>105.9</ele>
        <time>2015-03-02T19:56:32.611Z</time>
      </trkpt>
      <trkpt lat="48.84714" lon="2.43682">
        <ele>107</ele>
        <time>2015-03-02T19:56:34.548Z</time>
      </trkpt>
      <trkpt lat="48.84714" lon="2.43682">
        <ele>107.2</ele>
        <time>2015-03-02T19:56:35.678Z</time>
      </trkpt>
      <trkpt lat="48.84714" lon="2.43683">
        <ele>107.3</ele>
        <time>2015-03-02T19:56:38.623Z</time>
      </trkpt>
      <trkpt lat="48.84713" lon="2.43687">
        <ele>107.7</ele>
        <time>2015-03-02T19:56:39.633Z</time>
      </trkpt>
      <trkpt lat="48.84713" lon="2.43691">
        <ele>108.4</ele>
        <time>2015-03-02T19:56:42.556Z</time>
      </trkpt>
      <trkpt lat="48.84714" lon="2.43692">
        <ele>108.7</ele>
        <time>2015-03-02T19:56:43.564Z</time>
      </trkpt>
      <trkpt lat="48.84714" lon="2.43692">
        <ele>108.7</ele>
        <time>2015-03-02T19:56:43.750Z</time>
      </trkpt>
      <trkpt lat="48.84714" lon="2.43692">
        <ele>108.8</ele>
        <time>2015-03-02T19:56:44.632Z</time>
      </trkpt>
      <trkpt lat="48.84715" lon="2.43704">
        <ele>108.7</ele>
        <time>2015-03-02T19:56:50.596Z</time>
      </trkpt>
      <trkpt lat="48.84714" lon="2.43727">
        <ele>108.7</ele>
        <time>2015-03-02T19:56:53.631Z</time>
      </trkpt>
      <trkpt lat="48.84713" lon="2.43736">
        <ele>108.8</ele>
        <time>2015-03-02T19:56:54.638Z</time>
      </trkpt>
      <trkpt lat="48.84714" lon="2.43744">
        <ele>108.8</ele>
        <time>2015-03-02T19:56:55.657Z</time>
      </trkpt>
      <trkpt lat="48.84714" lon="2.43752">
        <ele>108.9</ele>
        <time>2015-03-02T19:56:56.580Z</time>
      </trkpt>
      <trkpt lat="48.84713" lon="2.4376">
        <ele>109.1</ele>
        <time>2015-03-02T19:56:57.575Z</time>
      </trkpt>
      <trkpt lat="48.84712" lon="2.43771">
        <ele>108.8</ele>
        <time>2015-03-02T19:56:58.589Z</time>
      </trkpt>
      <trkpt lat="48.84711" lon="2.43783">
        <ele>108.8</ele>
        <time>2015-03-02T19:56:59.603Z</time>
      </trkpt>
      <trkpt lat="48.84712" lon="2.43793">
        <ele>108.9</ele>
        <time>2015-03-02T19:57:00.621Z</time>
      </trkpt>
      <trkpt lat="48.84712" lon="2.43804">
        <ele>108.3</ele>
        <time>2015-03-02T19:57:01.628Z</time>
      </trkpt>
      <trkpt lat="48.84711" lon="2.43814">
        <ele>107.5</ele>
        <time>2015-03-02T19:57:02.660Z</time>
      </trkpt>
      <trkpt lat="48.8471" lon="2.43822">
        <ele>107</ele>
        <time>2015-03-02T19:57:03.530Z</time>
      </trkpt>
      <trkpt lat="48.84709" lon="2.4383">
        <ele>107.2</ele>
        <time>2015-03-02T19:57:04.564Z</time>
      </trkpt>
      <trkpt lat="48.84706" lon="2.43841">
        <ele>108.4</ele>
        <time>2015-03-02T19:57:05.576Z</time>
      </trkpt>
      <trkpt lat="48.84705" lon="2.43852">
        <ele>108.2</ele>
        <time>2015-03-02T19:57:07.597Z</time>
      </trkpt>
      <trkpt lat="48.84705" lon="2.43858">
        <ele>107.8</ele>
        <time>2015-03-02T19:57:08.704Z</time>
      </trkpt>
      <trkpt lat="48.84704" lon="2.43869">
        <ele>107.6</ele>
        <time>2015-03-02T19:57:10.558Z</time>
      </trkpt>
      <trkpt lat="48.84704" lon="2.43874">
        <ele>107.3</ele>
        <time>2015-03-02T19:57:11.573Z</time>
      </trkpt>
      <trkpt lat="48.84704" lon="2.43886">
        <ele>107.2</ele>
        <time>2015-03-02T19:57:13.681Z</time>
      </trkpt>
      <trkpt lat="48.84705" lon="2.43891">
        <ele>107</ele>
        <time>2015-03-02T19:57:14.700Z</time>
      </trkpt>
      <trkpt lat="48.84705" lon="2.43903">
        <ele>106.9</ele>
        <time>2015-03-02T19:57:16.573Z</time>
      </trkpt>
      <trkpt lat="48.84706" lon="2.43909">
        <ele>107.6</ele>
        <time>2015-03-02T19:57:17.597Z</time>
      </trkpt>
      <trkpt lat="48.84701" lon="2.43918">
        <ele>107.3</ele>
        <time>2015-03-02T19:57:19.647Z</time>
      </trkpt>
      <trkpt lat="48.84699" lon="2.4392">
        <ele>107.3</ele>
        <time>2015-03-02T19:57:20.563Z</time>
      </trkpt>
      <trkpt lat="48.84692" lon="2.43927">
        <ele>106.8</ele>
        <time>2015-03-02T19:57:24.189Z</time>
      </trkpt>
      <trkpt lat="48.8469" lon="2.4393">
        <ele>106.7</ele>
        <time>2015-03-02T19:57:24.602Z</time>
      </trkpt>
      <trkpt lat="48.84687" lon="2.43943">
        <ele>106.4</ele>
        <time>2015-03-02T19:57:26.578Z</time>
      </trkpt>
      <trkpt lat="48.84687" lon="2.43949">
        <ele>106.4</ele>
        <time>2015-03-02T19:57:27.596Z</time>
      </trkpt>
      <trkpt lat="48.84686" lon="2.43959">
        <ele>106</ele>
        <time>2015-03-02T19:57:29.660Z</time>
      </trkpt>
      <trkpt lat="48.84686" lon="2.43963">
        <ele>105.6</ele>
        <time>2015-03-02T19:57:30.650Z</time>
      </trkpt>
      <trkpt lat="48.84687" lon="2.43972">
        <ele>105.4</ele>
        <time>2015-03-02T19:57:32.640Z</time>
      </trkpt>
      <trkpt lat="48.84688" lon="2.43977">
        <ele>105.2</ele>
        <time>2015-03-02T19:57:33.625Z</time>
      </trkpt>
      <trkpt lat="48.84687" lon="2.4399">
        <ele>104.9</ele>
        <time>2015-03-02T19:57:36.563Z</time>
      </trkpt>
      <trkpt lat="48.84687" lon="2.43994">
        <ele>104.9</ele>
        <time>2015-03-02T19:57:37.576Z</time>
      </trkpt>
      <trkpt lat="48.84678" lon="2.43996">
        <ele>105.3</ele>
        <time>2015-03-02T19:57:43.560Z</time>
      </trkpt>
      <trkpt lat="48.84676" lon="2.43995">
        <ele>105.5</ele>
        <time>2015-03-02T19:57:44.598Z</time>
      </trkpt>
      <trkpt lat="48.84668" lon="2.43992">
        <ele>106.1</ele>
        <time>2015-03-02T19:57:47.559Z</time>
      </trkpt>
      <trkpt lat="48.84666" lon="2.43991">
        <ele>106.2</ele>
        <time>2015-03-02T19:57:48.557Z</time>
      </trkpt>
      <trkpt lat="48.84657" lon="2.43989">
        <ele>106.7</ele>
        <time>2015-03-02T19:57:51.529Z</time>
      </trkpt>
      <trkpt lat="48.84654" lon="2.43988">
        <ele>106.9</ele>
        <time>2015-03-02T19:57:52.554Z</time>
      </trkpt>
      <trkpt lat="48.84646" lon="2.43987">
        <ele>107.3</ele>
        <time>2015-03-02T19:57:54.565Z</time>
      </trkpt>
      <trkpt lat="48.84642" lon="2.43987">
        <ele>107.5</ele>
        <time>2015-03-02T19:57:55.597Z</time>
      </trkpt>
      <trkpt lat="48.84634" lon="2.43985">
        <ele>107.6</ele>
        <time>2015-03-02T19:57:58.014Z</time>
      </trkpt>
      <trkpt lat="48.8463" lon="2.43984">
        <ele>107.7</ele>
        <time>2015-03-02T19:57:58.635Z</time>
      </trkpt>
      <trkpt lat="48.84622" lon="2.43983">
        <ele>108.4</ele>
        <time>2015-03-02T19:58:00.563Z</time>
      </trkpt>
      <trkpt lat="48.84619" lon="2.43983">
        <ele>108.2</ele>
        <time>2015-03-02T19:58:01.563Z</time>
      </trkpt>
      <trkpt lat="48.84617" lon="2.43983">
        <ele>108</ele>
        <time>2015-03-02T19:58:03.053Z</time>
      </trkpt>
      <trkpt lat="48.84617" lon="2.43984">
        <ele>108</ele>
        <time>2015-03-02T19:58:03.554Z</time>
      </trkpt>
      <trkpt lat="48.84617" lon="2.43985">
        <ele>108.1</ele>
        <time>2015-03-02T19:58:04.565Z</time>
      </trkpt>
      <trkpt lat="48.84617" lon="2.43986">
        <ele>108.2</ele>
        <time>2015-03-02T19:58:05.621Z</time>
      </trkpt>
      <trkpt lat="48.84617" lon="2.43986">
        <ele>108.2</ele>
        <time>2015-03-02T19:58:06.624Z</time>
      </trkpt>
      <trkpt lat="48.84616" lon="2.43986">
        <ele>108.3</ele>
        <time>2015-03-02T19:58:07.572Z</time>
      </trkpt>
      <trkpt lat="48.84616" lon="2.43987">
        <ele>108</ele>
        <time>2015-03-02T19:58:08.600Z</time>
      </trkpt>
      <trkpt lat="48.84616" lon="2.43988">
        <ele>108</ele>
        <time>2015-03-02T19:58:09.605Z</time>
      </trkpt>
      <trkpt lat="48.84616" lon="2.43989">
        <ele>107.8</ele>
        <time>2015-03-02T19:58:10.629Z</time>
      </trkpt>
      <trkpt lat="48.84615" lon="2.43991">
        <ele>108.1</ele>
        <time>2015-03-02T19:58:11.629Z</time>
      </trkpt>
      <trkpt lat="48.84612" lon="2.44">
        <ele>108.2</ele>
        <time>2015-03-02T19:58:14.643Z</time>
      </trkpt>
      <trkpt lat="48.84611" lon="2.44004">
        <ele>108.1</ele>
        <time>2015-03-02T19:58:15.560Z</time>
      </trkpt>
      <trkpt lat="48.84611" lon="2.44016">
        <ele>107.7</ele>
        <time>2015-03-02T19:58:18.630Z</time>
      </trkpt>
      <trkpt lat="48.8461" lon="2.44022">
        <ele>107.9</ele>
        <time>2015-03-02T19:58:19.641Z</time>
      </trkpt>
      <trkpt lat="48.84608" lon="2.44035">
        <ele>108</ele>
        <time>2015-03-02T19:58:21.652Z</time>
      </trkpt>
      <trkpt lat="48.84608" lon="2.44042">
        <ele>108</ele>
        <time>2015-03-02T19:58:22.657Z</time>
      </trkpt>
      <trkpt lat="48.84606" lon="2.44054">
        <ele>107.8</ele>
        <time>2015-03-02T19:58:24.560Z</time>
      </trkpt>
      <trkpt lat="48.84605" lon="2.44062">
        <ele>107.9</ele>
        <time>2015-03-02T19:58:25.615Z</time>
      </trkpt>
      <trkpt lat="48.84605" lon="2.44069">
        <ele>107.7</ele>
        <time>2015-03-02T19:58:26.669Z</time>
      </trkpt>
      <trkpt lat="48.84604" lon="2.44076">
        <ele>107.5</ele>
        <time>2015-03-02T19:58:27.564Z</time>
      </trkpt>
      <trkpt lat="48.84604" lon="2.44083">
        <ele>107.1</ele>
        <time>2015-03-02T19:58:28.546Z</time>
      </trkpt>
      <trkpt lat="48.84603" lon="2.4409">
        <ele>106.9</ele>
        <time>2015-03-02T19:58:29.611Z</time>
      </trkpt>
      <trkpt lat="48.84603" lon="2.44097">
        <ele>106.6</ele>
        <time>2015-03-02T19:58:30.647Z</time>
      </trkpt>
      <trkpt lat="48.84603" lon="2.44104">
        <ele>106.3</ele>
        <time>2015-03-02T19:58:31.557Z</time>
      </trkpt>
      <trkpt lat="48.84603" lon="2.44111">
        <ele>106</ele>
        <time>2015-03-02T19:58:33.647Z</time>
      </trkpt>
      <trkpt lat="48.84603" lon="2.44118">
        <ele>105.8</ele>
        <time>2015-03-02T19:58:33.812Z</time>
      </trkpt>
      <trkpt lat="48.84602" lon="2.44125">
        <ele>105.5</ele>
        <time>2015-03-02T19:58:34.625Z</time>
      </trkpt>
      <trkpt lat="48.84601" lon="2.44133">
        <ele>105.7</ele>
        <time>2015-03-02T19:58:35.633Z</time>
      </trkpt>
      <trkpt lat="48.84601" lon="2.4414">
        <ele>105.9</ele>
        <time>2015-03-02T19:58:36.552Z</time>
      </trkpt>
      <trkpt lat="48.84601" lon="2.44147">
        <ele>106.1</ele>
        <time>2015-03-02T19:58:37.543Z</time>
      </trkpt>
      <trkpt lat="48.84601" lon="2.44154">
        <ele>106</ele>
        <time>2015-03-02T19:58:38.816Z</time>
      </trkpt>
      <trkpt lat="48.84602" lon="2.44162">
        <ele>105.8</ele>
        <time>2015-03-02T19:58:39.587Z</time>
      </trkpt>
      <trkpt lat="48.84602" lon="2.44169">
        <ele>105.8</ele>
        <time>2015-03-02T19:58:40.596Z</time>
      </trkpt>
      <trkpt lat="48.84603" lon="2.44176">
        <ele>105.8</ele>
        <time>2015-03-02T19:58:41.612Z</time>
      </trkpt>
      <trkpt lat="48.84603" lon="2.44183">
        <ele>105.5</ele>
        <time>2015-03-02T19:58:42.619Z</time>
      </trkpt>
      <trkpt lat="48.84603" lon="2.44191">
        <ele>105.6</ele>
        <time>2015-03-02T19:58:43.623Z</time>
      </trkpt>
      <trkpt lat="48.84603" lon="2.44199">
        <ele>105.5</ele>
        <time>2015-03-02T19:58:44.632Z</time>
      </trkpt>
      <trkpt lat="48.84603" lon="2.44206">
        <ele>105.2</ele>
        <time>2015-03-02T19:58:45.539Z</time>
      </trkpt>
      <trkpt lat="48.84603" lon="2.44213">
        <ele>105.1</ele>
        <time>2015-03-02T19:58:46.554Z</time>
      </trkpt>
      <trkpt lat="48.84603" lon="2.44221">
        <ele>105</ele>
        <time>2015-03-02T19:58:47.553Z</time>
      </trkpt>
      <trkpt lat="48.84603" lon="2.44228">
        <ele>104.9</ele>
        <time>2015-03-02T19:58:49.206Z</time>
      </trkpt>
      <trkpt lat="48.84604" lon="2.44235">
        <ele>104.7</ele>
        <time>2015-03-02T19:58:49.588Z</time>
      </trkpt>
      <trkpt lat="48.84604" lon="2.44242">
        <ele>104.6</ele>
        <time>2015-03-02T19:58:50.614Z</time>
      </trkpt>
      <trkpt lat="48.84604" lon="2.4425">
        <ele>104.3</ele>
        <time>2015-03-02T19:58:51.532Z</time>
      </trkpt>
      <trkpt lat="48.84604" lon="2.44262">
        <ele>104.2</ele>
        <time>2015-03-02T19:58:53.565Z</time>
      </trkpt>
      <trkpt lat="48.84604" lon="2.44268">
        <ele>104.2</ele>
        <time>2015-03-02T19:58:54.569Z</time>
      </trkpt>
      <trkpt lat="48.84605" lon="2.44275">
        <ele>104.2</ele>
        <time>2015-03-02T19:58:55.580Z</time>
      </trkpt>
      <trkpt lat="48.84605" lon="2.44282">
        <ele>104.2</ele>
        <time>2015-03-02T19:58:56.592Z</time>
      </trkpt>
      <trkpt lat="48.84606" lon="2.44294">
        <ele>103.9</ele>
        <time>2015-03-02T19:58:58.606Z</time>
      </trkpt>
      <trkpt lat="48.84607" lon="2.443">
        <ele>103.8</ele>
        <time>2015-03-02T19:58:59.547Z</time>
      </trkpt>
      <trkpt lat="48.84606" lon="2.44312">
        <ele>104.2</ele>
        <time>2015-03-02T19:59:01.569Z</time>
      </trkpt>
      <trkpt lat="48.84606" lon="2.44318">
        <ele>104.2</ele>
        <time>2015-03-02T19:59:02.609Z</time>
      </trkpt>
      <trkpt lat="48.84605" lon="2.44325">
        <ele>104.7</ele>
        <time>2015-03-02T19:59:03.557Z</time>
      </trkpt>
      <trkpt lat="48.84604" lon="2.44332">
        <ele>105.2</ele>
        <time>2015-03-02T19:59:04.541Z</time>
      </trkpt>
      <trkpt lat="48.84604" lon="2.44339">
        <ele>105.4</ele>
        <time>2015-03-02T19:59:05.547Z</time>
      </trkpt>
      <trkpt lat="48.84604" lon="2.44346">
        <ele>105.5</ele>
        <time>2015-03-02T19:59:06.569Z</time>
      </trkpt>
      <trkpt lat="48.84604" lon="2.44358">
        <ele>105.6</ele>
        <time>2015-03-02T19:59:08.647Z</time>
      </trkpt>
      <trkpt lat="48.84603" lon="2.44364">
        <ele>105.9</ele>
        <time>2015-03-02T19:59:09.665Z</time>
      </trkpt>
      <trkpt lat="48.84604" lon="2.44376">
        <ele>105.7</ele>
        <time>2015-03-02T19:59:11.552Z</time>
      </trkpt>
      <trkpt lat="48.84604" lon="2.44383">
        <ele>105.6</ele>
        <time>2015-03-02T19:59:12.617Z</time>
      </trkpt>
      <trkpt lat="48.84603" lon="2.44395">
        <ele>105.5</ele>
        <time>2015-03-02T19:59:14.611Z</time>
      </trkpt>
      <trkpt lat="48.84601" lon="2.44401">
        <ele>105.4</ele>
        <time>2015-03-02T19:59:15.634Z</time>
      </trkpt>
      <trkpt lat="48.846" lon="2.44414">
        <ele>105.5</ele>
        <time>2015-03-02T19:59:17.565Z</time>
      </trkpt>
      <trkpt lat="48.846" lon="2.44419">
        <ele>105.6</ele>
        <time>2015-03-02T19:59:18.557Z</time>
      </trkpt>
      <trkpt lat="48.84599" lon="2.44432">
        <ele>105.6</ele>
        <time>2015-03-02T19:59:20.742Z</time>
      </trkpt>
      <trkpt lat="48.84599" lon="2.44438">
        <ele>105.4</ele>
        <time>2015-03-02T19:59:21.556Z</time>
      </trkpt>
      <trkpt lat="48.84598" lon="2.44451">
        <ele>105</ele>
        <time>2015-03-02T19:59:23.618Z</time>
      </trkpt>
      <trkpt lat="48.84598" lon="2.44458">
        <ele>104.9</ele>
        <time>2015-03-02T19:59:24.540Z</time>
      </trkpt>
      <trkpt lat="48.84597" lon="2.44471">
        <ele>104.4</ele>
        <time>2015-03-02T19:59:26.651Z</time>
      </trkpt>
      <trkpt lat="48.84597" lon="2.44477">
        <ele>104.2</ele>
        <time>2015-03-02T19:59:27.550Z</time>
      </trkpt>
      <trkpt lat="48.84597" lon="2.44489">
        <ele>104</ele>
        <time>2015-03-02T19:59:29.572Z</time>
      </trkpt>
      <trkpt lat="48.84596" lon="2.44497">
        <ele>103.8</ele>
        <time>2015-03-02T19:59:30.582Z</time>
      </trkpt>
      <trkpt lat="48.84595" lon="2.4451">
        <ele>103.7</ele>
        <time>2015-03-02T19:59:32.635Z</time>
      </trkpt>
      <trkpt lat="48.84595" lon="2.44517">
        <ele>103.7</ele>
        <time>2015-03-02T19:59:33.654Z</time>
      </trkpt>
      <trkpt lat="48.84595" lon="2.44529">
        <ele>104</ele>
        <time>2015-03-02T19:59:35.542Z</time>
      </trkpt>
      <trkpt lat="48.84595" lon="2.44535">
        <ele>103.8</ele>
        <time>2015-03-02T19:59:36.559Z</time>
      </trkpt>
      <trkpt lat="48.84595" lon="2.44547">
        <ele>103.5</ele>
        <time>2015-03-02T19:59:38.617Z</time>
      </trkpt>
      <trkpt lat="48.84594" lon="2.44553">
        <ele>103.4</ele>
        <time>2015-03-02T19:59:39.548Z</time>
      </trkpt>
      <trkpt lat="48.84592" lon="2.4456">
        <ele>103.4</ele>
        <time>2015-03-02T19:59:40.599Z</time>
      </trkpt>
      <trkpt lat="48.84589" lon="2.44567">
        <ele>103.4</ele>
        <time>2015-03-02T19:59:41.595Z</time>
      </trkpt>
      <trkpt lat="48.84587" lon="2.44579">
        <ele>103.7</ele>
        <time>2015-03-02T19:59:43.625Z</time>
      </trkpt>
      <trkpt lat="48.84586" lon="2.44584">
        <ele>103.8</ele>
        <time>2015-03-02T19:59:44.603Z</time>
      </trkpt>
      <trkpt lat="48.84584" lon="2.44595">
        <ele>103.9</ele>
        <time>2015-03-02T19:59:46.672Z</time>
      </trkpt>
      <trkpt lat="48.84584" lon="2.44602">
        <ele>103.8</ele>
        <time>2015-03-02T19:59:47.623Z</time>
      </trkpt>
      <trkpt lat="48.84581" lon="2.44613">
        <ele>103.9</ele>
        <time>2015-03-02T19:59:49.585Z</time>
      </trkpt>
      <trkpt lat="48.84579" lon="2.44619">
        <ele>103.8</ele>
        <time>2015-03-02T19:59:50.601Z</time>
      </trkpt>
      <trkpt lat="48.84577" lon="2.44626">
        <ele>104.1</ele>
        <time>2015-03-02T19:59:51.622Z</time>
      </trkpt>
      <trkpt lat="48.84574" lon="2.44635">
        <ele>104.4</ele>
        <time>2015-03-02T19:59:52.627Z</time>
      </trkpt>
      <trkpt lat="48.84573" lon="2.44641">
        <ele>104.3</ele>
        <time>2015-03-02T19:59:53.562Z</time>
      </trkpt>
      <trkpt lat="48.84571" lon="2.44649">
        <ele>105.2</ele>
        <time>2015-03-02T19:59:54.564Z</time>
      </trkpt>
      <trkpt lat="48.84572" lon="2.44663">
        <ele>104.9</ele>
        <time>2015-03-02T19:59:57.585Z</time>
      </trkpt>
      <trkpt lat="48.84573" lon="2.44666">
        <ele>105</ele>
        <time>2015-03-02T19:59:58.593Z</time>
      </trkpt>
      <trkpt lat="48.84565" lon="2.44671">
        <ele>105.8</ele>
        <time>2015-03-02T20:00:04.636Z</time>
      </trkpt>
      <trkpt lat="48.84561" lon="2.4467">
        <ele>106.2</ele>
        <time>2015-03-02T20:00:05.557Z</time>
      </trkpt>
      <trkpt lat="48.84553" lon="2.44668">
        <ele>106.9</ele>
        <time>2015-03-02T20:00:07.568Z</time>
      </trkpt>
      <trkpt lat="48.84549" lon="2.44666">
        <ele>106.9</ele>
        <time>2015-03-02T20:00:08.649Z</time>
      </trkpt>
      <trkpt lat="48.84545" lon="2.44665">
        <ele>107.2</ele>
        <time>2015-03-02T20:00:09.558Z</time>
      </trkpt>
      <trkpt lat="48.8454" lon="2.44664">
        <ele>107.4</ele>
        <time>2015-03-02T20:00:10.571Z</time>
      </trkpt>
      <trkpt lat="48.84535" lon="2.44663">
        <ele>107.1</ele>
        <time>2015-03-02T20:00:11.578Z</time>
      </trkpt>
      <trkpt lat="48.8453" lon="2.44662">
        <ele>107.1</ele>
        <time>2015-03-02T20:00:12.584Z</time>
      </trkpt>
      <trkpt lat="48.84521" lon="2.4466">
        <ele>107.1</ele>
        <time>2015-03-02T20:00:14.623Z</time>
      </trkpt>
      <trkpt lat="48.84518" lon="2.44659">
        <ele>107.1</ele>
        <time>2015-03-02T20:00:15.730Z</time>
      </trkpt>
      <trkpt lat="48.84511" lon="2.44657">
        <ele>107.3</ele>
        <time>2015-03-02T20:00:17.578Z</time>
      </trkpt>
      <trkpt lat="48.84507" lon="2.44657">
        <ele>106.9</ele>
        <time>2015-03-02T20:00:18.589Z</time>
      </trkpt>
      <trkpt lat="48.84498" lon="2.4466">
        <ele>107.1</ele>
        <time>2015-03-02T20:00:21.633Z</time>
      </trkpt>
      <trkpt lat="48.84497" lon="2.44663">
        <ele>107.3</ele>
        <time>2015-03-02T20:00:22.523Z</time>
      </trkpt>
      <trkpt lat="48.84494" lon="2.44673">
        <ele>107.5</ele>
        <time>2015-03-02T20:00:25.624Z</time>
      </trkpt>
      <trkpt lat="48.84494" lon="2.44677">
        <ele>107.5</ele>
        <time>2015-03-02T20:00:26.661Z</time>
      </trkpt>
      <trkpt lat="48.84492" lon="2.4469">
        <ele>107.4</ele>
        <time>2015-03-02T20:00:29.629Z</time>
      </trkpt>
      <trkpt lat="48.84492" lon="2.44695">
        <ele>107.4</ele>
        <time>2015-03-02T20:00:30.631Z</time>
      </trkpt>
      <trkpt lat="48.84491" lon="2.44705">
        <ele>107.1</ele>
        <time>2015-03-02T20:00:32.592Z</time>
      </trkpt>
      <trkpt lat="48.8449" lon="2.44709">
        <ele>107.1</ele>
        <time>2015-03-02T20:00:33.598Z</time>
      </trkpt>
      <trkpt lat="48.84489" lon="2.44721">
        <ele>107.1</ele>
        <time>2015-03-02T20:00:35.537Z</time>
      </trkpt>
      <trkpt lat="48.84489" lon="2.44726">
        <ele>106.7</ele>
        <time>2015-03-02T20:00:36.556Z</time>
      </trkpt>
      <trkpt lat="48.84488" lon="2.44736">
        <ele>106</ele>
        <time>2015-03-02T20:00:38.637Z</time>
      </trkpt>
      <trkpt lat="48.84487" lon="2.44742">
        <ele>106.1</ele>
        <time>2015-03-02T20:00:39.555Z</time>
      </trkpt>
      <trkpt lat="48.84485" lon="2.44753">
        <ele>106.1</ele>
        <time>2015-03-02T20:00:41.575Z</time>
      </trkpt>
      <trkpt lat="48.84484" lon="2.4476">
        <ele>106.3</ele>
        <time>2015-03-02T20:00:42.591Z</time>
      </trkpt>
      <trkpt lat="48.84483" lon="2.44772">
        <ele>106.4</ele>
        <time>2015-03-02T20:00:44.617Z</time>
      </trkpt>
      <trkpt lat="48.84483" lon="2.44778">
        <ele>106.2</ele>
        <time>2015-03-02T20:00:45.637Z</time>
      </trkpt>
      <trkpt lat="48.84483" lon="2.44789">
        <ele>106.2</ele>
        <time>2015-03-02T20:00:47.545Z</time>
      </trkpt>
      <trkpt lat="48.84482" lon="2.44795">
        <ele>106</ele>
        <time>2015-03-02T20:00:48.583Z</time>
      </trkpt>
      <trkpt lat="48.84482" lon="2.44808">
        <ele>105.7</ele>
        <time>2015-03-02T20:00:50.646Z</time>
      </trkpt>
      <trkpt lat="48.84481" lon="2.44814">
        <ele>105.6</ele>
        <time>2015-03-02T20:00:51.548Z</time>
      </trkpt>
      <trkpt lat="48.84479" lon="2.44826">
        <ele>105.6</ele>
        <time>2015-03-02T20:00:53.588Z</time>
      </trkpt>
      <trkpt lat="48.84479" lon="2.44832">
        <ele>105.6</ele>
        <time>2015-03-02T20:00:54.606Z</time>
      </trkpt>
      <trkpt lat="48.84478" lon="2.44845">
        <ele>105.2</ele>
        <time>2015-03-02T20:00:56.580Z</time>
      </trkpt>
      <trkpt lat="48.84477" lon="2.44851">
        <ele>105.2</ele>
        <time>2015-03-02T20:00:57.581Z</time>
      </trkpt>
      <trkpt lat="48.84477" lon="2.44864">
        <ele>104.9</ele>
        <time>2015-03-02T20:00:59.616Z</time>
      </trkpt>
      <trkpt lat="48.84477" lon="2.4487">
        <ele>104.8</ele>
        <time>2015-03-02T20:01:00.520Z</time>
      </trkpt>
      <trkpt lat="48.84476" lon="2.44883">
        <ele>104.8</ele>
        <time>2015-03-02T20:01:02.588Z</time>
      </trkpt>
      <trkpt lat="48.84476" lon="2.44889">
        <ele>104.9</ele>
        <time>2015-03-02T20:01:03.547Z</time>
      </trkpt>
      <trkpt lat="48.84474" lon="2.44902">
        <ele>104.9</ele>
        <time>2015-03-02T20:01:05.545Z</time>
      </trkpt>
      <trkpt lat="48.84473" lon="2.44909">
        <ele>105</ele>
        <time>2015-03-02T20:01:06.556Z</time>
      </trkpt>
      <trkpt lat="48.84471" lon="2.44921">
        <ele>105.2</ele>
        <time>2015-03-02T20:01:08.622Z</time>
      </trkpt>
      <trkpt lat="48.84469" lon="2.44927">
        <ele>105.2</ele>
        <time>2015-03-02T20:01:09.631Z</time>
      </trkpt>
      <trkpt lat="48.84468" lon="2.44934">
        <ele>105.3</ele>
        <time>2015-03-02T20:01:11.092Z</time>
      </trkpt>
      <trkpt lat="48.84467" lon="2.44941">
        <ele>105.2</ele>
        <time>2015-03-02T20:01:11.565Z</time>
      </trkpt>
      <trkpt lat="48.84465" lon="2.44949">
        <ele>105.6</ele>
        <time>2015-03-02T20:01:12.571Z</time>
      </trkpt>
      <trkpt lat="48.84463" lon="2.4496">
        <ele>106.2</ele>
        <time>2015-03-02T20:01:13.636Z</time>
      </trkpt>
      <trkpt lat="48.84462" lon="2.44968">
        <ele>106.2</ele>
        <time>2015-03-02T20:01:15.157Z</time>
      </trkpt>
      <trkpt lat="48.84462" lon="2.44975">
        <ele>106.1</ele>
        <time>2015-03-02T20:01:15.517Z</time>
      </trkpt>
      <trkpt lat="48.84461" lon="2.44982">
        <ele>106.1</ele>
        <time>2015-03-02T20:01:16.546Z</time>
      </trkpt>
      <trkpt lat="48.84461" lon="2.44988">
        <ele>105.9</ele>
        <time>2015-03-02T20:01:17.546Z</time>
      </trkpt>
      <trkpt lat="48.8446" lon="2.45">
        <ele>105.6</ele>
        <time>2015-03-02T20:01:19.550Z</time>
      </trkpt>
      <trkpt lat="48.84459" lon="2.45006">
        <ele>105.5</ele>
        <time>2015-03-02T20:01:20.650Z</time>
      </trkpt>
      <trkpt lat="48.84457" lon="2.45017">
        <ele>105.4</ele>
        <time>2015-03-02T20:01:22.541Z</time>
      </trkpt>
      <trkpt lat="48.84455" lon="2.45024">
        <ele>105.3</ele>
        <time>2015-03-02T20:01:23.560Z</time>
      </trkpt>
      <trkpt lat="48.84454" lon="2.45036">
        <ele>105.3</ele>
        <time>2015-03-02T20:01:25.594Z</time>
      </trkpt>
      <trkpt lat="48.84454" lon="2.45041">
        <ele>105.2</ele>
        <time>2015-03-02T20:01:26.619Z</time>
      </trkpt>
      <trkpt lat="48.84452" lon="2.45052">
        <ele>105.8</ele>
        <time>2015-03-02T20:01:28.553Z</time>
      </trkpt>
      <trkpt lat="48.84452" lon="2.45056">
        <ele>105.9</ele>
        <time>2015-03-02T20:01:29.616Z</time>
      </trkpt>
      <trkpt lat="48.84451" lon="2.45069">
        <ele>105.3</ele>
        <time>2015-03-02T20:01:32.621Z</time>
      </trkpt>
      <trkpt lat="48.84451" lon="2.45074">
        <ele>105.1</ele>
        <time>2015-03-02T20:01:33.552Z</time>
      </trkpt>
      <trkpt lat="48.84449" lon="2.45082">
        <ele>105</ele>
        <time>2015-03-02T20:01:35.579Z</time>
      </trkpt>
      <trkpt lat="48.84447" lon="2.45087">
        <ele>104.9</ele>
        <time>2015-03-02T20:01:36.590Z</time>
      </trkpt>
      <trkpt lat="48.84445" lon="2.45097">
        <ele>104.6</ele>
        <time>2015-03-02T20:01:38.639Z</time>
      </trkpt>
      <trkpt lat="48.84444" lon="2.45102">
        <ele>104.6</ele>
        <time>2015-03-02T20:01:39.557Z</time>
      </trkpt>
      <trkpt lat="48.84443" lon="2.45113">
        <ele>104.8</ele>
        <time>2015-03-02T20:01:41.573Z</time>
      </trkpt>
      <trkpt lat="48.84442" lon="2.45119">
        <ele>104.8</ele>
        <time>2015-03-02T20:01:42.589Z</time>
      </trkpt>
      <trkpt lat="48.84443" lon="2.45128">
        <ele>105.3</ele>
        <time>2015-03-02T20:01:44.647Z</time>
      </trkpt>
      <trkpt lat="48.84443" lon="2.45133">
        <ele>105.5</ele>
        <time>2015-03-02T20:01:45.520Z</time>
      </trkpt>
      <trkpt lat="48.84442" lon="2.45144">
        <ele>105.6</ele>
        <time>2015-03-02T20:01:47.641Z</time>
      </trkpt>
      <trkpt lat="48.84441" lon="2.45149">
        <ele>105.8</ele>
        <time>2015-03-02T20:01:48.519Z</time>
      </trkpt>
      <trkpt lat="48.8444" lon="2.45159">
        <ele>106.2</ele>
        <time>2015-03-02T20:01:50.609Z</time>
      </trkpt>
      <trkpt lat="48.84439" lon="2.45164">
        <ele>106.3</ele>
        <time>2015-03-02T20:01:51.519Z</time>
      </trkpt>
      <trkpt lat="48.84437" lon="2.45176">
        <ele>106.5</ele>
        <time>2015-03-02T20:01:53.592Z</time>
      </trkpt>
      <trkpt lat="48.84436" lon="2.45182">
        <ele>106.7</ele>
        <time>2015-03-02T20:01:54.543Z</time>
      </trkpt>
      <trkpt lat="48.84434" lon="2.45195">
        <ele>107</ele>
        <time>2015-03-02T20:01:56.601Z</time>
      </trkpt>
      <trkpt lat="48.84433" lon="2.45201">
        <ele>107</ele>
        <time>2015-03-02T20:01:58.055Z</time>
      </trkpt>
      <trkpt lat="48.84431" lon="2.45213">
        <ele>106.8</ele>
        <time>2015-03-02T20:01:59.548Z</time>
      </trkpt>
      <trkpt lat="48.8443" lon="2.45218">
        <ele>106.5</ele>
        <time>2015-03-02T20:02:00.667Z</time>
      </trkpt>
      <trkpt lat="48.84427" lon="2.45228">
        <ele>106.5</ele>
        <time>2015-03-02T20:02:02.588Z</time>
      </trkpt>
      <trkpt lat="48.84425" lon="2.45233">
        <ele>106.6</ele>
        <time>2015-03-02T20:02:03.598Z</time>
      </trkpt>
      <trkpt lat="48.84422" lon="2.45238">
        <ele>106.5</ele>
        <time>2015-03-02T20:02:04.616Z</time>
      </trkpt>
      <trkpt lat="48.8442" lon="2.45245">
        <ele>106.5</ele>
        <time>2015-03-02T20:02:05.553Z</time>
      </trkpt>
      <trkpt lat="48.84418" lon="2.45257">
        <ele>106.2</ele>
        <time>2015-03-02T20:02:07.574Z</time>
      </trkpt>
      <trkpt lat="48.84417" lon="2.45263">
        <ele>105.9</ele>
        <time>2015-03-02T20:02:08.634Z</time>
      </trkpt>
      <trkpt lat="48.84417" lon="2.4527">
        <ele>106</ele>
        <time>2015-03-02T20:02:09.533Z</time>
      </trkpt>
      <trkpt lat="48.84416" lon="2.45277">
        <ele>106</ele>
        <time>2015-03-02T20:02:10.537Z</time>
      </trkpt>
      <trkpt lat="48.84415" lon="2.45283">
        <ele>106</ele>
        <time>2015-03-02T20:02:11.548Z</time>
      </trkpt>
      <trkpt lat="48.84415" lon="2.4529">
        <ele>105.7</ele>
        <time>2015-03-02T20:02:12.553Z</time>
      </trkpt>
      <trkpt lat="48.84414" lon="2.45297">
        <ele>105.6</ele>
        <time>2015-03-02T20:02:13.642Z</time>
      </trkpt>
      <trkpt lat="48.84413" lon="2.45304">
        <ele>105.6</ele>
        <time>2015-03-02T20:02:14.558Z</time>
      </trkpt>
      <trkpt lat="48.84412" lon="2.45311">
        <ele>105.6</ele>
        <time>2015-03-02T20:02:15.600Z</time>
      </trkpt>
      <trkpt lat="48.84411" lon="2.45318">
        <ele>105.6</ele>
        <time>2015-03-02T20:02:16.613Z</time>
      </trkpt>
      <trkpt lat="48.84409" lon="2.45325">
        <ele>105.6</ele>
        <time>2015-03-02T20:02:17.539Z</time>
      </trkpt>
      <trkpt lat="48.84408" lon="2.45332">
        <ele>105.4</ele>
        <time>2015-03-02T20:02:18.542Z</time>
      </trkpt>
      <trkpt lat="48.84407" lon="2.45338">
        <ele>105.2</ele>
        <time>2015-03-02T20:02:19.559Z</time>
      </trkpt>
      <trkpt lat="48.84405" lon="2.45345">
        <ele>105.1</ele>
        <time>2015-03-02T20:02:20.595Z</time>
      </trkpt>
      <trkpt lat="48.84403" lon="2.45352">
        <ele>105</ele>
        <time>2015-03-02T20:02:21.596Z</time>
      </trkpt>
      <trkpt lat="48.84401" lon="2.45359">
        <ele>104.9</ele>
        <time>2015-03-02T20:02:22.614Z</time>
      </trkpt>
      <trkpt lat="48.844" lon="2.45366">
        <ele>104.7</ele>
        <time>2015-03-02T20:02:23.542Z</time>
      </trkpt>
      <trkpt lat="48.84398" lon="2.45372">
        <ele>104.7</ele>
        <time>2015-03-02T20:02:24.548Z</time>
      </trkpt>
      <trkpt lat="48.84397" lon="2.45385">
        <ele>104.6</ele>
        <time>2015-03-02T20:02:26.555Z</time>
      </trkpt>
      <trkpt lat="48.84397" lon="2.45392">
        <ele>104.6</ele>
        <time>2015-03-02T20:02:27.578Z</time>
      </trkpt>
      <trkpt lat="48.84397" lon="2.45399">
        <ele>104.7</ele>
        <time>2015-03-02T20:02:28.600Z</time>
      </trkpt>
      <trkpt lat="48.84397" lon="2.45406">
        <ele>104.7</ele>
        <time>2015-03-02T20:02:29.611Z</time>
      </trkpt>
      <trkpt lat="48.84396" lon="2.45414">
        <ele>104.6</ele>
        <time>2015-03-02T20:02:30.535Z</time>
      </trkpt>
      <trkpt lat="48.84396" lon="2.45421">
        <ele>104.5</ele>
        <time>2015-03-02T20:02:31.552Z</time>
      </trkpt>
      <trkpt lat="48.84397" lon="2.45428">
        <ele>104.4</ele>
        <time>2015-03-02T20:02:33.545Z</time>
      </trkpt>
      <trkpt lat="48.84397" lon="2.45435">
        <ele>104.3</ele>
        <time>2015-03-02T20:02:33.592Z</time>
      </trkpt>
      <trkpt lat="48.84394" lon="2.45448">
        <ele>104.6</ele>
        <time>2015-03-02T20:02:35.619Z</time>
      </trkpt>
      <trkpt lat="48.84393" lon="2.45454">
        <ele>104.9</ele>
        <time>2015-03-02T20:02:36.530Z</time>
      </trkpt>
      <trkpt lat="48.84391" lon="2.45466">
        <ele>104.7</ele>
        <time>2015-03-02T20:02:38.600Z</time>
      </trkpt>
      <trkpt lat="48.8439" lon="2.45473">
        <ele>104.7</ele>
        <time>2015-03-02T20:02:39.615Z</time>
      </trkpt>
      <trkpt lat="48.84389" lon="2.45486">
        <ele>104.3</ele>
        <time>2015-03-02T20:02:41.551Z</time>
      </trkpt>
      <trkpt lat="48.84388" lon="2.45492">
        <ele>104.1</ele>
        <time>2015-03-02T20:02:42.562Z</time>
      </trkpt>
      <trkpt lat="48.84387" lon="2.45504">
        <ele>103.9</ele>
        <time>2015-03-02T20:02:44.591Z</time>
      </trkpt>
      <trkpt lat="48.84387" lon="2.4551">
        <ele>103.9</ele>
        <time>2015-03-02T20:02:45.630Z</time>
      </trkpt>
      <trkpt lat="48.84387" lon="2.45522">
        <ele>103.7</ele>
        <time>2015-03-02T20:02:47.516Z</time>
      </trkpt>
      <trkpt lat="48.84387" lon="2.45528">
        <ele>103.7</ele>
        <time>2015-03-02T20:02:48.584Z</time>
      </trkpt>
      <trkpt lat="48.84386" lon="2.4554">
        <ele>103.5</ele>
        <time>2015-03-02T20:02:50.619Z</time>
      </trkpt>
      <trkpt lat="48.84386" lon="2.45546">
        <ele>103.4</ele>
        <time>2015-03-02T20:02:51.629Z</time>
      </trkpt>
      <trkpt lat="48.84384" lon="2.45559">
        <ele>103.1</ele>
        <time>2015-03-02T20:02:53.585Z</time>
      </trkpt>
      <trkpt lat="48.84384" lon="2.45566">
        <ele>102.8</ele>
        <time>2015-03-02T20:02:54.622Z</time>
      </trkpt>
      <trkpt lat="48.84383" lon="2.45578">
        <ele>102.7</ele>
        <time>2015-03-02T20:02:56.632Z</time>
      </trkpt>
      <trkpt lat="48.84383" lon="2.45584">
        <ele>102.6</ele>
        <time>2015-03-02T20:02:57.530Z</time>
      </trkpt>
      <trkpt lat="48.84382" lon="2.45596">
        <ele>102.6</ele>
        <time>2015-03-02T20:02:59.550Z</time>
      </trkpt>
      <trkpt lat="48.84381" lon="2.45604">
        <ele>102.9</ele>
        <time>2015-03-02T20:03:00.578Z</time>
      </trkpt>
      <trkpt lat="48.8438" lon="2.45612">
        <ele>103.3</ele>
        <time>2015-03-02T20:03:01.625Z</time>
      </trkpt>
      <trkpt lat="48.84379" lon="2.45619">
        <ele>103.2</ele>
        <time>2015-03-02T20:03:02.665Z</time>
      </trkpt>
      <trkpt lat="48.84378" lon="2.45626">
        <ele>103.4</ele>
        <time>2015-03-02T20:03:03.552Z</time>
      </trkpt>
      <trkpt lat="48.84377" lon="2.45633">
        <ele>103.6</ele>
        <time>2015-03-02T20:03:04.553Z</time>
      </trkpt>
      <trkpt lat="48.84374" lon="2.45645">
        <ele>103.7</ele>
        <time>2015-03-02T20:03:06.573Z</time>
      </trkpt>
      <trkpt lat="48.84373" lon="2.45651">
        <ele>103.6</ele>
        <time>2015-03-02T20:03:07.583Z</time>
      </trkpt>
      <trkpt lat="48.84371" lon="2.45663">
        <ele>103.2</ele>
        <time>2015-03-02T20:03:09.615Z</time>
      </trkpt>
      <trkpt lat="48.84371" lon="2.45668">
        <ele>102.8</ele>
        <time>2015-03-02T20:03:10.633Z</time>
      </trkpt>
      <trkpt lat="48.84369" lon="2.45678">
        <ele>102.7</ele>
        <time>2015-03-02T20:03:13.429Z</time>
      </trkpt>
      <trkpt lat="48.84368" lon="2.45684">
        <ele>102.8</ele>
        <time>2015-03-02T20:03:13.551Z</time>
      </trkpt>
      <trkpt lat="48.84367" lon="2.45694">
        <ele>103.1</ele>
        <time>2015-03-02T20:03:15.557Z</time>
      </trkpt>
      <trkpt lat="48.84368" lon="2.45699">
        <ele>103.3</ele>
        <time>2015-03-02T20:03:16.545Z</time>
      </trkpt>
      <trkpt lat="48.84368" lon="2.45708">
        <ele>103.4</ele>
        <time>2015-03-02T20:03:18.567Z</time>
      </trkpt>
      <trkpt lat="48.84367" lon="2.45714">
        <ele>103.4</ele>
        <time>2015-03-02T20:03:19.579Z</time>
      </trkpt>
      <trkpt lat="48.84365" lon="2.45725">
        <ele>103.7</ele>
        <time>2015-03-02T20:03:21.637Z</time>
      </trkpt>
      <trkpt lat="48.84365" lon="2.4573">
        <ele>104</ele>
        <time>2015-03-02T20:03:22.545Z</time>
      </trkpt>
      <trkpt lat="48.84365" lon="2.4574">
        <ele>104.1</ele>
        <time>2015-03-02T20:03:24.554Z</time>
      </trkpt>
      <trkpt lat="48.84364" lon="2.45746">
        <ele>104.1</ele>
        <time>2015-03-02T20:03:25.566Z</time>
      </trkpt>
      <trkpt lat="48.84362" lon="2.45758">
        <ele>104.4</ele>
        <time>2015-03-02T20:03:28.666Z</time>
      </trkpt>
      <trkpt lat="48.84362" lon="2.45765">
        <ele>104.4</ele>
        <time>2015-03-02T20:03:28.716Z</time>
      </trkpt>
      <trkpt lat="48.8436" lon="2.45776">
        <ele>104.5</ele>
        <time>2015-03-02T20:03:30.564Z</time>
      </trkpt>
      <trkpt lat="48.8436" lon="2.45783">
        <ele>104.6</ele>
        <time>2015-03-02T20:03:31.586Z</time>
      </trkpt>
      <trkpt lat="48.84359" lon="2.45796">
        <ele>104.7</ele>
        <time>2015-03-02T20:03:33.745Z</time>
      </trkpt>
      <trkpt lat="48.84357" lon="2.45802">
        <ele>104.9</ele>
        <time>2015-03-02T20:03:34.544Z</time>
      </trkpt>
      <trkpt lat="48.84355" lon="2.45815">
        <ele>104.8</ele>
        <time>2015-03-02T20:03:36.555Z</time>
      </trkpt>
      <trkpt lat="48.84353" lon="2.45821">
        <ele>104.9</ele>
        <time>2015-03-02T20:03:37.572Z</time>
      </trkpt>
      <trkpt lat="48.84351" lon="2.45833">
        <ele>104.7</ele>
        <time>2015-03-02T20:03:39.589Z</time>
      </trkpt>
      <trkpt lat="48.8435" lon="2.45838">
        <ele>104.8</ele>
        <time>2015-03-02T20:03:40.604Z</time>
      </trkpt>
      <trkpt lat="48.84348" lon="2.4585">
        <ele>104.8</ele>
        <time>2015-03-02T20:03:42.522Z</time>
      </trkpt>
      <trkpt lat="48.84347" lon="2.45855">
        <ele>104.9</ele>
        <time>2015-03-02T20:03:43.542Z</time>
      </trkpt>
      <trkpt lat="48.84345" lon="2.45866">
        <ele>105</ele>
        <time>2015-03-02T20:03:45.589Z</time>
      </trkpt>
      <trkpt lat="48.84344" lon="2.45871">
        <ele>104.9</ele>
        <time>2015-03-02T20:03:46.592Z</time>
      </trkpt>
      <trkpt lat="48.84342" lon="2.45883">
        <ele>104.9</ele>
        <time>2015-03-02T20:03:49.026Z</time>
      </trkpt>
      <trkpt lat="48.84341" lon="2.45889">
        <ele>105</ele>
        <time>2015-03-02T20:03:49.584Z</time>
      </trkpt>
      <trkpt lat="48.84339" lon="2.459">
        <ele>104.8</ele>
        <time>2015-03-02T20:03:51.538Z</time>
      </trkpt>
      <trkpt lat="48.84338" lon="2.45906">
        <ele>104.6</ele>
        <time>2015-03-02T20:03:52.642Z</time>
      </trkpt>
      <trkpt lat="48.84335" lon="2.45917">
        <ele>103.8</ele>
        <time>2015-03-02T20:03:54.617Z</time>
      </trkpt>
      <trkpt lat="48.84333" lon="2.45923">
        <ele>103.5</ele>
        <time>2015-03-02T20:03:55.624Z</time>
      </trkpt>
      <trkpt lat="48.84331" lon="2.45936">
        <ele>103.7</ele>
        <time>2015-03-02T20:03:57.550Z</time>
      </trkpt>
      <trkpt lat="48.8433" lon="2.45942">
        <ele>103.8</ele>
        <time>2015-03-02T20:03:58.563Z</time>
      </trkpt>
      <trkpt lat="48.84328" lon="2.45953">
        <ele>104</ele>
        <time>2015-03-02T20:04:00.640Z</time>
      </trkpt>
      <trkpt lat="48.84327" lon="2.45959">
        <ele>104</ele>
        <time>2015-03-02T20:04:01.650Z</time>
      </trkpt>
      <trkpt lat="48.84325" lon="2.4597">
        <ele>104</ele>
        <time>2015-03-02T20:04:03.542Z</time>
      </trkpt>
      <trkpt lat="48.84324" lon="2.45976">
        <ele>104.2</ele>
        <time>2015-03-02T20:04:04.576Z</time>
      </trkpt>
      <trkpt lat="48.84322" lon="2.45987">
        <ele>104.2</ele>
        <time>2015-03-02T20:04:06.600Z</time>
      </trkpt>
      <trkpt lat="48.84321" lon="2.45992">
        <ele>104.4</ele>
        <time>2015-03-02T20:04:07.646Z</time>
      </trkpt>
      <trkpt lat="48.84319" lon="2.46004">
        <ele>104.8</ele>
        <time>2015-03-02T20:04:09.606Z</time>
      </trkpt>
      <trkpt lat="48.84317" lon="2.46009">
        <ele>104.9</ele>
        <time>2015-03-02T20:04:10.710Z</time>
      </trkpt>
      <trkpt lat="48.84314" lon="2.46021">
        <ele>105</ele>
        <time>2015-03-02T20:04:13.399Z</time>
      </trkpt>
      <trkpt lat="48.84312" lon="2.46027">
        <ele>105</ele>
        <time>2015-03-02T20:04:13.565Z</time>
      </trkpt>
      <trkpt lat="48.84308" lon="2.46038">
        <ele>105.2</ele>
        <time>2015-03-02T20:04:15.625Z</time>
      </trkpt>
      <trkpt lat="48.84306" lon="2.46043">
        <ele>105.3</ele>
        <time>2015-03-02T20:04:16.552Z</time>
      </trkpt>
      <trkpt lat="48.84304" lon="2.46053">
        <ele>105</ele>
        <time>2015-03-02T20:04:18.581Z</time>
      </trkpt>
      <trkpt lat="48.84303" lon="2.46058">
        <ele>104.9</ele>
        <time>2015-03-02T20:04:19.596Z</time>
      </trkpt>
      <trkpt lat="48.84299" lon="2.46069">
        <ele>104.9</ele>
        <time>2015-03-02T20:04:21.625Z</time>
      </trkpt>
      <trkpt lat="48.84296" lon="2.46075">
        <ele>105.1</ele>
        <time>2015-03-02T20:04:22.646Z</time>
      </trkpt>
      <trkpt lat="48.84294" lon="2.46081">
        <ele>105.3</ele>
        <time>2015-03-02T20:04:23.526Z</time>
      </trkpt>
      <trkpt lat="48.84291" lon="2.46087">
        <ele>105.4</ele>
        <time>2015-03-02T20:04:24.558Z</time>
      </trkpt>
      <trkpt lat="48.84289" lon="2.46094">
        <ele>105.3</ele>
        <time>2015-03-02T20:04:25.576Z</time>
      </trkpt>
      <trkpt lat="48.84287" lon="2.461">
        <ele>105.4</ele>
        <time>2015-03-02T20:04:26.604Z</time>
      </trkpt>
      <trkpt lat="48.84286" lon="2.46107">
        <ele>105.5</ele>
        <time>2015-03-02T20:04:28.566Z</time>
      </trkpt>
      <trkpt lat="48.84284" lon="2.46113">
        <ele>105.6</ele>
        <time>2015-03-02T20:04:28.609Z</time>
      </trkpt>
      <trkpt lat="48.84282" lon="2.4612">
        <ele>105.3</ele>
        <time>2015-03-02T20:04:29.652Z</time>
      </trkpt>
      <trkpt lat="48.8428" lon="2.46126">
        <ele>105.3</ele>
        <time>2015-03-02T20:04:30.565Z</time>
      </trkpt>
      <trkpt lat="48.84277" lon="2.46138">
        <ele>105.5</ele>
        <time>2015-03-02T20:04:33.653Z</time>
      </trkpt>
      <trkpt lat="48.84274" lon="2.46144">
        <ele>105.6</ele>
        <time>2015-03-02T20:04:33.745Z</time>
      </trkpt>
      <trkpt lat="48.84272" lon="2.4615">
        <ele>105.6</ele>
        <time>2015-03-02T20:04:34.558Z</time>
      </trkpt>
      <trkpt lat="48.84269" lon="2.46155">
        <ele>105.6</ele>
        <time>2015-03-02T20:04:35.557Z</time>
      </trkpt>
      <trkpt lat="48.84265" lon="2.46162">
        <ele>105.8</ele>
        <time>2015-03-02T20:04:36.565Z</time>
      </trkpt>
      <trkpt lat="48.84262" lon="2.46168">
        <ele>105.7</ele>
        <time>2015-03-02T20:04:37.570Z</time>
      </trkpt>
      <trkpt lat="48.84259" lon="2.46174">
        <ele>105.6</ele>
        <time>2015-03-02T20:04:38.703Z</time>
      </trkpt>
      <trkpt lat="48.84256" lon="2.46179">
        <ele>105.7</ele>
        <time>2015-03-02T20:04:39.600Z</time>
      </trkpt>
      <trkpt lat="48.84253" lon="2.46186">
        <ele>105.8</ele>
        <time>2015-03-02T20:04:40.625Z</time>
      </trkpt>
      <trkpt lat="48.84251" lon="2.46192">
        <ele>106</ele>
        <time>2015-03-02T20:04:41.546Z</time>
      </trkpt>
      <trkpt lat="48.84248" lon="2.46199">
        <ele>105.9</ele>
        <time>2015-03-02T20:04:42.560Z</time>
      </trkpt>
      <trkpt lat="48.84245" lon="2.46206">
        <ele>105.7</ele>
        <time>2015-03-02T20:04:43.572Z</time>
      </trkpt>
      <trkpt lat="48.84243" lon="2.46213">
        <ele>105.6</ele>
        <time>2015-03-02T20:04:44.667Z</time>
      </trkpt>
      <trkpt lat="48.84241" lon="2.46219">
        <ele>105.6</ele>
        <time>2015-03-02T20:04:45.549Z</time>
      </trkpt>
      <trkpt lat="48.84239" lon="2.46231">
        <ele>105.6</ele>
        <time>2015-03-02T20:04:47.562Z</time>
      </trkpt>
      <trkpt lat="48.84238" lon="2.46238">
        <ele>105.4</ele>
        <time>2015-03-02T20:04:48.581Z</time>
      </trkpt>
      <trkpt lat="48.84236" lon="2.4625">
        <ele>105.4</ele>
        <time>2015-03-02T20:04:50.612Z</time>
      </trkpt>
      <trkpt lat="48.84233" lon="2.46257">
        <ele>105.5</ele>
        <time>2015-03-02T20:04:51.623Z</time>
      </trkpt>
      <trkpt lat="48.8423" lon="2.46264">
        <ele>105.9</ele>
        <time>2015-03-02T20:04:52.644Z</time>
      </trkpt>
      <trkpt lat="48.84228" lon="2.46271">
        <ele>106.6</ele>
        <time>2015-03-02T20:04:53.554Z</time>
      </trkpt>
      <trkpt lat="48.84224" lon="2.46281">
        <ele>107.4</ele>
        <time>2015-03-02T20:04:55.571Z</time>
      </trkpt>
      <trkpt lat="48.84226" lon="2.46287">
        <ele>107.8</ele>
        <time>2015-03-02T20:04:56.612Z</time>
      </trkpt>
      <trkpt lat="48.84224" lon="2.46297">
        <ele>107.8</ele>
        <time>2015-03-02T20:04:58.546Z</time>
      </trkpt>
      <trkpt lat="48.84223" lon="2.46302">
        <ele>107.7</ele>
        <time>2015-03-02T20:04:59.568Z</time>
      </trkpt>
      <trkpt lat="48.8422" lon="2.46311">
        <ele>107.7</ele>
        <time>2015-03-02T20:05:01.600Z</time>
      </trkpt>
      <trkpt lat="48.84219" lon="2.46314">
        <ele>107.7</ele>
        <time>2015-03-02T20:05:02.619Z</time>
      </trkpt>
      <trkpt lat="48.84217" lon="2.46324">
        <ele>107.8</ele>
        <time>2015-03-02T20:05:04.545Z</time>
      </trkpt>
      <trkpt lat="48.84216" lon="2.46328">
        <ele>108</ele>
        <time>2015-03-02T20:05:05.565Z</time>
      </trkpt>
      <trkpt lat="48.84213" lon="2.4634">
        <ele>108</ele>
        <time>2015-03-02T20:05:08.608Z</time>
      </trkpt>
      <trkpt lat="48.84212" lon="2.46344">
        <ele>108</ele>
        <time>2015-03-02T20:05:09.623Z</time>
      </trkpt>
      <trkpt lat="48.84206" lon="2.46354">
        <ele>108.5</ele>
        <time>2015-03-02T20:05:13.642Z</time>
      </trkpt>
      <trkpt lat="48.84205" lon="2.46357">
        <ele>108.6</ele>
        <time>2015-03-02T20:05:14.678Z</time>
      </trkpt>
      <trkpt lat="48.84201" lon="2.46365">
        <ele>108.6</ele>
        <time>2015-03-02T20:05:16.592Z</time>
      </trkpt>
      <trkpt lat="48.842" lon="2.46369">
        <ele>108.7</ele>
        <time>2015-03-02T20:05:17.610Z</time>
      </trkpt>
      <trkpt lat="48.84195" lon="2.46379">
        <ele>108.9</ele>
        <time>2015-03-02T20:05:20.634Z</time>
      </trkpt>
      <trkpt lat="48.84194" lon="2.46383">
        <ele>109</ele>
        <time>2015-03-02T20:05:21.652Z</time>
      </trkpt>
      <trkpt lat="48.8419" lon="2.46393">
        <ele>109.2</ele>
        <time>2015-03-02T20:05:23.568Z</time>
      </trkpt>
      <trkpt lat="48.84188" lon="2.46398">
        <ele>109.1</ele>
        <time>2015-03-02T20:05:24.567Z</time>
      </trkpt>
      <trkpt lat="48.84184" lon="2.46408">
        <ele>109.2</ele>
        <time>2015-03-02T20:05:26.608Z</time>
      </trkpt>
      <trkpt lat="48.84181" lon="2.46413">
        <ele>109.3</ele>
        <time>2015-03-02T20:05:27.622Z</time>
      </trkpt>
      <trkpt lat="48.84176" lon="2.46423">
        <ele>109.6</ele>
        <time>2015-03-02T20:05:29.550Z</time>
      </trkpt>
      <trkpt lat="48.84173" lon="2.46427">
        <ele>109.6</ele>
        <time>2015-03-02T20:05:30.574Z</time>
      </trkpt>
      <trkpt lat="48.84168" lon="2.46435">
        <ele>110</ele>
        <time>2015-03-02T20:05:32.626Z</time>
      </trkpt>
      <trkpt lat="48.84165" lon="2.4644">
        <ele>110.2</ele>
        <time>2015-03-02T20:05:33.533Z</time>
      </trkpt>
      <trkpt lat="48.84162" lon="2.46444">
        <ele>110.3</ele>
        <time>2015-03-02T20:05:34.550Z</time>
      </trkpt>
      <trkpt lat="48.84159" lon="2.4645">
        <ele>110.4</ele>
        <time>2015-03-02T20:05:35.565Z</time>
      </trkpt>
      <trkpt lat="48.84153" lon="2.4646">
        <ele>110.7</ele>
        <time>2015-03-02T20:05:37.568Z</time>
      </trkpt>
      <trkpt lat="48.8415" lon="2.46465">
        <ele>110.6</ele>
        <time>2015-03-02T20:05:38.585Z</time>
      </trkpt>
      <trkpt lat="48.84144" lon="2.46475">
        <ele>110.5</ele>
        <time>2015-03-02T20:05:40.873Z</time>
      </trkpt>
      <trkpt lat="48.84141" lon="2.46479">
        <ele>110.7</ele>
        <time>2015-03-02T20:05:41.587Z</time>
      </trkpt>
      <trkpt lat="48.84135" lon="2.46487">
        <ele>110.6</ele>
        <time>2015-03-02T20:05:43.592Z</time>
      </trkpt>
      <trkpt lat="48.84132" lon="2.46492">
        <ele>110.5</ele>
        <time>2015-03-02T20:05:44.634Z</time>
      </trkpt>
      <trkpt lat="48.84127" lon="2.46502">
        <ele>110.5</ele>
        <time>2015-03-02T20:05:46.648Z</time>
      </trkpt>
      <trkpt lat="48.84125" lon="2.46506">
        <ele>110.5</ele>
        <time>2015-03-02T20:05:47.591Z</time>
      </trkpt>
      <trkpt lat="48.84119" lon="2.46514">
        <ele>110.5</ele>
        <time>2015-03-02T20:05:49.610Z</time>
      </trkpt>
      <trkpt lat="48.84117" lon="2.46519">
        <ele>110.4</ele>
        <time>2015-03-02T20:05:50.618Z</time>
      </trkpt>
      <trkpt lat="48.84114" lon="2.46523">
        <ele>110.3</ele>
        <time>2015-03-02T20:05:51.630Z</time>
      </trkpt>
      <trkpt lat="48.8411" lon="2.46528">
        <ele>110.2</ele>
        <time>2015-03-02T20:05:52.642Z</time>
      </trkpt>
      <trkpt lat="48.84105" lon="2.46533">
        <ele>110.1</ele>
        <time>2015-03-02T20:05:53.558Z</time>
      </trkpt>
      <trkpt lat="48.84101" lon="2.46538">
        <ele>109.8</ele>
        <time>2015-03-02T20:05:54.559Z</time>
      </trkpt>
      <trkpt lat="48.84095" lon="2.46543">
        <ele>108.9</ele>
        <time>2015-03-02T20:05:55.563Z</time>
      </trkpt>
      <trkpt lat="48.84092" lon="2.46548">
        <ele>108.4</ele>
        <time>2015-03-02T20:05:56.585Z</time>
      </trkpt>
      <trkpt lat="48.84086" lon="2.46555">
        <ele>107.8</ele>
        <time>2015-03-02T20:05:59.542Z</time>
      </trkpt>
      <trkpt lat="48.84084" lon="2.46558">
        <ele>107.5</ele>
        <time>2015-03-02T20:06:00.559Z</time>
      </trkpt>
      <trkpt lat="48.84078" lon="2.46566">
        <ele>108.8</ele>
        <time>2015-03-02T20:06:07.564Z</time>
      </trkpt>
      <trkpt lat="48.84076" lon="2.46571">
        <ele>110.5</ele>
        <time>2015-03-02T20:06:08.560Z</time>
      </trkpt>
      <trkpt lat="48.84077" lon="2.46578">
        <ele>110.9</ele>
        <time>2015-03-02T20:06:18.553Z</time>
      </trkpt>
      <trkpt lat="48.84076" lon="2.46579">
        <ele>111</ele>
        <time>2015-03-02T20:06:19.615Z</time>
      </trkpt>
      <trkpt lat="48.84076" lon="2.46581">
        <ele>111.5</ele>
        <time>2015-03-02T20:06:20.669Z</time>
      </trkpt>
      <trkpt lat="48.84076" lon="2.46581">
        <ele>112.5</ele>
        <time>2015-03-02T20:06:28.535Z</time>
      </trkpt>
      <trkpt lat="48.84076" lon="2.46581">
        <ele>112.5</ele>
        <time>2015-03-02T20:06:29.530Z</time>
      </trkpt>
      <trkpt lat="48.84076" lon="2.46581">
        <ele>112.5</ele>
        <time>2015-03-02T20:06:30.544Z</time>
      </trkpt>
      <trkpt lat="48.84077" lon="2.4658">
        <ele>112.5</ele>
        <time>2015-03-02T20:06:31.551Z</time>
      </trkpt>
      <trkpt lat="48.84077" lon="2.4658">
        <ele>112.5</ele>
        <time>2015-03-02T20:06:32.563Z</time>
      </trkpt>
      <trkpt lat="48.84077" lon="2.4658">
        <ele>112.7</ele>
        <time>2015-03-02T20:06:44.594Z</time>
      </trkpt>
      <trkpt lat="48.8408" lon="2.46581">
        <ele>111.9</ele>
        <time>2015-03-02T20:06:45.621Z</time>
      </trkpt>
      <trkpt lat="48.84073" lon="2.46585">
        <ele>112.8</ele>
        <time>2015-03-02T20:06:53.632Z</time>
      </trkpt>
      <trkpt lat="48.84073" lon="2.46585">
        <ele>112.9</ele>
        <time>2015-03-02T20:06:54.514Z</time>
      </trkpt>
      <trkpt lat="48.84072" lon="2.46585">
        <ele>113.1</ele>
        <time>2015-03-02T20:07:29.633Z</time>
      </trkpt>
      <trkpt lat="48.84066" lon="2.46587">
        <ele>116</ele>
        <time>2015-03-02T20:07:30.646Z</time>
      </trkpt>
      <trkpt lat="48.84066" lon="2.46587">
        <ele>115.7</ele>
        <time>2015-03-02T20:07:31.540Z</time>
      </trkpt>
      <trkpt lat="48.84066" lon="2.46587">
        <ele>115.7</ele>
        <time>2015-03-02T20:07:32.570Z</time>
      </trkpt>
      <trkpt lat="48.84066" lon="2.4659">
        <ele>116.1</ele>
        <time>2015-03-02T20:07:42.546Z</time>
      </trkpt>
      <trkpt lat="48.84066" lon="2.4659">
        <ele>116.2</ele>
        <time>2015-03-02T20:07:43.599Z</time>
      </trkpt>
      <trkpt lat="48.84066" lon="2.46591">
        <ele>116.5</ele>
        <time>2015-03-02T20:07:44.611Z</time>
      </trkpt>
      <trkpt lat="48.84066" lon="2.46592">
        <ele>117</ele>
        <time>2015-03-02T20:07:47.560Z</time>
      </trkpt>
      <trkpt lat="48.84066" lon="2.46591">
        <ele>117.1</ele>
        <time>2015-03-02T20:07:48.565Z</time>
      </trkpt>
      <trkpt lat="48.84066" lon="2.46591">
        <ele>117.1</ele>
        <time>2015-03-02T20:08:27.564Z</time>
      </trkpt>
      <trkpt lat="48.84064" lon="2.46592">
        <ele>118.3</ele>
        <time>2015-03-02T20:08:28.571Z</time>
      </trkpt>
      <trkpt lat="48.84058" lon="2.46599">
        <ele>118.1</ele>
        <time>2015-03-02T20:08:32.632Z</time>
      </trkpt>
      <trkpt lat="48.84056" lon="2.46601">
        <ele>118.2</ele>
        <time>2015-03-02T20:08:33.563Z</time>
      </trkpt>
      <trkpt lat="48.84049" lon="2.46606">
        <ele>118.1</ele>
        <time>2015-03-02T20:08:36.594Z</time>
      </trkpt>
      <trkpt lat="48.84047" lon="2.46607">
        <ele>118</ele>
        <time>2015-03-02T20:08:37.614Z</time>
      </trkpt>
      <trkpt lat="48.84041" lon="2.46612">
        <ele>117.6</ele>
        <time>2015-03-02T20:08:40.551Z</time>
      </trkpt>
      <trkpt lat="48.84039" lon="2.46615">
        <ele>117.5</ele>
        <time>2015-03-02T20:08:41.553Z</time>
      </trkpt>
      <trkpt lat="48.84033" lon="2.4662">
        <ele>117.4</ele>
        <time>2015-03-02T20:08:43.600Z</time>
      </trkpt>
      <trkpt lat="48.8403" lon="2.46624">
        <ele>117.3</ele>
        <time>2015-03-02T20:08:44.610Z</time>
      </trkpt>
      <trkpt lat="48.84025" lon="2.46631">
        <ele>117</ele>
        <time>2015-03-02T20:08:46.532Z</time>
      </trkpt>
      <trkpt lat="48.84022" lon="2.46634">
        <ele>116.9</ele>
        <time>2015-03-02T20:08:47.551Z</time>
      </trkpt>
      <trkpt lat="48.84016" lon="2.46641">
        <ele>116.7</ele>
        <time>2015-03-02T20:08:49.563Z</time>
      </trkpt>
      <trkpt lat="48.84013" lon="2.46644">
        <ele>116.7</ele>
        <time>2015-03-02T20:08:50.583Z</time>
      </trkpt>
      <trkpt lat="48.84007" lon="2.4665">
        <ele>116.3</ele>
        <time>2015-03-02T20:08:52.532Z</time>
      </trkpt>
      <trkpt lat="48.84004" lon="2.46652">
        <ele>116.1</ele>
        <time>2015-03-02T20:08:53.527Z</time>
      </trkpt>
      <trkpt lat="48.83997" lon="2.46658">
        <ele>115.6</ele>
        <time>2015-03-02T20:08:55.575Z</time>
      </trkpt>
      <trkpt lat="48.83994" lon="2.46661">
        <ele>115.3</ele>
        <time>2015-03-02T20:08:56.621Z</time>
      </trkpt>
      <trkpt lat="48.83988" lon="2.46668">
        <ele>114.9</ele>
        <time>2015-03-02T20:08:58.541Z</time>
      </trkpt>
      <trkpt lat="48.83984" lon="2.46672">
        <ele>114.8</ele>
        <time>2015-03-02T20:08:59.563Z</time>
      </trkpt>
      <trkpt lat="48.83978" lon="2.46678">
        <ele>114.6</ele>
        <time>2015-03-02T20:09:01.600Z</time>
      </trkpt>
      <trkpt lat="48.83974" lon="2.46681">
        <ele>114.6</ele>
        <time>2015-03-02T20:09:02.561Z</time>
      </trkpt>
      <trkpt lat="48.83967" lon="2.46687">
        <ele>114.8</ele>
        <time>2015-03-02T20:09:04.574Z</time>
      </trkpt>
      <trkpt lat="48.83963" lon="2.4669">
        <ele>114.8</ele>
        <time>2015-03-02T20:09:05.608Z</time>
      </trkpt>
      <trkpt lat="48.83955" lon="2.46696">
        <ele>114.7</ele>
        <time>2015-03-02T20:09:07.539Z</time>
      </trkpt>
      <trkpt lat="48.83951" lon="2.46698">
        <ele>114.7</ele>
        <time>2015-03-02T20:09:08.603Z</time>
      </trkpt>
      <trkpt lat="48.83947" lon="2.46701">
        <ele>114.7</ele>
        <time>2015-03-02T20:09:09.601Z</time>
      </trkpt>
      <trkpt lat="48.83943" lon="2.46704">
        <ele>114.5</ele>
        <time>2015-03-02T20:09:10.611Z</time>
      </trkpt>
      <trkpt lat="48.83938" lon="2.46708">
        <ele>114.4</ele>
        <time>2015-03-02T20:09:11.723Z</time>
      </trkpt>
      <trkpt lat="48.83934" lon="2.46711">
        <ele>114.4</ele>
        <time>2015-03-02T20:09:12.550Z</time>
      </trkpt>
      <trkpt lat="48.8393" lon="2.46715">
        <ele>114.3</ele>
        <time>2015-03-02T20:09:13.566Z</time>
      </trkpt>
      <trkpt lat="48.83925" lon="2.46717">
        <ele>114.3</ele>
        <time>2015-03-02T20:09:14.580Z</time>
      </trkpt>
      <trkpt lat="48.83921" lon="2.46721">
        <ele>114.2</ele>
        <time>2015-03-02T20:09:15.599Z</time>
      </trkpt>
      <trkpt lat="48.83917" lon="2.46724">
        <ele>114.2</ele>
        <time>2015-03-02T20:09:16.602Z</time>
      </trkpt>
      <trkpt lat="48.83912" lon="2.46729">
        <ele>114.1</ele>
        <time>2015-03-02T20:09:17.510Z</time>
      </trkpt>
      <trkpt lat="48.83909" lon="2.46733">
        <ele>114.1</ele>
        <time>2015-03-02T20:09:18.524Z</time>
      </trkpt>
      <trkpt lat="48.83904" lon="2.46737">
        <ele>114.2</ele>
        <time>2015-03-02T20:09:19.533Z</time>
      </trkpt>
      <trkpt lat="48.839" lon="2.4674">
        <ele>114.3</ele>
        <time>2015-03-02T20:09:20.566Z</time>
      </trkpt>
      <trkpt lat="48.83893" lon="2.46746">
        <ele>114.3</ele>
        <time>2015-03-02T20:09:22.653Z</time>
      </trkpt>
      <trkpt lat="48.83889" lon="2.4675">
        <ele>114.3</ele>
        <time>2015-03-02T20:09:23.540Z</time>
      </trkpt>
      <trkpt lat="48.83882" lon="2.46757">
        <ele>114.1</ele>
        <time>2015-03-02T20:09:25.551Z</time>
      </trkpt>
      <trkpt lat="48.83879" lon="2.46759">
        <ele>114</ele>
        <time>2015-03-02T20:09:26.590Z</time>
      </trkpt>
      <trkpt lat="48.83872" lon="2.46765">
        <ele>114</ele>
        <time>2015-03-02T20:09:28.627Z</time>
      </trkpt>
      <trkpt lat="48.83869" lon="2.46768">
        <ele>114.1</ele>
        <time>2015-03-02T20:09:29.642Z</time>
      </trkpt>
      <trkpt lat="48.83863" lon="2.46775">
        <ele>114</ele>
        <time>2015-03-02T20:09:31.545Z</time>
      </trkpt>
      <trkpt lat="48.83861" lon="2.46778">
        <ele>114</ele>
        <time>2015-03-02T20:09:32.609Z</time>
      </trkpt>
      <trkpt lat="48.83855" lon="2.46784">
        <ele>114.2</ele>
        <time>2015-03-02T20:09:34.645Z</time>
      </trkpt>
      <trkpt lat="48.83852" lon="2.46787">
        <ele>114.3</ele>
        <time>2015-03-02T20:09:35.558Z</time>
      </trkpt>
      <trkpt lat="48.83847" lon="2.46793">
        <ele>114.3</ele>
        <time>2015-03-02T20:09:37.603Z</time>
      </trkpt>
      <trkpt lat="48.83843" lon="2.46796">
        <ele>114.1</ele>
        <time>2015-03-02T20:09:38.654Z</time>
      </trkpt>
      <trkpt lat="48.83837" lon="2.46802">
        <ele>114.3</ele>
        <time>2015-03-02T20:09:40.564Z</time>
      </trkpt>
      <trkpt lat="48.83834" lon="2.46805">
        <ele>114.4</ele>
        <time>2015-03-02T20:09:41.580Z</time>
      </trkpt>
      <trkpt lat="48.83828" lon="2.46811">
        <ele>114.7</ele>
        <time>2015-03-02T20:09:43.553Z</time>
      </trkpt>
      <trkpt lat="48.83825" lon="2.46814">
        <ele>114.9</ele>
        <time>2015-03-02T20:09:44.580Z</time>
      </trkpt>
      <trkpt lat="48.83819" lon="2.46823">
        <ele>115.2</ele>
        <time>2015-03-02T20:09:46.622Z</time>
      </trkpt>
      <trkpt lat="48.83816" lon="2.46826">
        <ele>115.3</ele>
        <time>2015-03-02T20:09:47.620Z</time>
      </trkpt>
      <trkpt lat="48.83809" lon="2.46833">
        <ele>115.3</ele>
        <time>2015-03-02T20:09:49.578Z</time>
      </trkpt>
      <trkpt lat="48.83806" lon="2.46837">
        <ele>115.4</ele>
        <time>2015-03-02T20:09:50.724Z</time>
      </trkpt>
      <trkpt lat="48.838" lon="2.46845">
        <ele>115.7</ele>
        <time>2015-03-02T20:09:53.032Z</time>
      </trkpt>
      <trkpt lat="48.83797" lon="2.46849">
        <ele>115.6</ele>
        <time>2015-03-02T20:09:53.590Z</time>
      </trkpt>
      <trkpt lat="48.83791" lon="2.46856">
        <ele>115.6</ele>
        <time>2015-03-02T20:09:55.625Z</time>
      </trkpt>
      <trkpt lat="48.83788" lon="2.46859">
        <ele>115.7</ele>
        <time>2015-03-02T20:09:56.659Z</time>
      </trkpt>
      <trkpt lat="48.83782" lon="2.46866">
        <ele>115.4</ele>
        <time>2015-03-02T20:09:58.528Z</time>
      </trkpt>
      <trkpt lat="48.83779" lon="2.4687">
        <ele>115</ele>
        <time>2015-03-02T20:09:59.550Z</time>
      </trkpt>
      <trkpt lat="48.83773" lon="2.46877">
        <ele>115</ele>
        <time>2015-03-02T20:10:01.575Z</time>
      </trkpt>
      <trkpt lat="48.8377" lon="2.46881">
        <ele>115.1</ele>
        <time>2015-03-02T20:10:02.641Z</time>
      </trkpt>
      <trkpt lat="48.83764" lon="2.46886">
        <ele>115.3</ele>
        <time>2015-03-02T20:10:04.551Z</time>
      </trkpt>
      <trkpt lat="48.83761" lon="2.4689">
        <ele>115.3</ele>
        <time>2015-03-02T20:10:05.681Z</time>
      </trkpt>
      <trkpt lat="48.83756" lon="2.46895">
        <ele>114.8</ele>
        <time>2015-03-02T20:10:08.114Z</time>
      </trkpt>
      <trkpt lat="48.83754" lon="2.46898">
        <ele>114.6</ele>
        <time>2015-03-02T20:10:08.630Z</time>
      </trkpt>
      <trkpt lat="48.83749" lon="2.46904">
        <ele>114.6</ele>
        <time>2015-03-02T20:10:10.556Z</time>
      </trkpt>
      <trkpt lat="48.83746" lon="2.46907">
        <ele>115.1</ele>
        <time>2015-03-02T20:10:11.600Z</time>
      </trkpt>
      <trkpt lat="48.83741" lon="2.46912">
        <ele>115.1</ele>
        <time>2015-03-02T20:10:13.545Z</time>
      </trkpt>
      <trkpt lat="48.83738" lon="2.46915">
        <ele>114.9</ele>
        <time>2015-03-02T20:10:14.564Z</time>
      </trkpt>
      <trkpt lat="48.83733" lon="2.46921">
        <ele>115.1</ele>
        <time>2015-03-02T20:10:16.594Z</time>
      </trkpt>
      <trkpt lat="48.8373" lon="2.46924">
        <ele>115.1</ele>
        <time>2015-03-02T20:10:17.627Z</time>
      </trkpt>
      <trkpt lat="48.83724" lon="2.46931">
        <ele>115.1</ele>
        <time>2015-03-02T20:10:19.561Z</time>
      </trkpt>
      <trkpt lat="48.83721" lon="2.46934">
        <ele>115.2</ele>
        <time>2015-03-02T20:10:20.634Z</time>
      </trkpt>
      <trkpt lat="48.83716" lon="2.4694">
        <ele>115.2</ele>
        <time>2015-03-02T20:10:23.359Z</time>
      </trkpt>
      <trkpt lat="48.83713" lon="2.46943">
        <ele>115</ele>
        <time>2015-03-02T20:10:23.573Z</time>
      </trkpt>
      <trkpt lat="48.83708" lon="2.46949">
        <ele>115</ele>
        <time>2015-03-02T20:10:25.547Z</time>
      </trkpt>
      <trkpt lat="48.83705" lon="2.46951">
        <ele>115</ele>
        <time>2015-03-02T20:10:26.590Z</time>
      </trkpt>
      <trkpt lat="48.83697" lon="2.46957">
        <ele>114.8</ele>
        <time>2015-03-02T20:10:29.629Z</time>
      </trkpt>
      <trkpt lat="48.83694" lon="2.46958">
        <ele>114.8</ele>
        <time>2015-03-02T20:10:30.549Z</time>
      </trkpt>
      <trkpt lat="48.83688" lon="2.46962">
        <ele>114.9</ele>
        <time>2015-03-02T20:10:33.408Z</time>
      </trkpt>
      <trkpt lat="48.83686" lon="2.46964">
        <ele>114.9</ele>
        <time>2015-03-02T20:10:33.524Z</time>
      </trkpt>
      <trkpt lat="48.83679" lon="2.46969">
        <ele>114.9</ele>
        <time>2015-03-02T20:10:36.668Z</time>
      </trkpt>
      <trkpt lat="48.83676" lon="2.46971">
        <ele>115</ele>
        <time>2015-03-02T20:10:37.578Z</time>
      </trkpt>
      <trkpt lat="48.83668" lon="2.46977">
        <ele>115.2</ele>
        <time>2015-03-02T20:10:40.610Z</time>
      </trkpt>
      <trkpt lat="48.83666" lon="2.46978">
        <ele>115.4</ele>
        <time>2015-03-02T20:10:41.551Z</time>
      </trkpt>
      <trkpt lat="48.83659" lon="2.46982">
        <ele>115.5</ele>
        <time>2015-03-02T20:10:44.611Z</time>
      </trkpt>
      <trkpt lat="48.83656" lon="2.46984">
        <ele>115.6</ele>
        <time>2015-03-02T20:10:45.606Z</time>
      </trkpt>
      <trkpt lat="48.83649" lon="2.46985">
        <ele>115.2</ele>
        <time>2015-03-02T20:10:58.553Z</time>
      </trkpt>
      <trkpt lat="48.83649" lon="2.46985">
        <ele>115.3</ele>
        <time>2015-03-02T20:10:59.555Z</time>
      </trkpt>
      <trkpt lat="48.83649" lon="2.46985">
        <ele>115.4</ele>
        <time>2015-03-02T20:11:08.639Z</time>
      </trkpt>
      <trkpt lat="48.83647" lon="2.46987">
        <ele>116.5</ele>
        <time>2015-03-02T20:11:09.547Z</time>
      </trkpt>
      <trkpt lat="48.83639" lon="2.46989">
        <ele>117</ele>
        <time>2015-03-02T20:11:14.640Z</time>
      </trkpt>
      <trkpt lat="48.83637" lon="2.46989">
        <ele>117.2</ele>
        <time>2015-03-02T20:11:15.523Z</time>
      </trkpt>
      <trkpt lat="48.83629" lon="2.46989">
        <ele>117.5</ele>
        <time>2015-03-02T20:11:20.649Z</time>
      </trkpt>
      <trkpt lat="48.83627" lon="2.46989">
        <ele>117.6</ele>
        <time>2015-03-02T20:11:21.545Z</time>
      </trkpt>
      <trkpt lat="48.83618" lon="2.46989">
        <ele>117.8</ele>
        <time>2015-03-02T20:11:24.661Z</time>
      </trkpt>
      <trkpt lat="48.83615" lon="2.4699">
        <ele>117.7</ele>
        <time>2015-03-02T20:11:25.550Z</time>
      </trkpt>
      <trkpt lat="48.83608" lon="2.46992">
        <ele>117.9</ele>
        <time>2015-03-02T20:11:27.594Z</time>
      </trkpt>
      <trkpt lat="48.83604" lon="2.46994">
        <ele>118.1</ele>
        <time>2015-03-02T20:11:28.908Z</time>
      </trkpt>
      <trkpt lat="48.83596" lon="2.46992">
        <ele>118.3</ele>
        <time>2015-03-02T20:11:31.563Z</time>
      </trkpt>
      <trkpt lat="48.83593" lon="2.46992">
        <ele>118.3</ele>
        <time>2015-03-02T20:11:32.589Z</time>
      </trkpt>
      <trkpt lat="48.83585" lon="2.46993">
        <ele>118.2</ele>
        <time>2015-03-02T20:11:34.586Z</time>
      </trkpt>
      <trkpt lat="48.83582" lon="2.46993">
        <ele>118.1</ele>
        <time>2015-03-02T20:11:35.601Z</time>
      </trkpt>
      <trkpt lat="48.83574" lon="2.4699">
        <ele>118</ele>
        <time>2015-03-02T20:11:37.548Z</time>
      </trkpt>
      <trkpt lat="48.8357" lon="2.46988">
        <ele>117.9</ele>
        <time>2015-03-02T20:11:38.559Z</time>
      </trkpt>
      <trkpt lat="48.83564" lon="2.46984">
        <ele>117.9</ele>
        <time>2015-03-02T20:11:40.597Z</time>
      </trkpt>
      <trkpt lat="48.83561" lon="2.46982">
        <ele>117.8</ele>
        <time>2015-03-02T20:11:41.599Z</time>
      </trkpt>
      <trkpt lat="48.83554" lon="2.46979">
        <ele>117.4</ele>
        <time>2015-03-02T20:11:44.139Z</time>
      </trkpt>
      <trkpt lat="48.83551" lon="2.46977">
        <ele>116.9</ele>
        <time>2015-03-02T20:11:44.576Z</time>
      </trkpt>
      <trkpt lat="48.83547" lon="2.46977">
        <ele>116.7</ele>
        <time>2015-03-02T20:11:45.599Z</time>
      </trkpt>
      <trkpt lat="48.83542" lon="2.46976">
        <ele>116.8</ele>
        <time>2015-03-02T20:11:46.678Z</time>
      </trkpt>
      <trkpt lat="48.83537" lon="2.46974">
        <ele>116.6</ele>
        <time>2015-03-02T20:11:47.596Z</time>
      </trkpt>
      <trkpt lat="48.83533" lon="2.46973">
        <ele>116.6</ele>
        <time>2015-03-02T20:11:48.598Z</time>
      </trkpt>
      <trkpt lat="48.83529" lon="2.46972">
        <ele>116.5</ele>
        <time>2015-03-02T20:11:49.623Z</time>
      </trkpt>
      <trkpt lat="48.83524" lon="2.4697">
        <ele>116.4</ele>
        <time>2015-03-02T20:11:50.657Z</time>
      </trkpt>
      <trkpt lat="48.83516" lon="2.46969">
        <ele>116</ele>
        <time>2015-03-02T20:11:52.996Z</time>
      </trkpt>
      <trkpt lat="48.83513" lon="2.46969">
        <ele>115.9</ele>
        <time>2015-03-02T20:11:53.622Z</time>
      </trkpt>
      <trkpt lat="48.83506" lon="2.46968">
        <ele>115.8</ele>
        <time>2015-03-02T20:11:55.520Z</time>
      </trkpt>
      <trkpt lat="48.83502" lon="2.46967">
        <ele>115.6</ele>
        <time>2015-03-02T20:11:56.571Z</time>
      </trkpt>
      <trkpt lat="48.83495" lon="2.46962">
        <ele>115.3</ele>
        <time>2015-03-02T20:11:59.610Z</time>
      </trkpt>
      <trkpt lat="48.83493" lon="2.4696">
        <ele>115.2</ele>
        <time>2015-03-02T20:12:00.558Z</time>
      </trkpt>
      <trkpt lat="48.83486" lon="2.46954">
        <ele>115.1</ele>
        <time>2015-03-02T20:12:03.195Z</time>
      </trkpt>
      <trkpt lat="48.83482" lon="2.46951">
        <ele>115.1</ele>
        <time>2015-03-02T20:12:03.590Z</time>
      </trkpt>
      <trkpt lat="48.83472" lon="2.46954">
        <ele>113.6</ele>
        <time>2015-03-02T20:12:04.711Z</time>
      </trkpt>
      <trkpt lat="48.83464" lon="2.46949">
        <ele>113.2</ele>
        <time>2015-03-02T20:12:06.574Z</time>
      </trkpt>
      <trkpt lat="48.83459" lon="2.46945">
        <ele>113.4</ele>
        <time>2015-03-02T20:12:07.818Z</time>
      </trkpt>
      <trkpt lat="48.83455" lon="2.46942">
        <ele>113.7</ele>
        <time>2015-03-02T20:12:08.550Z</time>
      </trkpt>
      <trkpt lat="48.8345" lon="2.46939">
        <ele>113.6</ele>
        <time>2015-03-02T20:12:09.562Z</time>
      </trkpt>
      <trkpt lat="48.83445" lon="2.46937">
        <ele>113.6</ele>
        <time>2015-03-02T20:12:10.572Z</time>
      </trkpt>
      <trkpt lat="48.83439" lon="2.46934">
        <ele>113.8</ele>
        <time>2015-03-02T20:12:11.580Z</time>
      </trkpt>
      <trkpt lat="48.83434" lon="2.46931">
        <ele>113.9</ele>
        <time>2015-03-02T20:12:12.587Z</time>
      </trkpt>
      <trkpt lat="48.83428" lon="2.46927">
        <ele>114</ele>
        <time>2015-03-02T20:12:13.596Z</time>
      </trkpt>
      <trkpt lat="48.83423" lon="2.46923">
        <ele>114.1</ele>
        <time>2015-03-02T20:12:14.639Z</time>
      </trkpt>
      <trkpt lat="48.83418" lon="2.46919">
        <ele>113.9</ele>
        <time>2015-03-02T20:12:15.566Z</time>
      </trkpt>
      <trkpt lat="48.83414" lon="2.46915">
        <ele>113.8</ele>
        <time>2015-03-02T20:12:16.571Z</time>
      </trkpt>
      <trkpt lat="48.83409" lon="2.46911">
        <ele>113.9</ele>
        <time>2015-03-02T20:12:17.603Z</time>
      </trkpt>
      <trkpt lat="48.83405" lon="2.46907">
        <ele>113.9</ele>
        <time>2015-03-02T20:12:18.549Z</time>
      </trkpt>
      <trkpt lat="48.83401" lon="2.46903">
        <ele>114.1</ele>
        <time>2015-03-02T20:12:19.541Z</time>
      </trkpt>
      <trkpt lat="48.83397" lon="2.46899">
        <ele>114.3</ele>
        <time>2015-03-02T20:12:20.602Z</time>
      </trkpt>
      <trkpt lat="48.83393" lon="2.46894">
        <ele>114.4</ele>
        <time>2015-03-02T20:12:21.559Z</time>
      </trkpt>
      <trkpt lat="48.83387" lon="2.46891">
        <ele>114.3</ele>
        <time>2015-03-02T20:12:22.548Z</time>
      </trkpt>
      <trkpt lat="48.83382" lon="2.46886">
        <ele>114.5</ele>
        <time>2015-03-02T20:12:23.546Z</time>
      </trkpt>
      <trkpt lat="48.83376" lon="2.46881">
        <ele>114.5</ele>
        <time>2015-03-02T20:12:24.560Z</time>
      </trkpt>
      <trkpt lat="48.83372" lon="2.46876">
        <ele>114.6</ele>
        <time>2015-03-02T20:12:25.574Z</time>
      </trkpt>
      <trkpt lat="48.83368" lon="2.4687">
        <ele>114.7</ele>
        <time>2015-03-02T20:12:26.597Z</time>
      </trkpt>
      <trkpt lat="48.83365" lon="2.46864">
        <ele>114.7</ele>
        <time>2015-03-02T20:12:27.629Z</time>
      </trkpt>
      <trkpt lat="48.83361" lon="2.46858">
        <ele>114.7</ele>
        <time>2015-03-02T20:12:28.542Z</time>
      </trkpt>
      <trkpt lat="48.83357" lon="2.46851">
        <ele>114.5</ele>
        <time>2015-03-02T20:12:29.616Z</time>
      </trkpt>
      <trkpt lat="48.83354" lon="2.46844">
        <ele>114.4</ele>
        <time>2015-03-02T20:12:30.541Z</time>
      </trkpt>
      <trkpt lat="48.8335" lon="2.46838">
        <ele>114.3</ele>
        <time>2015-03-02T20:12:31.547Z</time>
      </trkpt>
      <trkpt lat="48.83347" lon="2.46832">
        <ele>114.3</ele>
        <time>2015-03-02T20:12:32.576Z</time>
      </trkpt>
      <trkpt lat="48.83344" lon="2.46825">
        <ele>114.2</ele>
        <time>2015-03-02T20:12:33.588Z</time>
      </trkpt>
      <trkpt lat="48.8334" lon="2.46818">
        <ele>114.1</ele>
        <time>2015-03-02T20:12:34.632Z</time>
      </trkpt>
      <trkpt lat="48.83338" lon="2.46811">
        <ele>113.9</ele>
        <time>2015-03-02T20:12:35.603Z</time>
      </trkpt>
      <trkpt lat="48.83335" lon="2.46804">
        <ele>113.6</ele>
        <time>2015-03-02T20:12:36.542Z</time>
      </trkpt>
      <trkpt lat="48.83332" lon="2.46798">
        <ele>113.4</ele>
        <time>2015-03-02T20:12:37.514Z</time>
      </trkpt>
      <trkpt lat="48.8333" lon="2.46791">
        <ele>113.3</ele>
        <time>2015-03-02T20:12:38.568Z</time>
      </trkpt>
      <trkpt lat="48.83327" lon="2.46785">
        <ele>113.1</ele>
        <time>2015-03-02T20:12:39.582Z</time>
      </trkpt>
      <trkpt lat="48.83324" lon="2.46779">
        <ele>113.1</ele>
        <time>2015-03-02T20:12:40.598Z</time>
      </trkpt>
      <trkpt lat="48.83321" lon="2.46774">
        <ele>113.2</ele>
        <time>2015-03-02T20:12:41.604Z</time>
      </trkpt>
      <trkpt lat="48.83318" lon="2.46768">
        <ele>113.2</ele>
        <time>2015-03-02T20:12:42.607Z</time>
      </trkpt>
      <trkpt lat="48.83315" lon="2.46762">
        <ele>113.2</ele>
        <time>2015-03-02T20:12:43.610Z</time>
      </trkpt>
      <trkpt lat="48.83312" lon="2.46757">
        <ele>113.5</ele>
        <time>2015-03-02T20:12:44.554Z</time>
      </trkpt>
      <trkpt lat="48.83308" lon="2.46751">
        <ele>113.6</ele>
        <time>2015-03-02T20:12:45.566Z</time>
      </trkpt>
      <trkpt lat="48.83305" lon="2.46745">
        <ele>113.7</ele>
        <time>2015-03-02T20:12:46.628Z</time>
      </trkpt>
      <trkpt lat="48.83302" lon="2.4674">
        <ele>113.8</ele>
        <time>2015-03-02T20:12:47.538Z</time>
      </trkpt>
      <trkpt lat="48.83298" lon="2.46734">
        <ele>113.4</ele>
        <time>2015-03-02T20:12:48.553Z</time>
      </trkpt>
      <trkpt lat="48.83295" lon="2.46728">
        <ele>113.2</ele>
        <time>2015-03-02T20:12:49.652Z</time>
      </trkpt>
      <trkpt lat="48.83293" lon="2.46721">
        <ele>112.8</ele>
        <time>2015-03-02T20:12:50.695Z</time>
      </trkpt>
      <trkpt lat="48.83289" lon="2.46715">
        <ele>112.5</ele>
        <time>2015-03-02T20:12:51.538Z</time>
      </trkpt>
      <trkpt lat="48.83286" lon="2.46709">
        <ele>112.4</ele>
        <time>2015-03-02T20:12:52.563Z</time>
      </trkpt>
      <trkpt lat="48.83282" lon="2.46703">
        <ele>112.2</ele>
        <time>2015-03-02T20:12:53.588Z</time>
      </trkpt>
      <trkpt lat="48.83279" lon="2.46697">
        <ele>112.3</ele>
        <time>2015-03-02T20:12:54.624Z</time>
      </trkpt>
      <trkpt lat="48.83276" lon="2.46691">
        <ele>112.5</ele>
        <time>2015-03-02T20:12:55.540Z</time>
      </trkpt>
      <trkpt lat="48.83273" lon="2.46685">
        <ele>112.6</ele>
        <time>2015-03-02T20:12:56.558Z</time>
      </trkpt>
      <trkpt lat="48.83269" lon="2.46679">
        <ele>112.1</ele>
        <time>2015-03-02T20:12:57.570Z</time>
      </trkpt>
      <trkpt lat="48.83266" lon="2.46673">
        <ele>111.9</ele>
        <time>2015-03-02T20:12:58.586Z</time>
      </trkpt>
      <trkpt lat="48.83261" lon="2.46665">
        <ele>112.6</ele>
        <time>2015-03-02T20:12:59.598Z</time>
      </trkpt>
      <trkpt lat="48.83258" lon="2.46659">
        <ele>112.6</ele>
        <time>2015-03-02T20:13:00.623Z</time>
      </trkpt>
      <trkpt lat="48.83255" lon="2.46653">
        <ele>112.6</ele>
        <time>2015-03-02T20:13:01.544Z</time>
      </trkpt>
      <trkpt lat="48.83252" lon="2.46648">
        <ele>112.5</ele>
        <time>2015-03-02T20:13:02.641Z</time>
      </trkpt>
      <trkpt lat="48.83248" lon="2.46642">
        <ele>112.3</ele>
        <time>2015-03-02T20:13:03.545Z</time>
      </trkpt>
      <trkpt lat="48.83245" lon="2.46637">
        <ele>112.2</ele>
        <time>2015-03-02T20:13:04.596Z</time>
      </trkpt>
      <trkpt lat="48.83242" lon="2.46633">
        <ele>111.9</ele>
        <time>2015-03-02T20:13:05.537Z</time>
      </trkpt>
      <trkpt lat="48.83238" lon="2.46628">
        <ele>111.8</ele>
        <time>2015-03-02T20:13:06.594Z</time>
      </trkpt>
      <trkpt lat="48.83234" lon="2.46624">
        <ele>111.4</ele>
        <time>2015-03-02T20:13:07.609Z</time>
      </trkpt>
      <trkpt lat="48.83229" lon="2.4662">
        <ele>111.3</ele>
        <time>2015-03-02T20:13:08.628Z</time>
      </trkpt>
      <trkpt lat="48.83225" lon="2.46616">
        <ele>111.3</ele>
        <time>2015-03-02T20:13:09.552Z</time>
      </trkpt>
      <trkpt lat="48.83221" lon="2.46613">
        <ele>111.3</ele>
        <time>2015-03-02T20:13:10.554Z</time>
      </trkpt>
      <trkpt lat="48.83216" lon="2.46609">
        <ele>111.2</ele>
        <time>2015-03-02T20:13:11.569Z</time>
      </trkpt>
      <trkpt lat="48.83212" lon="2.46606">
        <ele>111.2</ele>
        <time>2015-03-02T20:13:12.598Z</time>
      </trkpt>
      <trkpt lat="48.83208" lon="2.46602">
        <ele>110.9</ele>
        <time>2015-03-02T20:13:13.610Z</time>
      </trkpt>
      <trkpt lat="48.832" lon="2.46597">
        <ele>110.6</ele>
        <time>2015-03-02T20:13:15.638Z</time>
      </trkpt>
      <trkpt lat="48.83196" lon="2.46594">
        <ele>110.5</ele>
        <time>2015-03-02T20:13:16.655Z</time>
      </trkpt>
      <trkpt lat="48.83192" lon="2.46592">
        <ele>110.4</ele>
        <time>2015-03-02T20:13:17.548Z</time>
      </trkpt>
      <trkpt lat="48.83188" lon="2.46589">
        <ele>110.4</ele>
        <time>2015-03-02T20:13:18.550Z</time>
      </trkpt>
      <trkpt lat="48.83182" lon="2.46581">
        <ele>110.3</ele>
        <time>2015-03-02T20:13:20.590Z</time>
      </trkpt>
      <trkpt lat="48.83178" lon="2.46578">
        <ele>110.3</ele>
        <time>2015-03-02T20:13:21.594Z</time>
      </trkpt>
      <trkpt lat="48.83173" lon="2.46573">
        <ele>110.1</ele>
        <time>2015-03-02T20:13:23.605Z</time>
      </trkpt>
      <trkpt lat="48.83169" lon="2.46571">
        <ele>110</ele>
        <time>2015-03-02T20:13:24.657Z</time>
      </trkpt>
      <trkpt lat="48.83161" lon="2.46566">
        <ele>110.3</ele>
        <time>2015-03-02T20:13:26.588Z</time>
      </trkpt>
      <trkpt lat="48.83157" lon="2.46563">
        <ele>110.3</ele>
        <time>2015-03-02T20:13:27.596Z</time>
      </trkpt>
      <trkpt lat="48.8315" lon="2.46557">
        <ele>111</ele>
        <time>2015-03-02T20:13:29.624Z</time>
      </trkpt>
      <trkpt lat="48.83146" lon="2.46555">
        <ele>111.1</ele>
        <time>2015-03-02T20:13:30.528Z</time>
      </trkpt>
      <trkpt lat="48.83141" lon="2.46551">
        <ele>110.7</ele>
        <time>2015-03-02T20:13:31.547Z</time>
      </trkpt>
      <trkpt lat="48.83137" lon="2.46548">
        <ele>110.6</ele>
        <time>2015-03-02T20:13:32.569Z</time>
      </trkpt>
      <trkpt lat="48.83133" lon="2.46544">
        <ele>110.3</ele>
        <time>2015-03-02T20:13:33.593Z</time>
      </trkpt>
      <trkpt lat="48.83128" lon="2.46542">
        <ele>110.6</ele>
        <time>2015-03-02T20:13:34.605Z</time>
      </trkpt>
      <trkpt lat="48.83123" lon="2.46539">
        <ele>111</ele>
        <time>2015-03-02T20:13:35.625Z</time>
      </trkpt>
      <trkpt lat="48.83119" lon="2.46536">
        <ele>110.9</ele>
        <time>2015-03-02T20:13:36.544Z</time>
      </trkpt>
      <trkpt lat="48.83112" lon="2.46528">
        <ele>110.8</ele>
        <time>2015-03-02T20:13:38.595Z</time>
      </trkpt>
      <trkpt lat="48.83109" lon="2.46524">
        <ele>110.7</ele>
        <time>2015-03-02T20:13:39.595Z</time>
      </trkpt>
      <trkpt lat="48.83102" lon="2.46519">
        <ele>110.8</ele>
        <time>2015-03-02T20:13:41.552Z</time>
      </trkpt>
      <trkpt lat="48.83098" lon="2.46517">
        <ele>110.9</ele>
        <time>2015-03-02T20:13:42.580Z</time>
      </trkpt>
      <trkpt lat="48.8309" lon="2.46513">
        <ele>110.5</ele>
        <time>2015-03-02T20:13:41.733Z</time>
      </trkpt>
      <trkpt lat="48.83086" lon="2.46512">
        <ele>110.1</ele>
        <time>2015-03-02T20:13:42.555Z</time>
      </trkpt>
      <trkpt lat="48.8308" lon="2.46508">
        <ele>109.8</ele>
        <time>2015-03-02T20:13:44.588Z</time>
      </trkpt>
      <trkpt lat="48.83077" lon="2.46506">
        <ele>109.8</ele>
        <time>2015-03-02T20:13:45.600Z</time>
      </trkpt>
      <trkpt lat="48.8307" lon="2.465">
        <ele>110.1</ele>
        <time>2015-03-02T20:13:47.630Z</time>
      </trkpt>
      <trkpt lat="48.83067" lon="2.46499">
        <ele>110.3</ele>
        <time>2015-03-02T20:13:48.630Z</time>
      </trkpt>
      <trkpt lat="48.83061" lon="2.46495">
        <ele>110.4</ele>
        <time>2015-03-02T20:13:50.577Z</time>
      </trkpt>
      <trkpt lat="48.83058" lon="2.46493">
        <ele>110.5</ele>
        <time>2015-03-02T20:13:51.580Z</time>
      </trkpt>
      <trkpt lat="48.8305" lon="2.4649">
        <ele>110.4</ele>
        <time>2015-03-02T20:13:53.619Z</time>
      </trkpt>
      <trkpt lat="48.83044" lon="2.4649">
        <ele>110.2</ele>
        <time>2015-03-02T20:13:54.621Z</time>
      </trkpt>
      <trkpt lat="48.83039" lon="2.4649">
        <ele>109.8</ele>
        <time>2015-03-02T20:13:55.631Z</time>
      </trkpt>
      <trkpt lat="48.83034" lon="2.4649">
        <ele>109.6</ele>
        <time>2015-03-02T20:13:56.639Z</time>
      </trkpt>
      <trkpt lat="48.83028" lon="2.46489">
        <ele>109.4</ele>
        <time>2015-03-02T20:13:57.665Z</time>
      </trkpt>
      <trkpt lat="48.83021" lon="2.46489">
        <ele>109.5</ele>
        <time>2015-03-02T20:13:58.592Z</time>
      </trkpt>
      <trkpt lat="48.83015" lon="2.46487">
        <ele>109.4</ele>
        <time>2015-03-02T20:13:59.669Z</time>
      </trkpt>
      <trkpt lat="48.8301" lon="2.46487">
        <ele>109.5</ele>
        <time>2015-03-02T20:14:00.620Z</time>
      </trkpt>
      <trkpt lat="48.83004" lon="2.46487">
        <ele>109.6</ele>
        <time>2015-03-02T20:14:01.635Z</time>
      </trkpt>
      <trkpt lat="48.82999" lon="2.46486">
        <ele>109.6</ele>
        <time>2015-03-02T20:14:02.639Z</time>
      </trkpt>
      <trkpt lat="48.82994" lon="2.46485">
        <ele>109.6</ele>
        <time>2015-03-02T20:14:03.660Z</time>
      </trkpt>
      <trkpt lat="48.82988" lon="2.46484">
        <ele>109.7</ele>
        <time>2015-03-02T20:14:04.590Z</time>
      </trkpt>
      <trkpt lat="48.82983" lon="2.46482">
        <ele>109.6</ele>
        <time>2015-03-02T20:14:05.617Z</time>
      </trkpt>
      <trkpt lat="48.82978" lon="2.4648">
        <ele>109.7</ele>
        <time>2015-03-02T20:14:06.602Z</time>
      </trkpt>
      <trkpt lat="48.82972" lon="2.46478">
        <ele>109.9</ele>
        <time>2015-03-02T20:14:07.652Z</time>
      </trkpt>
      <trkpt lat="48.82966" lon="2.46476">
        <ele>110.1</ele>
        <time>2015-03-02T20:14:08.673Z</time>
      </trkpt>
      <trkpt lat="48.82959" lon="2.46475">
        <ele>110.2</ele>
        <time>2015-03-02T20:14:09.624Z</time>
      </trkpt>
      <trkpt lat="48.82954" lon="2.46474">
        <ele>110.4</ele>
        <time>2015-03-02T20:14:10.668Z</time>
      </trkpt>
      <trkpt lat="48.82947" lon="2.46474">
        <ele>110.4</ele>
        <time>2015-03-02T20:14:11.622Z</time>
      </trkpt>
      <trkpt lat="48.82942" lon="2.46473">
        <ele>110.3</ele>
        <time>2015-03-02T20:14:12.677Z</time>
      </trkpt>
      <trkpt lat="48.82937" lon="2.46472">
        <ele>109.9</ele>
        <time>2015-03-02T20:14:13.582Z</time>
      </trkpt>
      <trkpt lat="48.82932" lon="2.46471">
        <ele>109.7</ele>
        <time>2015-03-02T20:14:14.573Z</time>
      </trkpt>
      <trkpt lat="48.82927" lon="2.4647">
        <ele>109.5</ele>
        <time>2015-03-02T20:14:15.585Z</time>
      </trkpt>
      <trkpt lat="48.82921" lon="2.46469">
        <ele>109.3</ele>
        <time>2015-03-02T20:14:16.597Z</time>
      </trkpt>
      <trkpt lat="48.82916" lon="2.46468">
        <ele>109.4</ele>
        <time>2015-03-02T20:14:17.612Z</time>
      </trkpt>
      <trkpt lat="48.8291" lon="2.46467">
        <ele>109.4</ele>
        <time>2015-03-02T20:14:18.623Z</time>
      </trkpt>
      <trkpt lat="48.82905" lon="2.46466">
        <ele>109</ele>
        <time>2015-03-02T20:14:19.666Z</time>
      </trkpt>
      <trkpt lat="48.829" lon="2.46466">
        <ele>108.9</ele>
        <time>2015-03-02T20:14:20.581Z</time>
      </trkpt>
      <trkpt lat="48.82895" lon="2.46465">
        <ele>108.8</ele>
        <time>2015-03-02T20:14:21.600Z</time>
      </trkpt>
      <trkpt lat="48.82888" lon="2.46464">
        <ele>108.2</ele>
        <time>2015-03-02T20:14:22.600Z</time>
      </trkpt>
      <trkpt lat="48.82879" lon="2.46463">
        <ele>108.6</ele>
        <time>2015-03-02T20:14:24.575Z</time>
      </trkpt>
      <trkpt lat="48.82874" lon="2.46463">
        <ele>108.8</ele>
        <time>2015-03-02T20:14:25.680Z</time>
      </trkpt>
      <trkpt lat="48.82866" lon="2.46463">
        <ele>109.1</ele>
        <time>2015-03-02T20:14:27.657Z</time>
      </trkpt>
      <trkpt lat="48.82861" lon="2.46462">
        <ele>109.2</ele>
        <time>2015-03-02T20:14:28.574Z</time>
      </trkpt>
      <trkpt lat="48.82856" lon="2.46462">
        <ele>109.3</ele>
        <time>2015-03-02T20:14:29.679Z</time>
      </trkpt>
      <trkpt lat="48.82851" lon="2.46462">
        <ele>109.4</ele>
        <time>2015-03-02T20:14:30.586Z</time>
      </trkpt>
      <trkpt lat="48.82846" lon="2.46462">
        <ele>109.6</ele>
        <time>2015-03-02T20:14:31.610Z</time>
      </trkpt>
      <trkpt lat="48.8284" lon="2.46462">
        <ele>109.7</ele>
        <time>2015-03-02T20:14:32.626Z</time>
      </trkpt>
      <trkpt lat="48.82835" lon="2.46462">
        <ele>109.8</ele>
        <time>2015-03-02T20:14:33.577Z</time>
      </trkpt>
      <trkpt lat="48.82829" lon="2.46463">
        <ele>109.8</ele>
        <time>2015-03-02T20:14:34.571Z</time>
      </trkpt>
      <trkpt lat="48.82822" lon="2.46464">
        <ele>109.3</ele>
        <time>2015-03-02T20:14:35.628Z</time>
      </trkpt>
      <trkpt lat="48.82816" lon="2.46465">
        <ele>109.3</ele>
        <time>2015-03-02T20:14:36.724Z</time>
      </trkpt>
      <trkpt lat="48.82811" lon="2.46465">
        <ele>109.3</ele>
        <time>2015-03-02T20:14:37.577Z</time>
      </trkpt>
      <trkpt lat="48.82806" lon="2.46465">
        <ele>109.5</ele>
        <time>2015-03-02T20:14:38.624Z</time>
      </trkpt>
      <trkpt lat="48.82801" lon="2.46466">
        <ele>109.5</ele>
        <time>2015-03-02T20:14:39.636Z</time>
      </trkpt>
      <trkpt lat="48.82797" lon="2.46466">
        <ele>109.5</ele>
        <time>2015-03-02T20:14:40.634Z</time>
      </trkpt>
      <trkpt lat="48.82792" lon="2.46467">
        <ele>109.7</ele>
        <time>2015-03-02T20:14:41.673Z</time>
      </trkpt>
      <trkpt lat="48.82787" lon="2.46467">
        <ele>109.9</ele>
        <time>2015-03-02T20:14:42.574Z</time>
      </trkpt>
      <trkpt lat="48.82779" lon="2.46468">
        <ele>110.4</ele>
        <time>2015-03-02T20:14:44.600Z</time>
      </trkpt>
      <trkpt lat="48.82775" lon="2.46469">
        <ele>110.4</ele>
        <time>2015-03-02T20:14:45.678Z</time>
      </trkpt>
      <trkpt lat="48.82768" lon="2.4647">
        <ele>110.5</ele>
        <time>2015-03-02T20:14:47.636Z</time>
      </trkpt>
      <trkpt lat="48.82766" lon="2.4647">
        <ele>110.4</ele>
        <time>2015-03-02T20:14:48.670Z</time>
      </trkpt>
      <trkpt lat="48.82758" lon="2.46475">
        <ele>111.1</ele>
        <time>2015-03-02T20:14:54.645Z</time>
      </trkpt>
      <trkpt lat="48.82756" lon="2.46476">
        <ele>111.5</ele>
        <time>2015-03-02T20:14:55.662Z</time>
      </trkpt>
      <trkpt lat="48.82752" lon="2.46483">
        <ele>114</ele>
        <time>2015-03-02T20:15:21.057Z</time>
      </trkpt>
      <trkpt lat="48.82752" lon="2.46483">
        <ele>114.2</ele>
        <time>2015-03-02T20:15:22.078Z</time>
      </trkpt>
      <trkpt lat="48.82752" lon="2.46483">
        <ele>114.3</ele>
        <time>2015-03-02T20:15:33.079Z</time>
      </trkpt>
      <trkpt lat="48.82752" lon="2.46485">
        <ele>114.3</ele>
        <time>2015-03-02T20:15:34.043Z</time>
      </trkpt>
      <trkpt lat="48.82745" lon="2.46477">
        <ele>113</ele>
        <time>2015-03-02T20:15:47.979Z</time>
      </trkpt>
      <trkpt lat="48.82744" lon="2.46476">
        <ele>113.1</ele>
        <time>2015-03-02T20:15:48.984Z</time>
      </trkpt>
      <trkpt lat="48.82737" lon="2.46468">
        <ele>113.1</ele>
        <time>2015-03-02T20:15:53.003Z</time>
      </trkpt>
      <trkpt lat="48.82735" lon="2.46464">
        <ele>113</ele>
        <time>2015-03-02T20:15:54.026Z</time>
      </trkpt>
      <trkpt lat="48.82731" lon="2.46453">
        <ele>112.5</ele>
        <time>2015-03-02T20:15:57.018Z</time>
      </trkpt>
      <trkpt lat="48.82729" lon="2.4645">
        <ele>112.6</ele>
        <time>2015-03-02T20:15:58.047Z</time>
      </trkpt>
      <trkpt lat="48.82723" lon="2.46442">
        <ele>111.9</ele>
        <time>2015-03-02T20:16:00.983Z</time>
      </trkpt>
      <trkpt lat="48.82719" lon="2.46441">
        <ele>111.6</ele>
        <time>2015-03-02T20:16:02.016Z</time>
      </trkpt>
      <trkpt lat="48.82711" lon="2.46443">
        <ele>110.3</ele>
        <time>2015-03-02T20:16:06.026Z</time>
      </trkpt>
      <trkpt lat="48.8271" lon="2.46444">
        <ele>109.9</ele>
        <time>2015-03-02T20:16:07.037Z</time>
      </trkpt>
      <trkpt lat="48.82707" lon="2.46452">
        <ele>108.2</ele>
        <time>2015-03-02T20:16:11.020Z</time>
      </trkpt>
      <trkpt lat="48.82705" lon="2.46454">
        <ele>107.9</ele>
        <time>2015-03-02T20:16:12.037Z</time>
      </trkpt>
      <trkpt lat="48.82698" lon="2.46461">
        <ele>107.7</ele>
        <time>2015-03-02T20:16:15.210Z</time>
      </trkpt>
      <trkpt lat="48.82695" lon="2.46462">
        <ele>107.7</ele>
        <time>2015-03-02T20:16:16.034Z</time>
      </trkpt>
      <trkpt lat="48.82688" lon="2.46463">
        <ele>107.6</ele>
        <time>2015-03-02T20:16:17.939Z</time>
      </trkpt>
      <trkpt lat="48.82684" lon="2.46463">
        <ele>107.7</ele>
        <time>2015-03-02T20:16:18.982Z</time>
      </trkpt>
      <trkpt lat="48.82679" lon="2.46464">
        <ele>107.7</ele>
        <time>2015-03-02T20:16:20.076Z</time>
      </trkpt>
      <trkpt lat="48.82674" lon="2.46465">
        <ele>107.6</ele>
        <time>2015-03-02T20:16:21.131Z</time>
      </trkpt>
      <trkpt lat="48.82669" lon="2.46466">
        <ele>107.6</ele>
        <time>2015-03-02T20:16:21.958Z</time>
      </trkpt>
      <trkpt lat="48.82665" lon="2.46467">
        <ele>107.5</ele>
        <time>2015-03-02T20:16:22.974Z</time>
      </trkpt>
      <trkpt lat="48.8266" lon="2.46468">
        <ele>107.5</ele>
        <time>2015-03-02T20:16:23.991Z</time>
      </trkpt>
      <trkpt lat="48.82655" lon="2.46469">
        <ele>107.3</ele>
        <time>2015-03-02T20:16:24.991Z</time>
      </trkpt>
      <trkpt lat="48.8265" lon="2.46469">
        <ele>107.2</ele>
        <time>2015-03-02T20:16:26.048Z</time>
      </trkpt>
      <trkpt lat="48.82645" lon="2.4647">
        <ele>107.1</ele>
        <time>2015-03-02T20:16:27.112Z</time>
      </trkpt>
      <trkpt lat="48.8264" lon="2.46471">
        <ele>107.1</ele>
        <time>2015-03-02T20:16:27.968Z</time>
      </trkpt>
      <trkpt lat="48.82636" lon="2.46472">
        <ele>107</ele>
        <time>2015-03-02T20:16:28.988Z</time>
      </trkpt>
      <trkpt lat="48.82631" lon="2.46474">
        <ele>107</ele>
        <time>2015-03-02T20:16:29.997Z</time>
      </trkpt>
      <trkpt lat="48.82626" lon="2.46475">
        <ele>106.9</ele>
        <time>2015-03-02T20:16:31.019Z</time>
      </trkpt>
      <trkpt lat="48.82621" lon="2.46476">
        <ele>106.9</ele>
        <time>2015-03-02T20:16:32.027Z</time>
      </trkpt>
      <trkpt lat="48.82616" lon="2.46478">
        <ele>106.9</ele>
        <time>2015-03-02T20:16:33.045Z</time>
      </trkpt>
      <trkpt lat="48.82611" lon="2.46479">
        <ele>106.5</ele>
        <time>2015-03-02T20:16:34.056Z</time>
      </trkpt>
      <trkpt lat="48.82606" lon="2.46481">
        <ele>106.4</ele>
        <time>2015-03-02T20:16:35.001Z</time>
      </trkpt>
      <trkpt lat="48.826" lon="2.46482">
        <ele>106.4</ele>
        <time>2015-03-02T20:16:36.049Z</time>
      </trkpt>
      <trkpt lat="48.82594" lon="2.46483">
        <ele>106.3</ele>
        <time>2015-03-02T20:16:36.955Z</time>
      </trkpt>
      <trkpt lat="48.82588" lon="2.46484">
        <ele>106.4</ele>
        <time>2015-03-02T20:16:37.976Z</time>
      </trkpt>
      <trkpt lat="48.82582" lon="2.46485">
        <ele>106.3</ele>
        <time>2015-03-02T20:16:38.997Z</time>
      </trkpt>
      <trkpt lat="48.82576" lon="2.46487">
        <ele>106.3</ele>
        <time>2015-03-02T20:16:39.997Z</time>
      </trkpt>
      <trkpt lat="48.8257" lon="2.46488">
        <ele>105.9</ele>
        <time>2015-03-02T20:16:41.012Z</time>
      </trkpt>
      <trkpt lat="48.82564" lon="2.46489">
        <ele>106</ele>
        <time>2015-03-02T20:16:42.037Z</time>
      </trkpt>
      <trkpt lat="48.82557" lon="2.4649">
        <ele>106</ele>
        <time>2015-03-02T20:16:42.954Z</time>
      </trkpt>
      <trkpt lat="48.82551" lon="2.46491">
        <ele>105.8</ele>
        <time>2015-03-02T20:16:44.068Z</time>
      </trkpt>
      <trkpt lat="48.82546" lon="2.46492">
        <ele>105.5</ele>
        <time>2015-03-02T20:16:45.117Z</time>
      </trkpt>
      <trkpt lat="48.8254" lon="2.46493">
        <ele>105.4</ele>
        <time>2015-03-02T20:16:45.962Z</time>
      </trkpt>
      <trkpt lat="48.82535" lon="2.46495">
        <ele>105</ele>
        <time>2015-03-02T20:16:46.967Z</time>
      </trkpt>
      <trkpt lat="48.8253" lon="2.46496">
        <ele>104.9</ele>
        <time>2015-03-02T20:16:47.983Z</time>
      </trkpt>
      <trkpt lat="48.82525" lon="2.46496">
        <ele>105</ele>
        <time>2015-03-02T20:16:48.986Z</time>
      </trkpt>
      <trkpt lat="48.8252" lon="2.46496">
        <ele>104.9</ele>
        <time>2015-03-02T20:16:49.998Z</time>
      </trkpt>
      <trkpt lat="48.82515" lon="2.46497">
        <ele>104.6</ele>
        <time>2015-03-02T20:16:51.012Z</time>
      </trkpt>
      <trkpt lat="48.82509" lon="2.46498">
        <ele>104.5</ele>
        <time>2015-03-02T20:16:52.014Z</time>
      </trkpt>
      <trkpt lat="48.82503" lon="2.46499">
        <ele>104.6</ele>
        <time>2015-03-02T20:16:53.033Z</time>
      </trkpt>
      <trkpt lat="48.82496" lon="2.46501">
        <ele>104.6</ele>
        <time>2015-03-02T20:16:54.039Z</time>
      </trkpt>
      <trkpt lat="48.82489" lon="2.46502">
        <ele>104.7</ele>
        <time>2015-03-02T20:16:54.959Z</time>
      </trkpt>
      <trkpt lat="48.82482" lon="2.46504">
        <ele>104.6</ele>
        <time>2015-03-02T20:16:55.958Z</time>
      </trkpt>
      <trkpt lat="48.82474" lon="2.46507">
        <ele>104.6</ele>
        <time>2015-03-02T20:16:57.071Z</time>
      </trkpt>
      <trkpt lat="48.82467" lon="2.46508">
        <ele>104.9</ele>
        <time>2015-03-02T20:16:58.031Z</time>
      </trkpt>
      <trkpt lat="48.8246" lon="2.46509">
        <ele>104.9</ele>
        <time>2015-03-02T20:16:59.037Z</time>
      </trkpt>
      <trkpt lat="48.82452" lon="2.4651">
        <ele>104.9</ele>
        <time>2015-03-02T20:16:59.953Z</time>
      </trkpt>
      <trkpt lat="48.82445" lon="2.46512">
        <ele>105</ele>
        <time>2015-03-02T20:17:00.968Z</time>
      </trkpt>
      <trkpt lat="48.82438" lon="2.46514">
        <ele>105.1</ele>
        <time>2015-03-02T20:17:01.969Z</time>
      </trkpt>
      <trkpt lat="48.82432" lon="2.46515">
        <ele>105</ele>
        <time>2015-03-02T20:17:03.008Z</time>
      </trkpt>
      <trkpt lat="48.82425" lon="2.46516">
        <ele>105.1</ele>
        <time>2015-03-02T20:17:04.029Z</time>
      </trkpt>
      <trkpt lat="48.82419" lon="2.46517">
        <ele>105.1</ele>
        <time>2015-03-02T20:17:05.044Z</time>
      </trkpt>
      <trkpt lat="48.82413" lon="2.46518">
        <ele>105</ele>
        <time>2015-03-02T20:17:05.951Z</time>
      </trkpt>
      <trkpt lat="48.82407" lon="2.4652">
        <ele>105</ele>
        <time>2015-03-02T20:17:06.954Z</time>
      </trkpt>
      <trkpt lat="48.824" lon="2.46522">
        <ele>104.9</ele>
        <time>2015-03-02T20:17:07.975Z</time>
      </trkpt>
      <trkpt lat="48.82395" lon="2.46523">
        <ele>104.9</ele>
        <time>2015-03-02T20:17:09.006Z</time>
      </trkpt>
      <trkpt lat="48.82389" lon="2.46527">
        <ele>105.3</ele>
        <time>2015-03-02T20:17:10.037Z</time>
      </trkpt>
      <trkpt lat="48.82382" lon="2.46529">
        <ele>105.6</ele>
        <time>2015-03-02T20:17:11.040Z</time>
      </trkpt>
      <trkpt lat="48.82377" lon="2.46531">
        <ele>105.6</ele>
        <time>2015-03-02T20:17:11.930Z</time>
      </trkpt>
      <trkpt lat="48.82371" lon="2.46534">
        <ele>105.6</ele>
        <time>2015-03-02T20:17:12.936Z</time>
      </trkpt>
      <trkpt lat="48.82365" lon="2.46535">
        <ele>105.6</ele>
        <time>2015-03-02T20:17:13.955Z</time>
      </trkpt>
      <trkpt lat="48.82359" lon="2.46537">
        <ele>105.9</ele>
        <time>2015-03-02T20:17:14.991Z</time>
      </trkpt>
      <trkpt lat="48.82353" lon="2.4654">
        <ele>106.2</ele>
        <time>2015-03-02T20:17:16.007Z</time>
      </trkpt>
      <trkpt lat="48.82348" lon="2.46542">
        <ele>106.7</ele>
        <time>2015-03-02T20:17:17.024Z</time>
      </trkpt>
      <trkpt lat="48.82341" lon="2.46543">
        <ele>107.4</ele>
        <time>2015-03-02T20:17:18.036Z</time>
      </trkpt>
      <trkpt lat="48.82336" lon="2.46544">
        <ele>108</ele>
        <time>2015-03-02T20:17:19.054Z</time>
      </trkpt>
      <trkpt lat="48.8233" lon="2.46544">
        <ele>108</ele>
        <time>2015-03-02T20:17:19.955Z</time>
      </trkpt>
      <trkpt lat="48.82325" lon="2.46545">
        <ele>108.1</ele>
        <time>2015-03-02T20:17:20.990Z</time>
      </trkpt>
      <trkpt lat="48.82319" lon="2.46545">
        <ele>108.1</ele>
        <time>2015-03-02T20:17:21.993Z</time>
      </trkpt>
      <trkpt lat="48.82314" lon="2.46545">
        <ele>108.2</ele>
        <time>2015-03-02T20:17:22.998Z</time>
      </trkpt>
      <trkpt lat="48.8231" lon="2.46545">
        <ele>108.3</ele>
        <time>2015-03-02T20:17:24.049Z</time>
      </trkpt>
      <trkpt lat="48.82305" lon="2.46545">
        <ele>108.3</ele>
        <time>2015-03-02T20:17:24.976Z</time>
      </trkpt>
      <trkpt lat="48.823" lon="2.46545">
        <ele>108.2</ele>
        <time>2015-03-02T20:17:25.975Z</time>
      </trkpt>
      <trkpt lat="48.82295" lon="2.46545">
        <ele>108.2</ele>
        <time>2015-03-02T20:17:27.022Z</time>
      </trkpt>
      <trkpt lat="48.8229" lon="2.46544">
        <ele>108</ele>
        <time>2015-03-02T20:17:28.048Z</time>
      </trkpt>
      <trkpt lat="48.82285" lon="2.46543">
        <ele>107.9</ele>
        <time>2015-03-02T20:17:28.959Z</time>
      </trkpt>
      <trkpt lat="48.8228" lon="2.46541">
        <ele>107.8</ele>
        <time>2015-03-02T20:17:29.968Z</time>
      </trkpt>
      <trkpt lat="48.82276" lon="2.46539">
        <ele>107.6</ele>
        <time>2015-03-02T20:17:30.973Z</time>
      </trkpt>
      <trkpt lat="48.82271" lon="2.46537">
        <ele>107.4</ele>
        <time>2015-03-02T20:17:31.978Z</time>
      </trkpt>
      <trkpt lat="48.82267" lon="2.46535">
        <ele>107.5</ele>
        <time>2015-03-02T20:17:33.014Z</time>
      </trkpt>
      <trkpt lat="48.82259" lon="2.46529">
        <ele>107.7</ele>
        <time>2015-03-02T20:17:35.026Z</time>
      </trkpt>
      <trkpt lat="48.82255" lon="2.46527">
        <ele>107.6</ele>
        <time>2015-03-02T20:17:35.937Z</time>
      </trkpt>
      <trkpt lat="48.82248" lon="2.46522">
        <ele>107.6</ele>
        <time>2015-03-02T20:17:37.968Z</time>
      </trkpt>
      <trkpt lat="48.82243" lon="2.46518">
        <ele>107.2</ele>
        <time>2015-03-02T20:17:39.034Z</time>
      </trkpt>
      <trkpt lat="48.82236" lon="2.46512">
        <ele>107.1</ele>
        <time>2015-03-02T20:17:41.023Z</time>
      </trkpt>
      <trkpt lat="48.82233" lon="2.46508">
        <ele>107.1</ele>
        <time>2015-03-02T20:17:41.994Z</time>
      </trkpt>
      <trkpt lat="48.82226" lon="2.46502">
        <ele>107.1</ele>
        <time>2015-03-02T20:17:43.977Z</time>
      </trkpt>
      <trkpt lat="48.82222" lon="2.465">
        <ele>107.3</ele>
        <time>2015-03-02T20:17:45.038Z</time>
      </trkpt>
      <trkpt lat="48.82217" lon="2.46494">
        <ele>107.4</ele>
        <time>2015-03-02T20:17:46.957Z</time>
      </trkpt>
      <trkpt lat="48.82214" lon="2.46492">
        <ele>107.5</ele>
        <time>2015-03-02T20:17:47.954Z</time>
      </trkpt>
      <trkpt lat="48.82209" lon="2.46484">
        <ele>107.5</ele>
        <time>2015-03-02T20:17:49.975Z</time>
      </trkpt>
      <trkpt lat="48.82206" lon="2.4648">
        <ele>107.5</ele>
        <time>2015-03-02T20:17:51.019Z</time>
      </trkpt>
      <trkpt lat="48.82203" lon="2.46476">
        <ele>107.6</ele>
        <time>2015-03-02T20:17:52.044Z</time>
      </trkpt>
      <trkpt lat="48.82198" lon="2.46473">
        <ele>107.5</ele>
        <time>2015-03-02T20:17:52.958Z</time>
      </trkpt>
      <trkpt lat="48.82193" lon="2.4647">
        <ele>107.4</ele>
        <time>2015-03-02T20:17:53.962Z</time>
      </trkpt>
      <trkpt lat="48.82189" lon="2.46466">
        <ele>107.3</ele>
        <time>2015-03-02T20:17:55.049Z</time>
      </trkpt>
      <trkpt lat="48.82185" lon="2.46463">
        <ele>107.4</ele>
        <time>2015-03-02T20:17:56.009Z</time>
      </trkpt>
      <trkpt lat="48.82181" lon="2.46461">
        <ele>107.5</ele>
        <time>2015-03-02T20:17:57.022Z</time>
      </trkpt>
      <trkpt lat="48.82174" lon="2.4646">
        <ele>107.4</ele>
        <time>2015-03-02T20:17:58.062Z</time>
      </trkpt>
      <trkpt lat="48.82168" lon="2.46458">
        <ele>106.9</ele>
        <time>2015-03-02T20:17:59.028Z</time>
      </trkpt>
      <trkpt lat="48.82163" lon="2.46456">
        <ele>106.8</ele>
        <time>2015-03-02T20:17:59.955Z</time>
      </trkpt>
      <trkpt lat="48.82159" lon="2.46453">
        <ele>106.8</ele>
        <time>2015-03-02T20:18:00.967Z</time>
      </trkpt>
      <trkpt lat="48.82153" lon="2.46451">
        <ele>107.1</ele>
        <time>2015-03-02T20:18:01.978Z</time>
      </trkpt>
      <trkpt lat="48.82148" lon="2.46448">
        <ele>107.1</ele>
        <time>2015-03-02T20:18:02.990Z</time>
      </trkpt>
      <trkpt lat="48.82141" lon="2.46447">
        <ele>107.6</ele>
        <time>2015-03-02T20:18:04.000Z</time>
      </trkpt>
      <trkpt lat="48.82136" lon="2.46446">
        <ele>107.9</ele>
        <time>2015-03-02T20:18:05.009Z</time>
      </trkpt>
      <trkpt lat="48.8213" lon="2.46445">
        <ele>108.1</ele>
        <time>2015-03-02T20:18:05.952Z</time>
      </trkpt>
      <trkpt lat="48.82123" lon="2.46443">
        <ele>107.2</ele>
        <time>2015-03-02T20:18:06.959Z</time>
      </trkpt>
      <trkpt lat="48.82118" lon="2.4644">
        <ele>107.4</ele>
        <time>2015-03-02T20:18:07.973Z</time>
      </trkpt>
      <trkpt lat="48.82112" lon="2.46439">
        <ele>107.7</ele>
        <time>2015-03-02T20:18:09.015Z</time>
      </trkpt>
      <trkpt lat="48.82104" lon="2.46438">
        <ele>107.7</ele>
        <time>2015-03-02T20:18:10.038Z</time>
      </trkpt>
      <trkpt lat="48.82098" lon="2.46437">
        <ele>107.7</ele>
        <time>2015-03-02T20:18:10.957Z</time>
      </trkpt>
      <trkpt lat="48.82091" lon="2.46436">
        <ele>107.8</ele>
        <time>2015-03-02T20:18:11.970Z</time>
      </trkpt>
      <trkpt lat="48.82084" lon="2.46435">
        <ele>107.1</ele>
        <time>2015-03-02T20:18:12.991Z</time>
      </trkpt>
      <trkpt lat="48.82079" lon="2.46432">
        <ele>107.2</ele>
        <time>2015-03-02T20:18:13.935Z</time>
      </trkpt>
      <trkpt lat="48.82074" lon="2.46429">
        <ele>107.4</ele>
        <time>2015-03-02T20:18:14.988Z</time>
      </trkpt>
      <trkpt lat="48.82069" lon="2.46428">
        <ele>107.6</ele>
        <time>2015-03-02T20:18:15.991Z</time>
      </trkpt>
      <trkpt lat="48.82064" lon="2.46426">
        <ele>107.7</ele>
        <time>2015-03-02T20:18:17.000Z</time>
      </trkpt>
      <trkpt lat="48.8206" lon="2.46425">
        <ele>107.9</ele>
        <time>2015-03-02T20:18:18.010Z</time>
      </trkpt>
      <trkpt lat="48.82055" lon="2.46423">
        <ele>108</ele>
        <time>2015-03-02T20:18:19.021Z</time>
      </trkpt>
      <trkpt lat="48.82047" lon="2.46419">
        <ele>108</ele>
        <time>2015-03-02T20:18:20.962Z</time>
      </trkpt>
      <trkpt lat="48.82044" lon="2.46417">
        <ele>108.1</ele>
        <time>2015-03-02T20:18:21.961Z</time>
      </trkpt>
      <trkpt lat="48.82035" lon="2.46417">
        <ele>107.8</ele>
        <time>2015-03-02T20:18:24.989Z</time>
      </trkpt>
      <trkpt lat="48.82032" lon="2.46419">
        <ele>107.7</ele>
        <time>2015-03-02T20:18:26.014Z</time>
      </trkpt>
      <trkpt lat="48.82027" lon="2.4642">
        <ele>107</ele>
        <time>2015-03-02T20:18:27.027Z</time>
      </trkpt>
      <trkpt lat="48.82023" lon="2.46423">
        <ele>106.7</ele>
        <time>2015-03-02T20:18:28.041Z</time>
      </trkpt>
      <trkpt lat="48.82016" lon="2.46427">
        <ele>105.6</ele>
        <time>2015-03-02T20:18:29.946Z</time>
      </trkpt>
      <trkpt lat="48.82012" lon="2.46429">
        <ele>105.5</ele>
        <time>2015-03-02T20:18:30.975Z</time>
      </trkpt>
      <trkpt lat="48.82006" lon="2.46433">
        <ele>105.4</ele>
        <time>2015-03-02T20:18:33.013Z</time>
      </trkpt>
      <trkpt lat="48.82003" lon="2.46435">
        <ele>105.4</ele>
        <time>2015-03-02T20:18:34.050Z</time>
      </trkpt>
      <trkpt lat="48.81998" lon="2.46433">
        <ele>105.2</ele>
        <time>2015-03-02T20:18:38.041Z</time>
      </trkpt>
      <trkpt lat="48.81998" lon="2.46432">
        <ele>105.2</ele>
        <time>2015-03-02T20:18:39.054Z</time>
      </trkpt>
      <trkpt lat="48.81997" lon="2.46429">
        <ele>105.7</ele>
        <time>2015-03-02T20:18:59.990Z</time>
      </trkpt>
      <trkpt lat="48.81994" lon="2.46424">
        <ele>109.5</ele>
        <time>2015-03-02T20:19:01.022Z</time>
      </trkpt>
      <trkpt lat="48.81985" lon="2.46423">
        <ele>107.9</ele>
        <time>2015-03-02T20:19:17.025Z</time>
      </trkpt>
      <trkpt lat="48.81984" lon="2.46422">
        <ele>107.7</ele>
        <time>2015-03-02T20:19:18.031Z</time>
      </trkpt>
      <trkpt lat="48.81978" lon="2.46413">
        <ele>107.6</ele>
        <time>2015-03-02T20:19:22.970Z</time>
      </trkpt>
      <trkpt lat="48.81976" lon="2.4641">
        <ele>107.4</ele>
        <time>2015-03-02T20:19:23.974Z</time>
      </trkpt>
      <trkpt lat="48.81972" lon="2.46401">
        <ele>107.4</ele>
        <time>2015-03-02T20:19:26.041Z</time>
      </trkpt>
      <trkpt lat="48.8197" lon="2.46395">
        <ele>107.3</ele>
        <time>2015-03-02T20:19:27.081Z</time>
      </trkpt>
      <trkpt lat="48.81964" lon="2.46385">
        <ele>107.4</ele>
        <time>2015-03-02T20:19:28.960Z</time>
      </trkpt>
      <trkpt lat="48.81961" lon="2.46379">
        <ele>107.3</ele>
        <time>2015-03-02T20:19:29.976Z</time>
      </trkpt>
      <trkpt lat="48.81957" lon="2.46373">
        <ele>107.3</ele>
        <time>2015-03-02T20:19:31.002Z</time>
      </trkpt>
      <trkpt lat="48.81947" lon="2.46358">
        <ele>107.2</ele>
        <time>2015-03-02T20:19:33.084Z</time>
      </trkpt>
      <trkpt lat="48.81942" lon="2.4635">
        <ele>107.2</ele>
        <time>2015-03-02T20:19:33.963Z</time>
      </trkpt>
      <trkpt lat="48.81939" lon="2.46342">
        <ele>107</ele>
        <time>2015-03-02T20:19:34.962Z</time>
      </trkpt>
      <trkpt lat="48.81935" lon="2.46336">
        <ele>106.9</ele>
        <time>2015-03-02T20:19:35.974Z</time>
      </trkpt>
      <trkpt lat="48.81932" lon="2.46331">
        <ele>106.9</ele>
        <time>2015-03-02T20:19:36.985Z</time>
      </trkpt>
      <trkpt lat="48.81928" lon="2.46325">
        <ele>106.9</ele>
        <time>2015-03-02T20:19:38.074Z</time>
      </trkpt>
      <trkpt lat="48.81925" lon="2.46321">
        <ele>106.9</ele>
        <time>2015-03-02T20:19:39.100Z</time>
      </trkpt>
      <trkpt lat="48.8192" lon="2.46313">
        <ele>106.5</ele>
        <time>2015-03-02T20:19:40.976Z</time>
      </trkpt>
      <trkpt lat="48.81919" lon="2.46308">
        <ele>106.4</ele>
        <time>2015-03-02T20:19:41.986Z</time>
      </trkpt>
      <trkpt lat="48.8192" lon="2.46297">
        <ele>106.5</ele>
        <time>2015-03-02T20:19:44.064Z</time>
      </trkpt>
      <trkpt lat="48.81919" lon="2.46291">
        <ele>106.6</ele>
        <time>2015-03-02T20:19:45.087Z</time>
      </trkpt>
      <trkpt lat="48.81917" lon="2.46281">
        <ele>106.8</ele>
        <time>2015-03-02T20:19:46.965Z</time>
      </trkpt>
      <trkpt lat="48.81914" lon="2.46277">
        <ele>106.9</ele>
        <time>2015-03-02T20:19:47.967Z</time>
      </trkpt>
      <trkpt lat="48.8191" lon="2.46269">
        <ele>107.1</ele>
        <time>2015-03-02T20:19:50.023Z</time>
      </trkpt>
      <trkpt lat="48.81908" lon="2.46266">
        <ele>107.2</ele>
        <time>2015-03-02T20:19:51.026Z</time>
      </trkpt>
      <trkpt lat="48.81903" lon="2.46257">
        <ele>107.5</ele>
        <time>2015-03-02T20:19:54.963Z</time>
      </trkpt>
      <trkpt lat="48.81902" lon="2.46255">
        <ele>107.5</ele>
        <time>2015-03-02T20:19:56.131Z</time>
      </trkpt>
      <trkpt lat="48.81898" lon="2.46242">
        <ele>110.5</ele>
        <time>2015-03-02T20:20:08.988Z</time>
      </trkpt>
      <trkpt lat="48.81897" lon="2.46242">
        <ele>110.4</ele>
        <time>2015-03-02T20:20:09.996Z</time>
      </trkpt>
      <trkpt lat="48.81891" lon="2.46238">
        <ele>111.5</ele>
        <time>2015-03-02T20:20:12.930Z</time>
      </trkpt>
      <trkpt lat="48.81888" lon="2.46235">
        <ele>111.8</ele>
        <time>2015-03-02T20:20:13.989Z</time>
      </trkpt>
      <trkpt lat="48.81882" lon="2.46225">
        <ele>112.2</ele>
        <time>2015-03-02T20:20:16.967Z</time>
      </trkpt>
      <trkpt lat="48.8188" lon="2.46222">
        <ele>112.2</ele>
        <time>2015-03-02T20:20:17.962Z</time>
      </trkpt>
      <trkpt lat="48.81875" lon="2.46213">
        <ele>112.2</ele>
        <time>2015-03-02T20:20:19.983Z</time>
      </trkpt>
      <trkpt lat="48.81873" lon="2.4621">
        <ele>112.2</ele>
        <time>2015-03-02T20:20:21.002Z</time>
      </trkpt>
      <trkpt lat="48.81868" lon="2.46202">
        <ele>112.3</ele>
        <time>2015-03-02T20:20:23.008Z</time>
      </trkpt>
      <trkpt lat="48.81866" lon="2.46198">
        <ele>112.1</ele>
        <time>2015-03-02T20:20:24.022Z</time>
      </trkpt>
      <trkpt lat="48.81862" lon="2.4619">
        <ele>111.7</ele>
        <time>2015-03-02T20:20:26.079Z</time>
      </trkpt>
      <trkpt lat="48.8186" lon="2.46186">
        <ele>111.4</ele>
        <time>2015-03-02T20:20:27.049Z</time>
      </trkpt>
      <trkpt lat="48.81855" lon="2.46178">
        <ele>111</ele>
        <time>2015-03-02T20:20:29.438Z</time>
      </trkpt>
      <trkpt lat="48.81853" lon="2.46174">
        <ele>110.7</ele>
        <time>2015-03-02T20:20:29.997Z</time>
      </trkpt>
      <trkpt lat="48.81849" lon="2.46166">
        <ele>110.6</ele>
        <time>2015-03-02T20:20:32.016Z</time>
      </trkpt>
      <trkpt lat="48.81846" lon="2.46161">
        <ele>110.6</ele>
        <time>2015-03-02T20:20:33.031Z</time>
      </trkpt>
      <trkpt lat="48.81841" lon="2.4615">
        <ele>110.7</ele>
        <time>2015-03-02T20:20:35.033Z</time>
      </trkpt>
      <trkpt lat="48.81839" lon="2.46144">
        <ele>110.7</ele>
        <time>2015-03-02T20:20:35.962Z</time>
      </trkpt>
      <trkpt lat="48.81836" lon="2.46138">
        <ele>110.7</ele>
        <time>2015-03-02T20:20:36.972Z</time>
      </trkpt>
      <trkpt lat="48.81833" lon="2.46132">
        <ele>110.7</ele>
        <time>2015-03-02T20:20:38.000Z</time>
      </trkpt>
      <trkpt lat="48.81831" lon="2.46125">
        <ele>110.7</ele>
        <time>2015-03-02T20:20:39.727Z</time>
      </trkpt>
      <trkpt lat="48.81828" lon="2.4612">
        <ele>110.8</ele>
        <time>2015-03-02T20:20:40.029Z</time>
      </trkpt>
      <trkpt lat="48.81826" lon="2.46113">
        <ele>110.6</ele>
        <time>2015-03-02T20:20:41.039Z</time>
      </trkpt>
      <trkpt lat="48.81823" lon="2.46108">
        <ele>110.5</ele>
        <time>2015-03-02T20:20:42.047Z</time>
      </trkpt>
      <trkpt lat="48.81817" lon="2.46098">
        <ele>110.3</ele>
        <time>2015-03-02T20:20:44.768Z</time>
      </trkpt>
      <trkpt lat="48.81815" lon="2.46093">
        <ele>110</ele>
        <time>2015-03-02T20:20:44.997Z</time>
      </trkpt>
      <trkpt lat="48.81812" lon="2.46083">
        <ele>110</ele>
        <time>2015-03-02T20:20:46.933Z</time>
      </trkpt>
      <trkpt lat="48.8181" lon="2.46078">
        <ele>110</ele>
        <time>2015-03-02T20:20:47.975Z</time>
      </trkpt>
      <trkpt lat="48.81806" lon="2.46068">
        <ele>110</ele>
        <time>2015-03-02T20:20:50.014Z</time>
      </trkpt>
      <trkpt lat="48.81804" lon="2.46063">
        <ele>110.1</ele>
        <time>2015-03-02T20:20:51.010Z</time>
      </trkpt>
      <trkpt lat="48.81799" lon="2.46056">
        <ele>110.4</ele>
        <time>2015-03-02T20:20:52.922Z</time>
      </trkpt>
      <trkpt lat="48.81797" lon="2.46053">
        <ele>110.4</ele>
        <time>2015-03-02T20:20:53.935Z</time>
      </trkpt>
      <trkpt lat="48.81793" lon="2.46045">
        <ele>110.4</ele>
        <time>2015-03-02T20:20:56.905Z</time>
      </trkpt>
      <trkpt lat="48.81791" lon="2.46039">
        <ele>110.2</ele>
        <time>2015-03-02T20:20:56.960Z</time>
      </trkpt>
      <trkpt lat="48.81786" lon="2.46029">
        <ele>110.2</ele>
        <time>2015-03-02T20:20:58.925Z</time>
      </trkpt>
      <trkpt lat="48.81784" lon="2.46023">
        <ele>110.2</ele>
        <time>2015-03-02T20:20:59.946Z</time>
      </trkpt>
      <trkpt lat="48.8178" lon="2.46013">
        <ele>110.1</ele>
        <time>2015-03-02T20:21:02.019Z</time>
      </trkpt>
      <trkpt lat="48.81778" lon="2.46008">
        <ele>110</ele>
        <time>2015-03-02T20:21:03.043Z</time>
      </trkpt>
      <trkpt lat="48.81773" lon="2.45998">
        <ele>110</ele>
        <time>2015-03-02T20:21:04.957Z</time>
      </trkpt>
      <trkpt lat="48.81772" lon="2.45993">
        <ele>109.8</ele>
        <time>2015-03-02T20:21:05.950Z</time>
      </trkpt>
      <trkpt lat="48.81768" lon="2.45986">
        <ele>110</ele>
        <time>2015-03-02T20:21:08.863Z</time>
      </trkpt>
      <trkpt lat="48.81766" lon="2.4598">
        <ele>110.6</ele>
        <time>2015-03-02T20:21:09.026Z</time>
      </trkpt>
      <trkpt lat="48.81762" lon="2.45972">
        <ele>110.8</ele>
        <time>2015-03-02T20:21:10.947Z</time>
      </trkpt>
      <trkpt lat="48.8176" lon="2.45968">
        <ele>110.7</ele>
        <time>2015-03-02T20:21:11.980Z</time>
      </trkpt>
      <trkpt lat="48.81756" lon="2.45959">
        <ele>110.4</ele>
        <time>2015-03-02T20:21:14.003Z</time>
      </trkpt>
      <trkpt lat="48.81754" lon="2.45954">
        <ele>110</ele>
        <time>2015-03-02T20:21:15.052Z</time>
      </trkpt>
      <trkpt lat="48.8175" lon="2.45943">
        <ele>109.6</ele>
        <time>2015-03-02T20:21:16.957Z</time>
      </trkpt>
      <trkpt lat="48.81748" lon="2.45937">
        <ele>109.4</ele>
        <time>2015-03-02T20:21:17.980Z</time>
      </trkpt>
      <trkpt lat="48.81745" lon="2.45925">
        <ele>109</ele>
        <time>2015-03-02T20:21:19.953Z</time>
      </trkpt>
      <trkpt lat="48.81743" lon="2.4592">
        <ele>108.7</ele>
        <time>2015-03-02T20:21:21.022Z</time>
      </trkpt>
      <trkpt lat="48.8174" lon="2.4591">
        <ele>108.3</ele>
        <time>2015-03-02T20:21:22.960Z</time>
      </trkpt>
      <trkpt lat="48.81738" lon="2.45905">
        <ele>108.2</ele>
        <time>2015-03-02T20:21:24.147Z</time>
      </trkpt>
      <trkpt lat="48.81736" lon="2.45895">
        <ele>107.8</ele>
        <time>2015-03-02T20:21:25.973Z</time>
      </trkpt>
      <trkpt lat="48.81735" lon="2.45891">
        <ele>107.7</ele>
        <time>2015-03-02T20:21:27.016Z</time>
      </trkpt>
      <trkpt lat="48.81732" lon="2.45879">
        <ele>107.8</ele>
        <time>2015-03-02T20:21:30.275Z</time>
      </trkpt>
      <trkpt lat="48.8173" lon="2.45876">
        <ele>107.7</ele>
        <time>2015-03-02T20:21:31.005Z</time>
      </trkpt>
      <trkpt lat="48.81732" lon="2.45866">
        <ele>106.8</ele>
        <time>2015-03-02T20:21:38.066Z</time>
      </trkpt>
      <trkpt lat="48.81732" lon="2.45867">
        <ele>106.7</ele>
        <time>2015-03-02T20:21:39.076Z</time>
      </trkpt>
      <trkpt lat="48.81732" lon="2.45867">
        <ele>106.2</ele>
        <time>2015-03-02T20:21:44.043Z</time>
      </trkpt>
      <trkpt lat="48.81729" lon="2.4587">
        <ele>105.3</ele>
        <time>2015-03-02T20:21:45.056Z</time>
      </trkpt>
      <trkpt lat="48.81731" lon="2.45858">
        <ele>105</ele>
        <time>2015-03-02T20:21:47.978Z</time>
      </trkpt>
      <trkpt lat="48.81732" lon="2.45853">
        <ele>104.9</ele>
        <time>2015-03-02T20:21:49.054Z</time>
      </trkpt>
      <trkpt lat="48.81733" lon="2.45842">
        <ele>104.2</ele>
        <time>2015-03-02T20:21:50.996Z</time>
      </trkpt>
      <trkpt lat="48.81733" lon="2.45835">
        <ele>103.5</ele>
        <time>2015-03-02T20:21:52.005Z</time>
      </trkpt>
      <trkpt lat="48.81733" lon="2.45827">
        <ele>103.2</ele>
        <time>2015-03-02T20:21:53.028Z</time>
      </trkpt>
      <trkpt lat="48.81733" lon="2.45816">
        <ele>103</ele>
        <time>2015-03-02T20:21:54.040Z</time>
      </trkpt>
      <trkpt lat="48.81732" lon="2.45808">
        <ele>102.9</ele>
        <time>2015-03-02T20:21:54.955Z</time>
      </trkpt>
      <trkpt lat="48.81732" lon="2.45799">
        <ele>102.9</ele>
        <time>2015-03-02T20:21:55.963Z</time>
      </trkpt>
      <trkpt lat="48.81732" lon="2.45789">
        <ele>102.8</ele>
        <time>2015-03-02T20:21:57.019Z</time>
      </trkpt>
      <trkpt lat="48.81733" lon="2.4578">
        <ele>102.7</ele>
        <time>2015-03-02T20:21:58.013Z</time>
      </trkpt>
      <trkpt lat="48.81734" lon="2.45772">
        <ele>102.7</ele>
        <time>2015-03-02T20:21:59.019Z</time>
      </trkpt>
      <trkpt lat="48.81735" lon="2.45764">
        <ele>102.7</ele>
        <time>2015-03-02T20:22:00.055Z</time>
      </trkpt>
      <trkpt lat="48.81737" lon="2.45755">
        <ele>102.8</ele>
        <time>2015-03-02T20:22:00.955Z</time>
      </trkpt>
      <trkpt lat="48.81738" lon="2.45746">
        <ele>102.8</ele>
        <time>2015-03-02T20:22:01.971Z</time>
      </trkpt>
      <trkpt lat="48.8174" lon="2.45737">
        <ele>102.8</ele>
        <time>2015-03-02T20:22:03.021Z</time>
      </trkpt>
      <trkpt lat="48.81743" lon="2.4573">
        <ele>102.8</ele>
        <time>2015-03-02T20:22:04.019Z</time>
      </trkpt>
      <trkpt lat="48.81745" lon="2.45723">
        <ele>103</ele>
        <time>2015-03-02T20:22:05.043Z</time>
      </trkpt>
      <trkpt lat="48.81748" lon="2.45715">
        <ele>103.2</ele>
        <time>2015-03-02T20:22:05.964Z</time>
      </trkpt>
      <trkpt lat="48.8175" lon="2.45706">
        <ele>103.4</ele>
        <time>2015-03-02T20:22:06.976Z</time>
      </trkpt>
      <trkpt lat="48.81752" lon="2.45699">
        <ele>103.6</ele>
        <time>2015-03-02T20:22:07.974Z</time>
      </trkpt>
      <trkpt lat="48.81755" lon="2.45691">
        <ele>103.8</ele>
        <time>2015-03-02T20:22:08.995Z</time>
      </trkpt>
      <trkpt lat="48.81755" lon="2.45683">
        <ele>103.7</ele>
        <time>2015-03-02T20:22:09.953Z</time>
      </trkpt>
      <trkpt lat="48.81756" lon="2.45676">
        <ele>103.9</ele>
        <time>2015-03-02T20:22:11.093Z</time>
      </trkpt>
      <trkpt lat="48.81757" lon="2.4567">
        <ele>104.1</ele>
        <time>2015-03-02T20:22:11.949Z</time>
      </trkpt>
      <trkpt lat="48.81758" lon="2.45664">
        <ele>104.4</ele>
        <time>2015-03-02T20:22:12.960Z</time>
      </trkpt>
      <trkpt lat="48.8176" lon="2.45657">
        <ele>104.7</ele>
        <time>2015-03-02T20:22:14.011Z</time>
      </trkpt>
      <trkpt lat="48.81761" lon="2.4565">
        <ele>104.9</ele>
        <time>2015-03-02T20:22:15.038Z</time>
      </trkpt>
      <trkpt lat="48.81762" lon="2.45644">
        <ele>105</ele>
        <time>2015-03-02T20:22:16.053Z</time>
      </trkpt>
      <trkpt lat="48.81765" lon="2.45631">
        <ele>105.3</ele>
        <time>2015-03-02T20:22:17.958Z</time>
      </trkpt>
      <trkpt lat="48.81766" lon="2.45623">
        <ele>105.4</ele>
        <time>2015-03-02T20:22:19.056Z</time>
      </trkpt>
      <trkpt lat="48.81767" lon="2.45616">
        <ele>105.6</ele>
        <time>2015-03-02T20:22:19.966Z</time>
      </trkpt>
      <trkpt lat="48.81768" lon="2.4561">
        <ele>105.7</ele>
        <time>2015-03-02T20:22:21.006Z</time>
      </trkpt>
      <trkpt lat="48.81769" lon="2.45602">
        <ele>105.8</ele>
        <time>2015-03-02T20:22:22.013Z</time>
      </trkpt>
      <trkpt lat="48.8177" lon="2.45595">
        <ele>105.9</ele>
        <time>2015-03-02T20:22:23.018Z</time>
      </trkpt>
      <trkpt lat="48.81772" lon="2.45587">
        <ele>105.8</ele>
        <time>2015-03-02T20:22:24.035Z</time>
      </trkpt>
      <trkpt lat="48.81773" lon="2.4558">
        <ele>105.8</ele>
        <time>2015-03-02T20:22:24.958Z</time>
      </trkpt>
      <trkpt lat="48.81773" lon="2.45573">
        <ele>105.7</ele>
        <time>2015-03-02T20:22:25.964Z</time>
      </trkpt>
      <trkpt lat="48.81774" lon="2.45566">
        <ele>105.6</ele>
        <time>2015-03-02T20:22:27.003Z</time>
      </trkpt>
      <trkpt lat="48.81777" lon="2.45553">
        <ele>105.8</ele>
        <time>2015-03-02T20:22:29.007Z</time>
      </trkpt>
      <trkpt lat="48.81778" lon="2.45547">
        <ele>106.2</ele>
        <time>2015-03-02T20:22:30.021Z</time>
      </trkpt>
      <trkpt lat="48.81781" lon="2.45535">
        <ele>106.3</ele>
        <time>2015-03-02T20:22:32.051Z</time>
      </trkpt>
      <trkpt lat="48.81782" lon="2.4553">
        <ele>106</ele>
        <time>2015-03-02T20:22:33.021Z</time>
      </trkpt>
      <trkpt lat="48.81784" lon="2.4552">
        <ele>106</ele>
        <time>2015-03-02T20:22:34.928Z</time>
      </trkpt>
      <trkpt lat="48.81785" lon="2.45515">
        <ele>106.1</ele>
        <time>2015-03-02T20:22:35.966Z</time>
      </trkpt>
      <trkpt lat="48.81787" lon="2.45502">
        <ele>106.3</ele>
        <time>2015-03-02T20:22:39.009Z</time>
      </trkpt>
      <trkpt lat="48.81788" lon="2.45498">
        <ele>106.4</ele>
        <time>2015-03-02T20:22:40.008Z</time>
      </trkpt>
      <trkpt lat="48.81789" lon="2.45487">
        <ele>107.2</ele>
        <time>2015-03-02T20:22:42.957Z</time>
      </trkpt>
      <trkpt lat="48.8179" lon="2.45482">
        <ele>107.5</ele>
        <time>2015-03-02T20:22:43.958Z</time>
      </trkpt>
      <trkpt lat="48.81791" lon="2.4547">
        <ele>107.9</ele>
        <time>2015-03-02T20:22:47.021Z</time>
      </trkpt>
      <trkpt lat="48.81792" lon="2.45465">
        <ele>108.1</ele>
        <time>2015-03-02T20:22:47.973Z</time>
      </trkpt>
      <trkpt lat="48.81794" lon="2.45453">
        <ele>109</ele>
        <time>2015-03-02T20:22:51.191Z</time>
      </trkpt>
      <trkpt lat="48.81794" lon="2.45449">
        <ele>109.2</ele>
        <time>2015-03-02T20:22:51.948Z</time>
      </trkpt>
      <trkpt lat="48.81795" lon="2.45436">
        <ele>110</ele>
        <time>2015-03-02T20:22:54.920Z</time>
      </trkpt>
      <trkpt lat="48.81796" lon="2.45431">
        <ele>110.1</ele>
        <time>2015-03-02T20:22:55.943Z</time>
      </trkpt>
      <trkpt lat="48.81797" lon="2.45421">
        <ele>110.3</ele>
        <time>2015-03-02T20:22:57.996Z</time>
      </trkpt>
      <trkpt lat="48.81798" lon="2.45415">
        <ele>110.6</ele>
        <time>2015-03-02T20:22:59.008Z</time>
      </trkpt>
      <trkpt lat="48.81801" lon="2.45404">
        <ele>110.6</ele>
        <time>2015-03-02T20:23:00.944Z</time>
      </trkpt>
      <trkpt lat="48.81801" lon="2.45399">
        <ele>110.9</ele>
        <time>2015-03-02T20:23:01.988Z</time>
      </trkpt>
      <trkpt lat="48.81803" lon="2.45388">
        <ele>111.4</ele>
        <time>2015-03-02T20:23:03.935Z</time>
      </trkpt>
      <trkpt lat="48.81804" lon="2.45383">
        <ele>111.6</ele>
        <time>2015-03-02T20:23:05.033Z</time>
      </trkpt>
      <trkpt lat="48.81806" lon="2.45373">
        <ele>111.9</ele>
        <time>2015-03-02T20:23:06.934Z</time>
      </trkpt>
      <trkpt lat="48.81807" lon="2.45369">
        <ele>112</ele>
        <time>2015-03-02T20:23:07.949Z</time>
      </trkpt>
      <trkpt lat="48.8181" lon="2.45358">
        <ele>112.4</ele>
        <time>2015-03-02T20:23:09.952Z</time>
      </trkpt>
      <trkpt lat="48.81811" lon="2.45353">
        <ele>112.4</ele>
        <time>2015-03-02T20:23:10.950Z</time>
      </trkpt>
      <trkpt lat="48.81813" lon="2.45341">
        <ele>112.6</ele>
        <time>2015-03-02T20:23:12.981Z</time>
      </trkpt>
      <trkpt lat="48.81813" lon="2.45336">
        <ele>112.6</ele>
        <time>2015-03-02T20:23:13.990Z</time>
      </trkpt>
      <trkpt lat="48.81815" lon="2.45325">
        <ele>112.4</ele>
        <time>2015-03-02T20:23:16.063Z</time>
      </trkpt>
      <trkpt lat="48.81815" lon="2.4532">
        <ele>112.6</ele>
        <time>2015-03-02T20:23:16.946Z</time>
      </trkpt>
      <trkpt lat="48.81817" lon="2.4531">
        <ele>112.8</ele>
        <time>2015-03-02T20:23:18.983Z</time>
      </trkpt>
      <trkpt lat="48.81818" lon="2.45305">
        <ele>112.9</ele>
        <time>2015-03-02T20:23:19.994Z</time>
      </trkpt>
      <trkpt lat="48.8182" lon="2.45294">
        <ele>113.1</ele>
        <time>2015-03-02T20:23:22.032Z</time>
      </trkpt>
      <trkpt lat="48.81821" lon="2.45289">
        <ele>113.1</ele>
        <time>2015-03-02T20:23:22.982Z</time>
      </trkpt>
      <trkpt lat="48.81823" lon="2.45278">
        <ele>113.2</ele>
        <time>2015-03-02T20:23:24.946Z</time>
      </trkpt>
      <trkpt lat="48.81824" lon="2.45274">
        <ele>113.2</ele>
        <time>2015-03-02T20:23:25.977Z</time>
      </trkpt>
      <trkpt lat="48.81825" lon="2.45265">
        <ele>113.2</ele>
        <time>2015-03-02T20:23:28.008Z</time>
      </trkpt>
      <trkpt lat="48.81826" lon="2.4526">
        <ele>113.1</ele>
        <time>2015-03-02T20:23:28.947Z</time>
      </trkpt>
      <trkpt lat="48.81828" lon="2.45249">
        <ele>113.4</ele>
        <time>2015-03-02T20:23:31.332Z</time>
      </trkpt>
      <trkpt lat="48.81829" lon="2.45243">
        <ele>113.3</ele>
        <time>2015-03-02T20:23:31.994Z</time>
      </trkpt>
      <trkpt lat="48.81832" lon="2.45233">
        <ele>113.5</ele>
        <time>2015-03-02T20:23:34.035Z</time>
      </trkpt>
      <trkpt lat="48.81833" lon="2.45228">
        <ele>113.5</ele>
        <time>2015-03-02T20:23:34.917Z</time>
      </trkpt>
      <trkpt lat="48.81834" lon="2.45217">
        <ele>113.6</ele>
        <time>2015-03-02T20:23:36.993Z</time>
      </trkpt>
      <trkpt lat="48.81834" lon="2.45212">
        <ele>113.6</ele>
        <time>2015-03-02T20:23:37.948Z</time>
      </trkpt>
      <trkpt lat="48.81835" lon="2.45202">
        <ele>113.7</ele>
        <time>2015-03-02T20:23:40.127Z</time>
      </trkpt>
      <trkpt lat="48.81836" lon="2.45198">
        <ele>113.8</ele>
        <time>2015-03-02T20:23:40.978Z</time>
      </trkpt>
      <trkpt lat="48.81838" lon="2.45186">
        <ele>114</ele>
        <time>2015-03-02T20:23:43.943Z</time>
      </trkpt>
      <trkpt lat="48.81839" lon="2.45184">
        <ele>114.1</ele>
        <time>2015-03-02T20:23:44.988Z</time>
      </trkpt>
      <trkpt lat="48.81844" lon="2.45174">
        <ele>114.7</ele>
        <time>2015-03-02T20:23:49.003Z</time>
      </trkpt>
      <trkpt lat="48.81844" lon="2.45172">
        <ele>115</ele>
        <time>2015-03-02T20:23:50.023Z</time>
      </trkpt>
      <trkpt lat="48.81845" lon="2.45159">
        <ele>117.3</ele>
        <time>2015-03-02T20:24:05.042Z</time>
      </trkpt>
      <trkpt lat="48.81845" lon="2.45159">
        <ele>117.3</ele>
        <time>2015-03-02T20:24:06.140Z</time>
      </trkpt>
      <trkpt lat="48.81845" lon="2.45158">
        <ele>117.3</ele>
        <time>2015-03-02T20:24:06.961Z</time>
      </trkpt>
      <trkpt lat="48.81844" lon="2.45145">
        <ele>117.6</ele>
        <time>2015-03-02T20:24:19.078Z</time>
      </trkpt>
      <trkpt lat="48.81844" lon="2.45143">
        <ele>117.8</ele>
        <time>2015-03-02T20:24:20.004Z</time>
      </trkpt>
      <trkpt lat="48.81844" lon="2.4514">
        <ele>118.2</ele>
        <time>2015-03-02T20:24:22.943Z</time>
      </trkpt>
      <trkpt lat="48.81844" lon="2.45139">
        <ele>118.5</ele>
        <time>2015-03-02T20:24:23.961Z</time>
      </trkpt>
      <trkpt lat="48.81845" lon="2.45138">
        <ele>118.6</ele>
        <time>2015-03-02T20:25:14.990Z</time>
      </trkpt>
      <trkpt lat="48.81843" lon="2.45139">
        <ele>120.6</ele>
        <time>2015-03-02T20:25:15.986Z</time>
      </trkpt>
      <trkpt lat="48.81846" lon="2.45127">
        <ele>120.6</ele>
        <time>2015-03-02T20:25:24.051Z</time>
      </trkpt>
      <trkpt lat="48.81846" lon="2.45124">
        <ele>120.8</ele>
        <time>2015-03-02T20:25:24.095Z</time>
      </trkpt>
      <trkpt lat="48.8185" lon="2.45113">
        <ele>120.7</ele>
        <time>2015-03-02T20:25:29.176Z</time>
      </trkpt>
      <trkpt lat="48.81851" lon="2.4511">
        <ele>120.8</ele>
        <time>2015-03-02T20:25:29.984Z</time>
      </trkpt>
      <trkpt lat="48.81853" lon="2.45102">
        <ele>120.3</ele>
        <time>2015-03-02T20:25:32.015Z</time>
      </trkpt>
      <trkpt lat="48.81854" lon="2.45097">
        <ele>120.1</ele>
        <time>2015-03-02T20:25:32.975Z</time>
      </trkpt>
      <trkpt lat="48.81856" lon="2.45084">
        <ele>120.1</ele>
        <time>2015-03-02T20:25:36.054Z</time>
      </trkpt>
      <trkpt lat="48.81857" lon="2.4508">
        <ele>119.9</ele>
        <time>2015-03-02T20:25:37.075Z</time>
      </trkpt>
      <trkpt lat="48.81858" lon="2.4507">
        <ele>119.6</ele>
        <time>2015-03-02T20:25:39.233Z</time>
      </trkpt>
      <trkpt lat="48.81858" lon="2.45066">
        <ele>119.6</ele>
        <time>2015-03-02T20:25:40.058Z</time>
      </trkpt>
      <trkpt lat="48.81859" lon="2.45056">
        <ele>119.4</ele>
        <time>2015-03-02T20:25:41.955Z</time>
      </trkpt>
      <trkpt lat="48.81859" lon="2.45052">
        <ele>119.1</ele>
        <time>2015-03-02T20:25:42.981Z</time>
      </trkpt>
      <trkpt lat="48.8186" lon="2.45043">
        <ele>118.9</ele>
        <time>2015-03-02T20:25:45.027Z</time>
      </trkpt>
      <trkpt lat="48.8186" lon="2.45038">
        <ele>119</ele>
        <time>2015-03-02T20:25:46.067Z</time>
      </trkpt>
      <trkpt lat="48.81861" lon="2.45027">
        <ele>119</ele>
        <time>2015-03-02T20:25:47.950Z</time>
      </trkpt>
      <trkpt lat="48.81862" lon="2.45022">
        <ele>118.9</ele>
        <time>2015-03-02T20:25:48.989Z</time>
      </trkpt>
      <trkpt lat="48.81863" lon="2.45012">
        <ele>119</ele>
        <time>2015-03-02T20:25:50.992Z</time>
      </trkpt>
      <trkpt lat="48.81863" lon="2.45006">
        <ele>119.1</ele>
        <time>2015-03-02T20:25:51.998Z</time>
      </trkpt>
      <trkpt lat="48.81863" lon="2.44996">
        <ele>119.2</ele>
        <time>2015-03-02T20:25:53.931Z</time>
      </trkpt>
      <trkpt lat="48.81863" lon="2.44992">
        <ele>119.3</ele>
        <time>2015-03-02T20:25:54.966Z</time>
      </trkpt>
      <trkpt lat="48.81864" lon="2.44983">
        <ele>119.6</ele>
        <time>2015-03-02T20:25:56.996Z</time>
      </trkpt>
      <trkpt lat="48.81864" lon="2.44977">
        <ele>119.6</ele>
        <time>2015-03-02T20:25:58.020Z</time>
      </trkpt>
      <trkpt lat="48.81864" lon="2.44964">
        <ele>119.7</ele>
        <time>2015-03-02T20:25:59.955Z</time>
      </trkpt>
      <trkpt lat="48.81864" lon="2.44957">
        <ele>119.8</ele>
        <time>2015-03-02T20:26:00.960Z</time>
      </trkpt>
      <trkpt lat="48.81864" lon="2.44946">
        <ele>120.1</ele>
        <time>2015-03-02T20:26:03.006Z</time>
      </trkpt>
      <trkpt lat="48.81865" lon="2.4494">
        <ele>120.2</ele>
        <time>2015-03-02T20:26:04.009Z</time>
      </trkpt>
      <trkpt lat="48.81866" lon="2.44929">
        <ele>120.3</ele>
        <time>2015-03-02T20:26:05.958Z</time>
      </trkpt>
      <trkpt lat="48.81866" lon="2.44924">
        <ele>120.2</ele>
        <time>2015-03-02T20:26:06.993Z</time>
      </trkpt>
      <trkpt lat="48.81867" lon="2.44913">
        <ele>120.1</ele>
        <time>2015-03-02T20:26:09.533Z</time>
      </trkpt>
      <trkpt lat="48.81867" lon="2.44908">
        <ele>120.1</ele>
        <time>2015-03-02T20:26:10.010Z</time>
      </trkpt>
      <trkpt lat="48.81867" lon="2.44897">
        <ele>120.1</ele>
        <time>2015-03-02T20:26:12.043Z</time>
      </trkpt>
      <trkpt lat="48.81867" lon="2.44892">
        <ele>120.2</ele>
        <time>2015-03-02T20:26:13.044Z</time>
      </trkpt>
      <trkpt lat="48.81867" lon="2.4488">
        <ele>120.1</ele>
        <time>2015-03-02T20:26:14.967Z</time>
      </trkpt>
      <trkpt lat="48.81867" lon="2.44875">
        <ele>120.1</ele>
        <time>2015-03-02T20:26:15.980Z</time>
      </trkpt>
      <trkpt lat="48.81867" lon="2.44863">
        <ele>120.3</ele>
        <time>2015-03-02T20:26:18.009Z</time>
      </trkpt>
      <trkpt lat="48.81867" lon="2.44855">
        <ele>120.2</ele>
        <time>2015-03-02T20:26:19.011Z</time>
      </trkpt>
      <trkpt lat="48.81867" lon="2.44848">
        <ele>120.1</ele>
        <time>2015-03-02T20:26:20.036Z</time>
      </trkpt>
      <trkpt lat="48.81867" lon="2.44841">
        <ele>120</ele>
        <time>2015-03-02T20:26:21.043Z</time>
      </trkpt>
      <trkpt lat="48.81867" lon="2.44833">
        <ele>119.8</ele>
        <time>2015-03-02T20:26:21.937Z</time>
      </trkpt>
      <trkpt lat="48.81868" lon="2.44825">
        <ele>119.7</ele>
        <time>2015-03-02T20:26:22.959Z</time>
      </trkpt>
      <trkpt lat="48.81868" lon="2.44817">
        <ele>119.5</ele>
        <time>2015-03-02T20:26:24.743Z</time>
      </trkpt>
      <trkpt lat="48.81868" lon="2.44809">
        <ele>119.4</ele>
        <time>2015-03-02T20:26:24.933Z</time>
      </trkpt>
      <trkpt lat="48.81868" lon="2.44801">
        <ele>119.3</ele>
        <time>2015-03-02T20:26:25.948Z</time>
      </trkpt>
      <trkpt lat="48.81868" lon="2.44793">
        <ele>118.8</ele>
        <time>2015-03-02T20:26:27.082Z</time>
      </trkpt>
      <trkpt lat="48.81868" lon="2.44784">
        <ele>118.5</ele>
        <time>2015-03-02T20:26:28.035Z</time>
      </trkpt>
      <trkpt lat="48.81868" lon="2.44775">
        <ele>118.2</ele>
        <time>2015-03-02T20:26:28.948Z</time>
      </trkpt>
      <trkpt lat="48.81868" lon="2.44767">
        <ele>117.8</ele>
        <time>2015-03-02T20:26:29.926Z</time>
      </trkpt>
      <trkpt lat="48.81868" lon="2.44758">
        <ele>118.3</ele>
        <time>2015-03-02T20:26:30.953Z</time>
      </trkpt>
      <trkpt lat="48.81868" lon="2.44749">
        <ele>118.7</ele>
        <time>2015-03-02T20:26:31.998Z</time>
      </trkpt>
      <trkpt lat="48.81868" lon="2.4474">
        <ele>118.8</ele>
        <time>2015-03-02T20:26:33.012Z</time>
      </trkpt>
      <trkpt lat="48.81868" lon="2.44732">
        <ele>118.9</ele>
        <time>2015-03-02T20:26:33.941Z</time>
      </trkpt>
      <trkpt lat="48.81868" lon="2.44725">
        <ele>118.9</ele>
        <time>2015-03-02T20:26:34.933Z</time>
      </trkpt>
      <trkpt lat="48.81868" lon="2.44717">
        <ele>119</ele>
        <time>2015-03-02T20:26:35.948Z</time>
      </trkpt>
      <trkpt lat="48.81868" lon="2.44709">
        <ele>118.9</ele>
        <time>2015-03-02T20:26:36.957Z</time>
      </trkpt>
      <trkpt lat="48.81868" lon="2.44701">
        <ele>119.1</ele>
        <time>2015-03-02T20:26:37.961Z</time>
      </trkpt>
      <trkpt lat="48.81868" lon="2.44694">
        <ele>119.1</ele>
        <time>2015-03-02T20:26:38.974Z</time>
      </trkpt>
      <trkpt lat="48.81868" lon="2.44681">
        <ele>118.9</ele>
        <time>2015-03-02T20:26:41.016Z</time>
      </trkpt>
      <trkpt lat="48.81868" lon="2.44674">
        <ele>118.6</ele>
        <time>2015-03-02T20:26:42.023Z</time>
      </trkpt>
      <trkpt lat="48.81867" lon="2.44666">
        <ele>118.5</ele>
        <time>2015-03-02T20:26:42.944Z</time>
      </trkpt>
      <trkpt lat="48.81867" lon="2.44658">
        <ele>118.5</ele>
        <time>2015-03-02T20:26:43.926Z</time>
      </trkpt>
      <trkpt lat="48.81867" lon="2.44651">
        <ele>118.5</ele>
        <time>2015-03-02T20:26:44.990Z</time>
      </trkpt>
      <trkpt lat="48.81867" lon="2.44643">
        <ele>118.5</ele>
        <time>2015-03-02T20:26:46.010Z</time>
      </trkpt>
      <trkpt lat="48.81867" lon="2.44635">
        <ele>118.4</ele>
        <time>2015-03-02T20:26:47.021Z</time>
      </trkpt>
      <trkpt lat="48.81866" lon="2.44627">
        <ele>118.4</ele>
        <time>2015-03-02T20:26:48.039Z</time>
      </trkpt>
      <trkpt lat="48.81866" lon="2.44619">
        <ele>118.5</ele>
        <time>2015-03-02T20:26:48.950Z</time>
      </trkpt>
      <trkpt lat="48.81866" lon="2.44612">
        <ele>118.5</ele>
        <time>2015-03-02T20:26:49.948Z</time>
      </trkpt>
      <trkpt lat="48.81866" lon="2.44605">
        <ele>118.4</ele>
        <time>2015-03-02T20:26:51.070Z</time>
      </trkpt>
      <trkpt lat="48.81865" lon="2.44597">
        <ele>118.5</ele>
        <time>2015-03-02T20:26:51.963Z</time>
      </trkpt>
      <trkpt lat="48.81865" lon="2.4459">
        <ele>118.5</ele>
        <time>2015-03-02T20:26:52.997Z</time>
      </trkpt>
      <trkpt lat="48.81865" lon="2.44583">
        <ele>118.6</ele>
        <time>2015-03-02T20:26:53.926Z</time>
      </trkpt>
      <trkpt lat="48.81864" lon="2.44571">
        <ele>118.8</ele>
        <time>2015-03-02T20:26:55.997Z</time>
      </trkpt>
      <trkpt lat="48.81864" lon="2.44564">
        <ele>118.9</ele>
        <time>2015-03-02T20:26:57.001Z</time>
      </trkpt>
      <trkpt lat="48.81863" lon="2.44551">
        <ele>118.9</ele>
        <time>2015-03-02T20:26:59.242Z</time>
      </trkpt>
      <trkpt lat="48.81863" lon="2.44544">
        <ele>118.9</ele>
        <time>2015-03-02T20:26:59.937Z</time>
      </trkpt>
      <trkpt lat="48.81863" lon="2.44532">
        <ele>119.2</ele>
        <time>2015-03-02T20:27:01.948Z</time>
      </trkpt>
      <trkpt lat="48.81863" lon="2.44526">
        <ele>119.1</ele>
        <time>2015-03-02T20:27:02.973Z</time>
      </trkpt>
      <trkpt lat="48.81863" lon="2.44514">
        <ele>119.1</ele>
        <time>2015-03-02T20:27:04.997Z</time>
      </trkpt>
      <trkpt lat="48.81863" lon="2.44506">
        <ele>118.9</ele>
        <time>2015-03-02T20:27:06.004Z</time>
      </trkpt>
      <trkpt lat="48.81863" lon="2.44499">
        <ele>118.9</ele>
        <time>2015-03-02T20:27:06.938Z</time>
      </trkpt>
      <trkpt lat="48.81863" lon="2.44492">
        <ele>119</ele>
        <time>2015-03-02T20:27:07.947Z</time>
      </trkpt>
      <trkpt lat="48.81863" lon="2.44485">
        <ele>119</ele>
        <time>2015-03-02T20:27:08.992Z</time>
      </trkpt>
      <trkpt lat="48.81863" lon="2.44478">
        <ele>119.1</ele>
        <time>2015-03-02T20:27:10.002Z</time>
      </trkpt>
      <trkpt lat="48.81864" lon="2.4447">
        <ele>118.8</ele>
        <time>2015-03-02T20:27:10.963Z</time>
      </trkpt>
      <trkpt lat="48.81864" lon="2.44462">
        <ele>118.8</ele>
        <time>2015-03-02T20:27:11.967Z</time>
      </trkpt>
      <trkpt lat="48.81864" lon="2.44454">
        <ele>118.8</ele>
        <time>2015-03-02T20:27:12.987Z</time>
      </trkpt>
      <trkpt lat="48.81864" lon="2.44447">
        <ele>118.7</ele>
        <time>2015-03-02T20:27:14.007Z</time>
      </trkpt>
      <trkpt lat="48.81865" lon="2.44439">
        <ele>118.7</ele>
        <time>2015-03-02T20:27:15.063Z</time>
      </trkpt>
      <trkpt lat="48.81865" lon="2.44432">
        <ele>118.6</ele>
        <time>2015-03-02T20:27:15.935Z</time>
      </trkpt>
      <trkpt lat="48.81865" lon="2.44424">
        <ele>118.5</ele>
        <time>2015-03-02T20:27:16.949Z</time>
      </trkpt>
      <trkpt lat="48.81865" lon="2.44416">
        <ele>118.2</ele>
        <time>2015-03-02T20:27:17.970Z</time>
      </trkpt>
      <trkpt lat="48.81864" lon="2.44409">
        <ele>118</ele>
        <time>2015-03-02T20:27:19.007Z</time>
      </trkpt>
      <trkpt lat="48.81864" lon="2.44402">
        <ele>118</ele>
        <time>2015-03-02T20:27:20.017Z</time>
      </trkpt>
      <trkpt lat="48.81863" lon="2.44395">
        <ele>118</ele>
        <time>2015-03-02T20:27:21.037Z</time>
      </trkpt>
      <trkpt lat="48.81863" lon="2.44388">
        <ele>117.9</ele>
        <time>2015-03-02T20:27:21.936Z</time>
      </trkpt>
      <trkpt lat="48.81863" lon="2.4438">
        <ele>118</ele>
        <time>2015-03-02T20:27:22.945Z</time>
      </trkpt>
      <trkpt lat="48.81863" lon="2.44373">
        <ele>118.2</ele>
        <time>2015-03-02T20:27:23.956Z</time>
      </trkpt>
      <trkpt lat="48.81862" lon="2.44364">
        <ele>118.3</ele>
        <time>2015-03-02T20:27:24.979Z</time>
      </trkpt>
      <trkpt lat="48.81862" lon="2.44356">
        <ele>118.4</ele>
        <time>2015-03-02T20:27:25.984Z</time>
      </trkpt>
      <trkpt lat="48.81864" lon="2.44345">
        <ele>118.7</ele>
        <time>2015-03-02T20:27:27.994Z</time>
      </trkpt>
      <trkpt lat="48.81864" lon="2.4434">
        <ele>118.9</ele>
        <time>2015-03-02T20:27:28.932Z</time>
      </trkpt>
      <trkpt lat="48.81863" lon="2.4433">
        <ele>119.5</ele>
        <time>2015-03-02T20:27:30.957Z</time>
      </trkpt>
      <trkpt lat="48.81863" lon="2.44323">
        <ele>119.6</ele>
        <time>2015-03-02T20:27:31.982Z</time>
      </trkpt>
      <trkpt lat="48.81863" lon="2.44317">
        <ele>119.8</ele>
        <time>2015-03-02T20:27:33.048Z</time>
      </trkpt>
      <trkpt lat="48.81864" lon="2.44309">
        <ele>119.9</ele>
        <time>2015-03-02T20:27:33.938Z</time>
      </trkpt>
      <trkpt lat="48.81864" lon="2.44302">
        <ele>120</ele>
        <time>2015-03-02T20:27:34.949Z</time>
      </trkpt>
      <trkpt lat="48.81864" lon="2.44294">
        <ele>120.1</ele>
        <time>2015-03-02T20:27:35.980Z</time>
      </trkpt>
      <trkpt lat="48.81864" lon="2.44285">
        <ele>120.2</ele>
        <time>2015-03-02T20:27:36.986Z</time>
      </trkpt>
      <trkpt lat="48.81864" lon="2.44277">
        <ele>120.1</ele>
        <time>2015-03-02T20:27:37.997Z</time>
      </trkpt>
      <trkpt lat="48.81865" lon="2.44268">
        <ele>119.9</ele>
        <time>2015-03-02T20:27:39.002Z</time>
      </trkpt>
      <trkpt lat="48.81865" lon="2.4426">
        <ele>119.9</ele>
        <time>2015-03-02T20:27:40.026Z</time>
      </trkpt>
      <trkpt lat="48.81866" lon="2.44253">
        <ele>119.8</ele>
        <time>2015-03-02T20:27:40.926Z</time>
      </trkpt>
      <trkpt lat="48.81866" lon="2.44245">
        <ele>119.8</ele>
        <time>2015-03-02T20:27:41.942Z</time>
      </trkpt>
      <trkpt lat="48.81867" lon="2.44237">
        <ele>119.6</ele>
        <time>2015-03-02T20:27:43.061Z</time>
      </trkpt>
      <trkpt lat="48.81867" lon="2.44231">
        <ele>119.6</ele>
        <time>2015-03-02T20:27:43.937Z</time>
      </trkpt>
      <trkpt lat="48.81868" lon="2.44217">
        <ele>119.1</ele>
        <time>2015-03-02T20:27:46.008Z</time>
      </trkpt>
      <trkpt lat="48.81868" lon="2.44211">
        <ele>119.3</ele>
        <time>2015-03-02T20:27:47.022Z</time>
      </trkpt>
      <trkpt lat="48.81868" lon="2.44203">
        <ele>119.2</ele>
        <time>2015-03-02T20:27:47.949Z</time>
      </trkpt>
      <trkpt lat="48.81868" lon="2.44195">
        <ele>119.1</ele>
        <time>2015-03-02T20:27:48.946Z</time>
      </trkpt>
      <trkpt lat="48.81869" lon="2.44188">
        <ele>119.3</ele>
        <time>2015-03-02T20:27:49.962Z</time>
      </trkpt>
      <trkpt lat="48.8187" lon="2.4418">
        <ele>119.2</ele>
        <time>2015-03-02T20:27:50.977Z</time>
      </trkpt>
      <trkpt lat="48.8187" lon="2.44173">
        <ele>119.3</ele>
        <time>2015-03-02T20:27:51.984Z</time>
      </trkpt>
      <trkpt lat="48.81871" lon="2.44164">
        <ele>119.4</ele>
        <time>2015-03-02T20:27:52.980Z</time>
      </trkpt>
      <trkpt lat="48.81872" lon="2.44155">
        <ele>119.6</ele>
        <time>2015-03-02T20:27:53.997Z</time>
      </trkpt>
      <trkpt lat="48.81872" lon="2.44147">
        <ele>119.9</ele>
        <time>2015-03-02T20:27:55.008Z</time>
      </trkpt>
      <trkpt lat="48.81873" lon="2.44137">
        <ele>120</ele>
        <time>2015-03-02T20:27:56.042Z</time>
      </trkpt>
      <trkpt lat="48.81875" lon="2.44129">
        <ele>120.2</ele>
        <time>2015-03-02T20:27:56.965Z</time>
      </trkpt>
      <trkpt lat="48.81877" lon="2.44121">
        <ele>120.4</ele>
        <time>2015-03-02T20:27:57.997Z</time>
      </trkpt>
      <trkpt lat="48.81878" lon="2.44112">
        <ele>120.6</ele>
        <time>2015-03-02T20:27:58.984Z</time>
      </trkpt>
      <trkpt lat="48.8188" lon="2.44101">
        <ele>120.8</ele>
        <time>2015-03-02T20:28:00.012Z</time>
      </trkpt>
      <trkpt lat="48.81881" lon="2.44091">
        <ele>121</ele>
        <time>2015-03-02T20:28:00.936Z</time>
      </trkpt>
      <trkpt lat="48.81883" lon="2.44082">
        <ele>121.1</ele>
        <time>2015-03-02T20:28:01.931Z</time>
      </trkpt>
      <trkpt lat="48.81884" lon="2.44073">
        <ele>121.3</ele>
        <time>2015-03-02T20:28:02.977Z</time>
      </trkpt>
      <trkpt lat="48.81884" lon="2.44065">
        <ele>121.4</ele>
        <time>2015-03-02T20:28:03.977Z</time>
      </trkpt>
      <trkpt lat="48.81884" lon="2.44058">
        <ele>121.6</ele>
        <time>2015-03-02T20:28:05.004Z</time>
      </trkpt>
      <trkpt lat="48.81885" lon="2.4405">
        <ele>121.7</ele>
        <time>2015-03-02T20:28:06.018Z</time>
      </trkpt>
      <trkpt lat="48.81885" lon="2.44043">
        <ele>121.8</ele>
        <time>2015-03-02T20:28:07.018Z</time>
      </trkpt>
      <trkpt lat="48.81886" lon="2.44035">
        <ele>121.8</ele>
        <time>2015-03-02T20:28:08.028Z</time>
      </trkpt>
      <trkpt lat="48.81887" lon="2.44028">
        <ele>121.8</ele>
        <time>2015-03-02T20:28:09.033Z</time>
      </trkpt>
      <trkpt lat="48.81888" lon="2.44021">
        <ele>121.8</ele>
        <time>2015-03-02T20:28:09.936Z</time>
      </trkpt>
      <trkpt lat="48.81889" lon="2.44013">
        <ele>121.8</ele>
        <time>2015-03-02T20:28:10.948Z</time>
      </trkpt>
      <trkpt lat="48.81889" lon="2.44007">
        <ele>122.1</ele>
        <time>2015-03-02T20:28:11.968Z</time>
      </trkpt>
      <trkpt lat="48.81891" lon="2.43999">
        <ele>122.2</ele>
        <time>2015-03-02T20:28:12.978Z</time>
      </trkpt>
      <trkpt lat="48.81892" lon="2.43991">
        <ele>122.5</ele>
        <time>2015-03-02T20:28:13.987Z</time>
      </trkpt>
      <trkpt lat="48.81892" lon="2.43983">
        <ele>122.8</ele>
        <time>2015-03-02T20:28:14.990Z</time>
      </trkpt>
      <trkpt lat="48.81894" lon="2.43974">
        <ele>122.8</ele>
        <time>2015-03-02T20:28:15.995Z</time>
      </trkpt>
      <trkpt lat="48.81895" lon="2.43966">
        <ele>122.9</ele>
        <time>2015-03-02T20:28:17.008Z</time>
      </trkpt>
      <trkpt lat="48.81896" lon="2.43958">
        <ele>123</ele>
        <time>2015-03-02T20:28:18.019Z</time>
      </trkpt>
      <trkpt lat="48.81897" lon="2.4395">
        <ele>123.2</ele>
        <time>2015-03-02T20:28:19.030Z</time>
      </trkpt>
      <trkpt lat="48.81898" lon="2.43943">
        <ele>123.4</ele>
        <time>2015-03-02T20:28:19.938Z</time>
      </trkpt>
      <trkpt lat="48.81899" lon="2.43936">
        <ele>123.5</ele>
        <time>2015-03-02T20:28:20.976Z</time>
      </trkpt>
      <trkpt lat="48.81901" lon="2.43929">
        <ele>123.5</ele>
        <time>2015-03-02T20:28:21.983Z</time>
      </trkpt>
      <trkpt lat="48.81902" lon="2.43922">
        <ele>123.4</ele>
        <time>2015-03-02T20:28:22.986Z</time>
      </trkpt>
      <trkpt lat="48.81903" lon="2.43914">
        <ele>123.5</ele>
        <time>2015-03-02T20:28:24.005Z</time>
      </trkpt>
      <trkpt lat="48.81905" lon="2.43907">
        <ele>123.6</ele>
        <time>2015-03-02T20:28:25.012Z</time>
      </trkpt>
      <trkpt lat="48.81906" lon="2.439">
        <ele>123.8</ele>
        <time>2015-03-02T20:28:26.019Z</time>
      </trkpt>
      <trkpt lat="48.81908" lon="2.43894">
        <ele>123.9</ele>
        <time>2015-03-02T20:28:27.029Z</time>
      </trkpt>
      <trkpt lat="48.81909" lon="2.43887">
        <ele>124</ele>
        <time>2015-03-02T20:28:28.030Z</time>
      </trkpt>
      <trkpt lat="48.8191" lon="2.4388">
        <ele>124</ele>
        <time>2015-03-02T20:28:28.942Z</time>
      </trkpt>
      <trkpt lat="48.81912" lon="2.43873">
        <ele>124</ele>
        <time>2015-03-02T20:28:29.958Z</time>
      </trkpt>
      <trkpt lat="48.81913" lon="2.43867">
        <ele>124</ele>
        <time>2015-03-02T20:28:30.964Z</time>
      </trkpt>
      <trkpt lat="48.81914" lon="2.4386">
        <ele>124</ele>
        <time>2015-03-02T20:28:31.972Z</time>
      </trkpt>
      <trkpt lat="48.81916" lon="2.43853">
        <ele>124</ele>
        <time>2015-03-02T20:28:33.001Z</time>
      </trkpt>
      <trkpt lat="48.81919" lon="2.43842">
        <ele>123.9</ele>
        <time>2015-03-02T20:28:34.935Z</time>
      </trkpt>
      <trkpt lat="48.81921" lon="2.43837">
        <ele>123.9</ele>
        <time>2015-03-02T20:28:35.967Z</time>
      </trkpt>
      <trkpt lat="48.81924" lon="2.43825">
        <ele>123.8</ele>
        <time>2015-03-02T20:28:38.197Z</time>
      </trkpt>
      <trkpt lat="48.81926" lon="2.43818">
        <ele>123.7</ele>
        <time>2015-03-02T20:28:39.002Z</time>
      </trkpt>
      <trkpt lat="48.81928" lon="2.43806">
        <ele>123.9</ele>
        <time>2015-03-02T20:28:41.006Z</time>
      </trkpt>
      <trkpt lat="48.8193" lon="2.43801">
        <ele>123.9</ele>
        <time>2015-03-02T20:28:42.010Z</time>
      </trkpt>
      <trkpt lat="48.81933" lon="2.4379">
        <ele>123.8</ele>
        <time>2015-03-02T20:28:43.938Z</time>
      </trkpt>
      <trkpt lat="48.81934" lon="2.43785">
        <ele>123.5</ele>
        <time>2015-03-02T20:28:45.021Z</time>
      </trkpt>
      <trkpt lat="48.81936" lon="2.43774">
        <ele>123.6</ele>
        <time>2015-03-02T20:28:46.956Z</time>
      </trkpt>
      <trkpt lat="48.81938" lon="2.43768">
        <ele>123.6</ele>
        <time>2015-03-02T20:28:48.027Z</time>
      </trkpt>
      <trkpt lat="48.8194" lon="2.43758">
        <ele>123.9</ele>
        <time>2015-03-02T20:28:50.374Z</time>
      </trkpt>
      <trkpt lat="48.81942" lon="2.43754">
        <ele>123.9</ele>
        <time>2015-03-02T20:28:50.980Z</time>
      </trkpt>
      <trkpt lat="48.81944" lon="2.43744">
        <ele>123.9</ele>
        <time>2015-03-02T20:28:53.897Z</time>
      </trkpt>
      <trkpt lat="48.81946" lon="2.43739">
        <ele>123.9</ele>
        <time>2015-03-02T20:28:53.945Z</time>
      </trkpt>
      <trkpt lat="48.81948" lon="2.43729">
        <ele>124</ele>
        <time>2015-03-02T20:28:55.991Z</time>
      </trkpt>
      <trkpt lat="48.8195" lon="2.43723">
        <ele>123.8</ele>
        <time>2015-03-02T20:28:57.024Z</time>
      </trkpt>
      <trkpt lat="48.81953" lon="2.43713">
        <ele>123.8</ele>
        <time>2015-03-02T20:28:59.072Z</time>
      </trkpt>
      <trkpt lat="48.81954" lon="2.43708">
        <ele>123.9</ele>
        <time>2015-03-02T20:28:59.980Z</time>
      </trkpt>
      <trkpt lat="48.81957" lon="2.43699">
        <ele>124.1</ele>
        <time>2015-03-02T20:29:02.015Z</time>
      </trkpt>
      <trkpt lat="48.81958" lon="2.43694">
        <ele>124.1</ele>
        <time>2015-03-02T20:29:03.025Z</time>
      </trkpt>
      <trkpt lat="48.81961" lon="2.43685">
        <ele>124.1</ele>
        <time>2015-03-02T20:29:04.932Z</time>
      </trkpt>
      <trkpt lat="48.81962" lon="2.43681">
        <ele>124.1</ele>
        <time>2015-03-02T20:29:05.941Z</time>
      </trkpt>
      <trkpt lat="48.81966" lon="2.43672">
        <ele>124.2</ele>
        <time>2015-03-02T20:29:07.966Z</time>
      </trkpt>
      <trkpt lat="48.81968" lon="2.43668">
        <ele>124.3</ele>
        <time>2015-03-02T20:29:08.968Z</time>
      </trkpt>
      <trkpt lat="48.81972" lon="2.43659">
        <ele>124.5</ele>
        <time>2015-03-02T20:29:10.936Z</time>
      </trkpt>
      <trkpt lat="48.81974" lon="2.43655">
        <ele>124.3</ele>
        <time>2015-03-02T20:29:11.937Z</time>
      </trkpt>
      <trkpt lat="48.81978" lon="2.43645">
        <ele>124.1</ele>
        <time>2015-03-02T20:29:14.266Z</time>
      </trkpt>
      <trkpt lat="48.8198" lon="2.4364">
        <ele>124.3</ele>
        <time>2015-03-02T20:29:15.001Z</time>
      </trkpt>
      <trkpt lat="48.81984" lon="2.43629">
        <ele>124.5</ele>
        <time>2015-03-02T20:29:17.028Z</time>
      </trkpt>
      <trkpt lat="48.81986" lon="2.43624">
        <ele>124.6</ele>
        <time>2015-03-02T20:29:18.050Z</time>
      </trkpt>
      <trkpt lat="48.81991" lon="2.43613">
        <ele>124.8</ele>
        <time>2015-03-02T20:29:19.953Z</time>
      </trkpt>
      <trkpt lat="48.81993" lon="2.43607">
        <ele>124.7</ele>
        <time>2015-03-02T20:29:21.015Z</time>
      </trkpt>
      <trkpt lat="48.81999" lon="2.43599">
        <ele>124.9</ele>
        <time>2015-03-02T20:29:23.015Z</time>
      </trkpt>
      <trkpt lat="48.82002" lon="2.43594">
        <ele>124.9</ele>
        <time>2015-03-02T20:29:24.035Z</time>
      </trkpt>
      <trkpt lat="48.82007" lon="2.43583">
        <ele>125</ele>
        <time>2015-03-02T20:29:25.942Z</time>
      </trkpt>
      <trkpt lat="48.82009" lon="2.43577">
        <ele>125</ele>
        <time>2015-03-02T20:29:27.088Z</time>
      </trkpt>
      <trkpt lat="48.82013" lon="2.43566">
        <ele>125.2</ele>
        <time>2015-03-02T20:29:29.972Z</time>
      </trkpt>
      <trkpt lat="48.82015" lon="2.43561">
        <ele>125.1</ele>
        <time>2015-03-02T20:29:30.038Z</time>
      </trkpt>
      <trkpt lat="48.82018" lon="2.43554">
        <ele>124.8</ele>
        <time>2015-03-02T20:29:30.934Z</time>
      </trkpt>
      <trkpt lat="48.8202" lon="2.43548">
        <ele>125</ele>
        <time>2015-03-02T20:29:31.936Z</time>
      </trkpt>
      <trkpt lat="48.82022" lon="2.43542">
        <ele>125</ele>
        <time>2015-03-02T20:29:32.972Z</time>
      </trkpt>
      <trkpt lat="48.82024" lon="2.43536">
        <ele>125</ele>
        <time>2015-03-02T20:29:33.975Z</time>
      </trkpt>
      <trkpt lat="48.82026" lon="2.43529">
        <ele>125.2</ele>
        <time>2015-03-02T20:29:35.002Z</time>
      </trkpt>
      <trkpt lat="48.82029" lon="2.43522">
        <ele>125.2</ele>
        <time>2015-03-02T20:29:35.907Z</time>
      </trkpt>
      <trkpt lat="48.82032" lon="2.43516">
        <ele>125.3</ele>
        <time>2015-03-02T20:29:37.029Z</time>
      </trkpt>
      <trkpt lat="48.82035" lon="2.43509">
        <ele>125.5</ele>
        <time>2015-03-02T20:29:37.953Z</time>
      </trkpt>
      <trkpt lat="48.82038" lon="2.43502">
        <ele>125.8</ele>
        <time>2015-03-02T20:29:39.018Z</time>
      </trkpt>
      <trkpt lat="48.82042" lon="2.43496">
        <ele>126.2</ele>
        <time>2015-03-02T20:29:39.911Z</time>
      </trkpt>
      <trkpt lat="48.82045" lon="2.43488">
        <ele>126.1</ele>
        <time>2015-03-02T20:29:40.916Z</time>
      </trkpt>
      <trkpt lat="48.82048" lon="2.43481">
        <ele>126.4</ele>
        <time>2015-03-02T20:29:41.938Z</time>
      </trkpt>
      <trkpt lat="48.8205" lon="2.43474">
        <ele>126.7</ele>
        <time>2015-03-02T20:29:42.951Z</time>
      </trkpt>
      <trkpt lat="48.82053" lon="2.43468">
        <ele>126.8</ele>
        <time>2015-03-02T20:29:43.959Z</time>
      </trkpt>
      <trkpt lat="48.82056" lon="2.43462">
        <ele>127.1</ele>
        <time>2015-03-02T20:29:44.979Z</time>
      </trkpt>
      <trkpt lat="48.82059" lon="2.43457">
        <ele>127</ele>
        <time>2015-03-02T20:29:45.979Z</time>
      </trkpt>
      <trkpt lat="48.82061" lon="2.43451">
        <ele>126.9</ele>
        <time>2015-03-02T20:29:47.756Z</time>
      </trkpt>
      <trkpt lat="48.82064" lon="2.43445">
        <ele>126.8</ele>
        <time>2015-03-02T20:29:48.009Z</time>
      </trkpt>
      <trkpt lat="48.82067" lon="2.43439">
        <ele>126.7</ele>
        <time>2015-03-02T20:29:49.030Z</time>
      </trkpt>
      <trkpt lat="48.82071" lon="2.43434">
        <ele>126.8</ele>
        <time>2015-03-02T20:29:50.033Z</time>
      </trkpt>
      <trkpt lat="48.82077" lon="2.43428">
        <ele>127</ele>
        <time>2015-03-02T20:29:52.867Z</time>
      </trkpt>
      <trkpt lat="48.82081" lon="2.43425">
        <ele>127</ele>
        <time>2015-03-02T20:29:52.991Z</time>
      </trkpt>
      <trkpt lat="48.82085" lon="2.43422">
        <ele>127.2</ele>
        <time>2015-03-02T20:29:54.021Z</time>
      </trkpt>
      <trkpt lat="48.82089" lon="2.43418">
        <ele>127.2</ele>
        <time>2015-03-02T20:29:55.028Z</time>
      </trkpt>
      <trkpt lat="48.82093" lon="2.43414">
        <ele>127.2</ele>
        <time>2015-03-02T20:29:55.935Z</time>
      </trkpt>
      <trkpt lat="48.82096" lon="2.43409">
        <ele>127.3</ele>
        <time>2015-03-02T20:29:56.962Z</time>
      </trkpt>
      <trkpt lat="48.821" lon="2.43405">
        <ele>127.5</ele>
        <time>2015-03-02T20:29:57.954Z</time>
      </trkpt>
      <trkpt lat="48.82103" lon="2.434">
        <ele>127.5</ele>
        <time>2015-03-02T20:29:58.971Z</time>
      </trkpt>
      <trkpt lat="48.82107" lon="2.43395">
        <ele>127.5</ele>
        <time>2015-03-02T20:29:59.977Z</time>
      </trkpt>
      <trkpt lat="48.82111" lon="2.43391">
        <ele>127.3</ele>
        <time>2015-03-02T20:30:00.985Z</time>
      </trkpt>
      <trkpt lat="48.82119" lon="2.43384">
        <ele>127.1</ele>
        <time>2015-03-02T20:30:03.004Z</time>
      </trkpt>
      <trkpt lat="48.82123" lon="2.43381">
        <ele>127.1</ele>
        <time>2015-03-02T20:30:03.929Z</time>
      </trkpt>
      <trkpt lat="48.82126" lon="2.43376">
        <ele>127.1</ele>
        <time>2015-03-02T20:30:04.933Z</time>
      </trkpt>
      <trkpt lat="48.8213" lon="2.43371">
        <ele>127</ele>
        <time>2015-03-02T20:30:05.935Z</time>
      </trkpt>
      <trkpt lat="48.82134" lon="2.43366">
        <ele>127.1</ele>
        <time>2015-03-02T20:30:06.949Z</time>
      </trkpt>
      <trkpt lat="48.82138" lon="2.43361">
        <ele>127.3</ele>
        <time>2015-03-02T20:30:07.975Z</time>
      </trkpt>
      <trkpt lat="48.82142" lon="2.43357">
        <ele>127.2</ele>
        <time>2015-03-02T20:30:09.004Z</time>
      </trkpt>
      <trkpt lat="48.82146" lon="2.43351">
        <ele>127.2</ele>
        <time>2015-03-02T20:30:09.931Z</time>
      </trkpt>
      <trkpt lat="48.8215" lon="2.43346">
        <ele>127.2</ele>
        <time>2015-03-02T20:30:10.931Z</time>
      </trkpt>
      <trkpt lat="48.82154" lon="2.43342">
        <ele>127.2</ele>
        <time>2015-03-02T20:30:11.927Z</time>
      </trkpt>
      <trkpt lat="48.82158" lon="2.43338">
        <ele>127.3</ele>
        <time>2015-03-02T20:30:12.947Z</time>
      </trkpt>
      <trkpt lat="48.82162" lon="2.43334">
        <ele>127.3</ele>
        <time>2015-03-02T20:30:13.949Z</time>
      </trkpt>
      <trkpt lat="48.82167" lon="2.43331">
        <ele>127.3</ele>
        <time>2015-03-02T20:30:15.023Z</time>
      </trkpt>
      <trkpt lat="48.82171" lon="2.43327">
        <ele>127.1</ele>
        <time>2015-03-02T20:30:16.043Z</time>
      </trkpt>
      <trkpt lat="48.82176" lon="2.43323">
        <ele>127.1</ele>
        <time>2015-03-02T20:30:16.933Z</time>
      </trkpt>
      <trkpt lat="48.8218" lon="2.43319">
        <ele>127.1</ele>
        <time>2015-03-02T20:30:17.929Z</time>
      </trkpt>
      <trkpt lat="48.82185" lon="2.43315">
        <ele>127.1</ele>
        <time>2015-03-02T20:30:18.938Z</time>
      </trkpt>
      <trkpt lat="48.82189" lon="2.4331">
        <ele>127.3</ele>
        <time>2015-03-02T20:30:19.945Z</time>
      </trkpt>
      <trkpt lat="48.82193" lon="2.43304">
        <ele>127.1</ele>
        <time>2015-03-02T20:30:20.999Z</time>
      </trkpt>
      <trkpt lat="48.82197" lon="2.43297">
        <ele>127.3</ele>
        <time>2015-03-02T20:30:22.007Z</time>
      </trkpt>
      <trkpt lat="48.82201" lon="2.4329">
        <ele>127.4</ele>
        <time>2015-03-02T20:30:23.013Z</time>
      </trkpt>
      <trkpt lat="48.82205" lon="2.43282">
        <ele>127.4</ele>
        <time>2015-03-02T20:30:24.014Z</time>
      </trkpt>
      <trkpt lat="48.82208" lon="2.43273">
        <ele>127.5</ele>
        <time>2015-03-02T20:30:25.028Z</time>
      </trkpt>
      <trkpt lat="48.82211" lon="2.43264">
        <ele>127.5</ele>
        <time>2015-03-02T20:30:25.941Z</time>
      </trkpt>
      <trkpt lat="48.82215" lon="2.43256">
        <ele>127.6</ele>
        <time>2015-03-02T20:30:27.077Z</time>
      </trkpt>
      <trkpt lat="48.82219" lon="2.43249">
        <ele>127.8</ele>
        <time>2015-03-02T20:30:27.932Z</time>
      </trkpt>
      <trkpt lat="48.82223" lon="2.43243">
        <ele>127.9</ele>
        <time>2015-03-02T20:30:28.937Z</time>
      </trkpt>
      <trkpt lat="48.82227" lon="2.43235">
        <ele>127.8</ele>
        <time>2015-03-02T20:30:29.947Z</time>
      </trkpt>
      <trkpt lat="48.8223" lon="2.43229">
        <ele>127.7</ele>
        <time>2015-03-02T20:30:30.952Z</time>
      </trkpt>
      <trkpt lat="48.82234" lon="2.43222">
        <ele>127.7</ele>
        <time>2015-03-02T20:30:31.969Z</time>
      </trkpt>
      <trkpt lat="48.82239" lon="2.43215">
        <ele>127.7</ele>
        <time>2015-03-02T20:30:33.669Z</time>
      </trkpt>
      <trkpt lat="48.82243" lon="2.43208">
        <ele>127.6</ele>
        <time>2015-03-02T20:30:34.012Z</time>
      </trkpt>
      <trkpt lat="48.82247" lon="2.43202">
        <ele>127.7</ele>
        <time>2015-03-02T20:30:34.932Z</time>
      </trkpt>
      <trkpt lat="48.82251" lon="2.43195">
        <ele>127.9</ele>
        <time>2015-03-02T20:30:35.932Z</time>
      </trkpt>
      <trkpt lat="48.82254" lon="2.43187">
        <ele>128.1</ele>
        <time>2015-03-02T20:30:36.934Z</time>
      </trkpt>
      <trkpt lat="48.82257" lon="2.4318">
        <ele>128.4</ele>
        <time>2015-03-02T20:30:37.944Z</time>
      </trkpt>
      <trkpt lat="48.82261" lon="2.43172">
        <ele>128.5</ele>
        <time>2015-03-02T20:30:38.969Z</time>
      </trkpt>
      <trkpt lat="48.82264" lon="2.43166">
        <ele>128.7</ele>
        <time>2015-03-02T20:30:39.979Z</time>
      </trkpt>
      <trkpt lat="48.82268" lon="2.43159">
        <ele>129</ele>
        <time>2015-03-02T20:30:40.982Z</time>
      </trkpt>
      <trkpt lat="48.82271" lon="2.43153">
        <ele>129.2</ele>
        <time>2015-03-02T20:30:41.992Z</time>
      </trkpt>
      <trkpt lat="48.82275" lon="2.43146">
        <ele>129.2</ele>
        <time>2015-03-02T20:30:43.002Z</time>
      </trkpt>
      <trkpt lat="48.82279" lon="2.43139">
        <ele>129.3</ele>
        <time>2015-03-02T20:30:43.933Z</time>
      </trkpt>
      <trkpt lat="48.82283" lon="2.43131">
        <ele>129.4</ele>
        <time>2015-03-02T20:30:44.971Z</time>
      </trkpt>
      <trkpt lat="48.82286" lon="2.43124">
        <ele>129.5</ele>
        <time>2015-03-02T20:30:45.998Z</time>
      </trkpt>
      <trkpt lat="48.8229" lon="2.43117">
        <ele>129.4</ele>
        <time>2015-03-02T20:30:46.997Z</time>
      </trkpt>
      <trkpt lat="48.82293" lon="2.4311">
        <ele>129.5</ele>
        <time>2015-03-02T20:30:48.007Z</time>
      </trkpt>
      <trkpt lat="48.82297" lon="2.43102">
        <ele>129.5</ele>
        <time>2015-03-02T20:30:49.017Z</time>
      </trkpt>
      <trkpt lat="48.82301" lon="2.43096">
        <ele>129.6</ele>
        <time>2015-03-02T20:30:50.023Z</time>
      </trkpt>
      <trkpt lat="48.82305" lon="2.43089">
        <ele>129.6</ele>
        <time>2015-03-02T20:30:51.033Z</time>
      </trkpt>
      <trkpt lat="48.82308" lon="2.43082">
        <ele>129.6</ele>
        <time>2015-03-02T20:30:51.923Z</time>
      </trkpt>
      <trkpt lat="48.82311" lon="2.43074">
        <ele>129.8</ele>
        <time>2015-03-02T20:30:52.940Z</time>
      </trkpt>
      <trkpt lat="48.82314" lon="2.43066">
        <ele>129.9</ele>
        <time>2015-03-02T20:30:54.035Z</time>
      </trkpt>
      <trkpt lat="48.82317" lon="2.43058">
        <ele>129.9</ele>
        <time>2015-03-02T20:30:55.008Z</time>
      </trkpt>
      <trkpt lat="48.8232" lon="2.4305">
        <ele>130</ele>
        <time>2015-03-02T20:30:56.030Z</time>
      </trkpt>
      <trkpt lat="48.82323" lon="2.43042">
        <ele>129.8</ele>
        <time>2015-03-02T20:30:57.035Z</time>
      </trkpt>
      <trkpt lat="48.82325" lon="2.43036">
        <ele>129.8</ele>
        <time>2015-03-02T20:30:57.897Z</time>
      </trkpt>
      <trkpt lat="48.82328" lon="2.43029">
        <ele>129.9</ele>
        <time>2015-03-02T20:30:58.921Z</time>
      </trkpt>
      <trkpt lat="48.8233" lon="2.43021">
        <ele>129.8</ele>
        <time>2015-03-02T20:30:59.923Z</time>
      </trkpt>
      <trkpt lat="48.82333" lon="2.43014">
        <ele>129.8</ele>
        <time>2015-03-02T20:31:00.935Z</time>
      </trkpt>
      <trkpt lat="48.82336" lon="2.43003">
        <ele>129.9</ele>
        <time>2015-03-02T20:31:01.947Z</time>
      </trkpt>
      <trkpt lat="48.82338" lon="2.42997">
        <ele>129.8</ele>
        <time>2015-03-02T20:31:02.958Z</time>
      </trkpt>
      <trkpt lat="48.8234" lon="2.4299">
        <ele>129.6</ele>
        <time>2015-03-02T20:31:03.980Z</time>
      </trkpt>
      <trkpt lat="48.82343" lon="2.42985">
        <ele>129.5</ele>
        <time>2015-03-02T20:31:04.994Z</time>
      </trkpt>
      <trkpt lat="48.82346" lon="2.42979">
        <ele>129.6</ele>
        <time>2015-03-02T20:31:05.999Z</time>
      </trkpt>
      <trkpt lat="48.82348" lon="2.42973">
        <ele>129.5</ele>
        <time>2015-03-02T20:31:06.898Z</time>
      </trkpt>
      <trkpt lat="48.8235" lon="2.42966">
        <ele>129.3</ele>
        <time>2015-03-02T20:31:07.928Z</time>
      </trkpt>
      <trkpt lat="48.82352" lon="2.42959">
        <ele>129.2</ele>
        <time>2015-03-02T20:31:08.964Z</time>
      </trkpt>
      <trkpt lat="48.82355" lon="2.42951">
        <ele>129.1</ele>
        <time>2015-03-02T20:31:09.961Z</time>
      </trkpt>
      <trkpt lat="48.82357" lon="2.42944">
        <ele>129.1</ele>
        <time>2015-03-02T20:31:11.850Z</time>
      </trkpt>
      <trkpt lat="48.82359" lon="2.42935">
        <ele>129.2</ele>
        <time>2015-03-02T20:31:11.968Z</time>
      </trkpt>
      <trkpt lat="48.82361" lon="2.42926">
        <ele>129.1</ele>
        <time>2015-03-02T20:31:12.989Z</time>
      </trkpt>
      <trkpt lat="48.82363" lon="2.42919">
        <ele>129.3</ele>
        <time>2015-03-02T20:31:14.002Z</time>
      </trkpt>
      <trkpt lat="48.82365" lon="2.42912">
        <ele>129.3</ele>
        <time>2015-03-02T20:31:15.012Z</time>
      </trkpt>
      <trkpt lat="48.82367" lon="2.42904">
        <ele>129.3</ele>
        <time>2015-03-02T20:31:15.922Z</time>
      </trkpt>
      <trkpt lat="48.82369" lon="2.42895">
        <ele>129.3</ele>
        <time>2015-03-02T20:31:16.932Z</time>
      </trkpt>
      <trkpt lat="48.82371" lon="2.42886">
        <ele>129.3</ele>
        <time>2015-03-02T20:31:17.942Z</time>
      </trkpt>
      <trkpt lat="48.82373" lon="2.42877">
        <ele>129.4</ele>
        <time>2015-03-02T20:31:18.960Z</time>
      </trkpt>
      <trkpt lat="48.82375" lon="2.42867">
        <ele>129.6</ele>
        <time>2015-03-02T20:31:19.974Z</time>
      </trkpt>
      <trkpt lat="48.82376" lon="2.42858">
        <ele>129.6</ele>
        <time>2015-03-02T20:31:20.977Z</time>
      </trkpt>
      <trkpt lat="48.82377" lon="2.42849">
        <ele>129.6</ele>
        <time>2015-03-02T20:31:21.989Z</time>
      </trkpt>
      <trkpt lat="48.82379" lon="2.42841">
        <ele>129.6</ele>
        <time>2015-03-02T20:31:22.899Z</time>
      </trkpt>
      <trkpt lat="48.8238" lon="2.42833">
        <ele>129.5</ele>
        <time>2015-03-02T20:31:23.920Z</time>
      </trkpt>
      <trkpt lat="48.82382" lon="2.42825">
        <ele>129.4</ele>
        <time>2015-03-02T20:31:24.944Z</time>
      </trkpt>
      <trkpt lat="48.82384" lon="2.42817">
        <ele>129.2</ele>
        <time>2015-03-02T20:31:25.958Z</time>
      </trkpt>
      <trkpt lat="48.82386" lon="2.4281">
        <ele>129</ele>
        <time>2015-03-02T20:31:26.983Z</time>
      </trkpt>
      <trkpt lat="48.82387" lon="2.42803">
        <ele>128.9</ele>
        <time>2015-03-02T20:31:27.990Z</time>
      </trkpt>
      <trkpt lat="48.82389" lon="2.42795">
        <ele>128.6</ele>
        <time>2015-03-02T20:31:28.997Z</time>
      </trkpt>
      <trkpt lat="48.8239" lon="2.42787">
        <ele>128.5</ele>
        <time>2015-03-02T20:31:30.001Z</time>
      </trkpt>
      <trkpt lat="48.82391" lon="2.42779">
        <ele>128.2</ele>
        <time>2015-03-02T20:31:31.011Z</time>
      </trkpt>
      <trkpt lat="48.82393" lon="2.42772">
        <ele>128</ele>
        <time>2015-03-02T20:31:32.016Z</time>
      </trkpt>
      <trkpt lat="48.82394" lon="2.42764">
        <ele>127.8</ele>
        <time>2015-03-02T20:31:33.036Z</time>
      </trkpt>
      <trkpt lat="48.82395" lon="2.42756">
        <ele>127.5</ele>
        <time>2015-03-02T20:31:33.921Z</time>
      </trkpt>
      <trkpt lat="48.82396" lon="2.42749">
        <ele>127.2</ele>
        <time>2015-03-02T20:31:34.933Z</time>
      </trkpt>
      <trkpt lat="48.82397" lon="2.42741">
        <ele>127.1</ele>
        <time>2015-03-02T20:31:35.948Z</time>
      </trkpt>
      <trkpt lat="48.82399" lon="2.42733">
        <ele>126.8</ele>
        <time>2015-03-02T20:31:36.956Z</time>
      </trkpt>
      <trkpt lat="48.824" lon="2.42724">
        <ele>126.5</ele>
        <time>2015-03-02T20:31:37.961Z</time>
      </trkpt>
      <trkpt lat="48.82401" lon="2.42716">
        <ele>126.2</ele>
        <time>2015-03-02T20:31:38.971Z</time>
      </trkpt>
      <trkpt lat="48.82403" lon="2.42707">
        <ele>126.2</ele>
        <time>2015-03-02T20:31:39.990Z</time>
      </trkpt>
      <trkpt lat="48.82404" lon="2.42698">
        <ele>126</ele>
        <time>2015-03-02T20:31:41.633Z</time>
      </trkpt>
      <trkpt lat="48.82405" lon="2.4269">
        <ele>125.9</ele>
        <time>2015-03-02T20:31:41.924Z</time>
      </trkpt>
      <trkpt lat="48.82405" lon="2.4268">
        <ele>125.7</ele>
        <time>2015-03-02T20:31:42.943Z</time>
      </trkpt>
      <trkpt lat="48.82406" lon="2.42671">
        <ele>125.7</ele>
        <time>2015-03-02T20:31:43.954Z</time>
      </trkpt>
      <trkpt lat="48.82406" lon="2.42657">
        <ele>125.6</ele>
        <time>2015-03-02T20:31:44.964Z</time>
      </trkpt>
      <trkpt lat="48.82407" lon="2.42648">
        <ele>125.5</ele>
        <time>2015-03-02T20:31:45.976Z</time>
      </trkpt>
      <trkpt lat="48.82408" lon="2.42639">
        <ele>125.4</ele>
        <time>2015-03-02T20:31:46.985Z</time>
      </trkpt>
      <trkpt lat="48.82409" lon="2.42629">
        <ele>125.3</ele>
        <time>2015-03-02T20:31:47.928Z</time>
      </trkpt>
      <trkpt lat="48.8241" lon="2.4262">
        <ele>125.2</ele>
        <time>2015-03-02T20:31:48.921Z</time>
      </trkpt>
      <trkpt lat="48.8241" lon="2.42611">
        <ele>125.2</ele>
        <time>2015-03-02T20:31:49.937Z</time>
      </trkpt>
      <trkpt lat="48.8241" lon="2.42602">
        <ele>124.9</ele>
        <time>2015-03-02T20:31:50.971Z</time>
      </trkpt>
      <trkpt lat="48.82411" lon="2.42592">
        <ele>124.8</ele>
        <time>2015-03-02T20:31:51.932Z</time>
      </trkpt>
      <trkpt lat="48.82411" lon="2.42583">
        <ele>124.7</ele>
        <time>2015-03-02T20:31:52.934Z</time>
      </trkpt>
      <trkpt lat="48.82412" lon="2.42573">
        <ele>124.6</ele>
        <time>2015-03-02T20:31:53.947Z</time>
      </trkpt>
      <trkpt lat="48.82413" lon="2.42563">
        <ele>124.6</ele>
        <time>2015-03-02T20:31:54.959Z</time>
      </trkpt>
      <trkpt lat="48.82413" lon="2.42553">
        <ele>124.4</ele>
        <time>2015-03-02T20:31:55.983Z</time>
      </trkpt>
      <trkpt lat="48.82414" lon="2.42544">
        <ele>124.4</ele>
        <time>2015-03-02T20:31:56.997Z</time>
      </trkpt>
      <trkpt lat="48.82413" lon="2.42534">
        <ele>124.3</ele>
        <time>2015-03-02T20:31:57.901Z</time>
      </trkpt>
      <trkpt lat="48.82413" lon="2.42525">
        <ele>124.3</ele>
        <time>2015-03-02T20:31:58.924Z</time>
      </trkpt>
      <trkpt lat="48.82414" lon="2.42515">
        <ele>124.3</ele>
        <time>2015-03-02T20:31:59.931Z</time>
      </trkpt>
      <trkpt lat="48.82414" lon="2.42506">
        <ele>124.4</ele>
        <time>2015-03-02T20:32:00.945Z</time>
      </trkpt>
      <trkpt lat="48.82413" lon="2.42497">
        <ele>124.4</ele>
        <time>2015-03-02T20:32:01.982Z</time>
      </trkpt>
      <trkpt lat="48.82414" lon="2.42488">
        <ele>124.3</ele>
        <time>2015-03-02T20:32:02.993Z</time>
      </trkpt>
      <trkpt lat="48.82414" lon="2.42479">
        <ele>124.2</ele>
        <time>2015-03-02T20:32:04.018Z</time>
      </trkpt>
      <trkpt lat="48.82414" lon="2.42471">
        <ele>124.4</ele>
        <time>2015-03-02T20:32:04.936Z</time>
      </trkpt>
      <trkpt lat="48.82414" lon="2.42463">
        <ele>124.2</ele>
        <time>2015-03-02T20:32:05.996Z</time>
      </trkpt>
      <trkpt lat="48.82415" lon="2.42453">
        <ele>123.4</ele>
        <time>2015-03-02T20:32:07.005Z</time>
      </trkpt>
      <trkpt lat="48.82415" lon="2.42445">
        <ele>123.3</ele>
        <time>2015-03-02T20:32:08.014Z</time>
      </trkpt>
      <trkpt lat="48.82415" lon="2.42434">
        <ele>122.7</ele>
        <time>2015-03-02T20:32:09.027Z</time>
      </trkpt>
      <trkpt lat="48.82416" lon="2.42421">
        <ele>122.8</ele>
        <time>2015-03-02T20:32:10.938Z</time>
      </trkpt>
      <trkpt lat="48.82417" lon="2.42415">
        <ele>122.5</ele>
        <time>2015-03-02T20:32:11.977Z</time>
      </trkpt>
      <trkpt lat="48.82417" lon="2.42408">
        <ele>122.5</ele>
        <time>2015-03-02T20:32:12.900Z</time>
      </trkpt>
      <trkpt lat="48.82417" lon="2.424">
        <ele>122.2</ele>
        <time>2015-03-02T20:32:13.900Z</time>
      </trkpt>
      <trkpt lat="48.82418" lon="2.42392">
        <ele>122.2</ele>
        <time>2015-03-02T20:32:14.937Z</time>
      </trkpt>
      <trkpt lat="48.82418" lon="2.42385">
        <ele>122.1</ele>
        <time>2015-03-02T20:32:15.929Z</time>
      </trkpt>
      <trkpt lat="48.82419" lon="2.42378">
        <ele>122.1</ele>
        <time>2015-03-02T20:32:16.975Z</time>
      </trkpt>
      <trkpt lat="48.82419" lon="2.42371">
        <ele>122.3</ele>
        <time>2015-03-02T20:32:17.935Z</time>
      </trkpt>
      <trkpt lat="48.82419" lon="2.42364">
        <ele>122.4</ele>
        <time>2015-03-02T20:32:18.919Z</time>
      </trkpt>
      <trkpt lat="48.82419" lon="2.42357">
        <ele>122.4</ele>
        <time>2015-03-02T20:32:19.925Z</time>
      </trkpt>
      <trkpt lat="48.82418" lon="2.42349">
        <ele>122</ele>
        <time>2015-03-02T20:32:20.954Z</time>
      </trkpt>
      <trkpt lat="48.82417" lon="2.42342">
        <ele>122</ele>
        <time>2015-03-02T20:32:21.959Z</time>
      </trkpt>
      <trkpt lat="48.82416" lon="2.42329">
        <ele>121.8</ele>
        <time>2015-03-02T20:32:23.983Z</time>
      </trkpt>
      <trkpt lat="48.82416" lon="2.42323">
        <ele>121.4</ele>
        <time>2015-03-02T20:32:24.991Z</time>
      </trkpt>
      <trkpt lat="48.82414" lon="2.42312">
        <ele>120.7</ele>
        <time>2015-03-02T20:32:27.025Z</time>
      </trkpt>
      <trkpt lat="48.82413" lon="2.42306">
        <ele>120.6</ele>
        <time>2015-03-02T20:32:27.921Z</time>
      </trkpt>
      <trkpt lat="48.82413" lon="2.42293">
        <ele>119.6</ele>
        <time>2015-03-02T20:32:29.943Z</time>
      </trkpt>
      <trkpt lat="48.82412" lon="2.42286">
        <ele>119.4</ele>
        <time>2015-03-02T20:32:30.986Z</time>
      </trkpt>
      <trkpt lat="48.82411" lon="2.42275">
        <ele>118.5</ele>
        <time>2015-03-02T20:32:33.002Z</time>
      </trkpt>
      <trkpt lat="48.82411" lon="2.42269">
        <ele>118.3</ele>
        <time>2015-03-02T20:32:34.001Z</time>
      </trkpt>
      <trkpt lat="48.8241" lon="2.42259">
        <ele>118.2</ele>
        <time>2015-03-02T20:32:35.942Z</time>
      </trkpt>
      <trkpt lat="48.8241" lon="2.42255">
        <ele>117.7</ele>
        <time>2015-03-02T20:32:36.962Z</time>
      </trkpt>
      <trkpt lat="48.8241" lon="2.42245">
        <ele>116.9</ele>
        <time>2015-03-02T20:32:39.027Z</time>
      </trkpt>
      <trkpt lat="48.8241" lon="2.4224">
        <ele>116.4</ele>
        <time>2015-03-02T20:32:39.982Z</time>
      </trkpt>
      <trkpt lat="48.82409" lon="2.42231">
        <ele>115.6</ele>
        <time>2015-03-02T20:32:41.966Z</time>
      </trkpt>
      <trkpt lat="48.82409" lon="2.42225">
        <ele>115.6</ele>
        <time>2015-03-02T20:32:42.976Z</time>
      </trkpt>
      <trkpt lat="48.82408" lon="2.42214">
        <ele>115.4</ele>
        <time>2015-03-02T20:32:45.031Z</time>
      </trkpt>
      <trkpt lat="48.82408" lon="2.42207">
        <ele>115.5</ele>
        <time>2015-03-02T20:32:46.110Z</time>
      </trkpt>
      <trkpt lat="48.82408" lon="2.42196">
        <ele>114.7</ele>
        <time>2015-03-02T20:32:47.941Z</time>
      </trkpt>
      <trkpt lat="48.82408" lon="2.42191">
        <ele>114.6</ele>
        <time>2015-03-02T20:32:48.966Z</time>
      </trkpt>
      <trkpt lat="48.82407" lon="2.42181">
        <ele>114.3</ele>
        <time>2015-03-02T20:32:51.044Z</time>
      </trkpt>
      <trkpt lat="48.82406" lon="2.42176">
        <ele>114.4</ele>
        <time>2015-03-02T20:32:51.962Z</time>
      </trkpt>
      <trkpt lat="48.82406" lon="2.42164">
        <ele>114.3</ele>
        <time>2015-03-02T20:32:53.942Z</time>
      </trkpt>
      <trkpt lat="48.82406" lon="2.42159">
        <ele>114.4</ele>
        <time>2015-03-02T20:32:54.962Z</time>
      </trkpt>
      <trkpt lat="48.82407" lon="2.42149">
        <ele>114.3</ele>
        <time>2015-03-02T20:32:56.984Z</time>
      </trkpt>
      <trkpt lat="48.82406" lon="2.42143">
        <ele>114.1</ele>
        <time>2015-03-02T20:32:57.994Z</time>
      </trkpt>
      <trkpt lat="48.82404" lon="2.4213">
        <ele>113.6</ele>
        <time>2015-03-02T20:33:00.044Z</time>
      </trkpt>
      <trkpt lat="48.82404" lon="2.42124">
        <ele>113.5</ele>
        <time>2015-03-02T20:33:00.957Z</time>
      </trkpt>
      <trkpt lat="48.82403" lon="2.42114">
        <ele>113.1</ele>
        <time>2015-03-02T20:33:02.986Z</time>
      </trkpt>
      <trkpt lat="48.82402" lon="2.4211">
        <ele>113.1</ele>
        <time>2015-03-02T20:33:03.993Z</time>
      </trkpt>
      <trkpt lat="48.82401" lon="2.42101">
        <ele>113.2</ele>
        <time>2015-03-02T20:33:05.929Z</time>
      </trkpt>
      <trkpt lat="48.82401" lon="2.42095">
        <ele>113.2</ele>
        <time>2015-03-02T20:33:06.949Z</time>
      </trkpt>
      <trkpt lat="48.82402" lon="2.42086">
        <ele>112.9</ele>
        <time>2015-03-02T20:33:08.986Z</time>
      </trkpt>
      <trkpt lat="48.82403" lon="2.42081">
        <ele>112.8</ele>
        <time>2015-03-02T20:33:10.011Z</time>
      </trkpt>
      <trkpt lat="48.82403" lon="2.42071">
        <ele>112.7</ele>
        <time>2015-03-02T20:33:11.943Z</time>
      </trkpt>
      <trkpt lat="48.82402" lon="2.42067">
        <ele>112.2</ele>
        <time>2015-03-02T20:33:12.979Z</time>
      </trkpt>
      <trkpt lat="48.82402" lon="2.42057">
        <ele>111.5</ele>
        <time>2015-03-02T20:33:14.952Z</time>
      </trkpt>
      <trkpt lat="48.82402" lon="2.42053">
        <ele>111.3</ele>
        <time>2015-03-02T20:33:15.988Z</time>
      </trkpt>
      <trkpt lat="48.82404" lon="2.42044">
        <ele>111.3</ele>
        <time>2015-03-02T20:33:18.005Z</time>
      </trkpt>
      <trkpt lat="48.82405" lon="2.42039">
        <ele>111.3</ele>
        <time>2015-03-02T20:33:19.034Z</time>
      </trkpt>
      <trkpt lat="48.82405" lon="2.42029">
        <ele>111.4</ele>
        <time>2015-03-02T20:33:21.979Z</time>
      </trkpt>
      <trkpt lat="48.82406" lon="2.42026">
        <ele>111.5</ele>
        <time>2015-03-02T20:33:23.088Z</time>
      </trkpt>
      <trkpt lat="48.82405" lon="2.42015">
        <ele>112.4</ele>
        <time>2015-03-02T20:34:18.949Z</time>
      </trkpt>
      <trkpt lat="48.82407" lon="2.42006">
        <ele>116.9</ele>
        <time>2015-03-02T20:34:19.985Z</time>
      </trkpt>
      <trkpt lat="48.82408" lon="2.42006">
        <ele>116.7</ele>
        <time>2015-03-02T20:34:21.028Z</time>
      </trkpt>
      <trkpt lat="48.82408" lon="2.42005">
        <ele>116.6</ele>
        <time>2015-03-02T20:34:21.924Z</time>
      </trkpt>
      <trkpt lat="48.82408" lon="2.42005">
        <ele>116.5</ele>
        <time>2015-03-02T20:34:22.927Z</time>
      </trkpt>
      <trkpt lat="48.82408" lon="2.42004">
        <ele>116.1</ele>
        <time>2015-03-02T20:34:24.946Z</time>
      </trkpt>
      <trkpt lat="48.82408" lon="2.42004">
        <ele>116.1</ele>
        <time>2015-03-02T20:34:25.968Z</time>
      </trkpt>
      <trkpt lat="48.82408" lon="2.42004">
        <ele>115.9</ele>
        <time>2015-03-02T20:35:13.000Z</time>
      </trkpt>
      <trkpt lat="48.8241" lon="2.42009">
        <ele>112</ele>
        <time>2015-03-02T20:35:13.935Z</time>
      </trkpt>
      <trkpt lat="48.82411" lon="2.42008">
        <ele>111.7</ele>
        <time>2015-03-02T20:35:14.934Z</time>
      </trkpt>
      <trkpt lat="48.82411" lon="2.42008">
        <ele>111.6</ele>
        <time>2015-03-02T20:35:15.956Z</time>
      </trkpt>
      <trkpt lat="48.82411" lon="2.42008">
        <ele>111.3</ele>
        <time>2015-03-02T20:37:06.978Z</time>
      </trkpt>
      <trkpt lat="48.82412" lon="2.42007">
        <ele>109.2</ele>
        <time>2015-03-02T20:37:07.939Z</time>
      </trkpt>
      <trkpt lat="48.8242" lon="2.42002">
        <ele>109.2</ele>
        <time>2015-03-02T20:37:15.036Z</time>
      </trkpt>
      <trkpt lat="48.82421" lon="2.42002">
        <ele>109.2</ele>
        <time>2015-03-02T20:37:16.002Z</time>
      </trkpt>
      <trkpt lat="48.82429" lon="2.42">
        <ele>109.5</ele>
        <time>2015-03-02T20:37:19.979Z</time>
      </trkpt>
      <trkpt lat="48.82431" lon="2.42">
        <ele>109.5</ele>
        <time>2015-03-02T20:37:21.068Z</time>
      </trkpt>
      <trkpt lat="48.82438" lon="2.42">
        <ele>109.2</ele>
        <time>2015-03-02T20:37:23.965Z</time>
      </trkpt>
      <trkpt lat="48.82441" lon="2.42001">
        <ele>109</ele>
        <time>2015-03-02T20:37:24.997Z</time>
      </trkpt>
      <trkpt lat="48.82449" lon="2.42002">
        <ele>108.9</ele>
        <time>2015-03-02T20:37:27.951Z</time>
      </trkpt>
      <trkpt lat="48.82452" lon="2.42003">
        <ele>108.8</ele>
        <time>2015-03-02T20:37:28.987Z</time>
      </trkpt>
      <trkpt lat="48.82459" lon="2.42004">
        <ele>108.6</ele>
        <time>2015-03-02T20:37:30.991Z</time>
      </trkpt>
      <trkpt lat="48.82462" lon="2.42004">
        <ele>108.7</ele>
        <time>2015-03-02T20:37:32.011Z</time>
      </trkpt>
      <trkpt lat="48.8247" lon="2.42004">
        <ele>108.2</ele>
        <time>2015-03-02T20:37:34.992Z</time>
      </trkpt>
      <trkpt lat="48.82474" lon="2.42004">
        <ele>108</ele>
        <time>2015-03-02T20:37:36.029Z</time>
      </trkpt>
      <trkpt lat="48.8248" lon="2.42004">
        <ele>107.7</ele>
        <time>2015-03-02T20:37:37.944Z</time>
      </trkpt>
      <trkpt lat="48.82484" lon="2.42004">
        <ele>107.6</ele>
        <time>2015-03-02T20:37:39.076Z</time>
      </trkpt>
      <trkpt lat="48.82491" lon="2.42005">
        <ele>107.7</ele>
        <time>2015-03-02T20:37:40.990Z</time>
      </trkpt>
      <trkpt lat="48.82495" lon="2.42006">
        <ele>107.6</ele>
        <time>2015-03-02T20:37:42.049Z</time>
      </trkpt>
      <trkpt lat="48.82499" lon="2.42006">
        <ele>107.4</ele>
        <time>2015-03-02T20:37:42.946Z</time>
      </trkpt>
      <trkpt lat="48.82504" lon="2.42006">
        <ele>107.4</ele>
        <time>2015-03-02T20:37:43.944Z</time>
      </trkpt>
      <trkpt lat="48.82511" lon="2.42004">
        <ele>107.5</ele>
        <time>2015-03-02T20:37:46.020Z</time>
      </trkpt>
      <trkpt lat="48.82514" lon="2.42004">
        <ele>107.3</ele>
        <time>2015-03-02T20:37:47.026Z</time>
      </trkpt>
      <trkpt lat="48.8252" lon="2.42003">
        <ele>107.1</ele>
        <time>2015-03-02T20:37:48.942Z</time>
      </trkpt>
      <trkpt lat="48.82524" lon="2.42003">
        <ele>106.9</ele>
        <time>2015-03-02T20:37:49.942Z</time>
      </trkpt>
      <trkpt lat="48.82532" lon="2.42002">
        <ele>106.7</ele>
        <time>2015-03-02T20:37:51.978Z</time>
      </trkpt>
      <trkpt lat="48.82537" lon="2.42002">
        <ele>106.6</ele>
        <time>2015-03-02T20:37:52.989Z</time>
      </trkpt>
      <trkpt lat="48.82542" lon="2.42002">
        <ele>106.7</ele>
        <time>2015-03-02T20:37:53.933Z</time>
      </trkpt>
      <trkpt lat="48.82547" lon="2.42003">
        <ele>106.9</ele>
        <time>2015-03-02T20:37:54.940Z</time>
      </trkpt>
      <trkpt lat="48.82553" lon="2.42003">
        <ele>106.5</ele>
        <time>2015-03-02T20:37:55.953Z</time>
      </trkpt>
      <trkpt lat="48.82558" lon="2.42003">
        <ele>106.3</ele>
        <time>2015-03-02T20:37:56.962Z</time>
      </trkpt>
      <trkpt lat="48.82566" lon="2.42002">
        <ele>106.1</ele>
        <time>2015-03-02T20:37:59.002Z</time>
      </trkpt>
      <trkpt lat="48.82571" lon="2.42">
        <ele>106</ele>
        <time>2015-03-02T20:37:59.906Z</time>
      </trkpt>
      <trkpt lat="48.82575" lon="2.41999">
        <ele>105.9</ele>
        <time>2015-03-02T20:38:00.903Z</time>
      </trkpt>
      <trkpt lat="48.82581" lon="2.41998">
        <ele>106.1</ele>
        <time>2015-03-02T20:38:01.904Z</time>
      </trkpt>
      <trkpt lat="48.82587" lon="2.41998">
        <ele>106.6</ele>
        <time>2015-03-02T20:38:02.969Z</time>
      </trkpt>
      <trkpt lat="48.82593" lon="2.41997">
        <ele>106.5</ele>
        <time>2015-03-02T20:38:03.975Z</time>
      </trkpt>
      <trkpt lat="48.82598" lon="2.41996">
        <ele>106.2</ele>
        <time>2015-03-02T20:38:04.984Z</time>
      </trkpt>
      <trkpt lat="48.82602" lon="2.41995">
        <ele>106</ele>
        <time>2015-03-02T20:38:05.997Z</time>
      </trkpt>
      <trkpt lat="48.82607" lon="2.41994">
        <ele>106</ele>
        <time>2015-03-02T20:38:06.908Z</time>
      </trkpt>
      <trkpt lat="48.82612" lon="2.41993">
        <ele>105.9</ele>
        <time>2015-03-02T20:38:07.933Z</time>
      </trkpt>
      <trkpt lat="48.82617" lon="2.41992">
        <ele>105.8</ele>
        <time>2015-03-02T20:38:08.976Z</time>
      </trkpt>
      <trkpt lat="48.82622" lon="2.41992">
        <ele>105.7</ele>
        <time>2015-03-02T20:38:09.988Z</time>
      </trkpt>
      <trkpt lat="48.82626" lon="2.41991">
        <ele>105.8</ele>
        <time>2015-03-02T20:38:11.021Z</time>
      </trkpt>
      <trkpt lat="48.82632" lon="2.4199">
        <ele>106</ele>
        <time>2015-03-02T20:38:11.928Z</time>
      </trkpt>
      <trkpt lat="48.82636" lon="2.41989">
        <ele>106.1</ele>
        <time>2015-03-02T20:38:12.928Z</time>
      </trkpt>
      <trkpt lat="48.82641" lon="2.41988">
        <ele>106.3</ele>
        <time>2015-03-02T20:38:13.934Z</time>
      </trkpt>
      <trkpt lat="48.82646" lon="2.41986">
        <ele>106.3</ele>
        <time>2015-03-02T20:38:14.984Z</time>
      </trkpt>
      <trkpt lat="48.8265" lon="2.41986">
        <ele>106.2</ele>
        <time>2015-03-02T20:38:15.985Z</time>
      </trkpt>
      <trkpt lat="48.82655" lon="2.41985">
        <ele>106.3</ele>
        <time>2015-03-02T20:38:16.925Z</time>
      </trkpt>
      <trkpt lat="48.8266" lon="2.41984">
        <ele>106.2</ele>
        <time>2015-03-02T20:38:17.923Z</time>
      </trkpt>
      <trkpt lat="48.82664" lon="2.41983">
        <ele>106.2</ele>
        <time>2015-03-02T20:38:18.926Z</time>
      </trkpt>
      <trkpt lat="48.82669" lon="2.41983">
        <ele>106.4</ele>
        <time>2015-03-02T20:38:19.932Z</time>
      </trkpt>
      <trkpt lat="48.82674" lon="2.41982">
        <ele>106.4</ele>
        <time>2015-03-02T20:38:20.962Z</time>
      </trkpt>
      <trkpt lat="48.82679" lon="2.41981">
        <ele>106.3</ele>
        <time>2015-03-02T20:38:21.963Z</time>
      </trkpt>
      <trkpt lat="48.82683" lon="2.41979">
        <ele>106.4</ele>
        <time>2015-03-02T20:38:22.994Z</time>
      </trkpt>
      <trkpt lat="48.82688" lon="2.41978">
        <ele>106.3</ele>
        <time>2015-03-02T20:38:24.003Z</time>
      </trkpt>
      <trkpt lat="48.82696" lon="2.41973">
        <ele>106.4</ele>
        <time>2015-03-02T20:38:26.021Z</time>
      </trkpt>
      <trkpt lat="48.827" lon="2.41971">
        <ele>106.4</ele>
        <time>2015-03-02T20:38:26.947Z</time>
      </trkpt>
      <trkpt lat="48.82705" lon="2.4197">
        <ele>106.3</ele>
        <time>2015-03-02T20:38:27.962Z</time>
      </trkpt>
      <trkpt lat="48.8271" lon="2.41969">
        <ele>106.3</ele>
        <time>2015-03-02T20:38:28.970Z</time>
      </trkpt>
      <trkpt lat="48.82715" lon="2.41968">
        <ele>106.2</ele>
        <time>2015-03-02T20:38:29.999Z</time>
      </trkpt>
      <trkpt lat="48.8272" lon="2.41966">
        <ele>106.3</ele>
        <time>2015-03-02T20:38:31.014Z</time>
      </trkpt>
      <trkpt lat="48.82729" lon="2.41962">
        <ele>106.9</ele>
        <time>2015-03-02T20:38:32.973Z</time>
      </trkpt>
      <trkpt lat="48.82733" lon="2.4196">
        <ele>107.3</ele>
        <time>2015-03-02T20:38:34.030Z</time>
      </trkpt>
      <trkpt lat="48.82741" lon="2.41958">
        <ele>107.5</ele>
        <time>2015-03-02T20:38:35.929Z</time>
      </trkpt>
      <trkpt lat="48.82745" lon="2.41957">
        <ele>107.7</ele>
        <time>2015-03-02T20:38:36.955Z</time>
      </trkpt>
      <trkpt lat="48.82752" lon="2.41955">
        <ele>107.8</ele>
        <time>2015-03-02T20:38:38.982Z</time>
      </trkpt>
      <trkpt lat="48.82757" lon="2.41953">
        <ele>107.6</ele>
        <time>2015-03-02T20:38:39.990Z</time>
      </trkpt>
      <trkpt lat="48.82761" lon="2.41952">
        <ele>107.4</ele>
        <time>2015-03-02T20:38:40.920Z</time>
      </trkpt>
      <trkpt lat="48.82766" lon="2.41951">
        <ele>107.2</ele>
        <time>2015-03-02T20:38:41.931Z</time>
      </trkpt>
      <trkpt lat="48.82771" lon="2.4195">
        <ele>107.1</ele>
        <time>2015-03-02T20:38:42.938Z</time>
      </trkpt>
      <trkpt lat="48.82775" lon="2.41949">
        <ele>107</ele>
        <time>2015-03-02T20:38:43.945Z</time>
      </trkpt>
      <trkpt lat="48.82783" lon="2.41949">
        <ele>106.7</ele>
        <time>2015-03-02T20:38:45.981Z</time>
      </trkpt>
      <trkpt lat="48.82788" lon="2.41948">
        <ele>107</ele>
        <time>2015-03-02T20:38:46.996Z</time>
      </trkpt>
      <trkpt lat="48.82796" lon="2.41947">
        <ele>106.8</ele>
        <time>2015-03-02T20:38:48.927Z</time>
      </trkpt>
      <trkpt lat="48.828" lon="2.41947">
        <ele>106.7</ele>
        <time>2015-03-02T20:38:49.955Z</time>
      </trkpt>
      <trkpt lat="48.82807" lon="2.41949">
        <ele>106.5</ele>
        <time>2015-03-02T20:38:51.950Z</time>
      </trkpt>
      <trkpt lat="48.8281" lon="2.4195">
        <ele>106.6</ele>
        <time>2015-03-02T20:38:52.964Z</time>
      </trkpt>
      <trkpt lat="48.82817" lon="2.41953">
        <ele>106.6</ele>
        <time>2015-03-02T20:38:54.918Z</time>
      </trkpt>
      <trkpt lat="48.8282" lon="2.41954">
        <ele>106.7</ele>
        <time>2015-03-02T20:38:55.938Z</time>
      </trkpt>
      <trkpt lat="48.82828" lon="2.41956">
        <ele>106.8</ele>
        <time>2015-03-02T20:38:59.013Z</time>
      </trkpt>
      <trkpt lat="48.8283" lon="2.41956">
        <ele>106.9</ele>
        <time>2015-03-02T20:39:00.148Z</time>
      </trkpt>
      <trkpt lat="48.82838" lon="2.4196">
        <ele>106.9</ele>
        <time>2015-03-02T20:39:02.968Z</time>
      </trkpt>
      <trkpt lat="48.82841" lon="2.41962">
        <ele>106.8</ele>
        <time>2015-03-02T20:39:04.005Z</time>
      </trkpt>
      <trkpt lat="48.82849" lon="2.41967">
        <ele>105.9</ele>
        <time>2015-03-02T20:39:06.945Z</time>
      </trkpt>
      <trkpt lat="48.82852" lon="2.41968">
        <ele>105.4</ele>
        <time>2015-03-02T20:39:07.960Z</time>
      </trkpt>
      <trkpt lat="48.82859" lon="2.41972">
        <ele>104.6</ele>
        <time>2015-03-02T20:39:09.986Z</time>
      </trkpt>
      <trkpt lat="48.82862" lon="2.41974">
        <ele>104.4</ele>
        <time>2015-03-02T20:39:10.993Z</time>
      </trkpt>
      <trkpt lat="48.8287" lon="2.41977">
        <ele>104.1</ele>
        <time>2015-03-02T20:39:12.922Z</time>
      </trkpt>
      <trkpt lat="48.82874" lon="2.41978">
        <ele>103.9</ele>
        <time>2015-03-02T20:39:13.940Z</time>
      </trkpt>
      <trkpt lat="48.82881" lon="2.41981">
        <ele>103.7</ele>
        <time>2015-03-02T20:39:15.972Z</time>
      </trkpt>
      <trkpt lat="48.82884" lon="2.41983">
        <ele>103.7</ele>
        <time>2015-03-02T20:39:16.983Z</time>
      </trkpt>
      <trkpt lat="48.82891" lon="2.41987">
        <ele>103.2</ele>
        <time>2015-03-02T20:39:18.921Z</time>
      </trkpt>
      <trkpt lat="48.82894" lon="2.41988">
        <ele>103</ele>
        <time>2015-03-02T20:39:19.933Z</time>
      </trkpt>
      <trkpt lat="48.82901" lon="2.41992">
        <ele>103</ele>
        <time>2015-03-02T20:39:21.961Z</time>
      </trkpt>
      <trkpt lat="48.82904" lon="2.41994">
        <ele>103</ele>
        <time>2015-03-02T20:39:22.970Z</time>
      </trkpt>
      <trkpt lat="48.82911" lon="2.41998">
        <ele>102.8</ele>
        <time>2015-03-02T20:39:25.051Z</time>
      </trkpt>
      <trkpt lat="48.82915" lon="2.41999">
        <ele>102.6</ele>
        <time>2015-03-02T20:39:25.934Z</time>
      </trkpt>
      <trkpt lat="48.82922" lon="2.42004">
        <ele>101.7</ele>
        <time>2015-03-02T20:39:27.973Z</time>
      </trkpt>
      <trkpt lat="48.82926" lon="2.42006">
        <ele>101.8</ele>
        <time>2015-03-02T20:39:28.987Z</time>
      </trkpt>
      <trkpt lat="48.82935" lon="2.42008">
        <ele>101.7</ele>
        <time>2015-03-02T20:39:30.894Z</time>
      </trkpt>
      <trkpt lat="48.82938" lon="2.42011">
        <ele>101.4</ele>
        <time>2015-03-02T20:39:31.933Z</time>
      </trkpt>
      <trkpt lat="48.82943" lon="2.42013">
        <ele>101.1</ele>
        <time>2015-03-02T20:39:32.976Z</time>
      </trkpt>
      <trkpt lat="48.82947" lon="2.42015">
        <ele>101.1</ele>
        <time>2015-03-02T20:39:33.988Z</time>
      </trkpt>
      <trkpt lat="48.82955" lon="2.42019">
        <ele>100.7</ele>
        <time>2015-03-02T20:39:35.901Z</time>
      </trkpt>
      <trkpt lat="48.82959" lon="2.42022">
        <ele>100.5</ele>
        <time>2015-03-02T20:39:36.931Z</time>
      </trkpt>
      <trkpt lat="48.82967" lon="2.42027">
        <ele>100.3</ele>
        <time>2015-03-02T20:39:38.955Z</time>
      </trkpt>
      <trkpt lat="48.82971" lon="2.4203">
        <ele>100.3</ele>
        <time>2015-03-02T20:39:39.976Z</time>
      </trkpt>
      <trkpt lat="48.82978" lon="2.42034">
        <ele>100.3</ele>
        <time>2015-03-02T20:39:42.007Z</time>
      </trkpt>
      <trkpt lat="48.82982" lon="2.42035">
        <ele>100.3</ele>
        <time>2015-03-02T20:39:42.908Z</time>
      </trkpt>
      <trkpt lat="48.82989" lon="2.42039">
        <ele>100.5</ele>
        <time>2015-03-02T20:39:44.955Z</time>
      </trkpt>
      <trkpt lat="48.82993" lon="2.42041">
        <ele>100.7</ele>
        <time>2015-03-02T20:39:46.020Z</time>
      </trkpt>
      <trkpt lat="48.83002" lon="2.42044">
        <ele>100.6</ele>
        <time>2015-03-02T20:39:48.036Z</time>
      </trkpt>
      <trkpt lat="48.83006" lon="2.42046">
        <ele>100.5</ele>
        <time>2015-03-02T20:39:48.924Z</time>
      </trkpt>
      <trkpt lat="48.83014" lon="2.42049">
        <ele>100.5</ele>
        <time>2015-03-02T20:39:51.827Z</time>
      </trkpt>
      <trkpt lat="48.83019" lon="2.4205">
        <ele>100.5</ele>
        <time>2015-03-02T20:39:51.892Z</time>
      </trkpt>
      <trkpt lat="48.83026" lon="2.42052">
        <ele>100.5</ele>
        <time>2015-03-02T20:39:53.930Z</time>
      </trkpt>
      <trkpt lat="48.83032" lon="2.42053">
        <ele>101</ele>
        <time>2015-03-02T20:39:54.944Z</time>
      </trkpt>
      <trkpt lat="48.83037" lon="2.42054">
        <ele>101.3</ele>
        <time>2015-03-02T20:39:55.984Z</time>
      </trkpt>
      <trkpt lat="48.83041" lon="2.42056">
        <ele>101.5</ele>
        <time>2015-03-02T20:39:56.985Z</time>
      </trkpt>
      <trkpt lat="48.83046" lon="2.42056">
        <ele>101.9</ele>
        <time>2015-03-02T20:39:58.729Z</time>
      </trkpt>
      <trkpt lat="48.83051" lon="2.42057">
        <ele>102.1</ele>
        <time>2015-03-02T20:39:58.895Z</time>
      </trkpt>
      <trkpt lat="48.83056" lon="2.42058">
        <ele>102.2</ele>
        <time>2015-03-02T20:39:59.924Z</time>
      </trkpt>
      <trkpt lat="48.83061" lon="2.4206">
        <ele>102.5</ele>
        <time>2015-03-02T20:40:00.930Z</time>
      </trkpt>
      <trkpt lat="48.83066" lon="2.42061">
        <ele>102.7</ele>
        <time>2015-03-02T20:40:01.977Z</time>
      </trkpt>
      <trkpt lat="48.83071" lon="2.42062">
        <ele>103</ele>
        <time>2015-03-02T20:40:02.959Z</time>
      </trkpt>
      <trkpt lat="48.83077" lon="2.42062">
        <ele>103.1</ele>
        <time>2015-03-02T20:40:03.960Z</time>
      </trkpt>
      <trkpt lat="48.83082" lon="2.42063">
        <ele>103.2</ele>
        <time>2015-03-02T20:40:04.968Z</time>
      </trkpt>
      <trkpt lat="48.83086" lon="2.42063">
        <ele>103.1</ele>
        <time>2015-03-02T20:40:05.994Z</time>
      </trkpt>
      <trkpt lat="48.83091" lon="2.42064">
        <ele>103.1</ele>
        <time>2015-03-02T20:40:06.983Z</time>
      </trkpt>
      <trkpt lat="48.83096" lon="2.42065">
        <ele>103.3</ele>
        <time>2015-03-02T20:40:08.831Z</time>
      </trkpt>
      <trkpt lat="48.83101" lon="2.42066">
        <ele>103.3</ele>
        <time>2015-03-02T20:40:08.997Z</time>
      </trkpt>
      <trkpt lat="48.83106" lon="2.42067">
        <ele>103.3</ele>
        <time>2015-03-02T20:40:10.011Z</time>
      </trkpt>
      <trkpt lat="48.8311" lon="2.42068">
        <ele>103.3</ele>
        <time>2015-03-02T20:40:11.027Z</time>
      </trkpt>
      <trkpt lat="48.83115" lon="2.42068">
        <ele>103.4</ele>
        <time>2015-03-02T20:40:11.901Z</time>
      </trkpt>
      <trkpt lat="48.8312" lon="2.42068">
        <ele>103.7</ele>
        <time>2015-03-02T20:40:12.922Z</time>
      </trkpt>
      <trkpt lat="48.83124" lon="2.42068">
        <ele>103.9</ele>
        <time>2015-03-02T20:40:13.938Z</time>
      </trkpt>
      <trkpt lat="48.83129" lon="2.42068">
        <ele>103.8</ele>
        <time>2015-03-02T20:40:14.932Z</time>
      </trkpt>
      <trkpt lat="48.83134" lon="2.42068">
        <ele>103.8</ele>
        <time>2015-03-02T20:40:15.946Z</time>
      </trkpt>
      <trkpt lat="48.83139" lon="2.42069">
        <ele>103.8</ele>
        <time>2015-03-02T20:40:16.962Z</time>
      </trkpt>
      <trkpt lat="48.83144" lon="2.42069">
        <ele>103.7</ele>
        <time>2015-03-02T20:40:18.929Z</time>
      </trkpt>
      <trkpt lat="48.83149" lon="2.4207">
        <ele>103.6</ele>
        <time>2015-03-02T20:40:19.024Z</time>
      </trkpt>
      <trkpt lat="48.83155" lon="2.42071">
        <ele>103.5</ele>
        <time>2015-03-02T20:40:19.922Z</time>
      </trkpt>
      <trkpt lat="48.83159" lon="2.42072">
        <ele>103.5</ele>
        <time>2015-03-02T20:40:20.954Z</time>
      </trkpt>
      <trkpt lat="48.83164" lon="2.42072">
        <ele>103.6</ele>
        <time>2015-03-02T20:40:21.961Z</time>
      </trkpt>
      <trkpt lat="48.83169" lon="2.42071">
        <ele>103.8</ele>
        <time>2015-03-02T20:40:22.977Z</time>
      </trkpt>
      <trkpt lat="48.83177" lon="2.42072">
        <ele>104.1</ele>
        <time>2015-03-02T20:40:24.996Z</time>
      </trkpt>
      <trkpt lat="48.83182" lon="2.42072">
        <ele>104.2</ele>
        <time>2015-03-02T20:40:26.010Z</time>
      </trkpt>
      <trkpt lat="48.83188" lon="2.42068">
        <ele>104.6</ele>
        <time>2015-03-02T20:40:27.039Z</time>
      </trkpt>
      <trkpt lat="48.83193" lon="2.42066">
        <ele>105</ele>
        <time>2015-03-02T20:40:27.913Z</time>
      </trkpt>
      <trkpt lat="48.83198" lon="2.42065">
        <ele>105</ele>
        <time>2015-03-02T20:40:29.064Z</time>
      </trkpt>
      <trkpt lat="48.83204" lon="2.42064">
        <ele>104.6</ele>
        <time>2015-03-02T20:40:29.934Z</time>
      </trkpt>
      <trkpt lat="48.8321" lon="2.42063">
        <ele>104.3</ele>
        <time>2015-03-02T20:40:30.937Z</time>
      </trkpt>
      <trkpt lat="48.83215" lon="2.42062">
        <ele>104.2</ele>
        <time>2015-03-02T20:40:31.964Z</time>
      </trkpt>
      <trkpt lat="48.8322" lon="2.42061">
        <ele>104.2</ele>
        <time>2015-03-02T20:40:32.976Z</time>
      </trkpt>
      <trkpt lat="48.83226" lon="2.4206">
        <ele>104.2</ele>
        <time>2015-03-02T20:40:33.989Z</time>
      </trkpt>
      <trkpt lat="48.83231" lon="2.42059">
        <ele>104.1</ele>
        <time>2015-03-02T20:40:34.997Z</time>
      </trkpt>
      <trkpt lat="48.83237" lon="2.42058">
        <ele>103.8</ele>
        <time>2015-03-02T20:40:35.910Z</time>
      </trkpt>
      <trkpt lat="48.83243" lon="2.42057">
        <ele>104.1</ele>
        <time>2015-03-02T20:40:36.921Z</time>
      </trkpt>
      <trkpt lat="48.83248" lon="2.42056">
        <ele>104.3</ele>
        <time>2015-03-02T20:40:37.926Z</time>
      </trkpt>
      <trkpt lat="48.83253" lon="2.42054">
        <ele>103.9</ele>
        <time>2015-03-02T20:40:38.964Z</time>
      </trkpt>
      <trkpt lat="48.83258" lon="2.42052">
        <ele>104.3</ele>
        <time>2015-03-02T20:40:39.967Z</time>
      </trkpt>
      <trkpt lat="48.83264" lon="2.4205">
        <ele>104.5</ele>
        <time>2015-03-02T20:40:40.998Z</time>
      </trkpt>
      <trkpt lat="48.83269" lon="2.42049">
        <ele>104.5</ele>
        <time>2015-03-02T20:40:41.914Z</time>
      </trkpt>
      <trkpt lat="48.83274" lon="2.42048">
        <ele>104.6</ele>
        <time>2015-03-02T20:40:42.914Z</time>
      </trkpt>
      <trkpt lat="48.83279" lon="2.42047">
        <ele>104.7</ele>
        <time>2015-03-02T20:40:43.921Z</time>
      </trkpt>
      <trkpt lat="48.83285" lon="2.42046">
        <ele>104.7</ele>
        <time>2015-03-02T20:40:45.076Z</time>
      </trkpt>
      <trkpt lat="48.8329" lon="2.42046">
        <ele>104.8</ele>
        <time>2015-03-02T20:40:45.926Z</time>
      </trkpt>
      <trkpt lat="48.83296" lon="2.42046">
        <ele>104.5</ele>
        <time>2015-03-02T20:40:46.956Z</time>
      </trkpt>
      <trkpt lat="48.83301" lon="2.42046">
        <ele>104.5</ele>
        <time>2015-03-02T20:40:47.965Z</time>
      </trkpt>
      <trkpt lat="48.83306" lon="2.42046">
        <ele>104.6</ele>
        <time>2015-03-02T20:40:48.974Z</time>
      </trkpt>
      <trkpt lat="48.83311" lon="2.42046">
        <ele>104.4</ele>
        <time>2015-03-02T20:40:49.987Z</time>
      </trkpt>
      <trkpt lat="48.83315" lon="2.42045">
        <ele>104.3</ele>
        <time>2015-03-02T20:40:50.998Z</time>
      </trkpt>
      <trkpt lat="48.8332" lon="2.42046">
        <ele>104.2</ele>
        <time>2015-03-02T20:40:52.008Z</time>
      </trkpt>
      <trkpt lat="48.83325" lon="2.42046">
        <ele>103.9</ele>
        <time>2015-03-02T20:40:52.911Z</time>
      </trkpt>
      <trkpt lat="48.83329" lon="2.42047">
        <ele>103.6</ele>
        <time>2015-03-02T20:40:53.910Z</time>
      </trkpt>
      <trkpt lat="48.83337" lon="2.42049">
        <ele>103.9</ele>
        <time>2015-03-02T20:40:55.948Z</time>
      </trkpt>
      <trkpt lat="48.8334" lon="2.42049">
        <ele>103.8</ele>
        <time>2015-03-02T20:40:56.977Z</time>
      </trkpt>
      <trkpt lat="48.83347" lon="2.42049">
        <ele>103.6</ele>
        <time>2015-03-02T20:40:59.152Z</time>
      </trkpt>
      <trkpt lat="48.83352" lon="2.42048">
        <ele>103.9</ele>
        <time>2015-03-02T20:40:59.944Z</time>
      </trkpt>
      <trkpt lat="48.83357" lon="2.42046">
        <ele>103.5</ele>
        <time>2015-03-02T20:41:00.997Z</time>
      </trkpt>
      <trkpt lat="48.83362" lon="2.42046">
        <ele>103.1</ele>
        <time>2015-03-02T20:41:02.004Z</time>
      </trkpt>
      <trkpt lat="48.83366" lon="2.42045">
        <ele>103</ele>
        <time>2015-03-02T20:41:03.029Z</time>
      </trkpt>
      <trkpt lat="48.83372" lon="2.42044">
        <ele>102.8</ele>
        <time>2015-03-02T20:41:03.932Z</time>
      </trkpt>
      <trkpt lat="48.8338" lon="2.42042">
        <ele>102.5</ele>
        <time>2015-03-02T20:41:05.994Z</time>
      </trkpt>
      <trkpt lat="48.83384" lon="2.42041">
        <ele>102.3</ele>
        <time>2015-03-02T20:41:07.014Z</time>
      </trkpt>
      <trkpt lat="48.83389" lon="2.42039">
        <ele>102.1</ele>
        <time>2015-03-02T20:41:08.022Z</time>
      </trkpt>
      <trkpt lat="48.83393" lon="2.42037">
        <ele>101.9</ele>
        <time>2015-03-02T20:41:08.976Z</time>
      </trkpt>
      <trkpt lat="48.83398" lon="2.42035">
        <ele>101.7</ele>
        <time>2015-03-02T20:41:09.928Z</time>
      </trkpt>
      <trkpt lat="48.83403" lon="2.42032">
        <ele>101.7</ele>
        <time>2015-03-02T20:41:10.921Z</time>
      </trkpt>
      <trkpt lat="48.83411" lon="2.42027">
        <ele>101.9</ele>
        <time>2015-03-02T20:41:12.953Z</time>
      </trkpt>
      <trkpt lat="48.83416" lon="2.42025">
        <ele>101.9</ele>
        <time>2015-03-02T20:41:13.969Z</time>
      </trkpt>
      <trkpt lat="48.83422" lon="2.42024">
        <ele>101.9</ele>
        <time>2015-03-02T20:41:15.033Z</time>
      </trkpt>
      <trkpt lat="48.83429" lon="2.42023">
        <ele>102.1</ele>
        <time>2015-03-02T20:41:15.924Z</time>
      </trkpt>
      <trkpt lat="48.83434" lon="2.42022">
        <ele>102.2</ele>
        <time>2015-03-02T20:41:16.933Z</time>
      </trkpt>
      <trkpt lat="48.83439" lon="2.4202">
        <ele>102.4</ele>
        <time>2015-03-02T20:41:17.938Z</time>
      </trkpt>
      <trkpt lat="48.83447" lon="2.42015">
        <ele>102.6</ele>
        <time>2015-03-02T20:41:19.990Z</time>
      </trkpt>
      <trkpt lat="48.83451" lon="2.42012">
        <ele>102.5</ele>
        <time>2015-03-02T20:41:21.007Z</time>
      </trkpt>
      <trkpt lat="48.83455" lon="2.4201">
        <ele>102.6</ele>
        <time>2015-03-02T20:41:21.925Z</time>
      </trkpt>
      <trkpt lat="48.8346" lon="2.42009">
        <ele>103.5</ele>
        <time>2015-03-02T20:41:22.922Z</time>
      </trkpt>
      <trkpt lat="48.83467" lon="2.42006">
        <ele>103.5</ele>
        <time>2015-03-02T20:41:24.924Z</time>
      </trkpt>
      <trkpt lat="48.8347" lon="2.42004">
        <ele>103.5</ele>
        <time>2015-03-02T20:41:25.936Z</time>
      </trkpt>
      <trkpt lat="48.83478" lon="2.41999">
        <ele>103.5</ele>
        <time>2015-03-02T20:41:28.988Z</time>
      </trkpt>
      <trkpt lat="48.8348" lon="2.41998">
        <ele>103.9</ele>
        <time>2015-03-02T20:41:29.923Z</time>
      </trkpt>
      <trkpt lat="48.83488" lon="2.41994">
        <ele>103.7</ele>
        <time>2015-03-02T20:41:35.980Z</time>
      </trkpt>
      <trkpt lat="48.8349" lon="2.41994">
        <ele>103.5</ele>
        <time>2015-03-02T20:41:36.990Z</time>
      </trkpt>
      <trkpt lat="48.83497" lon="2.42002">
        <ele>102.9</ele>
        <time>2015-03-02T20:41:40.976Z</time>
      </trkpt>
      <trkpt lat="48.83499" lon="2.42006">
        <ele>102.4</ele>
        <time>2015-03-02T20:41:41.921Z</time>
      </trkpt>
      <trkpt lat="48.83502" lon="2.42014">
        <ele>101.8</ele>
        <time>2015-03-02T20:41:43.940Z</time>
      </trkpt>
      <trkpt lat="48.83504" lon="2.42018">
        <ele>101.4</ele>
        <time>2015-03-02T20:41:44.963Z</time>
      </trkpt>
      <trkpt lat="48.83507" lon="2.42029">
        <ele>100.6</ele>
        <time>2015-03-02T20:41:46.996Z</time>
      </trkpt>
      <trkpt lat="48.8351" lon="2.42035">
        <ele>100.2</ele>
        <time>2015-03-02T20:41:47.995Z</time>
      </trkpt>
      <trkpt lat="48.83512" lon="2.42041">
        <ele>99.9</ele>
        <time>2015-03-02T20:41:48.943Z</time>
      </trkpt>
      <trkpt lat="48.83514" lon="2.42046">
        <ele>99.7</ele>
        <time>2015-03-02T20:41:49.931Z</time>
      </trkpt>
      <trkpt lat="48.8352" lon="2.42057">
        <ele>99.3</ele>
        <time>2015-03-02T20:41:51.959Z</time>
      </trkpt>
      <trkpt lat="48.83522" lon="2.42062">
        <ele>99</ele>
        <time>2015-03-02T20:41:52.968Z</time>
      </trkpt>
      <trkpt lat="48.83529" lon="2.42071">
        <ele>98.9</ele>
        <time>2015-03-02T20:41:54.923Z</time>
      </trkpt>
      <trkpt lat="48.83532" lon="2.42076">
        <ele>98.5</ele>
        <time>2015-03-02T20:41:55.971Z</time>
      </trkpt>
      <trkpt lat="48.83538" lon="2.42084">
        <ele>97.9</ele>
        <time>2015-03-02T20:41:58.016Z</time>
      </trkpt>
      <trkpt lat="48.83541" lon="2.42086">
        <ele>97.7</ele>
        <time>2015-03-02T20:41:59.038Z</time>
      </trkpt>
      <trkpt lat="48.83547" lon="2.42086">
        <ele>97.4</ele>
        <time>2015-03-02T20:42:00.933Z</time>
      </trkpt>
      <trkpt lat="48.83551" lon="2.42086">
        <ele>97.4</ele>
        <time>2015-03-02T20:42:01.934Z</time>
      </trkpt>
      <trkpt lat="48.83559" lon="2.42085">
        <ele>96.9</ele>
        <time>2015-03-02T20:42:04.031Z</time>
      </trkpt>
      <trkpt lat="48.83563" lon="2.42084">
        <ele>96.9</ele>
        <time>2015-03-02T20:42:04.931Z</time>
      </trkpt>
      <trkpt lat="48.8357" lon="2.42082">
        <ele>96.8</ele>
        <time>2015-03-02T20:42:06.930Z</time>
      </trkpt>
      <trkpt lat="48.83573" lon="2.42081">
        <ele>96.7</ele>
        <time>2015-03-02T20:42:07.930Z</time>
      </trkpt>
      <trkpt lat="48.83576" lon="2.4208">
        <ele>96.7</ele>
        <time>2015-03-02T20:42:08.951Z</time>
      </trkpt>
      <trkpt lat="48.83588" lon="2.42078">
        <ele>96.8</ele>
        <time>2015-03-02T20:42:11.998Z</time>
      </trkpt>
      <trkpt lat="48.83596" lon="2.42078">
        <ele>96.8</ele>
        <time>2015-03-02T20:42:14.013Z</time>
      </trkpt>
      <trkpt lat="48.83601" lon="2.42077">
        <ele>96.8</ele>
        <time>2015-03-02T20:42:15.037Z</time>
      </trkpt>
      <trkpt lat="48.83606" lon="2.42075">
        <ele>96.9</ele>
        <time>2015-03-02T20:42:15.921Z</time>
      </trkpt>
      <trkpt lat="48.83614" lon="2.42071">
        <ele>97.4</ele>
        <time>2015-03-02T20:42:16.916Z</time>
      </trkpt>
      <trkpt lat="48.8362" lon="2.42067">
        <ele>97.9</ele>
        <time>2015-03-02T20:42:17.923Z</time>
      </trkpt>
      <trkpt lat="48.83626" lon="2.42066">
        <ele>98.1</ele>
        <time>2015-03-02T20:42:18.934Z</time>
      </trkpt>
      <trkpt lat="48.83632" lon="2.42065">
        <ele>98.3</ele>
        <time>2015-03-02T20:42:19.947Z</time>
      </trkpt>
      <trkpt lat="48.83638" lon="2.42063">
        <ele>98.5</ele>
        <time>2015-03-02T20:42:20.988Z</time>
      </trkpt>
      <trkpt lat="48.83643" lon="2.42062">
        <ele>98.7</ele>
        <time>2015-03-02T20:42:21.915Z</time>
      </trkpt>
      <trkpt lat="48.83648" lon="2.42059">
        <ele>98.8</ele>
        <time>2015-03-02T20:42:22.930Z</time>
      </trkpt>
      <trkpt lat="48.83652" lon="2.42057">
        <ele>98.9</ele>
        <time>2015-03-02T20:42:24.042Z</time>
      </trkpt>
      <trkpt lat="48.83656" lon="2.42055">
        <ele>98.9</ele>
        <time>2015-03-02T20:42:24.926Z</time>
      </trkpt>
      <trkpt lat="48.83663" lon="2.42048">
        <ele>99.9</ele>
        <time>2015-03-02T20:42:26.979Z</time>
      </trkpt>
      <trkpt lat="48.83666" lon="2.42044">
        <ele>100.3</ele>
        <time>2015-03-02T20:42:28.047Z</time>
      </trkpt>
      <trkpt lat="48.83674" lon="2.4204">
        <ele>101</ele>
        <time>2015-03-02T20:42:29.913Z</time>
      </trkpt>
      <trkpt lat="48.83681" lon="2.42045">
        <ele>100.3</ele>
        <time>2015-03-02T20:42:30.922Z</time>
      </trkpt>
      <trkpt lat="48.83685" lon="2.4205">
        <ele>100.1</ele>
        <time>2015-03-02T20:42:31.928Z</time>
      </trkpt>
      <trkpt lat="48.83689" lon="2.42054">
        <ele>99.9</ele>
        <time>2015-03-02T20:42:32.935Z</time>
      </trkpt>
      <trkpt lat="48.83694" lon="2.42062">
        <ele>100</ele>
        <time>2015-03-02T20:42:34.973Z</time>
      </trkpt>
      <trkpt lat="48.83696" lon="2.42063">
        <ele>99.9</ele>
        <time>2015-03-02T20:42:35.998Z</time>
      </trkpt>
      <trkpt lat="48.83704" lon="2.42063">
        <ele>100</ele>
        <time>2015-03-02T20:42:37.908Z</time>
      </trkpt>
      <trkpt lat="48.83709" lon="2.42063">
        <ele>100</ele>
        <time>2015-03-02T20:42:38.956Z</time>
      </trkpt>
      <trkpt lat="48.83717" lon="2.42063">
        <ele>100</ele>
        <time>2015-03-02T20:42:40.998Z</time>
      </trkpt>
      <trkpt lat="48.83719" lon="2.42063">
        <ele>100.1</ele>
        <time>2015-03-02T20:42:42.015Z</time>
      </trkpt>
      <trkpt lat="48.83727" lon="2.42062">
        <ele>100</ele>
        <time>2015-03-02T20:42:43.997Z</time>
      </trkpt>
      <trkpt lat="48.8373" lon="2.42062">
        <ele>100</ele>
        <time>2015-03-02T20:42:45.009Z</time>
      </trkpt>
      <trkpt lat="48.83737" lon="2.42061">
        <ele>100.3</ele>
        <time>2015-03-02T20:42:46.946Z</time>
      </trkpt>
      <trkpt lat="48.83741" lon="2.4206">
        <ele>100.5</ele>
        <time>2015-03-02T20:42:48.022Z</time>
      </trkpt>
      <trkpt lat="48.83748" lon="2.42056">
        <ele>100.9</ele>
        <time>2015-03-02T20:42:49.913Z</time>
      </trkpt>
      <trkpt lat="48.83752" lon="2.42055">
        <ele>101</ele>
        <time>2015-03-02T20:42:50.961Z</time>
      </trkpt>
      <trkpt lat="48.83756" lon="2.42053">
        <ele>101.3</ele>
        <time>2015-03-02T20:42:51.904Z</time>
      </trkpt>
      <trkpt lat="48.83761" lon="2.42052">
        <ele>101.3</ele>
        <time>2015-03-02T20:42:52.950Z</time>
      </trkpt>
      <trkpt lat="48.83768" lon="2.4205">
        <ele>101.9</ele>
        <time>2015-03-02T20:42:54.932Z</time>
      </trkpt>
      <trkpt lat="48.83772" lon="2.42048">
        <ele>102.2</ele>
        <time>2015-03-02T20:42:55.938Z</time>
      </trkpt>
      <trkpt lat="48.83777" lon="2.42045">
        <ele>102.3</ele>
        <time>2015-03-02T20:42:57.006Z</time>
      </trkpt>
      <trkpt lat="48.83783" lon="2.42041">
        <ele>102.3</ele>
        <time>2015-03-02T20:42:57.919Z</time>
      </trkpt>
      <trkpt lat="48.83787" lon="2.42037">
        <ele>102.4</ele>
        <time>2015-03-02T20:42:58.916Z</time>
      </trkpt>
      <trkpt lat="48.83793" lon="2.42035">
        <ele>102.2</ele>
        <time>2015-03-02T20:43:00.961Z</time>
      </trkpt>
      <trkpt lat="48.83799" lon="2.42034">
        <ele>102</ele>
        <time>2015-03-02T20:43:03.020Z</time>
      </trkpt>
      <trkpt lat="48.83803" lon="2.42034">
        <ele>101.8</ele>
        <time>2015-03-02T20:43:03.930Z</time>
      </trkpt>
      <trkpt lat="48.83811" lon="2.42031">
        <ele>101.7</ele>
        <time>2015-03-02T20:43:05.977Z</time>
      </trkpt>
      <trkpt lat="48.83816" lon="2.42031">
        <ele>101.5</ele>
        <time>2015-03-02T20:43:06.980Z</time>
      </trkpt>
      <trkpt lat="48.83824" lon="2.42027">
        <ele>101.4</ele>
        <time>2015-03-02T20:43:08.949Z</time>
      </trkpt>
      <trkpt lat="48.83828" lon="2.42026">
        <ele>101.3</ele>
        <time>2015-03-02T20:43:10.010Z</time>
      </trkpt>
      <trkpt lat="48.83835" lon="2.42025">
        <ele>101.5</ele>
        <time>2015-03-02T20:43:11.928Z</time>
      </trkpt>
      <trkpt lat="48.83839" lon="2.42025">
        <ele>101.6</ele>
        <time>2015-03-02T20:43:12.936Z</time>
      </trkpt>
      <trkpt lat="48.83847" lon="2.42025">
        <ele>101.6</ele>
        <time>2015-03-02T20:43:14.979Z</time>
      </trkpt>
      <trkpt lat="48.83852" lon="2.42025">
        <ele>101.7</ele>
        <time>2015-03-02T20:43:16.056Z</time>
      </trkpt>
      <trkpt lat="48.83859" lon="2.42025">
        <ele>101.8</ele>
        <time>2015-03-02T20:43:18.897Z</time>
      </trkpt>
      <trkpt lat="48.83862" lon="2.42024">
        <ele>102</ele>
        <time>2015-03-02T20:43:19.910Z</time>
      </trkpt>
      <trkpt lat="48.83871" lon="2.42023">
        <ele>102.2</ele>
        <time>2015-03-02T20:43:22.513Z</time>
      </trkpt>
      <trkpt lat="48.83874" lon="2.42022">
        <ele>102.2</ele>
        <time>2015-03-02T20:43:22.943Z</time>
      </trkpt>
      <trkpt lat="48.8388" lon="2.42022">
        <ele>102.2</ele>
        <time>2015-03-02T20:43:26.097Z</time>
      </trkpt>
      <trkpt lat="48.83883" lon="2.42022">
        <ele>102.2</ele>
        <time>2015-03-02T20:43:27.039Z</time>
      </trkpt>
      <trkpt lat="48.8389" lon="2.42019">
        <ele>102.1</ele>
        <time>2015-03-02T20:43:28.911Z</time>
      </trkpt>
      <trkpt lat="48.83893" lon="2.42018">
        <ele>101.9</ele>
        <time>2015-03-02T20:43:30.034Z</time>
      </trkpt>
      <trkpt lat="48.839" lon="2.42022">
        <ele>101.6</ele>
        <time>2015-03-02T20:43:32.959Z</time>
      </trkpt>
      <trkpt lat="48.83901" lon="2.42021">
        <ele>101.4</ele>
        <time>2015-03-02T20:43:33.970Z</time>
      </trkpt>
      <trkpt lat="48.83905" lon="2.42019">
        <ele>101</ele>
        <time>2015-03-02T20:43:35.905Z</time>
      </trkpt>
      <trkpt lat="48.83905" lon="2.42018">
        <ele>100.7</ele>
        <time>2015-03-02T20:43:36.909Z</time>
      </trkpt>
      <trkpt lat="48.83906" lon="2.42018">
        <ele>100.7</ele>
        <time>2015-03-02T20:43:55.955Z</time>
      </trkpt>
      <trkpt lat="48.8391" lon="2.42014">
        <ele>100.4</ele>
        <time>2015-03-02T20:43:57.040Z</time>
      </trkpt>
      <trkpt lat="48.83915" lon="2.42012">
        <ele>100.7</ele>
        <time>2015-03-02T20:44:01.917Z</time>
      </trkpt>
      <trkpt lat="48.83926" lon="2.42006">
        <ele>100.8</ele>
        <time>2015-03-02T20:44:09.049Z</time>
      </trkpt>
      <trkpt lat="48.83935" lon="2.42007">
        <ele>100.6</ele>
        <time>2015-03-02T20:44:11.948Z</time>
      </trkpt>
      <trkpt lat="48.83939" lon="2.42008">
        <ele>100.5</ele>
        <time>2015-03-02T20:44:12.956Z</time>
      </trkpt>
      <trkpt lat="48.83946" lon="2.42014">
        <ele>100.5</ele>
        <time>2015-03-02T20:44:13.964Z</time>
      </trkpt>
      <trkpt lat="48.83948" lon="2.42015">
        <ele>100.3</ele>
        <time>2015-03-02T20:44:14.995Z</time>
      </trkpt>
      <trkpt lat="48.83955" lon="2.42022">
        <ele>98.5</ele>
        <time>2015-03-02T20:44:19.148Z</time>
      </trkpt>
      <trkpt lat="48.83957" lon="2.42026">
        <ele>97.4</ele>
        <time>2015-03-02T20:44:19.958Z</time>
      </trkpt>
      <trkpt lat="48.83959" lon="2.42037">
        <ele>95.5</ele>
        <time>2015-03-02T20:44:22.964Z</time>
      </trkpt>
      <trkpt lat="48.8396" lon="2.42041">
        <ele>94.8</ele>
        <time>2015-03-02T20:44:23.971Z</time>
      </trkpt>
      <trkpt lat="48.8396" lon="2.42052">
        <ele>93.2</ele>
        <time>2015-03-02T20:44:27.014Z</time>
      </trkpt>
      <trkpt lat="48.8396" lon="2.42056">
        <ele>92.6</ele>
        <time>2015-03-02T20:44:27.884Z</time>
      </trkpt>
      <trkpt lat="48.83963" lon="2.42066">
        <ele>90.2</ele>
        <time>2015-03-02T20:44:31.980Z</time>
      </trkpt>
      <trkpt lat="48.83964" lon="2.42065">
        <ele>89.8</ele>
        <time>2015-03-02T20:44:32.984Z</time>
      </trkpt>
      <trkpt lat="48.83966" lon="2.42065">
        <ele>90.4</ele>
        <time>2015-03-02T20:44:33.885Z</time>
      </trkpt>
      <trkpt lat="48.83971" lon="2.42063">
        <ele>90.6</ele>
        <time>2015-03-02T20:44:35.937Z</time>
      </trkpt>
      <trkpt lat="48.83976" lon="2.4206">
        <ele>90.8</ele>
        <time>2015-03-02T20:44:36.949Z</time>
      </trkpt>
      <trkpt lat="48.83984" lon="2.42059">
        <ele>93.1</ele>
        <time>2015-03-02T20:44:39.589Z</time>
      </trkpt>
      <trkpt lat="48.83989" lon="2.42057">
        <ele>93.8</ele>
        <time>2015-03-02T20:44:39.952Z</time>
      </trkpt>
      <trkpt lat="48.83993" lon="2.42055">
        <ele>94.2</ele>
        <time>2015-03-02T20:44:40.961Z</time>
      </trkpt>
      <trkpt lat="48.83998" lon="2.42054">
        <ele>94.5</ele>
        <time>2015-03-02T20:44:41.965Z</time>
      </trkpt>
      <trkpt lat="48.84004" lon="2.42052">
        <ele>94.9</ele>
        <time>2015-03-02T20:44:42.979Z</time>
      </trkpt>
      <trkpt lat="48.84009" lon="2.42051">
        <ele>95.4</ele>
        <time>2015-03-02T20:44:43.914Z</time>
      </trkpt>
      <trkpt lat="48.84013" lon="2.42049">
        <ele>95.8</ele>
        <time>2015-03-02T20:44:44.946Z</time>
      </trkpt>
      <trkpt lat="48.84018" lon="2.42047">
        <ele>96.4</ele>
        <time>2015-03-02T20:44:45.956Z</time>
      </trkpt>
      <trkpt lat="48.84026" lon="2.42043">
        <ele>97.3</ele>
        <time>2015-03-02T20:44:47.996Z</time>
      </trkpt>
      <trkpt lat="48.84032" lon="2.42041">
        <ele>97.7</ele>
        <time>2015-03-02T20:44:48.912Z</time>
      </trkpt>
      <trkpt lat="48.84042" lon="2.4204">
        <ele>101.3</ele>
        <time>2015-03-02T20:44:49.910Z</time>
      </trkpt>
      <trkpt lat="48.84047" lon="2.42038">
        <ele>101.5</ele>
        <time>2015-03-02T20:44:51.057Z</time>
      </trkpt>
      <trkpt lat="48.84053" lon="2.42035">
        <ele>101.6</ele>
        <time>2015-03-02T20:44:51.921Z</time>
      </trkpt>
      <trkpt lat="48.84059" lon="2.42032">
        <ele>101.8</ele>
        <time>2015-03-02T20:44:52.944Z</time>
      </trkpt>
      <trkpt lat="48.84065" lon="2.42029">
        <ele>101.8</ele>
        <time>2015-03-02T20:44:54.026Z</time>
      </trkpt>
      <trkpt lat="48.84072" lon="2.42025">
        <ele>101.6</ele>
        <time>2015-03-02T20:44:54.910Z</time>
      </trkpt>
      <trkpt lat="48.84079" lon="2.42021">
        <ele>102</ele>
        <time>2015-03-02T20:44:55.925Z</time>
      </trkpt>
      <trkpt lat="48.84085" lon="2.42017">
        <ele>102.5</ele>
        <time>2015-03-02T20:44:57.147Z</time>
      </trkpt>
      <trkpt lat="48.8409" lon="2.42013">
        <ele>103</ele>
        <time>2015-03-02T20:44:57.920Z</time>
      </trkpt>
      <trkpt lat="48.84092" lon="2.42007">
        <ele>98.1</ele>
        <time>2015-03-02T20:44:59.015Z</time>
      </trkpt>
      <trkpt lat="48.84098" lon="2.42004">
        <ele>98.3</ele>
        <time>2015-03-02T20:44:59.926Z</time>
      </trkpt>
      <trkpt lat="48.84104" lon="2.42">
        <ele>98.2</ele>
        <time>2015-03-02T20:45:01.050Z</time>
      </trkpt>
      <trkpt lat="48.84109" lon="2.41995">
        <ele>98.5</ele>
        <time>2015-03-02T20:45:01.909Z</time>
      </trkpt>
      <trkpt lat="48.84115" lon="2.41991">
        <ele>98.9</ele>
        <time>2015-03-02T20:45:02.958Z</time>
      </trkpt>
      <trkpt lat="48.8412" lon="2.41986">
        <ele>99</ele>
        <time>2015-03-02T20:45:03.998Z</time>
      </trkpt>
      <trkpt lat="48.84125" lon="2.41982">
        <ele>99.3</ele>
        <time>2015-03-02T20:45:04.928Z</time>
      </trkpt>
      <trkpt lat="48.84129" lon="2.41979">
        <ele>99.4</ele>
        <time>2015-03-02T20:45:05.930Z</time>
      </trkpt>
      <trkpt lat="48.84136" lon="2.41972">
        <ele>99.6</ele>
        <time>2015-03-02T20:45:07.910Z</time>
      </trkpt>
      <trkpt lat="48.84139" lon="2.4197">
        <ele>99.7</ele>
        <time>2015-03-02T20:45:08.944Z</time>
      </trkpt>
      <trkpt lat="48.84144" lon="2.41966">
        <ele>99.8</ele>
        <time>2015-03-02T20:45:10.957Z</time>
      </trkpt>
      <trkpt lat="48.84147" lon="2.41964">
        <ele>99.8</ele>
        <time>2015-03-02T20:45:11.963Z</time>
      </trkpt>
      <trkpt lat="48.84155" lon="2.41961">
        <ele>99.9</ele>
        <time>2015-03-02T20:45:13.937Z</time>
      </trkpt>
      <trkpt lat="48.84158" lon="2.41959">
        <ele>99.3</ele>
        <time>2015-03-02T20:45:14.955Z</time>
      </trkpt>
      <trkpt lat="48.84165" lon="2.41958">
        <ele>98.9</ele>
        <time>2015-03-02T20:45:16.959Z</time>
      </trkpt>
      <trkpt lat="48.84168" lon="2.41958">
        <ele>98.8</ele>
        <time>2015-03-02T20:45:18.009Z</time>
      </trkpt>
      <trkpt lat="48.84175" lon="2.41955">
        <ele>98.8</ele>
        <time>2015-03-02T20:45:20.962Z</time>
      </trkpt>
      <trkpt lat="48.84178" lon="2.41951">
        <ele>98.7</ele>
        <time>2015-03-02T20:45:21.965Z</time>
      </trkpt>
      <trkpt lat="48.84185" lon="2.4195">
        <ele>98.4</ele>
        <time>2015-03-02T20:45:23.908Z</time>
      </trkpt>
      <trkpt lat="48.84188" lon="2.41949">
        <ele>98.3</ele>
        <time>2015-03-02T20:45:24.946Z</time>
      </trkpt>
      <trkpt lat="48.84194" lon="2.41949">
        <ele>98.3</ele>
        <time>2015-03-02T20:45:26.990Z</time>
      </trkpt>
      <trkpt lat="48.84198" lon="2.41949">
        <ele>98.3</ele>
        <time>2015-03-02T20:45:28.005Z</time>
      </trkpt>
      <trkpt lat="48.84206" lon="2.41949">
        <ele>98.9</ele>
        <time>2015-03-02T20:45:29.948Z</time>
      </trkpt>
      <trkpt lat="48.8421" lon="2.41947">
        <ele>99</ele>
        <time>2015-03-02T20:45:30.960Z</time>
      </trkpt>
      <trkpt lat="48.84214" lon="2.41946">
        <ele>99.4</ele>
        <time>2015-03-02T20:45:31.973Z</time>
      </trkpt>
      <trkpt lat="48.84219" lon="2.41944">
        <ele>99.6</ele>
        <time>2015-03-02T20:45:32.983Z</time>
      </trkpt>
      <trkpt lat="48.84226" lon="2.41941">
        <ele>99.7</ele>
        <time>2015-03-02T20:45:34.915Z</time>
      </trkpt>
      <trkpt lat="48.84228" lon="2.41941">
        <ele>99.4</ele>
        <time>2015-03-02T20:45:35.918Z</time>
      </trkpt>
      <trkpt lat="48.84237" lon="2.41942">
        <ele>100.6</ele>
        <time>2015-03-02T20:45:38.959Z</time>
      </trkpt>
      <trkpt lat="48.8424" lon="2.41943">
        <ele>101</ele>
        <time>2015-03-02T20:45:39.958Z</time>
      </trkpt>
      <trkpt lat="48.84247" lon="2.41944">
        <ele>102.4</ele>
        <time>2015-03-02T20:45:41.970Z</time>
      </trkpt>
      <trkpt lat="48.84251" lon="2.41944">
        <ele>102.8</ele>
        <time>2015-03-02T20:45:42.985Z</time>
      </trkpt>
      <trkpt lat="48.84256" lon="2.41945">
        <ele>102.6</ele>
        <time>2015-03-02T20:45:43.998Z</time>
      </trkpt>
      <trkpt lat="48.84261" lon="2.41945">
        <ele>102.5</ele>
        <time>2015-03-02T20:45:45.036Z</time>
      </trkpt>
      <trkpt lat="48.84265" lon="2.41946">
        <ele>102.5</ele>
        <time>2015-03-02T20:45:45.931Z</time>
      </trkpt>
      <trkpt lat="48.8427" lon="2.41948">
        <ele>102.6</ele>
        <time>2015-03-02T20:45:46.938Z</time>
      </trkpt>
      <trkpt lat="48.84278" lon="2.41954">
        <ele>102.5</ele>
        <time>2015-03-02T20:45:49.997Z</time>
      </trkpt>
      <trkpt lat="48.8428" lon="2.41955">
        <ele>102.5</ele>
        <time>2015-03-02T20:45:50.973Z</time>
      </trkpt>
      <trkpt lat="48.84286" lon="2.41959">
        <ele>102.4</ele>
        <time>2015-03-02T20:45:52.998Z</time>
      </trkpt>
      <trkpt lat="48.84289" lon="2.41961">
        <ele>102.5</ele>
        <time>2015-03-02T20:45:53.939Z</time>
      </trkpt>
      <trkpt lat="48.84295" lon="2.41965">
        <ele>102.4</ele>
        <time>2015-03-02T20:45:55.972Z</time>
      </trkpt>
      <trkpt lat="48.84298" lon="2.41967">
        <ele>102.3</ele>
        <time>2015-03-02T20:45:56.982Z</time>
      </trkpt>
      <trkpt lat="48.84306" lon="2.41971">
        <ele>102</ele>
        <time>2015-03-02T20:46:00.154Z</time>
      </trkpt>
      <trkpt lat="48.84308" lon="2.41973">
        <ele>102</ele>
        <time>2015-03-02T20:46:00.986Z</time>
      </trkpt>
      <trkpt lat="48.84316" lon="2.41975">
        <ele>102.2</ele>
        <time>2015-03-02T20:46:04.926Z</time>
      </trkpt>
      <trkpt lat="48.84318" lon="2.41975">
        <ele>102.2</ele>
        <time>2015-03-02T20:46:05.925Z</time>
      </trkpt>
      <trkpt lat="48.84325" lon="2.41977">
        <ele>101.7</ele>
        <time>2015-03-02T20:46:09.001Z</time>
      </trkpt>
      <trkpt lat="48.84327" lon="2.41977">
        <ele>101.6</ele>
        <time>2015-03-02T20:46:10.001Z</time>
      </trkpt>
      <trkpt lat="48.84335" lon="2.4198">
        <ele>101.3</ele>
        <time>2015-03-02T20:46:13.991Z</time>
      </trkpt>
      <trkpt lat="48.84337" lon="2.41982">
        <ele>100.9</ele>
        <time>2015-03-02T20:46:14.934Z</time>
      </trkpt>
      <trkpt lat="48.84343" lon="2.41989">
        <ele>100.7</ele>
        <time>2015-03-02T20:46:20.972Z</time>
      </trkpt>
      <trkpt lat="48.84344" lon="2.41991">
        <ele>100.5</ele>
        <time>2015-03-02T20:46:21.976Z</time>
      </trkpt>
      <trkpt lat="48.84349" lon="2.41997">
        <ele>100.3</ele>
        <time>2015-03-02T20:46:25.028Z</time>
      </trkpt>
      <trkpt lat="48.84352" lon="2.42">
        <ele>100</ele>
        <time>2015-03-02T20:46:25.948Z</time>
      </trkpt>
      <trkpt lat="48.84357" lon="2.42004">
        <ele>99.6</ele>
        <time>2015-03-02T20:46:27.974Z</time>
      </trkpt>
      <trkpt lat="48.84359" lon="2.42007">
        <ele>99.2</ele>
        <time>2015-03-02T20:46:28.985Z</time>
      </trkpt>
      <trkpt lat="48.84365" lon="2.42015">
        <ele>98.5</ele>
        <time>2015-03-02T20:46:32.501Z</time>
      </trkpt>
      <trkpt lat="48.84367" lon="2.42017">
        <ele>98.5</ele>
        <time>2015-03-02T20:46:32.988Z</time>
      </trkpt>
      <trkpt lat="48.84373" lon="2.42025">
        <ele>98.4</ele>
        <time>2015-03-02T20:46:35.934Z</time>
      </trkpt>
      <trkpt lat="48.84375" lon="2.42027">
        <ele>98.3</ele>
        <time>2015-03-02T20:46:36.916Z</time>
      </trkpt>
      <trkpt lat="48.8438" lon="2.42035">
        <ele>98.1</ele>
        <time>2015-03-02T20:46:39.957Z</time>
      </trkpt>
      <trkpt lat="48.84382" lon="2.42038">
        <ele>98.1</ele>
        <time>2015-03-02T20:46:40.971Z</time>
      </trkpt>
      <trkpt lat="48.84387" lon="2.4205">
        <ele>97.9</ele>
        <time>2015-03-02T20:46:43.914Z</time>
      </trkpt>
      <trkpt lat="48.84389" lon="2.42054">
        <ele>98</ele>
        <time>2015-03-02T20:46:44.988Z</time>
      </trkpt>
      <trkpt lat="48.84394" lon="2.42064">
        <ele>97.9</ele>
        <time>2015-03-02T20:46:47.927Z</time>
      </trkpt>
      <trkpt lat="48.84396" lon="2.42067">
        <ele>97.8</ele>
        <time>2015-03-02T20:46:48.961Z</time>
      </trkpt>
      <trkpt lat="48.844" lon="2.42074">
        <ele>97.4</ele>
        <time>2015-03-02T20:46:50.985Z</time>
      </trkpt>
      <trkpt lat="48.84402" lon="2.42078">
        <ele>97.3</ele>
        <time>2015-03-02T20:46:51.887Z</time>
      </trkpt>
      <trkpt lat="48.84404" lon="2.42089">
        <ele>98.2</ele>
        <time>2015-03-02T20:46:53.956Z</time>
      </trkpt>
      <trkpt lat="48.84406" lon="2.42095">
        <ele>98.2</ele>
        <time>2015-03-02T20:46:54.974Z</time>
      </trkpt>
      <trkpt lat="48.8441" lon="2.42104">
        <ele>98</ele>
        <time>2015-03-02T20:46:57.017Z</time>
      </trkpt>
      <trkpt lat="48.84412" lon="2.42108">
        <ele>97.8</ele>
        <time>2015-03-02T20:46:57.944Z</time>
      </trkpt>
      <trkpt lat="48.84416" lon="2.42117">
        <ele>97.8</ele>
        <time>2015-03-02T20:46:59.974Z</time>
      </trkpt>
      <trkpt lat="48.84418" lon="2.4212">
        <ele>97.8</ele>
        <time>2015-03-02T20:47:00.999Z</time>
      </trkpt>
      <trkpt lat="48.84422" lon="2.42131">
        <ele>98</ele>
        <time>2015-03-02T20:47:03.906Z</time>
      </trkpt>
      <trkpt lat="48.84424" lon="2.42134">
        <ele>97.8</ele>
        <time>2015-03-02T20:47:04.919Z</time>
      </trkpt>
      <trkpt lat="48.84429" lon="2.42143">
        <ele>97.3</ele>
        <time>2015-03-02T20:47:08.974Z</time>
      </trkpt>
      <trkpt lat="48.8443" lon="2.42145">
        <ele>97.4</ele>
        <time>2015-03-02T20:47:09.980Z</time>
      </trkpt>
      <trkpt lat="48.84435" lon="2.42154">
        <ele>98.3</ele>
        <time>2015-03-02T20:47:14.941Z</time>
      </trkpt>
      <trkpt lat="48.84436" lon="2.42157">
        <ele>98.8</ele>
        <time>2015-03-02T20:47:15.952Z</time>
      </trkpt>
      <trkpt lat="48.84444" lon="2.4216">
        <ele>99.6</ele>
        <time>2015-03-02T20:47:20.993Z</time>
      </trkpt>
      <trkpt lat="48.84445" lon="2.4216">
        <ele>99.7</ele>
        <time>2015-03-02T20:47:21.937Z</time>
      </trkpt>
      <trkpt lat="48.8445" lon="2.4215">
        <ele>100.8</ele>
        <time>2015-03-02T20:47:27.942Z</time>
      </trkpt>
      <trkpt lat="48.84451" lon="2.42148">
        <ele>100.8</ele>
        <time>2015-03-02T20:47:28.948Z</time>
      </trkpt>
      <trkpt lat="48.84458" lon="2.42141">
        <ele>101.4</ele>
        <time>2015-03-02T20:47:31.960Z</time>
      </trkpt>
      <trkpt lat="48.8446" lon="2.42138">
        <ele>101.2</ele>
        <time>2015-03-02T20:47:33.000Z</time>
      </trkpt>
      <trkpt lat="48.84465" lon="2.42131">
        <ele>101.2</ele>
        <time>2015-03-02T20:47:34.923Z</time>
      </trkpt>
      <trkpt lat="48.84467" lon="2.42128">
        <ele>101.2</ele>
        <time>2015-03-02T20:47:35.956Z</time>
      </trkpt>
      <trkpt lat="48.84471" lon="2.4212">
        <ele>101.1</ele>
        <time>2015-03-02T20:47:39.420Z</time>
      </trkpt>
      <trkpt lat="48.84473" lon="2.42117">
        <ele>101</ele>
        <time>2015-03-02T20:47:39.926Z</time>
      </trkpt>
      <trkpt lat="48.84478" lon="2.42108">
        <ele>101.1</ele>
        <time>2015-03-02T20:47:42.957Z</time>
      </trkpt>
      <trkpt lat="48.84479" lon="2.42106">
        <ele>101</ele>
        <time>2015-03-02T20:47:43.971Z</time>
      </trkpt>
      <trkpt lat="48.84483" lon="2.42098">
        <ele>101.1</ele>
        <time>2015-03-02T20:47:47.025Z</time>
      </trkpt>
      <trkpt lat="48.84485" lon="2.42096">
        <ele>101.3</ele>
        <time>2015-03-02T20:47:48.070Z</time>
      </trkpt>
      <trkpt lat="48.8449" lon="2.42088">
        <ele>101.9</ele>
        <time>2015-03-02T20:47:51.000Z</time>
      </trkpt>
      <trkpt lat="48.84492" lon="2.42084">
        <ele>102.4</ele>
        <time>2015-03-02T20:47:51.986Z</time>
      </trkpt>
      <trkpt lat="48.84498" lon="2.42077">
        <ele>103.7</ele>
        <time>2015-03-02T20:47:53.920Z</time>
      </trkpt>
      <trkpt lat="48.845" lon="2.42073">
        <ele>104.2</ele>
        <time>2015-03-02T20:47:54.932Z</time>
      </trkpt>
      <trkpt lat="48.84507" lon="2.4207">
        <ele>104.6</ele>
        <time>2015-03-02T20:47:56.955Z</time>
      </trkpt>
      <trkpt lat="48.84511" lon="2.42068">
        <ele>104.7</ele>
        <time>2015-03-02T20:47:57.902Z</time>
      </trkpt>
      <trkpt lat="48.84514" lon="2.42055">
        <ele>104.5</ele>
        <time>2015-03-02T20:48:01.919Z</time>
      </trkpt>
      <trkpt lat="48.84515" lon="2.42052">
        <ele>104.8</ele>
        <time>2015-03-02T20:48:02.968Z</time>
      </trkpt>
      <trkpt lat="48.84521" lon="2.42044">
        <ele>105.2</ele>
        <time>2015-03-02T20:48:05.887Z</time>
      </trkpt>
      <trkpt lat="48.84523" lon="2.42042">
        <ele>105.4</ele>
        <time>2015-03-02T20:48:06.886Z</time>
      </trkpt>
      <trkpt lat="48.84529" lon="2.42035">
        <ele>106.5</ele>
        <time>2015-03-02T20:48:09.978Z</time>
      </trkpt>
      <trkpt lat="48.84531" lon="2.42031">
        <ele>107</ele>
        <time>2015-03-02T20:48:10.884Z</time>
      </trkpt>
      <trkpt lat="48.84537" lon="2.42029">
        <ele>107.2</ele>
        <time>2015-03-02T20:48:12.916Z</time>
      </trkpt>
      <trkpt lat="48.8454" lon="2.42028">
        <ele>107.4</ele>
        <time>2015-03-02T20:48:14.124Z</time>
      </trkpt>
      <trkpt lat="48.84548" lon="2.42024">
        <ele>107.8</ele>
        <time>2015-03-02T20:48:15.936Z</time>
      </trkpt>
      <trkpt lat="48.84552" lon="2.42022">
        <ele>107.9</ele>
        <time>2015-03-02T20:48:16.941Z</time>
      </trkpt>
      <trkpt lat="48.84557" lon="2.42018">
        <ele>108.2</ele>
        <time>2015-03-02T20:48:19.320Z</time>
      </trkpt>
      <trkpt lat="48.84561" lon="2.42015">
        <ele>108.3</ele>
        <time>2015-03-02T20:48:20.013Z</time>
      </trkpt>
      <trkpt lat="48.84567" lon="2.42008">
        <ele>108.6</ele>
        <time>2015-03-02T20:48:21.911Z</time>
      </trkpt>
      <trkpt lat="48.84568" lon="2.42003">
        <ele>108.7</ele>
        <time>2015-03-02T20:48:22.965Z</time>
      </trkpt>
      <trkpt lat="48.84573" lon="2.41995">
        <ele>108.9</ele>
        <time>2015-03-02T20:48:24.916Z</time>
      </trkpt>
      <trkpt lat="48.84575" lon="2.41991">
        <ele>109.1</ele>
        <time>2015-03-02T20:48:25.921Z</time>
      </trkpt>
      <trkpt lat="48.84581" lon="2.41984">
        <ele>109.5</ele>
        <time>2015-03-02T20:48:27.951Z</time>
      </trkpt>
      <trkpt lat="48.84583" lon="2.41979">
        <ele>109.6</ele>
        <time>2015-03-02T20:48:28.955Z</time>
      </trkpt>
      <trkpt lat="48.84587" lon="2.41971">
        <ele>109.8</ele>
        <time>2015-03-02T20:48:30.987Z</time>
      </trkpt>
      <trkpt lat="48.8459" lon="2.41966">
        <ele>110</ele>
        <time>2015-03-02T20:48:31.994Z</time>
      </trkpt>
      <trkpt lat="48.84597" lon="2.41957">
        <ele>110.3</ele>
        <time>2015-03-02T20:48:34.491Z</time>
      </trkpt>
      <trkpt lat="48.846" lon="2.41953">
        <ele>110.3</ele>
        <time>2015-03-02T20:48:34.950Z</time>
      </trkpt>
      <trkpt lat="48.84607" lon="2.41946">
        <ele>110.3</ele>
        <time>2015-03-02T20:48:36.982Z</time>
      </trkpt>
      <trkpt lat="48.84612" lon="2.41941">
        <ele>110.3</ele>
        <time>2015-03-02T20:48:38.062Z</time>
      </trkpt>
      <trkpt lat="48.84616" lon="2.41937">
        <ele>110.3</ele>
        <time>2015-03-02T20:48:39.556Z</time>
      </trkpt>
      <trkpt lat="48.84619" lon="2.41932">
        <ele>110.3</ele>
        <time>2015-03-02T20:48:39.955Z</time>
      </trkpt>
      <trkpt lat="48.84624" lon="2.41924">
        <ele>110.7</ele>
        <time>2015-03-02T20:48:42.009Z</time>
      </trkpt>
      <trkpt lat="48.84629" lon="2.41921">
        <ele>110.8</ele>
        <time>2015-03-02T20:48:43.046Z</time>
      </trkpt>
      <trkpt lat="48.84635" lon="2.41914">
        <ele>111</ele>
        <time>2015-03-02T20:48:45.006Z</time>
      </trkpt>
      <trkpt lat="48.84637" lon="2.41911">
        <ele>111.2</ele>
        <time>2015-03-02T20:48:46.113Z</time>
      </trkpt>
      <trkpt lat="48.84643" lon="2.41904">
        <ele>111.4</ele>
        <time>2015-03-02T20:48:47.911Z</time>
      </trkpt>
      <trkpt lat="48.84647" lon="2.41901">
        <ele>111.5</ele>
        <time>2015-03-02T20:48:48.912Z</time>
      </trkpt>
      <trkpt lat="48.84653" lon="2.41894">
        <ele>111.8</ele>
        <time>2015-03-02T20:48:51.724Z</time>
      </trkpt>
      <trkpt lat="48.84657" lon="2.41891">
        <ele>112</ele>
        <time>2015-03-02T20:48:51.900Z</time>
      </trkpt>
      <trkpt lat="48.84663" lon="2.41882">
        <ele>112.7</ele>
        <time>2015-03-02T20:48:54.960Z</time>
      </trkpt>
      <trkpt lat="48.84664" lon="2.4188">
        <ele>112.6</ele>
        <time>2015-03-02T20:48:55.974Z</time>
      </trkpt>
      <trkpt lat="48.84669" lon="2.4187">
        <ele>112.7</ele>
        <time>2015-03-02T20:48:58.883Z</time>
      </trkpt>
      <trkpt lat="48.84671" lon="2.41868">
        <ele>112.7</ele>
        <time>2015-03-02T20:48:59.915Z</time>
      </trkpt>
      <trkpt lat="48.84667" lon="2.4186">
        <ele>112.8</ele>
        <time>2015-03-02T20:49:03.787Z</time>
      </trkpt>
      <trkpt lat="48.84666" lon="2.41856">
        <ele>112.7</ele>
        <time>2015-03-02T20:49:03.974Z</time>
      </trkpt>
      <trkpt lat="48.84662" lon="2.41852">
        <ele>112.8</ele>
        <time>2015-03-02T20:49:04.981Z</time>
      </trkpt>
      <trkpt lat="48.84651" lon="2.41843">
        <ele>113.3</ele>
        <time>2015-03-02T20:49:05.993Z</time>
      </trkpt>
      <trkpt lat="48.84645" lon="2.41839">
        <ele>113.2</ele>
        <time>2015-03-02T20:49:10.925Z</time>
      </trkpt>
      <trkpt lat="48.84639" lon="2.41828">
        <ele>113.2</ele>
        <time>2015-03-02T20:49:11.928Z</time>
      </trkpt>
      <trkpt lat="48.84644" lon="2.41835">
        <ele>112.1</ele>
        <time>2015-03-02T20:49:20.959Z</time>
      </trkpt>
      <trkpt lat="48.84646" lon="2.41841">
        <ele>112.5</ele>
        <time>2015-03-02T20:49:21.978Z</time>
      </trkpt>
      <trkpt lat="48.84644" lon="2.41848">
        <ele>111.8</ele>
        <time>2015-03-02T20:49:22.887Z</time>
      </trkpt>
      <trkpt lat="48.84642" lon="2.41854">
        <ele>111.6</ele>
        <time>2015-03-02T20:49:23.916Z</time>
      </trkpt>
      <trkpt lat="48.84639" lon="2.41864">
        <ele>111</ele>
        <time>2015-03-02T20:49:25.928Z</time>
      </trkpt>
      <trkpt lat="48.84636" lon="2.41869">
        <ele>110.7</ele>
        <time>2015-03-02T20:49:26.998Z</time>
      </trkpt>
      <trkpt lat="48.84634" lon="2.41881">
        <ele>110.2</ele>
        <time>2015-03-02T20:49:29.263Z</time>
      </trkpt>
      <trkpt lat="48.84633" lon="2.41886">
        <ele>110</ele>
        <time>2015-03-02T20:49:29.941Z</time>
      </trkpt>
      <trkpt lat="48.84632" lon="2.41897">
        <ele>109.8</ele>
        <time>2015-03-02T20:49:31.977Z</time>
      </trkpt>
      <trkpt lat="48.84631" lon="2.41902">
        <ele>109.1</ele>
        <time>2015-03-02T20:49:33.062Z</time>
      </trkpt>
      <trkpt lat="48.84634" lon="2.41914">
        <ele>108.7</ele>
        <time>2015-03-02T20:49:34.939Z</time>
      </trkpt>
      <trkpt lat="48.84634" lon="2.41919">
        <ele>108.5</ele>
        <time>2015-03-02T20:49:35.958Z</time>
      </trkpt>
      <trkpt lat="48.84633" lon="2.4193">
        <ele>108.6</ele>
        <time>2015-03-02T20:49:37.887Z</time>
      </trkpt>
      <trkpt lat="48.84634" lon="2.41935">
        <ele>108.6</ele>
        <time>2015-03-02T20:49:39.013Z</time>
      </trkpt>
      <trkpt lat="48.84636" lon="2.41945">
        <ele>108.7</ele>
        <time>2015-03-02T20:49:40.959Z</time>
      </trkpt>
      <trkpt lat="48.84635" lon="2.4195">
        <ele>108.8</ele>
        <time>2015-03-02T20:49:42.028Z</time>
      </trkpt>
      <trkpt lat="48.84633" lon="2.41959">
        <ele>108.8</ele>
        <time>2015-03-02T20:49:44.501Z</time>
      </trkpt>
      <trkpt lat="48.84633" lon="2.41964">
        <ele>108.5</ele>
        <time>2015-03-02T20:49:45.032Z</time>
      </trkpt>
      <trkpt lat="48.84635" lon="2.41973">
        <ele>108.5</ele>
        <time>2015-03-02T20:49:46.873Z</time>
      </trkpt>
      <trkpt lat="48.84636" lon="2.41977">
        <ele>108.2</ele>
        <time>2015-03-02T20:49:47.966Z</time>
      </trkpt>
      <trkpt lat="48.8464" lon="2.41989">
        <ele>108.2</ele>
        <time>2015-03-02T20:49:50.952Z</time>
      </trkpt>
      <trkpt lat="48.84642" lon="2.41992">
        <ele>108.1</ele>
        <time>2015-03-02T20:49:51.970Z</time>
      </trkpt>
      <trkpt lat="48.84647" lon="2.42003">
        <ele>108.1</ele>
        <time>2015-03-02T20:49:54.921Z</time>
      </trkpt>
      <trkpt lat="48.8465" lon="2.42006">
        <ele>108.2</ele>
        <time>2015-03-02T20:49:55.930Z</time>
      </trkpt>
      <trkpt lat="48.84654" lon="2.42013">
        <ele>108.4</ele>
        <time>2015-03-02T20:49:57.947Z</time>
      </trkpt>
      <trkpt lat="48.84656" lon="2.42016">
        <ele>108.5</ele>
        <time>2015-03-02T20:49:58.980Z</time>
      </trkpt>
      <trkpt lat="48.8466" lon="2.42022">
        <ele>109.1</ele>
        <time>2015-03-02T20:50:00.996Z</time>
      </trkpt>
      <trkpt lat="48.84664" lon="2.42026">
        <ele>110.5</ele>
        <time>2015-03-02T20:50:01.923Z</time>
      </trkpt>
      <trkpt lat="48.84667" lon="2.42036">
        <ele>110.6</ele>
        <time>2015-03-02T20:50:04.969Z</time>
      </trkpt>
      <trkpt lat="48.84668" lon="2.42039">
        <ele>110.6</ele>
        <time>2015-03-02T20:50:05.976Z</time>
      </trkpt>
      <trkpt lat="48.84674" lon="2.42049">
        <ele>110.6</ele>
        <time>2015-03-02T20:50:09.186Z</time>
      </trkpt>
      <trkpt lat="48.84677" lon="2.42052">
        <ele>110.4</ele>
        <time>2015-03-02T20:50:09.912Z</time>
      </trkpt>
      <trkpt lat="48.84682" lon="2.42058">
        <ele>109.7</ele>
        <time>2015-03-02T20:50:12.957Z</time>
      </trkpt>
      <trkpt lat="48.84684" lon="2.4206">
        <ele>109.5</ele>
        <time>2015-03-02T20:50:13.984Z</time>
      </trkpt>
      <trkpt lat="48.84692" lon="2.42066">
        <ele>109.3</ele>
        <time>2015-03-02T20:50:16.885Z</time>
      </trkpt>
      <trkpt lat="48.84694" lon="2.42068">
        <ele>109.4</ele>
        <time>2015-03-02T20:50:17.891Z</time>
      </trkpt>
      <trkpt lat="48.84701" lon="2.42072">
        <ele>109.7</ele>
        <time>2015-03-02T20:50:19.932Z</time>
      </trkpt>
      <trkpt lat="48.84704" lon="2.42075">
        <ele>109.8</ele>
        <time>2015-03-02T20:50:20.931Z</time>
      </trkpt>
      <trkpt lat="48.8471" lon="2.42078">
        <ele>109.9</ele>
        <time>2015-03-02T20:50:22.988Z</time>
      </trkpt>
      <trkpt lat="48.84713" lon="2.4208">
        <ele>109.9</ele>
        <time>2015-03-02T20:50:23.900Z</time>
      </trkpt>
      <trkpt lat="48.8472" lon="2.42088">
        <ele>109.5</ele>
        <time>2015-03-02T20:50:26.933Z</time>
      </trkpt>
      <trkpt lat="48.84722" lon="2.42091">
        <ele>109.4</ele>
        <time>2015-03-02T20:50:27.943Z</time>
      </trkpt>
      <trkpt lat="48.84727" lon="2.42099">
        <ele>109</ele>
        <time>2015-03-02T20:50:31.036Z</time>
      </trkpt>
      <trkpt lat="48.84729" lon="2.42101">
        <ele>109</ele>
        <time>2015-03-02T20:50:31.965Z</time>
      </trkpt>
      <trkpt lat="48.84736" lon="2.42106">
        <ele>108.8</ele>
        <time>2015-03-02T20:50:34.733Z</time>
      </trkpt>
      <trkpt lat="48.8474" lon="2.42108">
        <ele>108.7</ele>
        <time>2015-03-02T20:50:34.864Z</time>
      </trkpt>
      <trkpt lat="48.84742" lon="2.42112">
        <ele>108.5</ele>
        <time>2015-03-02T20:50:35.894Z</time>
      </trkpt>
      <trkpt lat="48.84741" lon="2.42121">
        <ele>108.2</ele>
        <time>2015-03-02T20:50:36.921Z</time>
      </trkpt>
      <trkpt lat="48.84737" lon="2.42136">
        <ele>107.4</ele>
        <time>2015-03-02T20:50:37.900Z</time>
      </trkpt>
      <trkpt lat="48.84735" lon="2.42145">
        <ele>106.7</ele>
        <time>2015-03-02T20:50:38.929Z</time>
      </trkpt>
      <trkpt lat="48.84735" lon="2.42154">
        <ele>106.1</ele>
        <time>2015-03-02T20:50:39.992Z</time>
      </trkpt>
      <trkpt lat="48.84735" lon="2.42163">
        <ele>105.5</ele>
        <time>2015-03-02T20:50:40.897Z</time>
      </trkpt>
      <trkpt lat="48.84735" lon="2.42171">
        <ele>105.1</ele>
        <time>2015-03-02T20:50:41.910Z</time>
      </trkpt>
      <trkpt lat="48.84737" lon="2.42178">
        <ele>104.8</ele>
        <time>2015-03-02T20:50:42.927Z</time>
      </trkpt>
      <trkpt lat="48.8474" lon="2.42183">
        <ele>104.6</ele>
        <time>2015-03-02T20:50:43.951Z</time>
      </trkpt>
      <trkpt lat="48.84741" lon="2.42193">
        <ele>104.7</ele>
        <time>2015-03-02T20:50:45.187Z</time>
      </trkpt>
      <trkpt lat="48.84743" lon="2.42201">
        <ele>104.8</ele>
        <time>2015-03-02T20:50:45.976Z</time>
      </trkpt>
      <trkpt lat="48.84745" lon="2.4221">
        <ele>104.9</ele>
        <time>2015-03-02T20:50:47.033Z</time>
      </trkpt>
      <trkpt lat="48.84747" lon="2.42219">
        <ele>105</ele>
        <time>2015-03-02T20:50:47.890Z</time>
      </trkpt>
      <trkpt lat="48.8475" lon="2.42227">
        <ele>105.1</ele>
        <time>2015-03-02T20:50:48.888Z</time>
      </trkpt>
      <trkpt lat="48.84752" lon="2.42234">
        <ele>105.2</ele>
        <time>2015-03-02T20:50:49.890Z</time>
      </trkpt>
      <trkpt lat="48.84754" lon="2.42245">
        <ele>105.6</ele>
        <time>2015-03-02T20:50:50.914Z</time>
      </trkpt>
      <trkpt lat="48.84756" lon="2.42252">
        <ele>105.7</ele>
        <time>2015-03-02T20:50:51.918Z</time>
      </trkpt>
      <trkpt lat="48.84758" lon="2.4226">
        <ele>105.8</ele>
        <time>2015-03-02T20:50:52.931Z</time>
      </trkpt>
      <trkpt lat="48.84762" lon="2.42267">
        <ele>105.8</ele>
        <time>2015-03-02T20:50:53.946Z</time>
      </trkpt>
      <trkpt lat="48.84765" lon="2.42276">
        <ele>106</ele>
        <time>2015-03-02T20:50:54.898Z</time>
      </trkpt>
      <trkpt lat="48.84768" lon="2.42284">
        <ele>106.5</ele>
        <time>2015-03-02T20:50:55.888Z</time>
      </trkpt>
      <trkpt lat="48.8477" lon="2.42291">
        <ele>106.7</ele>
        <time>2015-03-02T20:50:56.918Z</time>
      </trkpt>
      <trkpt lat="48.84773" lon="2.42298">
        <ele>106.6</ele>
        <time>2015-03-02T20:50:57.922Z</time>
      </trkpt>
      <trkpt lat="48.84776" lon="2.42305">
        <ele>106.5</ele>
        <time>2015-03-02T20:50:58.942Z</time>
      </trkpt>
      <trkpt lat="48.84779" lon="2.42311">
        <ele>106.4</ele>
        <time>2015-03-02T20:50:59.947Z</time>
      </trkpt>
      <trkpt lat="48.84781" lon="2.42317">
        <ele>106.4</ele>
        <time>2015-03-02T20:51:00.963Z</time>
      </trkpt>
      <trkpt lat="48.84784" lon="2.42324">
        <ele>106.3</ele>
        <time>2015-03-02T20:51:01.984Z</time>
      </trkpt>
      <trkpt lat="48.84784" lon="2.42335">
        <ele>106.5</ele>
        <time>2015-03-02T20:51:02.992Z</time>
      </trkpt>
      <trkpt lat="48.84787" lon="2.42341">
        <ele>106.3</ele>
        <time>2015-03-02T20:51:03.896Z</time>
      </trkpt>
      <trkpt lat="48.84789" lon="2.42348">
        <ele>106.1</ele>
        <time>2015-03-02T20:51:04.908Z</time>
      </trkpt>
      <trkpt lat="48.84791" lon="2.42354">
        <ele>106</ele>
        <time>2015-03-02T20:51:05.917Z</time>
      </trkpt>
      <trkpt lat="48.84793" lon="2.42361">
        <ele>105.9</ele>
        <time>2015-03-02T20:51:06.940Z</time>
      </trkpt>
      <trkpt lat="48.84794" lon="2.42368">
        <ele>105.9</ele>
        <time>2015-03-02T20:51:07.943Z</time>
      </trkpt>
      <trkpt lat="48.84797" lon="2.42378">
        <ele>105.8</ele>
        <time>2015-03-02T20:51:10.004Z</time>
      </trkpt>
      <trkpt lat="48.84799" lon="2.42382">
        <ele>105.8</ele>
        <time>2015-03-02T20:51:10.917Z</time>
      </trkpt>
      <trkpt lat="48.84799" lon="2.42393">
        <ele>105.9</ele>
        <time>2015-03-02T20:51:12.973Z</time>
      </trkpt>
      <trkpt lat="48.84798" lon="2.42399">
        <ele>105.8</ele>
        <time>2015-03-02T20:51:14.087Z</time>
      </trkpt>
      <trkpt lat="48.84797" lon="2.4241">
        <ele>104.7</ele>
        <time>2015-03-02T20:51:16.959Z</time>
      </trkpt>
      <trkpt lat="48.84797" lon="2.42413">
        <ele>104.6</ele>
        <time>2015-03-02T20:51:17.894Z</time>
      </trkpt>
      <trkpt lat="48.84796" lon="2.42417">
        <ele>104.4</ele>
        <time>2015-03-02T20:51:19.907Z</time>
      </trkpt>
      <trkpt lat="48.84795" lon="2.42418">
        <ele>104.3</ele>
        <time>2015-03-02T20:51:20.945Z</time>
      </trkpt>
      <trkpt lat="48.84795" lon="2.42419">
        <ele>104.4</ele>
        <time>2015-03-02T20:52:15.921Z</time>
      </trkpt>
      <trkpt lat="48.84799" lon="2.4242">
        <ele>105.5</ele>
        <time>2015-03-02T20:52:16.947Z</time>
      </trkpt>
      <trkpt lat="48.84802" lon="2.42431">
        <ele>105.1</ele>
        <time>2015-03-02T20:52:22.903Z</time>
      </trkpt>
      <trkpt lat="48.84803" lon="2.42433">
        <ele>105.1</ele>
        <time>2015-03-02T20:52:23.890Z</time>
      </trkpt>
      <trkpt lat="48.84808" lon="2.42437">
        <ele>105.3</ele>
        <time>2015-03-02T20:52:29.957Z</time>
      </trkpt>
      <trkpt lat="48.84808" lon="2.42437">
        <ele>105.4</ele>
        <time>2015-03-02T20:52:30.934Z</time>
      </trkpt>
      <trkpt lat="48.84808" lon="2.42437">
        <ele>105.6</ele>
        <time>2015-03-02T20:52:32.942Z</time>
      </trkpt>
      <trkpt lat="48.84808" lon="2.42437">
        <ele>105.7</ele>
        <time>2015-03-02T20:52:33.953Z</time>
      </trkpt>
      <trkpt lat="48.84812" lon="2.42447">
        <ele>105.3</ele>
        <time>2015-03-02T20:52:43.938Z</time>
      </trkpt>
      <trkpt lat="48.84814" lon="2.42449">
        <ele>105.3</ele>
        <time>2015-03-02T20:52:44.963Z</time>
      </trkpt>
      <trkpt lat="48.84821" lon="2.42452">
        <ele>105.4</ele>
        <time>2015-03-02T20:52:46.875Z</time>
      </trkpt>
      <trkpt lat="48.84824" lon="2.42453">
        <ele>105.2</ele>
        <time>2015-03-02T20:52:47.911Z</time>
      </trkpt>
      <trkpt lat="48.8483" lon="2.42454">
        <ele>105.3</ele>
        <time>2015-03-02T20:52:49.944Z</time>
      </trkpt>
      <trkpt lat="48.84834" lon="2.42454">
        <ele>105.4</ele>
        <time>2015-03-02T20:52:50.957Z</time>
      </trkpt>
      <trkpt lat="48.84842" lon="2.42452">
        <ele>105.5</ele>
        <time>2015-03-02T20:52:52.980Z</time>
      </trkpt>
      <trkpt lat="48.84846" lon="2.42452">
        <ele>105.6</ele>
        <time>2015-03-02T20:52:53.998Z</time>
      </trkpt>
      <trkpt lat="48.84851" lon="2.42461">
        <ele>106</ele>
        <time>2015-03-02T20:52:55.916Z</time>
      </trkpt>
      <trkpt lat="48.84852" lon="2.42469">
        <ele>106.2</ele>
        <time>2015-03-02T20:52:56.958Z</time>
      </trkpt>
      <trkpt lat="48.84852" lon="2.42477">
        <ele>106.4</ele>
        <time>2015-03-02T20:52:57.968Z</time>
      </trkpt>
      <trkpt lat="48.84852" lon="2.42486">
        <ele>106.6</ele>
        <time>2015-03-02T20:52:58.983Z</time>
      </trkpt>
      <trkpt lat="48.84852" lon="2.42494">
        <ele>106.8</ele>
        <time>2015-03-02T20:52:59.903Z</time>
      </trkpt>
      <trkpt lat="48.84853" lon="2.42501">
        <ele>107</ele>
        <time>2015-03-02T20:53:00.884Z</time>
      </trkpt>
      <trkpt lat="48.84856" lon="2.42514">
        <ele>107.2</ele>
        <time>2015-03-02T20:53:02.949Z</time>
      </trkpt>
      <trkpt lat="48.84856" lon="2.4252">
        <ele>107.3</ele>
        <time>2015-03-02T20:53:03.950Z</time>
      </trkpt>
      <trkpt lat="48.84858" lon="2.42527">
        <ele>107.3</ele>
        <time>2015-03-02T20:53:04.976Z</time>
      </trkpt>
      <trkpt lat="48.8486" lon="2.42535">
        <ele>107.2</ele>
        <time>2015-03-02T20:53:06.030Z</time>
      </trkpt>
      <trkpt lat="48.8486" lon="2.42543">
        <ele>107</ele>
        <time>2015-03-02T20:53:06.996Z</time>
      </trkpt>
      <trkpt lat="48.84862" lon="2.4255">
        <ele>106.9</ele>
        <time>2015-03-02T20:53:07.907Z</time>
      </trkpt>
      <trkpt lat="48.84863" lon="2.42557">
        <ele>107</ele>
        <time>2015-03-02T20:53:08.943Z</time>
      </trkpt>
      <trkpt lat="48.84864" lon="2.42565">
        <ele>106.9</ele>
        <time>2015-03-02T20:53:09.952Z</time>
      </trkpt>
      <trkpt lat="48.84866" lon="2.42577">
        <ele>107.1</ele>
        <time>2015-03-02T20:53:11.987Z</time>
      </trkpt>
      <trkpt lat="48.84868" lon="2.42582">
        <ele>107.1</ele>
        <time>2015-03-02T20:53:12.913Z</time>
      </trkpt>
      <trkpt lat="48.84871" lon="2.42592">
        <ele>106.8</ele>
        <time>2015-03-02T20:53:14.972Z</time>
      </trkpt>
      <trkpt lat="48.84872" lon="2.42597">
        <ele>106.7</ele>
        <time>2015-03-02T20:53:15.987Z</time>
      </trkpt>
      <trkpt lat="48.84875" lon="2.42607">
        <ele>106.4</ele>
        <time>2015-03-02T20:53:17.897Z</time>
      </trkpt>
      <trkpt lat="48.84877" lon="2.42611">
        <ele>106.2</ele>
        <time>2015-03-02T20:53:18.936Z</time>
      </trkpt>
      <trkpt lat="48.84882" lon="2.42621">
        <ele>106.1</ele>
        <time>2015-03-02T20:53:22.044Z</time>
      </trkpt>
      <trkpt lat="48.84884" lon="2.42624">
        <ele>106.1</ele>
        <time>2015-03-02T20:53:22.963Z</time>
      </trkpt>
      <trkpt lat="48.84892" lon="2.4263">
        <ele>106.4</ele>
        <time>2015-03-02T20:53:25.915Z</time>
      </trkpt>
      <trkpt lat="48.84894" lon="2.42635">
        <ele>106.6</ele>
        <time>2015-03-02T20:53:26.957Z</time>
      </trkpt>
      <trkpt lat="48.84902" lon="2.42638">
        <ele>107.7</ele>
        <time>2015-03-02T20:53:33.982Z</time>
      </trkpt>
      <trkpt lat="48.84904" lon="2.42636">
        <ele>108</ele>
        <time>2015-03-02T20:53:34.997Z</time>
      </trkpt>
      <trkpt lat="48.84911" lon="2.42633">
        <ele>108.6</ele>
        <time>2015-03-02T20:53:38.955Z</time>
      </trkpt>
      <trkpt lat="48.84913" lon="2.42632">
        <ele>108.6</ele>
        <time>2015-03-02T20:53:39.968Z</time>
      </trkpt>
      <trkpt lat="48.8492" lon="2.42628">
        <ele>108.7</ele>
        <time>2015-03-02T20:53:44.988Z</time>
      </trkpt>
      <trkpt lat="48.84922" lon="2.42627">
        <ele>108.6</ele>
        <time>2015-03-02T20:53:45.997Z</time>
      </trkpt>
      <trkpt lat="48.84926" lon="2.4262">
        <ele>108.9</ele>
        <time>2015-03-02T20:53:49.975Z</time>
      </trkpt>
      <trkpt lat="48.84929" lon="2.42618">
        <ele>109</ele>
        <time>2015-03-02T20:53:51.006Z</time>
      </trkpt>
      <trkpt lat="48.84931" lon="2.42616">
        <ele>109</ele>
        <time>2015-03-02T20:53:51.890Z</time>
      </trkpt>
      <trkpt lat="48.84942" lon="2.42611">
        <ele>108.9</ele>
        <time>2015-03-02T20:53:54.902Z</time>
      </trkpt>
      <trkpt lat="48.84949" lon="2.42606">
        <ele>108.6</ele>
        <time>2015-03-02T20:53:57.979Z</time>
      </trkpt>
      <trkpt lat="48.84951" lon="2.42604">
        <ele>108.5</ele>
        <time>2015-03-02T20:53:58.971Z</time>
      </trkpt>
      <trkpt lat="48.84956" lon="2.42595">
        <ele>108.6</ele>
        <time>2015-03-02T20:54:01.006Z</time>
      </trkpt>
      <trkpt lat="48.8496" lon="2.42592">
        <ele>109</ele>
        <time>2015-03-02T20:54:01.998Z</time>
      </trkpt>
      <trkpt lat="48.84966" lon="2.42585">
        <ele>108.8</ele>
        <time>2015-03-02T20:54:03.965Z</time>
      </trkpt>
      <trkpt lat="48.84969" lon="2.42581">
        <ele>108.7</ele>
        <time>2015-03-02T20:54:04.980Z</time>
      </trkpt>
      <trkpt lat="48.84976" lon="2.42573">
        <ele>109</ele>
        <time>2015-03-02T20:54:06.917Z</time>
      </trkpt>
      <trkpt lat="48.84981" lon="2.4257">
        <ele>109.5</ele>
        <time>2015-03-02T20:54:07.936Z</time>
      </trkpt>
      <trkpt lat="48.84985" lon="2.42567">
        <ele>109.9</ele>
        <time>2015-03-02T20:54:08.960Z</time>
      </trkpt>
      <trkpt lat="48.84989" lon="2.42563">
        <ele>110</ele>
        <time>2015-03-02T20:54:10.017Z</time>
      </trkpt>
      <trkpt lat="48.84997" lon="2.42559">
        <ele>110.5</ele>
        <time>2015-03-02T20:54:11.905Z</time>
      </trkpt>
      <trkpt lat="48.85001" lon="2.42556">
        <ele>110.5</ele>
        <time>2015-03-02T20:54:12.921Z</time>
      </trkpt>
      <trkpt lat="48.85007" lon="2.42549">
        <ele>110.8</ele>
        <time>2015-03-02T20:54:14.981Z</time>
      </trkpt>
      <trkpt lat="48.8501" lon="2.42546">
        <ele>111</ele>
        <time>2015-03-02T20:54:15.928Z</time>
      </trkpt>
      <trkpt lat="48.85016" lon="2.42538">
        <ele>111.1</ele>
        <time>2015-03-02T20:54:17.956Z</time>
      </trkpt>
      <trkpt lat="48.85016" lon="2.42535">
        <ele>110.1</ele>
        <time>2015-03-02T20:54:18.970Z</time>
      </trkpt>
      <trkpt lat="48.85021" lon="2.4253">
        <ele>109.4</ele>
        <time>2015-03-02T20:54:20.992Z</time>
      </trkpt>
      <trkpt lat="48.85024" lon="2.42527">
        <ele>109.3</ele>
        <time>2015-03-02T20:54:21.916Z</time>
      </trkpt>
      <trkpt lat="48.85031" lon="2.42522">
        <ele>109.3</ele>
        <time>2015-03-02T20:54:24.022Z</time>
      </trkpt>
      <trkpt lat="48.85034" lon="2.42519">
        <ele>109.2</ele>
        <time>2015-03-02T20:54:24.958Z</time>
      </trkpt>
      <trkpt lat="48.85039" lon="2.42514">
        <ele>109.4</ele>
        <time>2015-03-02T20:54:26.992Z</time>
      </trkpt>
      <trkpt lat="48.85042" lon="2.42512">
        <ele>109.5</ele>
        <time>2015-03-02T20:54:27.919Z</time>
      </trkpt>
      <trkpt lat="48.85049" lon="2.42507">
        <ele>109.4</ele>
        <time>2015-03-02T20:54:29.921Z</time>
      </trkpt>
      <trkpt lat="48.85051" lon="2.42505">
        <ele>109.2</ele>
        <time>2015-03-02T20:54:30.948Z</time>
      </trkpt>
      <trkpt lat="48.85056" lon="2.42499">
        <ele>109.3</ele>
        <time>2015-03-02T20:54:32.999Z</time>
      </trkpt>
      <trkpt lat="48.8506" lon="2.42495">
        <ele>109.3</ele>
        <time>2015-03-02T20:54:33.914Z</time>
      </trkpt>
      <trkpt lat="48.85066" lon="2.42491">
        <ele>108.7</ele>
        <time>2015-03-02T20:54:34.948Z</time>
      </trkpt>
      <trkpt lat="48.85068" lon="2.42489">
        <ele>108.7</ele>
        <time>2015-03-02T20:54:35.945Z</time>
      </trkpt>
      <trkpt lat="48.85072" lon="2.42487">
        <ele>108.8</ele>
        <time>2015-03-02T20:54:36.964Z</time>
      </trkpt>
      <trkpt lat="48.85081" lon="2.42483">
        <ele>110.4</ele>
        <time>2015-03-02T20:54:37.975Z</time>
      </trkpt>
      <trkpt lat="48.85088" lon="2.4248">
        <ele>111.4</ele>
        <time>2015-03-02T20:54:38.999Z</time>
      </trkpt>
      <trkpt lat="48.85092" lon="2.42477">
        <ele>111.6</ele>
        <time>2015-03-02T20:54:40.013Z</time>
      </trkpt>
      <trkpt lat="48.85098" lon="2.42471">
        <ele>111.9</ele>
        <time>2015-03-02T20:54:41.923Z</time>
      </trkpt>
      <trkpt lat="48.85101" lon="2.42468">
        <ele>112</ele>
        <time>2015-03-02T20:54:42.927Z</time>
      </trkpt>
      <trkpt lat="48.85105" lon="2.42463">
        <ele>112.3</ele>
        <time>2015-03-02T20:54:45.008Z</time>
      </trkpt>
      <trkpt lat="48.85108" lon="2.42459">
        <ele>112.2</ele>
        <time>2015-03-02T20:54:45.924Z</time>
      </trkpt>
      <trkpt lat="48.85115" lon="2.42452">
        <ele>112.5</ele>
        <time>2015-03-02T20:54:47.937Z</time>
      </trkpt>
      <trkpt lat="48.85117" lon="2.4245">
        <ele>112.6</ele>
        <time>2015-03-02T20:54:48.945Z</time>
      </trkpt>
      <trkpt lat="48.85118" lon="2.42441">
        <ele>112.4</ele>
        <time>2015-03-02T20:54:51.928Z</time>
      </trkpt>
      <trkpt lat="48.8512" lon="2.42436">
        <ele>112.1</ele>
        <time>2015-03-02T20:54:53.971Z</time>
      </trkpt>
      <trkpt lat="48.85124" lon="2.42427">
        <ele>111.8</ele>
        <time>2015-03-02T20:54:56.943Z</time>
      </trkpt>
      <trkpt lat="48.85126" lon="2.42422">
        <ele>111.7</ele>
        <time>2015-03-02T20:54:57.942Z</time>
      </trkpt>
      <trkpt lat="48.85128" lon="2.42408">
        <ele>111.6</ele>
        <time>2015-03-02T20:54:59.977Z</time>
      </trkpt>
      <trkpt lat="48.85129" lon="2.42404">
        <ele>111.7</ele>
        <time>2015-03-02T20:55:00.885Z</time>
      </trkpt>
      <trkpt lat="48.8513" lon="2.42392">
        <ele>111.6</ele>
        <time>2015-03-02T20:55:03.959Z</time>
      </trkpt>
      <trkpt lat="48.85129" lon="2.42389">
        <ele>111.5</ele>
        <time>2015-03-02T20:55:04.974Z</time>
      </trkpt>
      <trkpt lat="48.85137" lon="2.42383">
        <ele>111.6</ele>
        <time>2015-03-02T20:55:07.949Z</time>
      </trkpt>
      <trkpt lat="48.85142" lon="2.42382">
        <ele>111.9</ele>
        <time>2015-03-02T20:55:09.094Z</time>
      </trkpt>
      <trkpt lat="48.85149" lon="2.42382">
        <ele>112.4</ele>
        <time>2015-03-02T20:55:10.937Z</time>
      </trkpt>
      <trkpt lat="48.85152" lon="2.42381">
        <ele>112.6</ele>
        <time>2015-03-02T20:55:12.006Z</time>
      </trkpt>
      <trkpt lat="48.85161" lon="2.42379">
        <ele>112.9</ele>
        <time>2015-03-02T20:55:13.925Z</time>
      </trkpt>
      <trkpt lat="48.85165" lon="2.42377">
        <ele>112.9</ele>
        <time>2015-03-02T20:55:14.967Z</time>
      </trkpt>
      <trkpt lat="48.85173" lon="2.42374">
        <ele>113.1</ele>
        <time>2015-03-02T20:55:16.910Z</time>
      </trkpt>
      <trkpt lat="48.85177" lon="2.42371">
        <ele>113.1</ele>
        <time>2015-03-02T20:55:17.925Z</time>
      </trkpt>
      <trkpt lat="48.8518" lon="2.42368">
        <ele>113.1</ele>
        <time>2015-03-02T20:55:18.963Z</time>
      </trkpt>
      <trkpt lat="48.85186" lon="2.42373">
        <ele>110.5</ele>
        <time>2015-03-02T20:55:19.981Z</time>
      </trkpt>
      <trkpt lat="48.85194" lon="2.42379">
        <ele>108.3</ele>
        <time>2015-03-02T20:55:20.944Z</time>
      </trkpt>
      <trkpt lat="48.85202" lon="2.42383">
        <ele>106.8</ele>
        <time>2015-03-02T20:55:21.949Z</time>
      </trkpt>
      <trkpt lat="48.85208" lon="2.42384">
        <ele>106.6</ele>
        <time>2015-03-02T20:55:23.130Z</time>
      </trkpt>
      <trkpt lat="48.85215" lon="2.42384">
        <ele>106.6</ele>
        <time>2015-03-02T20:55:23.937Z</time>
      </trkpt>
      <trkpt lat="48.85221" lon="2.42383">
        <ele>106.8</ele>
        <time>2015-03-02T20:55:24.997Z</time>
      </trkpt>
      <trkpt lat="48.85226" lon="2.42382">
        <ele>107</ele>
        <time>2015-03-02T20:55:25.906Z</time>
      </trkpt>
      <trkpt lat="48.85232" lon="2.42378">
        <ele>107.4</ele>
        <time>2015-03-02T20:55:27.957Z</time>
      </trkpt>
      <trkpt lat="48.85236" lon="2.42377">
        <ele>107.5</ele>
        <time>2015-03-02T20:55:28.974Z</time>
      </trkpt>
      <trkpt lat="48.85244" lon="2.42376">
        <ele>107.5</ele>
        <time>2015-03-02T20:55:30.967Z</time>
      </trkpt>
      <trkpt lat="48.85247" lon="2.42376">
        <ele>107.4</ele>
        <time>2015-03-02T20:55:31.991Z</time>
      </trkpt>
      <trkpt lat="48.85255" lon="2.42376">
        <ele>106.8</ele>
        <time>2015-03-02T20:55:34.006Z</time>
      </trkpt>
      <trkpt lat="48.85258" lon="2.42376">
        <ele>106.6</ele>
        <time>2015-03-02T20:55:34.926Z</time>
      </trkpt>
      <trkpt lat="48.85264" lon="2.42374">
        <ele>106.4</ele>
        <time>2015-03-02T20:55:36.969Z</time>
      </trkpt>
      <trkpt lat="48.85268" lon="2.42373">
        <ele>106.1</ele>
        <time>2015-03-02T20:55:38.045Z</time>
      </trkpt>
      <trkpt lat="48.85274" lon="2.42372">
        <ele>106.3</ele>
        <time>2015-03-02T20:55:39.946Z</time>
      </trkpt>
      <trkpt lat="48.85277" lon="2.42372">
        <ele>106.3</ele>
        <time>2015-03-02T20:55:40.964Z</time>
      </trkpt>
      <trkpt lat="48.85285" lon="2.42371">
        <ele>106.3</ele>
        <time>2015-03-02T20:55:42.913Z</time>
      </trkpt>
      <trkpt lat="48.85289" lon="2.4237">
        <ele>106.4</ele>
        <time>2015-03-02T20:55:43.897Z</time>
      </trkpt>
      <trkpt lat="48.85298" lon="2.4237">
        <ele>106.6</ele>
        <time>2015-03-02T20:55:46.972Z</time>
      </trkpt>
      <trkpt lat="48.85301" lon="2.4237">
        <ele>106.7</ele>
        <time>2015-03-02T20:55:47.991Z</time>
      </trkpt>
      <trkpt lat="48.8531" lon="2.42368">
        <ele>106.5</ele>
        <time>2015-03-02T20:55:51.057Z</time>
      </trkpt>
      <trkpt lat="48.85312" lon="2.42367">
        <ele>106.5</ele>
        <time>2015-03-02T20:55:51.920Z</time>
      </trkpt>
      <trkpt lat="48.85319" lon="2.42365">
        <ele>106.9</ele>
        <time>2015-03-02T20:55:54.905Z</time>
      </trkpt>
      <trkpt lat="48.85322" lon="2.42365">
        <ele>107</ele>
        <time>2015-03-02T20:55:55.909Z</time>
      </trkpt>
      <trkpt lat="48.85329" lon="2.42361">
        <ele>107.3</ele>
        <time>2015-03-02T20:55:57.896Z</time>
      </trkpt>
      <trkpt lat="48.85334" lon="2.42361">
        <ele>107.5</ele>
        <time>2015-03-02T20:55:58.924Z</time>
      </trkpt>
      <trkpt lat="48.8534" lon="2.42358">
        <ele>107.8</ele>
        <time>2015-03-02T20:56:00.879Z</time>
      </trkpt>
      <trkpt lat="48.85343" lon="2.42358">
        <ele>107.9</ele>
        <time>2015-03-02T20:56:01.969Z</time>
      </trkpt>
      <trkpt lat="48.8535" lon="2.42356">
        <ele>108.4</ele>
        <time>2015-03-02T20:56:03.958Z</time>
      </trkpt>
      <trkpt lat="48.85355" lon="2.42353">
        <ele>108.7</ele>
        <time>2015-03-02T20:56:04.893Z</time>
      </trkpt>
      <trkpt lat="48.85361" lon="2.42349">
        <ele>109.1</ele>
        <time>2015-03-02T20:56:06.912Z</time>
      </trkpt>
      <trkpt lat="48.85363" lon="2.42347">
        <ele>109.3</ele>
        <time>2015-03-02T20:56:07.971Z</time>
      </trkpt>
      <trkpt lat="48.85371" lon="2.42343">
        <ele>109.7</ele>
        <time>2015-03-02T20:56:10.917Z</time>
      </trkpt>
      <trkpt lat="48.85373" lon="2.42343">
        <ele>109.9</ele>
        <time>2015-03-02T20:56:11.918Z</time>
      </trkpt>
      <trkpt lat="48.85381" lon="2.42342">
        <ele>110.2</ele>
        <time>2015-03-02T20:56:14.965Z</time>
      </trkpt>
      <trkpt lat="48.85384" lon="2.42341">
        <ele>110.1</ele>
        <time>2015-03-02T20:56:15.973Z</time>
      </trkpt>
      <trkpt lat="48.85392" lon="2.42338">
        <ele>110</ele>
        <time>2015-03-02T20:56:17.919Z</time>
      </trkpt>
      <trkpt lat="48.85395" lon="2.42337">
        <ele>110</ele>
        <time>2015-03-02T20:56:18.946Z</time>
      </trkpt>
      <trkpt lat="48.85402" lon="2.42335">
        <ele>110.2</ele>
        <time>2015-03-02T20:56:20.978Z</time>
      </trkpt>
      <trkpt lat="48.85406" lon="2.42334">
        <ele>110.2</ele>
        <time>2015-03-02T20:56:21.904Z</time>
      </trkpt>
      <trkpt lat="48.85413" lon="2.42333">
        <ele>110.5</ele>
        <time>2015-03-02T20:56:23.934Z</time>
      </trkpt>
      <trkpt lat="48.85416" lon="2.42333">
        <ele>110.5</ele>
        <time>2015-03-02T20:56:24.944Z</time>
      </trkpt>
      <trkpt lat="48.85422" lon="2.42332">
        <ele>110.5</ele>
        <time>2015-03-02T20:56:26.986Z</time>
      </trkpt>
      <trkpt lat="48.85426" lon="2.42331">
        <ele>110.8</ele>
        <time>2015-03-02T20:56:27.968Z</time>
      </trkpt>
      <trkpt lat="48.85433" lon="2.42329">
        <ele>111.2</ele>
        <time>2015-03-02T20:56:29.907Z</time>
      </trkpt>
      <trkpt lat="48.85436" lon="2.42328">
        <ele>111.3</ele>
        <time>2015-03-02T20:56:30.935Z</time>
      </trkpt>
      <trkpt lat="48.85443" lon="2.42327">
        <ele>111.4</ele>
        <time>2015-03-02T20:56:32.945Z</time>
      </trkpt>
      <trkpt lat="48.85446" lon="2.42327">
        <ele>111.3</ele>
        <time>2015-03-02T20:56:33.957Z</time>
      </trkpt>
      <trkpt lat="48.85453" lon="2.42328">
        <ele>111.3</ele>
        <time>2015-03-02T20:56:35.898Z</time>
      </trkpt>
      <trkpt lat="48.85457" lon="2.42328">
        <ele>111.2</ele>
        <time>2015-03-02T20:56:36.910Z</time>
      </trkpt>
      <trkpt lat="48.85464" lon="2.42328">
        <ele>110.9</ele>
        <time>2015-03-02T20:56:38.960Z</time>
      </trkpt>
      <trkpt lat="48.85467" lon="2.42328">
        <ele>110.9</ele>
        <time>2015-03-02T20:56:39.973Z</time>
      </trkpt>
      <trkpt lat="48.85474" lon="2.42323">
        <ele>110.9</ele>
        <time>2015-03-02T20:56:42.904Z</time>
      </trkpt>
      <trkpt lat="48.85476" lon="2.42321">
        <ele>110.8</ele>
        <time>2015-03-02T20:56:43.999Z</time>
      </trkpt>
      <trkpt lat="48.85482" lon="2.42317">
        <ele>111</ele>
        <time>2015-03-02T20:56:46.930Z</time>
      </trkpt>
      <trkpt lat="48.85486" lon="2.42315">
        <ele>111.1</ele>
        <time>2015-03-02T20:56:47.913Z</time>
      </trkpt>
      <trkpt lat="48.85494" lon="2.42311">
        <ele>112</ele>
        <time>2015-03-02T20:56:51.067Z</time>
      </trkpt>
      <trkpt lat="48.85498" lon="2.42309">
        <ele>112.2</ele>
        <time>2015-03-02T20:56:52.036Z</time>
      </trkpt>
      <trkpt lat="48.85506" lon="2.42307">
        <ele>112.5</ele>
        <time>2015-03-02T20:56:53.914Z</time>
      </trkpt>
      <trkpt lat="48.8551" lon="2.42306">
        <ele>112.6</ele>
        <time>2015-03-02T20:56:54.924Z</time>
      </trkpt>
      <trkpt lat="48.85518" lon="2.42306">
        <ele>113</ele>
        <time>2015-03-02T20:56:57.011Z</time>
      </trkpt>
      <trkpt lat="48.85521" lon="2.42305">
        <ele>113.2</ele>
        <time>2015-03-02T20:56:57.980Z</time>
      </trkpt>
      <trkpt lat="48.85528" lon="2.42302">
        <ele>113.5</ele>
        <time>2015-03-02T20:56:59.911Z</time>
      </trkpt>
      <trkpt lat="48.85532" lon="2.42299">
        <ele>114.1</ele>
        <time>2015-03-02T20:57:00.969Z</time>
      </trkpt>
      <trkpt lat="48.85539" lon="2.423">
        <ele>114.4</ele>
        <time>2015-03-02T20:57:02.944Z</time>
      </trkpt>
      <trkpt lat="48.85542" lon="2.423">
        <ele>114.4</ele>
        <time>2015-03-02T20:57:03.952Z</time>
      </trkpt>
      <trkpt lat="48.85549" lon="2.42297">
        <ele>114.9</ele>
        <time>2015-03-02T20:57:07.000Z</time>
      </trkpt>
      <trkpt lat="48.85551" lon="2.42297">
        <ele>115.1</ele>
        <time>2015-03-02T20:57:08.020Z</time>
      </trkpt>
      <trkpt lat="48.8556" lon="2.423">
        <ele>115.6</ele>
        <time>2015-03-02T20:57:12.000Z</time>
      </trkpt>
      <trkpt lat="48.85561" lon="2.423">
        <ele>115.7</ele>
        <time>2015-03-02T20:57:12.934Z</time>
      </trkpt>
      <trkpt lat="48.85568" lon="2.42293">
        <ele>117.6</ele>
        <time>2015-03-02T20:57:20.956Z</time>
      </trkpt>
      <trkpt lat="48.85568" lon="2.42292">
        <ele>117.6</ele>
        <time>2015-03-02T20:57:21.915Z</time>
      </trkpt>
      <trkpt lat="48.85568" lon="2.42292">
        <ele>117.8</ele>
        <time>2015-03-02T20:57:22.951Z</time>
      </trkpt>
      <trkpt lat="48.85568" lon="2.42292">
        <ele>118.1</ele>
        <time>2015-03-02T20:57:26.940Z</time>
      </trkpt>
      <trkpt lat="48.85569" lon="2.4229">
        <ele>118.4</ele>
        <time>2015-03-02T20:57:27.949Z</time>
      </trkpt>
      <trkpt lat="48.8557" lon="2.42278">
        <ele>119.7</ele>
        <time>2015-03-02T20:57:36.951Z</time>
      </trkpt>
      <trkpt lat="48.85571" lon="2.42275">
        <ele>119.8</ele>
        <time>2015-03-02T20:57:37.962Z</time>
      </trkpt>
      <trkpt lat="48.85574" lon="2.42263">
        <ele>119.8</ele>
        <time>2015-03-02T20:57:40.914Z</time>
      </trkpt>
      <trkpt lat="48.85575" lon="2.4226">
        <ele>119.8</ele>
        <time>2015-03-02T20:57:42.022Z</time>
      </trkpt>
      <trkpt lat="48.85577" lon="2.42247">
        <ele>120</ele>
        <time>2015-03-02T20:57:44.959Z</time>
      </trkpt>
      <trkpt lat="48.85577" lon="2.42243">
        <ele>120.1</ele>
        <time>2015-03-02T20:57:45.958Z</time>
      </trkpt>
      <trkpt lat="48.85573" lon="2.42233">
        <ele>119.8</ele>
        <time>2015-03-02T20:57:47.921Z</time>
      </trkpt>
      <trkpt lat="48.85572" lon="2.42228">
        <ele>119.6</ele>
        <time>2015-03-02T20:57:48.930Z</time>
      </trkpt>
      <trkpt lat="48.8557" lon="2.42217">
        <ele>119.6</ele>
        <time>2015-03-02T20:57:50.915Z</time>
      </trkpt>
      <trkpt lat="48.8557" lon="2.4221">
        <ele>120</ele>
        <time>2015-03-02T20:57:51.928Z</time>
      </trkpt>
      <trkpt lat="48.8557" lon="2.42197">
        <ele>121</ele>
        <time>2015-03-02T20:57:53.962Z</time>
      </trkpt>
      <trkpt lat="48.85571" lon="2.42192">
        <ele>121.4</ele>
        <time>2015-03-02T20:57:54.965Z</time>
      </trkpt>
      <trkpt lat="48.85569" lon="2.42183">
        <ele>121.2</ele>
        <time>2015-03-02T20:57:56.990Z</time>
      </trkpt>
      <trkpt lat="48.85569" lon="2.42177">
        <ele>121.2</ele>
        <time>2015-03-02T20:57:58.023Z</time>
      </trkpt>
      <trkpt lat="48.85567" lon="2.42167">
        <ele>121.4</ele>
        <time>2015-03-02T20:57:59.945Z</time>
      </trkpt>
      <trkpt lat="48.85565" lon="2.42163">
        <ele>121.3</ele>
        <time>2015-03-02T20:58:00.998Z</time>
      </trkpt>
      <trkpt lat="48.85562" lon="2.42154">
        <ele>121.5</ele>
        <time>2015-03-02T20:58:03.020Z</time>
      </trkpt>
      <trkpt lat="48.85561" lon="2.42149">
        <ele>121.5</ele>
        <time>2015-03-02T20:58:03.943Z</time>
      </trkpt>
      <trkpt lat="48.85559" lon="2.42137">
        <ele>121.5</ele>
        <time>2015-03-02T20:58:05.938Z</time>
      </trkpt>
      <trkpt lat="48.85558" lon="2.42132">
        <ele>121.4</ele>
        <time>2015-03-02T20:58:06.956Z</time>
      </trkpt>
      <trkpt lat="48.85554" lon="2.42121">
        <ele>120.7</ele>
        <time>2015-03-02T20:58:08.987Z</time>
      </trkpt>
      <trkpt lat="48.85543" lon="2.42112">
        <ele>117.8</ele>
        <time>2015-03-02T20:58:10.008Z</time>
      </trkpt>
      <trkpt lat="48.85539" lon="2.42105">
        <ele>116.9</ele>
        <time>2015-03-02T20:58:10.911Z</time>
      </trkpt>
      <trkpt lat="48.85535" lon="2.42098">
        <ele>116.2</ele>
        <time>2015-03-02T20:58:11.901Z</time>
      </trkpt>
      <trkpt lat="48.85533" lon="2.42091">
        <ele>115.8</ele>
        <time>2015-03-02T20:58:12.917Z</time>
      </trkpt>
      <trkpt lat="48.85532" lon="2.42085">
        <ele>115.8</ele>
        <time>2015-03-02T20:58:13.930Z</time>
      </trkpt>
      <trkpt lat="48.85531" lon="2.42078">
        <ele>115.7</ele>
        <time>2015-03-02T20:58:14.949Z</time>
      </trkpt>
      <trkpt lat="48.8553" lon="2.42071">
        <ele>115.6</ele>
        <time>2015-03-02T20:58:15.961Z</time>
      </trkpt>
      <trkpt lat="48.85529" lon="2.42064">
        <ele>115.7</ele>
        <time>2015-03-02T20:58:16.983Z</time>
      </trkpt>
      <trkpt lat="48.85528" lon="2.42057">
        <ele>115.5</ele>
        <time>2015-03-02T20:58:17.901Z</time>
      </trkpt>
      <trkpt lat="48.85526" lon="2.42044">
        <ele>115.5</ele>
        <time>2015-03-02T20:58:19.906Z</time>
      </trkpt>
      <trkpt lat="48.85526" lon="2.42037">
        <ele>115.6</ele>
        <time>2015-03-02T20:58:20.949Z</time>
      </trkpt>
      <trkpt lat="48.85523" lon="2.42026">
        <ele>115.7</ele>
        <time>2015-03-02T20:58:22.981Z</time>
      </trkpt>
      <trkpt lat="48.85523" lon="2.42019">
        <ele>115.7</ele>
        <time>2015-03-02T20:58:23.995Z</time>
      </trkpt>
      <trkpt lat="48.85522" lon="2.42012">
        <ele>115.7</ele>
        <time>2015-03-02T20:58:24.919Z</time>
      </trkpt>
      <trkpt lat="48.8552" lon="2.42005">
        <ele>115.8</ele>
        <time>2015-03-02T20:58:25.929Z</time>
      </trkpt>
      <trkpt lat="48.85519" lon="2.41998">
        <ele>115.9</ele>
        <time>2015-03-02T20:58:26.947Z</time>
      </trkpt>
      <trkpt lat="48.85517" lon="2.41991">
        <ele>115.9</ele>
        <time>2015-03-02T20:58:27.955Z</time>
      </trkpt>
      <trkpt lat="48.85515" lon="2.41984">
        <ele>115.9</ele>
        <time>2015-03-02T20:58:28.972Z</time>
      </trkpt>
      <trkpt lat="48.85513" lon="2.41978">
        <ele>115.8</ele>
        <time>2015-03-02T20:58:29.979Z</time>
      </trkpt>
      <trkpt lat="48.85511" lon="2.41971">
        <ele>115.6</ele>
        <time>2015-03-02T20:58:30.904Z</time>
      </trkpt>
      <trkpt lat="48.8551" lon="2.41965">
        <ele>115.5</ele>
        <time>2015-03-02T20:58:31.905Z</time>
      </trkpt>
      <trkpt lat="48.85508" lon="2.41955">
        <ele>115.6</ele>
        <time>2015-03-02T20:58:33.888Z</time>
      </trkpt>
      <trkpt lat="48.85508" lon="2.4195">
        <ele>115.5</ele>
        <time>2015-03-02T20:58:34.897Z</time>
      </trkpt>
      <trkpt lat="48.85505" lon="2.41938">
        <ele>117.2</ele>
        <time>2015-03-02T20:58:38.971Z</time>
      </trkpt>
      <trkpt lat="48.85504" lon="2.41937">
        <ele>117.5</ele>
        <time>2015-03-02T20:58:39.990Z</time>
      </trkpt>
      <trkpt lat="48.855" lon="2.41926">
        <ele>118.6</ele>
        <time>2015-03-02T20:58:46.964Z</time>
      </trkpt>
      <trkpt lat="48.85499" lon="2.41924">
        <ele>118.4</ele>
        <time>2015-03-02T20:58:47.924Z</time>
      </trkpt>
      <trkpt lat="48.85497" lon="2.41912">
        <ele>117.9</ele>
        <time>2015-03-02T20:58:51.977Z</time>
      </trkpt>
      <trkpt lat="48.85497" lon="2.41908">
        <ele>118.2</ele>
        <time>2015-03-02T20:58:52.976Z</time>
      </trkpt>
      <trkpt lat="48.85496" lon="2.41895">
        <ele>118.2</ele>
        <time>2015-03-02T20:58:55.941Z</time>
      </trkpt>
      <trkpt lat="48.85496" lon="2.4189">
        <ele>118.1</ele>
        <time>2015-03-02T20:58:56.955Z</time>
      </trkpt>
      <trkpt lat="48.85497" lon="2.41882">
        <ele>118.2</ele>
        <time>2015-03-02T20:58:58.913Z</time>
      </trkpt>
      <trkpt lat="48.85497" lon="2.41877">
        <ele>118.5</ele>
        <time>2015-03-02T20:58:59.931Z</time>
      </trkpt>
      <trkpt lat="48.85495" lon="2.41866">
        <ele>119.6</ele>
        <time>2015-03-02T20:59:01.915Z</time>
      </trkpt>
      <trkpt lat="48.85495" lon="2.4186">
        <ele>120</ele>
        <time>2015-03-02T20:59:02.959Z</time>
      </trkpt>
      <trkpt lat="48.85494" lon="2.41849">
        <ele>121</ele>
        <time>2015-03-02T20:59:04.919Z</time>
      </trkpt>
      <trkpt lat="48.85494" lon="2.41843">
        <ele>121.4</ele>
        <time>2015-03-02T20:59:06.018Z</time>
      </trkpt>
      <trkpt lat="48.85494" lon="2.41831">
        <ele>122.1</ele>
        <time>2015-03-02T20:59:07.977Z</time>
      </trkpt>
      <trkpt lat="48.85495" lon="2.41825">
        <ele>122.1</ele>
        <time>2015-03-02T20:59:09.010Z</time>
      </trkpt>
      <trkpt lat="48.85494" lon="2.41812">
        <ele>123.2</ele>
        <time>2015-03-02T20:59:10.897Z</time>
      </trkpt>
      <trkpt lat="48.85494" lon="2.41806">
        <ele>123.6</ele>
        <time>2015-03-02T20:59:11.911Z</time>
      </trkpt>
      <trkpt lat="48.8549" lon="2.41793">
        <ele>124.5</ele>
        <time>2015-03-02T20:59:13.924Z</time>
      </trkpt>
      <trkpt lat="48.85487" lon="2.41787">
        <ele>125</ele>
        <time>2015-03-02T20:59:14.939Z</time>
      </trkpt>
      <trkpt lat="48.85487" lon="2.41776">
        <ele>125.1</ele>
        <time>2015-03-02T20:59:16.954Z</time>
      </trkpt>
      <trkpt lat="48.85487" lon="2.41772">
        <ele>125.2</ele>
        <time>2015-03-02T20:59:18.021Z</time>
      </trkpt>
      <trkpt lat="48.85484" lon="2.4176">
        <ele>125.2</ele>
        <time>2015-03-02T20:59:19.904Z</time>
      </trkpt>
      <trkpt lat="48.85482" lon="2.41755">
        <ele>125.1</ele>
        <time>2015-03-02T20:59:20.946Z</time>
      </trkpt>
      <trkpt lat="48.85482" lon="2.41747">
        <ele>125.2</ele>
        <time>2015-03-02T20:59:22.956Z</time>
      </trkpt>
      <trkpt lat="48.85481" lon="2.41742">
        <ele>125.2</ele>
        <time>2015-03-02T20:59:23.969Z</time>
      </trkpt>
      <trkpt lat="48.85478" lon="2.41731">
        <ele>125.5</ele>
        <time>2015-03-02T20:59:25.903Z</time>
      </trkpt>
      <trkpt lat="48.85477" lon="2.41727">
        <ele>125.6</ele>
        <time>2015-03-02T20:59:26.959Z</time>
      </trkpt>
      <trkpt lat="48.85475" lon="2.41719">
        <ele>125.7</ele>
        <time>2015-03-02T20:59:28.968Z</time>
      </trkpt>
      <trkpt lat="48.85473" lon="2.41714">
        <ele>126</ele>
        <time>2015-03-02T20:59:29.982Z</time>
      </trkpt>
      <trkpt lat="48.85466" lon="2.41706">
        <ele>126.4</ele>
        <time>2015-03-02T20:59:31.913Z</time>
      </trkpt>
      <trkpt lat="48.85465" lon="2.41702">
        <ele>126.6</ele>
        <time>2015-03-02T20:59:32.958Z</time>
      </trkpt>
      <trkpt lat="48.85462" lon="2.41693">
        <ele>127.1</ele>
        <time>2015-03-02T20:59:35.019Z</time>
      </trkpt>
      <trkpt lat="48.85461" lon="2.41688">
        <ele>127.3</ele>
        <time>2015-03-02T20:59:35.939Z</time>
      </trkpt>
      <trkpt lat="48.85459" lon="2.41683">
        <ele>127.7</ele>
        <time>2015-03-02T20:59:37.002Z</time>
      </trkpt>
      <trkpt lat="48.85456" lon="2.41676">
        <ele>128.1</ele>
        <time>2015-03-02T20:59:37.910Z</time>
      </trkpt>
      <trkpt lat="48.85454" lon="2.41667">
        <ele>129.1</ele>
        <time>2015-03-02T20:59:38.944Z</time>
      </trkpt>
      <trkpt lat="48.8545" lon="2.41657">
        <ele>130.2</ele>
        <time>2015-03-02T20:59:39.931Z</time>
      </trkpt>
      <trkpt lat="48.85445" lon="2.41647">
        <ele>131.5</ele>
        <time>2015-03-02T20:59:41.933Z</time>
      </trkpt>
      <trkpt lat="48.85439" lon="2.41639">
        <ele>133.2</ele>
        <time>2015-03-02T20:59:41.952Z</time>
      </trkpt>
      <trkpt lat="48.85432" lon="2.41632">
        <ele>135.4</ele>
        <time>2015-03-02T20:59:42.954Z</time>
      </trkpt>
      <trkpt lat="48.85427" lon="2.41625">
        <ele>136.9</ele>
        <time>2015-03-02T20:59:43.962Z</time>
      </trkpt>
      <trkpt lat="48.8542" lon="2.41618">
        <ele>139.1</ele>
        <time>2015-03-02T20:59:44.979Z</time>
      </trkpt>
      <trkpt lat="48.85416" lon="2.41612">
        <ele>140.5</ele>
        <time>2015-03-02T20:59:45.980Z</time>
      </trkpt>
      <trkpt lat="48.85412" lon="2.41607">
        <ele>141.7</ele>
        <time>2015-03-02T20:59:47.020Z</time>
      </trkpt>
      <trkpt lat="48.85408" lon="2.41603">
        <ele>142.8</ele>
        <time>2015-03-02T20:59:47.896Z</time>
      </trkpt>
      <trkpt lat="48.85403" lon="2.41598">
        <ele>143.5</ele>
        <time>2015-03-02T20:59:48.896Z</time>
      </trkpt>
      <trkpt lat="48.85398" lon="2.41586">
        <ele>145</ele>
        <time>2015-03-02T20:59:54.907Z</time>
      </trkpt>
      <trkpt lat="48.85397" lon="2.41583">
        <ele>145</ele>
        <time>2015-03-02T20:59:55.915Z</time>
      </trkpt>
      <trkpt lat="48.85395" lon="2.41571">
        <ele>144.4</ele>
        <time>2015-03-02T20:59:59.925Z</time>
      </trkpt>
      <trkpt lat="48.85397" lon="2.41567">
        <ele>144.3</ele>
        <time>2015-03-02T21:00:00.957Z</time>
      </trkpt>
      <trkpt lat="48.85401" lon="2.41556">
        <ele>144.1</ele>
        <time>2015-03-02T21:00:04.374Z</time>
      </trkpt>
      <trkpt lat="48.85402" lon="2.41552">
        <ele>143.9</ele>
        <time>2015-03-02T21:00:04.924Z</time>
      </trkpt>
      <trkpt lat="48.85407" lon="2.41544">
        <ele>143.3</ele>
        <time>2015-03-02T21:00:07.953Z</time>
      </trkpt>
      <trkpt lat="48.8541" lon="2.41541">
        <ele>142.9</ele>
        <time>2015-03-02T21:00:08.965Z</time>
      </trkpt>
      <trkpt lat="48.85416" lon="2.41532">
        <ele>142</ele>
        <time>2015-03-02T21:00:14.485Z</time>
      </trkpt>
      <trkpt lat="48.85417" lon="2.4153">
        <ele>142</ele>
        <time>2015-03-02T21:00:14.950Z</time>
      </trkpt>
      <trkpt lat="48.85418" lon="2.41522">
        <ele>141.2</ele>
        <time>2015-03-02T21:00:19.909Z</time>
      </trkpt>
      <trkpt lat="48.85418" lon="2.41522">
        <ele>141.2</ele>
        <time>2015-03-02T21:00:20.934Z</time>
      </trkpt>
      <trkpt lat="48.85418" lon="2.41523">
        <ele>140.6</ele>
        <time>2015-03-02T21:00:47.873Z</time>
      </trkpt>
      <trkpt lat="48.85426" lon="2.41521">
        <ele>132.1</ele>
        <time>2015-03-02T21:00:48.904Z</time>
      </trkpt>
      <trkpt lat="48.85423" lon="2.41511">
        <ele>130.5</ele>
        <time>2015-03-02T21:00:53.931Z</time>
      </trkpt>
      <trkpt lat="48.85423" lon="2.41508">
        <ele>130.1</ele>
        <time>2015-03-02T21:00:54.942Z</time>
      </trkpt>
      <trkpt lat="48.85421" lon="2.41497">
        <ele>129.7</ele>
        <time>2015-03-02T21:00:57.997Z</time>
      </trkpt>
      <trkpt lat="48.85421" lon="2.41493">
        <ele>129.4</ele>
        <time>2015-03-02T21:00:58.987Z</time>
      </trkpt>
      <trkpt lat="48.85423" lon="2.41481">
        <ele>128.8</ele>
        <time>2015-03-02T21:01:04.240Z</time>
      </trkpt>
      <trkpt lat="48.85424" lon="2.41479">
        <ele>128.6</ele>
        <time>2015-03-02T21:01:04.961Z</time>
      </trkpt>
      <trkpt lat="48.85429" lon="2.41473">
        <ele>128</ele>
        <time>2015-03-02T21:01:09.237Z</time>
      </trkpt>
      <trkpt lat="48.85431" lon="2.41471">
        <ele>127.8</ele>
        <time>2015-03-02T21:01:09.947Z</time>
      </trkpt>
      <trkpt lat="48.85438" lon="2.41464">
        <ele>127</ele>
        <time>2015-03-02T21:01:14.929Z</time>
      </trkpt>
      <trkpt lat="48.8544" lon="2.41462">
        <ele>127</ele>
        <time>2015-03-02T21:01:15.944Z</time>
      </trkpt>
      <trkpt lat="48.85446" lon="2.41455">
        <ele>126.3</ele>
        <time>2015-03-02T21:01:19.902Z</time>
      </trkpt>
      <trkpt lat="48.85447" lon="2.41453">
        <ele>126.2</ele>
        <time>2015-03-02T21:01:20.985Z</time>
      </trkpt>
      <trkpt lat="48.85455" lon="2.41447">
        <ele>125.2</ele>
        <time>2015-03-02T21:01:28.006Z</time>
      </trkpt>
      <trkpt lat="48.85455" lon="2.41447">
        <ele>124.9</ele>
        <time>2015-03-02T21:01:29.138Z</time>
      </trkpt>
      <trkpt lat="48.85458" lon="2.41444">
        <ele>123.9</ele>
        <time>2015-03-02T21:01:35.939Z</time>
      </trkpt>
      <trkpt lat="48.85458" lon="2.41444">
        <ele>123.8</ele>
        <time>2015-03-02T21:01:36.950Z</time>
      </trkpt>
      <trkpt lat="48.85459" lon="2.41444">
        <ele>123.7</ele>
        <time>2015-03-02T21:01:37.969Z</time>
      </trkpt>
      <trkpt lat="48.85459" lon="2.41441">
        <ele>122.9</ele>
        <time>2015-03-02T21:01:41.983Z</time>
      </trkpt>
      <trkpt lat="48.8546" lon="2.41441">
        <ele>122.8</ele>
        <time>2015-03-02T21:01:42.909Z</time>
      </trkpt>
      <trkpt lat="48.85461" lon="2.4144">
        <ele>122.1</ele>
        <time>2015-03-02T21:01:50.980Z</time>
      </trkpt>
      <trkpt lat="48.85461" lon="2.41439">
        <ele>122.5</ele>
        <time>2015-03-02T21:01:51.906Z</time>
      </trkpt>
      <trkpt lat="48.8546" lon="2.41438">
        <ele>122.7</ele>
        <time>2015-03-02T21:01:52.915Z</time>
      </trkpt>
      <trkpt lat="48.85461" lon="2.41439">
        <ele>123.1</ele>
        <time>2015-03-02T21:02:04.039Z</time>
      </trkpt>
      <trkpt lat="48.85459" lon="2.41439">
        <ele>122.8</ele>
        <time>2015-03-02T21:02:04.888Z</time>
      </trkpt>
      <trkpt lat="48.85459" lon="2.41434">
        <ele>122.6</ele>
        <time>2015-03-02T21:02:14.073Z</time>
      </trkpt>
      <trkpt lat="48.85459" lon="2.41434">
        <ele>122.8</ele>
        <time>2015-03-02T21:02:14.942Z</time>
      </trkpt>
      <trkpt lat="48.85459" lon="2.41434">
        <ele>122.7</ele>
        <time>2015-03-02T21:02:16.936Z</time>
      </trkpt>
      <trkpt lat="48.85459" lon="2.41433">
        <ele>122.7</ele>
        <time>2015-03-02T21:02:17.955Z</time>
      </trkpt>
      <trkpt lat="48.85464" lon="2.41422">
        <ele>121.7</ele>
        <time>2015-03-02T21:02:25.983Z</time>
      </trkpt>
      <trkpt lat="48.85464" lon="2.4142">
        <ele>121.8</ele>
        <time>2015-03-02T21:02:26.989Z</time>
      </trkpt>
      <trkpt lat="48.85467" lon="2.4141">
        <ele>121.9</ele>
        <time>2015-03-02T21:02:31.058Z</time>
      </trkpt>
      <trkpt lat="48.85467" lon="2.41406">
        <ele>121.9</ele>
        <time>2015-03-02T21:02:31.100Z</time>
      </trkpt>
      <trkpt lat="48.85469" lon="2.41396">
        <ele>121.8</ele>
        <time>2015-03-02T21:02:34.280Z</time>
      </trkpt>
      <trkpt lat="48.8547" lon="2.41392">
        <ele>121.7</ele>
        <time>2015-03-02T21:02:34.953Z</time>
      </trkpt>
      <trkpt lat="48.8547" lon="2.4138">
        <ele>121.1</ele>
        <time>2015-03-02T21:02:39.352Z</time>
      </trkpt>
      <trkpt lat="48.8547" lon="2.41376">
        <ele>120.6</ele>
        <time>2015-03-02T21:02:39.901Z</time>
      </trkpt>
      <trkpt lat="48.8547" lon="2.41363">
        <ele>119</ele>
        <time>2015-03-02T21:02:44.952Z</time>
      </trkpt>
      <trkpt lat="48.85469" lon="2.41361">
        <ele>118.7</ele>
        <time>2015-03-02T21:02:45.957Z</time>
      </trkpt>
      <trkpt lat="48.85467" lon="2.41348">
        <ele>118</ele>
        <time>2015-03-02T21:02:50.976Z</time>
      </trkpt>
      <trkpt lat="48.85467" lon="2.41345">
        <ele>118</ele>
        <time>2015-03-02T21:02:51.996Z</time>
      </trkpt>
      <trkpt lat="48.85464" lon="2.41333">
        <ele>117.3</ele>
        <time>2015-03-02T21:02:55.946Z</time>
      </trkpt>
      <trkpt lat="48.85463" lon="2.41331">
        <ele>117.2</ele>
        <time>2015-03-02T21:02:56.967Z</time>
      </trkpt>
      <trkpt lat="48.8546" lon="2.41322">
        <ele>116.5</ele>
        <time>2015-03-02T21:02:59.901Z</time>
      </trkpt>
      <trkpt lat="48.85459" lon="2.41319">
        <ele>116.5</ele>
        <time>2015-03-02T21:03:00.914Z</time>
      </trkpt>
      <trkpt lat="48.85454" lon="2.4131">
        <ele>115.8</ele>
        <time>2015-03-02T21:03:03.871Z</time>
      </trkpt>
      <trkpt lat="48.85452" lon="2.41307">
        <ele>115.9</ele>
        <time>2015-03-02T21:03:04.900Z</time>
      </trkpt>
      <trkpt lat="48.85446" lon="2.41298">
        <ele>114.9</ele>
        <time>2015-03-02T21:03:08.839Z</time>
      </trkpt>
      <trkpt lat="48.85445" lon="2.41296">
        <ele>114.6</ele>
        <time>2015-03-02T21:03:08.942Z</time>
      </trkpt>
      <trkpt lat="48.8544" lon="2.41289">
        <ele>114.1</ele>
        <time>2015-03-02T21:03:11.975Z</time>
      </trkpt>
      <trkpt lat="48.85438" lon="2.41287">
        <ele>114</ele>
        <time>2015-03-02T21:03:12.983Z</time>
      </trkpt>
      <trkpt lat="48.85431" lon="2.41281">
        <ele>112.9</ele>
        <time>2015-03-02T21:03:16.904Z</time>
      </trkpt>
      <trkpt lat="48.85429" lon="2.4128">
        <ele>112.7</ele>
        <time>2015-03-02T21:03:17.918Z</time>
      </trkpt>
      <trkpt lat="48.85421" lon="2.41276">
        <ele>113</ele>
        <time>2015-03-02T21:03:21.905Z</time>
      </trkpt>
      <trkpt lat="48.85419" lon="2.41276">
        <ele>112.8</ele>
        <time>2015-03-02T21:03:22.894Z</time>
      </trkpt>
      <trkpt lat="48.85411" lon="2.41272">
        <ele>112.4</ele>
        <time>2015-03-02T21:03:27.057Z</time>
      </trkpt>
      <trkpt lat="48.85409" lon="2.4127">
        <ele>112.2</ele>
        <time>2015-03-02T21:03:27.894Z</time>
      </trkpt>
      <trkpt lat="48.85405" lon="2.41259">
        <ele>111.7</ele>
        <time>2015-03-02T21:03:31.969Z</time>
      </trkpt>
      <trkpt lat="48.85404" lon="2.41256">
        <ele>111.4</ele>
        <time>2015-03-02T21:03:32.928Z</time>
      </trkpt>
      <trkpt lat="48.85403" lon="2.41244">
        <ele>111.3</ele>
        <time>2015-03-02T21:03:36.908Z</time>
      </trkpt>
      <trkpt lat="48.85402" lon="2.41241">
        <ele>111.2</ele>
        <time>2015-03-02T21:03:37.894Z</time>
      </trkpt>
      <trkpt lat="48.854" lon="2.41229">
        <ele>111.2</ele>
        <time>2015-03-02T21:03:41.965Z</time>
      </trkpt>
      <trkpt lat="48.85399" lon="2.41226">
        <ele>111.4</ele>
        <time>2015-03-02T21:03:43.005Z</time>
      </trkpt>
      <trkpt lat="48.85395" lon="2.41215">
        <ele>112.7</ele>
        <time>2015-03-02T21:03:46.979Z</time>
      </trkpt>
      <trkpt lat="48.85394" lon="2.41212">
        <ele>113.2</ele>
        <time>2015-03-02T21:03:47.904Z</time>
      </trkpt>
      <trkpt lat="48.85391" lon="2.41199">
        <ele>114.1</ele>
        <time>2015-03-02T21:03:51.937Z</time>
      </trkpt>
      <trkpt lat="48.8539" lon="2.41196">
        <ele>114.3</ele>
        <time>2015-03-02T21:03:52.960Z</time>
      </trkpt>
      <trkpt lat="48.85385" lon="2.41186">
        <ele>114.4</ele>
        <time>2015-03-02T21:03:58.966Z</time>
      </trkpt>
      <trkpt lat="48.85384" lon="2.41184">
        <ele>114.3</ele>
        <time>2015-03-02T21:03:59.991Z</time>
      </trkpt>
      <trkpt lat="48.85379" lon="2.41175">
        <ele>113.3</ele>
        <time>2015-03-02T21:04:03.746Z</time>
      </trkpt>
      <trkpt lat="48.85377" lon="2.41174">
        <ele>113.4</ele>
        <time>2015-03-02T21:04:03.920Z</time>
      </trkpt>
      <trkpt lat="48.85374" lon="2.41163">
        <ele>113</ele>
        <time>2015-03-02T21:04:06.951Z</time>
      </trkpt>
      <trkpt lat="48.85374" lon="2.41157">
        <ele>112.8</ele>
        <time>2015-03-02T21:04:07.961Z</time>
      </trkpt>
      <trkpt lat="48.85371" lon="2.41146">
        <ele>112.8</ele>
        <time>2015-03-02T21:04:11.061Z</time>
      </trkpt>
      <trkpt lat="48.85369" lon="2.41143">
        <ele>113</ele>
        <time>2015-03-02T21:04:11.930Z</time>
      </trkpt>
      <trkpt lat="48.85365" lon="2.41132">
        <ele>114.1</ele>
        <time>2015-03-02T21:04:14.974Z</time>
      </trkpt>
      <trkpt lat="48.85364" lon="2.41129">
        <ele>114.4</ele>
        <time>2015-03-02T21:04:15.970Z</time>
      </trkpt>
      <trkpt lat="48.85363" lon="2.41118">
        <ele>115.9</ele>
        <time>2015-03-02T21:04:18.993Z</time>
      </trkpt>
      <trkpt lat="48.85363" lon="2.41113">
        <ele>116.1</ele>
        <time>2015-03-02T21:04:19.943Z</time>
      </trkpt>
      <trkpt lat="48.85365" lon="2.41104">
        <ele>116.5</ele>
        <time>2015-03-02T21:04:21.963Z</time>
      </trkpt>
      <trkpt lat="48.85366" lon="2.41098">
        <ele>116.8</ele>
        <time>2015-03-02T21:04:22.973Z</time>
      </trkpt>
      <trkpt lat="48.85368" lon="2.41087">
        <ele>117</ele>
        <time>2015-03-02T21:04:24.900Z</time>
      </trkpt>
      <trkpt lat="48.85368" lon="2.41083">
        <ele>117.4</ele>
        <time>2015-03-02T21:04:25.899Z</time>
      </trkpt>
      <trkpt lat="48.85369" lon="2.4107">
        <ele>119.6</ele>
        <time>2015-03-02T21:04:27.911Z</time>
      </trkpt>
      <trkpt lat="48.8537" lon="2.41068">
        <ele>120.3</ele>
        <time>2015-03-02T21:04:28.877Z</time>
      </trkpt>
      <trkpt lat="48.85368" lon="2.41055">
        <ele>124</ele>
        <time>2015-03-02T21:04:32.974Z</time>
      </trkpt>
      <trkpt lat="48.85367" lon="2.41054">
        <ele>124.5</ele>
        <time>2015-03-02T21:04:33.990Z</time>
      </trkpt>
      <trkpt lat="48.85367" lon="2.41054">
        <ele>124.5</ele>
        <time>2015-03-02T21:04:34.311Z</time>
      </trkpt>
      <trkpt lat="48.85365" lon="2.41053">
        <ele>125.1</ele>
        <time>2015-03-02T21:04:34.945Z</time>
      </trkpt>
      <trkpt lat="48.85364" lon="2.41052">
        <ele>125.2</ele>
        <time>2015-03-02T21:04:35.985Z</time>
      </trkpt>
      <trkpt lat="48.85365" lon="2.41048">
        <ele>125.7</ele>
        <time>2015-03-02T21:04:41.962Z</time>
      </trkpt>
      <trkpt lat="48.85364" lon="2.41049">
        <ele>125.6</ele>
        <time>2015-03-02T21:04:43.129Z</time>
      </trkpt>
      <trkpt lat="48.85364" lon="2.41049">
        <ele>125.6</ele>
        <time>2015-03-02T21:04:49.510Z</time>
      </trkpt>
      <trkpt lat="48.85362" lon="2.4105">
        <ele>125.9</ele>
        <time>2015-03-02T21:04:49.917Z</time>
      </trkpt>
      <trkpt lat="48.85354" lon="2.41054">
        <ele>125.3</ele>
        <time>2015-03-02T21:04:58.720Z</time>
      </trkpt>
      <trkpt lat="48.85353" lon="2.41054">
        <ele>125</ele>
        <time>2015-03-02T21:04:58.868Z</time>
      </trkpt>
      <trkpt lat="48.85345" lon="2.41056">
        <ele>124.8</ele>
        <time>2015-03-02T21:05:03.944Z</time>
      </trkpt>
      <trkpt lat="48.85343" lon="2.41056">
        <ele>125</ele>
        <time>2015-03-02T21:05:04.956Z</time>
      </trkpt>
      <trkpt lat="48.85343" lon="2.41045">
        <ele>124.8</ele>
        <time>2015-03-02T21:05:08.829Z</time>
      </trkpt>
      <trkpt lat="48.85344" lon="2.41039">
        <ele>124.3</ele>
        <time>2015-03-02T21:05:08.912Z</time>
      </trkpt>
      <trkpt lat="48.85344" lon="2.41028">
        <ele>124</ele>
        <time>2015-03-02T21:05:10.932Z</time>
      </trkpt>
      <trkpt lat="48.85341" lon="2.41022">
        <ele>123.8</ele>
        <time>2015-03-02T21:05:11.935Z</time>
      </trkpt>
      <trkpt lat="48.85338" lon="2.41016">
        <ele>123.5</ele>
        <time>2015-03-02T21:05:13.916Z</time>
      </trkpt>
      <trkpt lat="48.85333" lon="2.41011">
        <ele>123.4</ele>
        <time>2015-03-02T21:05:13.975Z</time>
      </trkpt>
      <trkpt lat="48.85326" lon="2.41005">
        <ele>123.4</ele>
        <time>2015-03-02T21:05:14.935Z</time>
      </trkpt>
      <trkpt lat="48.85323" lon="2.41">
        <ele>123.8</ele>
        <time>2015-03-02T21:05:15.925Z</time>
      </trkpt>
      <trkpt lat="48.85319" lon="2.40994">
        <ele>124.1</ele>
        <time>2015-03-02T21:05:16.932Z</time>
      </trkpt>
      <trkpt lat="48.85315" lon="2.40989">
        <ele>124.1</ele>
        <time>2015-03-02T21:05:17.942Z</time>
      </trkpt>
      <trkpt lat="48.85319" lon="2.40979">
        <ele>123.9</ele>
        <time>2015-03-02T21:05:20.966Z</time>
      </trkpt>
      <trkpt lat="48.8532" lon="2.40976">
        <ele>123.7</ele>
        <time>2015-03-02T21:05:21.895Z</time>
      </trkpt>
      <trkpt lat="48.85327" lon="2.40967">
        <ele>123.8</ele>
        <time>2015-03-02T21:05:26.954Z</time>
      </trkpt>
      <trkpt lat="48.85328" lon="2.40964">
        <ele>123.8</ele>
        <time>2015-03-02T21:05:27.974Z</time>
      </trkpt>
      <trkpt lat="48.85329" lon="2.40953">
        <ele>123.3</ele>
        <time>2015-03-02T21:05:31.992Z</time>
      </trkpt>
      <trkpt lat="48.85329" lon="2.4095">
        <ele>123.2</ele>
        <time>2015-03-02T21:05:32.998Z</time>
      </trkpt>
      <trkpt lat="48.85325" lon="2.40941">
        <ele>123.1</ele>
        <time>2015-03-02T21:05:35.928Z</time>
      </trkpt>
      <trkpt lat="48.85324" lon="2.40938">
        <ele>123.2</ele>
        <time>2015-03-02T21:05:36.954Z</time>
      </trkpt>
      <trkpt lat="48.85323" lon="2.40926">
        <ele>123.2</ele>
        <time>2015-03-02T21:05:39.891Z</time>
      </trkpt>
      <trkpt lat="48.85324" lon="2.40922">
        <ele>123.2</ele>
        <time>2015-03-02T21:05:40.903Z</time>
      </trkpt>
      <trkpt lat="48.85327" lon="2.40913">
        <ele>123.4</ele>
        <time>2015-03-02T21:05:42.953Z</time>
      </trkpt>
      <trkpt lat="48.85328" lon="2.40909">
        <ele>123.5</ele>
        <time>2015-03-02T21:05:43.965Z</time>
      </trkpt>
      <trkpt lat="48.85328" lon="2.40896">
        <ele>122.9</ele>
        <time>2015-03-02T21:05:47.908Z</time>
      </trkpt>
      <trkpt lat="48.85318" lon="2.40884">
        <ele>119.6</ele>
        <time>2015-03-02T21:05:48.930Z</time>
      </trkpt>
      <trkpt lat="48.85315" lon="2.40877">
        <ele>118.9</ele>
        <time>2015-03-02T21:05:49.901Z</time>
      </trkpt>
      <trkpt lat="48.85312" lon="2.40872">
        <ele>118.1</ele>
        <time>2015-03-02T21:05:50.938Z</time>
      </trkpt>
      <trkpt lat="48.85309" lon="2.40863">
        <ele>117.3</ele>
        <time>2015-03-02T21:05:53.635Z</time>
      </trkpt>
      <trkpt lat="48.85308" lon="2.40859">
        <ele>117.1</ele>
        <time>2015-03-02T21:05:53.980Z</time>
      </trkpt>
      <trkpt lat="48.85306" lon="2.40847">
        <ele>116.7</ele>
        <time>2015-03-02T21:05:57.023Z</time>
      </trkpt>
      <trkpt lat="48.85308" lon="2.40839">
        <ele>117.3</ele>
        <time>2015-03-02T21:05:57.955Z</time>
      </trkpt>
      <trkpt lat="48.85307" lon="2.40827">
        <ele>117.1</ele>
        <time>2015-03-02T21:06:00.919Z</time>
      </trkpt>
      <trkpt lat="48.85307" lon="2.40822">
        <ele>117.2</ele>
        <time>2015-03-02T21:06:01.933Z</time>
      </trkpt>
      <trkpt lat="48.85306" lon="2.40811">
        <ele>117.7</ele>
        <time>2015-03-02T21:06:05.608Z</time>
      </trkpt>
      <trkpt lat="48.85307" lon="2.40808">
        <ele>117.8</ele>
        <time>2015-03-02T21:06:05.900Z</time>
      </trkpt>
      <trkpt lat="48.85311" lon="2.40801">
        <ele>118.1</ele>
        <time>2015-03-02T21:06:08.934Z</time>
      </trkpt>
      <trkpt lat="48.85313" lon="2.40799">
        <ele>118.2</ele>
        <time>2015-03-02T21:06:09.951Z</time>
      </trkpt>
      <trkpt lat="48.85318" lon="2.4079">
        <ele>119.1</ele>
        <time>2015-03-02T21:06:12.889Z</time>
      </trkpt>
      <trkpt lat="48.85318" lon="2.40787">
        <ele>119.3</ele>
        <time>2015-03-02T21:06:13.905Z</time>
      </trkpt>
      <trkpt lat="48.85319" lon="2.40773">
        <ele>120.5</ele>
        <time>2015-03-02T21:06:19.954Z</time>
      </trkpt>
      <trkpt lat="48.85322" lon="2.40769">
        <ele>121.7</ele>
        <time>2015-03-02T21:06:20.977Z</time>
      </trkpt>
      <trkpt lat="48.85323" lon="2.40757">
        <ele>123.3</ele>
        <time>2015-03-02T21:06:26.119Z</time>
      </trkpt>
      <trkpt lat="48.85322" lon="2.40753">
        <ele>123.6</ele>
        <time>2015-03-02T21:06:26.937Z</time>
      </trkpt>
      <trkpt lat="48.85319" lon="2.40743">
        <ele>124.1</ele>
        <time>2015-03-02T21:06:29.097Z</time>
      </trkpt>
      <trkpt lat="48.85318" lon="2.40737">
        <ele>124.3</ele>
        <time>2015-03-02T21:06:29.895Z</time>
      </trkpt>
      <trkpt lat="48.85316" lon="2.40727">
        <ele>124.5</ele>
        <time>2015-03-02T21:06:31.929Z</time>
      </trkpt>
      <trkpt lat="48.85314" lon="2.40723">
        <ele>124.6</ele>
        <time>2015-03-02T21:06:32.970Z</time>
      </trkpt>
      <trkpt lat="48.8531" lon="2.40712">
        <ele>124.6</ele>
        <time>2015-03-02T21:06:36.899Z</time>
      </trkpt>
      <trkpt lat="48.85308" lon="2.40709">
        <ele>124.6</ele>
        <time>2015-03-02T21:06:37.887Z</time>
      </trkpt>
      <trkpt lat="48.85305" lon="2.407">
        <ele>124.5</ele>
        <time>2015-03-02T21:06:39.939Z</time>
      </trkpt>
      <trkpt lat="48.85296" lon="2.40697">
        <ele>124.2</ele>
        <time>2015-03-02T21:06:40.957Z</time>
      </trkpt>
      <trkpt lat="48.85292" lon="2.40686">
        <ele>124.2</ele>
        <time>2015-03-02T21:06:44.183Z</time>
      </trkpt>
      <trkpt lat="48.8529" lon="2.40685">
        <ele>124.4</ele>
        <time>2015-03-02T21:06:45.008Z</time>
      </trkpt>
      <trkpt lat="48.85286" lon="2.40673">
        <ele>125</ele>
        <time>2015-03-02T21:06:51.896Z</time>
      </trkpt>
      <trkpt lat="48.85287" lon="2.40671">
        <ele>125.1</ele>
        <time>2015-03-02T21:06:52.929Z</time>
      </trkpt>
      <trkpt lat="48.85289" lon="2.4066">
        <ele>124.6</ele>
        <time>2015-03-02T21:06:55.931Z</time>
      </trkpt>
      <trkpt lat="48.85289" lon="2.40656">
        <ele>124.3</ele>
        <time>2015-03-02T21:06:56.944Z</time>
      </trkpt>
      <trkpt lat="48.85287" lon="2.40649">
        <ele>123.9</ele>
        <time>2015-03-02T21:06:58.960Z</time>
      </trkpt>
      <trkpt lat="48.8528" lon="2.40643">
        <ele>124.4</ele>
        <time>2015-03-02T21:06:59.980Z</time>
      </trkpt>
      <trkpt lat="48.85275" lon="2.40633">
        <ele>125.4</ele>
        <time>2015-03-02T21:07:01.883Z</time>
      </trkpt>
      <trkpt lat="48.85273" lon="2.40629">
        <ele>125.8</ele>
        <time>2015-03-02T21:07:02.907Z</time>
      </trkpt>
      <trkpt lat="48.85272" lon="2.40619">
        <ele>125.6</ele>
        <time>2015-03-02T21:07:04.947Z</time>
      </trkpt>
      <trkpt lat="48.85272" lon="2.40613">
        <ele>125.2</ele>
        <time>2015-03-02T21:07:05.971Z</time>
      </trkpt>
      <trkpt lat="48.85272" lon="2.40601">
        <ele>124.6</ele>
        <time>2015-03-02T21:07:07.889Z</time>
      </trkpt>
      <trkpt lat="48.85272" lon="2.40589">
        <ele>124.2</ele>
        <time>2015-03-02T21:07:08.933Z</time>
      </trkpt>
      <trkpt lat="48.85269" lon="2.40577">
        <ele>124</ele>
        <time>2015-03-02T21:07:10.950Z</time>
      </trkpt>
      <trkpt lat="48.85268" lon="2.40571">
        <ele>123.9</ele>
        <time>2015-03-02T21:07:11.860Z</time>
      </trkpt>
      <trkpt lat="48.85267" lon="2.40564">
        <ele>124</ele>
        <time>2015-03-02T21:07:12.883Z</time>
      </trkpt>
      <trkpt lat="48.85265" lon="2.40557">
        <ele>124.3</ele>
        <time>2015-03-02T21:07:13.877Z</time>
      </trkpt>
      <trkpt lat="48.85265" lon="2.40546">
        <ele>124.3</ele>
        <time>2015-03-02T21:07:15.930Z</time>
      </trkpt>
      <trkpt lat="48.85266" lon="2.4054">
        <ele>124.4</ele>
        <time>2015-03-02T21:07:16.929Z</time>
      </trkpt>
      <trkpt lat="48.85267" lon="2.40529">
        <ele>124.5</ele>
        <time>2015-03-02T21:07:19.215Z</time>
      </trkpt>
      <trkpt lat="48.85268" lon="2.40523">
        <ele>124.5</ele>
        <time>2015-03-02T21:07:19.945Z</time>
      </trkpt>
      <trkpt lat="48.85267" lon="2.40517">
        <ele>124.4</ele>
        <time>2015-03-02T21:07:20.928Z</time>
      </trkpt>
      <trkpt lat="48.8526" lon="2.4051">
        <ele>123.5</ele>
        <time>2015-03-02T21:07:21.926Z</time>
      </trkpt>
      <trkpt lat="48.85254" lon="2.40502">
        <ele>122.9</ele>
        <time>2015-03-02T21:07:22.931Z</time>
      </trkpt>
      <trkpt lat="48.85252" lon="2.40496">
        <ele>123</ele>
        <time>2015-03-02T21:07:23.942Z</time>
      </trkpt>
      <trkpt lat="48.8525" lon="2.40484">
        <ele>123.1</ele>
        <time>2015-03-02T21:07:25.891Z</time>
      </trkpt>
      <trkpt lat="48.85249" lon="2.40479">
        <ele>123</ele>
        <time>2015-03-02T21:07:26.925Z</time>
      </trkpt>
      <trkpt lat="48.85248" lon="2.40469">
        <ele>122.9</ele>
        <time>2015-03-02T21:07:28.959Z</time>
      </trkpt>
      <trkpt lat="48.85247" lon="2.40463">
        <ele>122.9</ele>
        <time>2015-03-02T21:07:29.979Z</time>
      </trkpt>
      <trkpt lat="48.85247" lon="2.40451">
        <ele>123.2</ele>
        <time>2015-03-02T21:07:32.605Z</time>
      </trkpt>
      <trkpt lat="48.85246" lon="2.40445">
        <ele>123.2</ele>
        <time>2015-03-02T21:07:32.975Z</time>
      </trkpt>
      <trkpt lat="48.85244" lon="2.40432">
        <ele>123.7</ele>
        <time>2015-03-02T21:07:34.997Z</time>
      </trkpt>
      <trkpt lat="48.85242" lon="2.40426">
        <ele>123.8</ele>
        <time>2015-03-02T21:07:35.869Z</time>
      </trkpt>
      <trkpt lat="48.8524" lon="2.40416">
        <ele>124.2</ele>
        <time>2015-03-02T21:07:37.936Z</time>
      </trkpt>
      <trkpt lat="48.85239" lon="2.4041">
        <ele>124.5</ele>
        <time>2015-03-02T21:07:39.064Z</time>
      </trkpt>
      <trkpt lat="48.85236" lon="2.40399">
        <ele>124.8</ele>
        <time>2015-03-02T21:07:40.944Z</time>
      </trkpt>
      <trkpt lat="48.85234" lon="2.40393">
        <ele>125</ele>
        <time>2015-03-02T21:07:42.044Z</time>
      </trkpt>
      <trkpt lat="48.85233" lon="2.40383">
        <ele>125.3</ele>
        <time>2015-03-02T21:07:44.521Z</time>
      </trkpt>
      <trkpt lat="48.85232" lon="2.40377">
        <ele>125.4</ele>
        <time>2015-03-02T21:07:44.955Z</time>
      </trkpt>
      <trkpt lat="48.85234" lon="2.40363">
        <ele>125.5</ele>
        <time>2015-03-02T21:07:47.020Z</time>
      </trkpt>
      <trkpt lat="48.85234" lon="2.40356">
        <ele>125.7</ele>
        <time>2015-03-02T21:07:47.878Z</time>
      </trkpt>
      <trkpt lat="48.85234" lon="2.40349">
        <ele>126</ele>
        <time>2015-03-02T21:07:49.531Z</time>
      </trkpt>
      <trkpt lat="48.85233" lon="2.40341">
        <ele>126.6</ele>
        <time>2015-03-02T21:07:49.912Z</time>
      </trkpt>
      <trkpt lat="48.85233" lon="2.40328">
        <ele>127</ele>
        <time>2015-03-02T21:07:51.930Z</time>
      </trkpt>
      <trkpt lat="48.85233" lon="2.40321">
        <ele>127.1</ele>
        <time>2015-03-02T21:07:52.939Z</time>
      </trkpt>
      <trkpt lat="48.85233" lon="2.40314">
        <ele>127.7</ele>
        <time>2015-03-02T21:07:53.966Z</time>
      </trkpt>
      <trkpt lat="48.85233" lon="2.40307">
        <ele>127.8</ele>
        <time>2015-03-02T21:07:54.917Z</time>
      </trkpt>
      <trkpt lat="48.85234" lon="2.403">
        <ele>128</ele>
        <time>2015-03-02T21:07:55.934Z</time>
      </trkpt>
      <trkpt lat="48.85234" lon="2.40293">
        <ele>128.1</ele>
        <time>2015-03-02T21:07:56.932Z</time>
      </trkpt>
      <trkpt lat="48.85234" lon="2.40285">
        <ele>128.2</ele>
        <time>2015-03-02T21:07:58.810Z</time>
      </trkpt>
      <trkpt lat="48.85235" lon="2.40279">
        <ele>128.4</ele>
        <time>2015-03-02T21:07:58.879Z</time>
      </trkpt>
      <trkpt lat="48.85237" lon="2.40266">
        <ele>128.5</ele>
        <time>2015-03-02T21:08:00.911Z</time>
      </trkpt>
      <trkpt lat="48.85238" lon="2.40258">
        <ele>128.5</ele>
        <time>2015-03-02T21:08:01.920Z</time>
      </trkpt>
      <trkpt lat="48.85237" lon="2.40251">
        <ele>128.5</ele>
        <time>2015-03-02T21:08:03.852Z</time>
      </trkpt>
      <trkpt lat="48.85238" lon="2.40244">
        <ele>128.5</ele>
        <time>2015-03-02T21:08:03.930Z</time>
      </trkpt>
      <trkpt lat="48.8524" lon="2.40238">
        <ele>128.7</ele>
        <time>2015-03-02T21:08:04.944Z</time>
      </trkpt>
      <trkpt lat="48.85242" lon="2.40232">
        <ele>128.7</ele>
        <time>2015-03-02T21:08:05.949Z</time>
      </trkpt>
      <trkpt lat="48.85245" lon="2.40226">
        <ele>128.9</ele>
        <time>2015-03-02T21:08:06.969Z</time>
      </trkpt>
      <trkpt lat="48.85247" lon="2.40219">
        <ele>129.1</ele>
        <time>2015-03-02T21:08:07.881Z</time>
      </trkpt>
      <trkpt lat="48.85249" lon="2.40212">
        <ele>129.3</ele>
        <time>2015-03-02T21:08:08.921Z</time>
      </trkpt>
      <trkpt lat="48.8525" lon="2.40206">
        <ele>129.5</ele>
        <time>2015-03-02T21:08:09.925Z</time>
      </trkpt>
      <trkpt lat="48.85251" lon="2.40199">
        <ele>129.7</ele>
        <time>2015-03-02T21:08:10.943Z</time>
      </trkpt>
      <trkpt lat="48.85254" lon="2.40192">
        <ele>129.8</ele>
        <time>2015-03-02T21:08:11.970Z</time>
      </trkpt>
      <trkpt lat="48.85258" lon="2.40186">
        <ele>129.8</ele>
        <time>2015-03-02T21:08:12.876Z</time>
      </trkpt>
      <trkpt lat="48.85261" lon="2.4018">
        <ele>130</ele>
        <time>2015-03-02T21:08:13.878Z</time>
      </trkpt>
      <trkpt lat="48.85264" lon="2.40174">
        <ele>130</ele>
        <time>2015-03-02T21:08:14.912Z</time>
      </trkpt>
      <trkpt lat="48.85267" lon="2.40168">
        <ele>129.8</ele>
        <time>2015-03-02T21:08:15.911Z</time>
      </trkpt>
      <trkpt lat="48.85269" lon="2.40156">
        <ele>129.4</ele>
        <time>2015-03-02T21:08:17.958Z</time>
      </trkpt>
      <trkpt lat="48.85269" lon="2.40149">
        <ele>129.3</ele>
        <time>2015-03-02T21:08:18.859Z</time>
      </trkpt>
      <trkpt lat="48.85267" lon="2.40141">
        <ele>129.1</ele>
        <time>2015-03-02T21:08:19.908Z</time>
      </trkpt>
      <trkpt lat="48.85264" lon="2.40133">
        <ele>129.3</ele>
        <time>2015-03-02T21:08:20.918Z</time>
      </trkpt>
      <trkpt lat="48.85262" lon="2.40125">
        <ele>129.1</ele>
        <time>2015-03-02T21:08:21.944Z</time>
      </trkpt>
      <trkpt lat="48.85261" lon="2.40117">
        <ele>128.9</ele>
        <time>2015-03-02T21:08:22.924Z</time>
      </trkpt>
      <trkpt lat="48.85259" lon="2.40109">
        <ele>128.8</ele>
        <time>2015-03-02T21:08:23.878Z</time>
      </trkpt>
      <trkpt lat="48.85255" lon="2.401">
        <ele>128.8</ele>
        <time>2015-03-02T21:08:24.890Z</time>
      </trkpt>
      <trkpt lat="48.85253" lon="2.40092">
        <ele>128.7</ele>
        <time>2015-03-02T21:08:26.039Z</time>
      </trkpt>
      <trkpt lat="48.85248" lon="2.40084">
        <ele>128.7</ele>
        <time>2015-03-02T21:08:26.995Z</time>
      </trkpt>
      <trkpt lat="48.85247" lon="2.40077">
        <ele>128.5</ele>
        <time>2015-03-02T21:08:27.960Z</time>
      </trkpt>
      <trkpt lat="48.85243" lon="2.40069">
        <ele>128.3</ele>
        <time>2015-03-02T21:08:28.875Z</time>
      </trkpt>
      <trkpt lat="48.8524" lon="2.40063">
        <ele>128</ele>
        <time>2015-03-02T21:08:29.981Z</time>
      </trkpt>
      <trkpt lat="48.85239" lon="2.40055">
        <ele>127.7</ele>
        <time>2015-03-02T21:08:30.884Z</time>
      </trkpt>
      <trkpt lat="48.85237" lon="2.40047">
        <ele>127.5</ele>
        <time>2015-03-02T21:08:31.879Z</time>
      </trkpt>
      <trkpt lat="48.85238" lon="2.40041">
        <ele>127.6</ele>
        <time>2015-03-02T21:08:32.893Z</time>
      </trkpt>
      <trkpt lat="48.85237" lon="2.40033">
        <ele>127.7</ele>
        <time>2015-03-02T21:08:33.941Z</time>
      </trkpt>
      <trkpt lat="48.85234" lon="2.40025">
        <ele>127.4</ele>
        <time>2015-03-02T21:08:34.946Z</time>
      </trkpt>
      <trkpt lat="48.85229" lon="2.40016">
        <ele>127.1</ele>
        <time>2015-03-02T21:08:35.981Z</time>
      </trkpt>
      <trkpt lat="48.85226" lon="2.40009">
        <ele>127.1</ele>
        <time>2015-03-02T21:08:36.900Z</time>
      </trkpt>
      <trkpt lat="48.85223" lon="2.40001">
        <ele>127.3</ele>
        <time>2015-03-02T21:08:37.941Z</time>
      </trkpt>
      <trkpt lat="48.85221" lon="2.39993">
        <ele>127.4</ele>
        <time>2015-03-02T21:08:38.951Z</time>
      </trkpt>
      <trkpt lat="48.85218" lon="2.39985">
        <ele>127.4</ele>
        <time>2015-03-02T21:08:39.854Z</time>
      </trkpt>
      <trkpt lat="48.85213" lon="2.39976">
        <ele>127.5</ele>
        <time>2015-03-02T21:08:40.877Z</time>
      </trkpt>
      <trkpt lat="48.85207" lon="2.39967">
        <ele>127.6</ele>
        <time>2015-03-02T21:08:41.888Z</time>
      </trkpt>
      <trkpt lat="48.85202" lon="2.3996">
        <ele>127.6</ele>
        <time>2015-03-02T21:08:42.897Z</time>
      </trkpt>
      <trkpt lat="48.85199" lon="2.39951">
        <ele>127.7</ele>
        <time>2015-03-02T21:08:43.948Z</time>
      </trkpt>
      <trkpt lat="48.85195" lon="2.39944">
        <ele>127.9</ele>
        <time>2015-03-02T21:08:44.924Z</time>
      </trkpt>
      <trkpt lat="48.85193" lon="2.39936">
        <ele>127.7</ele>
        <time>2015-03-02T21:08:45.939Z</time>
      </trkpt>
      <trkpt lat="48.85189" lon="2.39929">
        <ele>127.7</ele>
        <time>2015-03-02T21:08:46.950Z</time>
      </trkpt>
      <trkpt lat="48.85185" lon="2.39922">
        <ele>127.6</ele>
        <time>2015-03-02T21:08:47.979Z</time>
      </trkpt>
      <trkpt lat="48.85182" lon="2.39916">
        <ele>127.5</ele>
        <time>2015-03-02T21:08:48.882Z</time>
      </trkpt>
      <trkpt lat="48.85178" lon="2.39906">
        <ele>127.4</ele>
        <time>2015-03-02T21:08:50.912Z</time>
      </trkpt>
      <trkpt lat="48.85177" lon="2.399">
        <ele>127.3</ele>
        <time>2015-03-02T21:08:51.891Z</time>
      </trkpt>
      <trkpt lat="48.85172" lon="2.39892">
        <ele>127.4</ele>
        <time>2015-03-02T21:08:53.915Z</time>
      </trkpt>
      <trkpt lat="48.8517" lon="2.39889">
        <ele>127.3</ele>
        <time>2015-03-02T21:08:54.922Z</time>
      </trkpt>
      <trkpt lat="48.85167" lon="2.39877">
        <ele>127.7</ele>
        <time>2015-03-02T21:08:57.982Z</time>
      </trkpt>
      <trkpt lat="48.85162" lon="2.39872">
        <ele>127.7</ele>
        <time>2015-03-02T21:08:58.901Z</time>
      </trkpt>
      <trkpt lat="48.85158" lon="2.39867">
        <ele>127.7</ele>
        <time>2015-03-02T21:08:59.929Z</time>
      </trkpt>
      <trkpt lat="48.85154" lon="2.39861">
        <ele>127.8</ele>
        <time>2015-03-02T21:09:00.944Z</time>
      </trkpt>
      <trkpt lat="48.85147" lon="2.39855">
        <ele>127.6</ele>
        <time>2015-03-02T21:09:01.958Z</time>
      </trkpt>
      <trkpt lat="48.85143" lon="2.39851">
        <ele>127.7</ele>
        <time>2015-03-02T21:09:02.966Z</time>
      </trkpt>
      <trkpt lat="48.85135" lon="2.39843">
        <ele>127.6</ele>
        <time>2015-03-02T21:09:04.933Z</time>
      </trkpt>
      <trkpt lat="48.85133" lon="2.3984">
        <ele>127.4</ele>
        <time>2015-03-02T21:09:05.936Z</time>
      </trkpt>
      <trkpt lat="48.85128" lon="2.39828">
        <ele>126.7</ele>
        <time>2015-03-02T21:09:09.028Z</time>
      </trkpt>
      <trkpt lat="48.85126" lon="2.39824">
        <ele>127.6</ele>
        <time>2015-03-02T21:09:09.902Z</time>
      </trkpt>
      <trkpt lat="48.85124" lon="2.3981">
        <ele>125.6</ele>
        <time>2015-03-02T21:09:13.896Z</time>
      </trkpt>
      <trkpt lat="48.85124" lon="2.39807">
        <ele>125.4</ele>
        <time>2015-03-02T21:09:14.948Z</time>
      </trkpt>
      <trkpt lat="48.85127" lon="2.39798">
        <ele>125.6</ele>
        <time>2015-03-02T21:09:17.901Z</time>
      </trkpt>
      <trkpt lat="48.85127" lon="2.39794">
        <ele>125.7</ele>
        <time>2015-03-02T21:09:18.928Z</time>
      </trkpt>
      <trkpt lat="48.8513" lon="2.39789">
        <ele>125.8</ele>
        <time>2015-03-02T21:09:19.951Z</time>
      </trkpt>
      <trkpt lat="48.85131" lon="2.39777">
        <ele>126.3</ele>
        <time>2015-03-02T21:09:21.025Z</time>
      </trkpt>
      <trkpt lat="48.85134" lon="2.39765">
        <ele>127.6</ele>
        <time>2015-03-02T21:09:22.915Z</time>
      </trkpt>
      <trkpt lat="48.85137" lon="2.3976">
        <ele>127.6</ele>
        <time>2015-03-02T21:09:23.944Z</time>
      </trkpt>
      <trkpt lat="48.85142" lon="2.39751">
        <ele>127.8</ele>
        <time>2015-03-02T21:09:25.890Z</time>
      </trkpt>
      <trkpt lat="48.85143" lon="2.39747">
        <ele>127.8</ele>
        <time>2015-03-02T21:09:26.940Z</time>
      </trkpt>
      <trkpt lat="48.85141" lon="2.39735">
        <ele>127.7</ele>
        <time>2015-03-02T21:09:28.972Z</time>
      </trkpt>
      <trkpt lat="48.85139" lon="2.39728">
        <ele>127.7</ele>
        <time>2015-03-02T21:09:29.875Z</time>
      </trkpt>
      <trkpt lat="48.85135" lon="2.39716">
        <ele>127.6</ele>
        <time>2015-03-02T21:09:31.926Z</time>
      </trkpt>
      <trkpt lat="48.85133" lon="2.39709">
        <ele>127.5</ele>
        <time>2015-03-02T21:09:32.948Z</time>
      </trkpt>
      <trkpt lat="48.85128" lon="2.39702">
        <ele>127.1</ele>
        <time>2015-03-02T21:09:33.961Z</time>
      </trkpt>
      <trkpt lat="48.85125" lon="2.39696">
        <ele>127</ele>
        <time>2015-03-02T21:09:35.075Z</time>
      </trkpt>
      <trkpt lat="48.85122" lon="2.3969">
        <ele>126.9</ele>
        <time>2015-03-02T21:09:35.934Z</time>
      </trkpt>
      <trkpt lat="48.85119" lon="2.39684">
        <ele>126.8</ele>
        <time>2015-03-02T21:09:36.939Z</time>
      </trkpt>
      <trkpt lat="48.85117" lon="2.39674">
        <ele>126.9</ele>
        <time>2015-03-02T21:09:38.901Z</time>
      </trkpt>
      <trkpt lat="48.85117" lon="2.39668">
        <ele>127</ele>
        <time>2015-03-02T21:09:39.912Z</time>
      </trkpt>
      <trkpt lat="48.85116" lon="2.39656">
        <ele>127.2</ele>
        <time>2015-03-02T21:09:41.904Z</time>
      </trkpt>
      <trkpt lat="48.85114" lon="2.3965">
        <ele>127.3</ele>
        <time>2015-03-02T21:09:42.950Z</time>
      </trkpt>
      <trkpt lat="48.85111" lon="2.39645">
        <ele>127.4</ele>
        <time>2015-03-02T21:09:43.922Z</time>
      </trkpt>
      <trkpt lat="48.85108" lon="2.39639">
        <ele>127.5</ele>
        <time>2015-03-02T21:09:44.928Z</time>
      </trkpt>
      <trkpt lat="48.85104" lon="2.39628">
        <ele>127.8</ele>
        <time>2015-03-02T21:09:46.904Z</time>
      </trkpt>
      <trkpt lat="48.85104" lon="2.39621">
        <ele>128</ele>
        <time>2015-03-02T21:09:47.901Z</time>
      </trkpt>
      <trkpt lat="48.85105" lon="2.39614">
        <ele>127.9</ele>
        <time>2015-03-02T21:09:48.885Z</time>
      </trkpt>
      <trkpt lat="48.85104" lon="2.39608">
        <ele>127.9</ele>
        <time>2015-03-02T21:09:49.909Z</time>
      </trkpt>
      <trkpt lat="48.85105" lon="2.396">
        <ele>127.9</ele>
        <time>2015-03-02T21:09:50.934Z</time>
      </trkpt>
      <trkpt lat="48.85103" lon="2.39593">
        <ele>127.9</ele>
        <time>2015-03-02T21:09:51.954Z</time>
      </trkpt>
      <trkpt lat="48.85103" lon="2.39586">
        <ele>127.9</ele>
        <time>2015-03-02T21:09:52.898Z</time>
      </trkpt>
      <trkpt lat="48.85101" lon="2.3958">
        <ele>128</ele>
        <time>2015-03-02T21:09:53.906Z</time>
      </trkpt>
      <trkpt lat="48.85099" lon="2.39573">
        <ele>128</ele>
        <time>2015-03-02T21:09:54.944Z</time>
      </trkpt>
      <trkpt lat="48.85097" lon="2.39566">
        <ele>127.9</ele>
        <time>2015-03-02T21:09:55.945Z</time>
      </trkpt>
      <trkpt lat="48.85096" lon="2.39558">
        <ele>127.7</ele>
        <time>2015-03-02T21:09:56.925Z</time>
      </trkpt>
      <trkpt lat="48.85094" lon="2.39551">
        <ele>127.6</ele>
        <time>2015-03-02T21:09:57.933Z</time>
      </trkpt>
      <trkpt lat="48.85093" lon="2.39544">
        <ele>127.5</ele>
        <time>2015-03-02T21:09:58.955Z</time>
      </trkpt>
      <trkpt lat="48.85092" lon="2.39537">
        <ele>127.4</ele>
        <time>2015-03-02T21:10:00.139Z</time>
      </trkpt>
      <trkpt lat="48.8509" lon="2.39526">
        <ele>127.2</ele>
        <time>2015-03-02T21:10:01.886Z</time>
      </trkpt>
      <trkpt lat="48.85089" lon="2.39521">
        <ele>127.1</ele>
        <time>2015-03-02T21:10:02.947Z</time>
      </trkpt>
      <trkpt lat="48.85086" lon="2.39509">
        <ele>127.2</ele>
        <time>2015-03-02T21:10:05.962Z</time>
      </trkpt>
      <trkpt lat="48.85088" lon="2.39504">
        <ele>127.3</ele>
        <time>2015-03-02T21:10:06.971Z</time>
      </trkpt>
      <trkpt lat="48.85092" lon="2.39494">
        <ele>127.5</ele>
        <time>2015-03-02T21:10:09.900Z</time>
      </trkpt>
      <trkpt lat="48.85094" lon="2.39489">
        <ele>127.5</ele>
        <time>2015-03-02T21:10:10.905Z</time>
      </trkpt>
      <trkpt lat="48.85095" lon="2.39476">
        <ele>128.3</ele>
        <time>2015-03-02T21:10:14.956Z</time>
      </trkpt>
      <trkpt lat="48.85086" lon="2.39472">
        <ele>127.4</ele>
        <time>2015-03-02T21:10:16.025Z</time>
      </trkpt>
      <trkpt lat="48.85087" lon="2.39462">
        <ele>127.1</ele>
        <time>2015-03-02T21:10:18.900Z</time>
      </trkpt>
      <trkpt lat="48.85089" lon="2.39458">
        <ele>127.1</ele>
        <time>2015-03-02T21:10:19.922Z</time>
      </trkpt>
      <trkpt lat="48.85093" lon="2.39449">
        <ele>127.1</ele>
        <time>2015-03-02T21:10:21.974Z</time>
      </trkpt>
      <trkpt lat="48.85094" lon="2.39445">
        <ele>127.2</ele>
        <time>2015-03-02T21:10:22.920Z</time>
      </trkpt>
      <trkpt lat="48.85097" lon="2.39436">
        <ele>127.3</ele>
        <time>2015-03-02T21:10:25.042Z</time>
      </trkpt>
      <trkpt lat="48.85097" lon="2.3943">
        <ele>127.3</ele>
        <time>2015-03-02T21:10:25.906Z</time>
      </trkpt>
      <trkpt lat="48.85095" lon="2.39418">
        <ele>127.2</ele>
        <time>2015-03-02T21:10:27.932Z</time>
      </trkpt>
      <trkpt lat="48.85091" lon="2.39412">
        <ele>127.1</ele>
        <time>2015-03-02T21:10:28.949Z</time>
      </trkpt>
      <trkpt lat="48.85088" lon="2.39406">
        <ele>127</ele>
        <time>2015-03-02T21:10:30.077Z</time>
      </trkpt>
      <trkpt lat="48.85086" lon="2.39401">
        <ele>127.1</ele>
        <time>2015-03-02T21:10:30.942Z</time>
      </trkpt>
      <trkpt lat="48.85083" lon="2.39391">
        <ele>126.9</ele>
        <time>2015-03-02T21:10:32.969Z</time>
      </trkpt>
      <trkpt lat="48.85082" lon="2.39385">
        <ele>126.6</ele>
        <time>2015-03-02T21:10:33.892Z</time>
      </trkpt>
      <trkpt lat="48.85081" lon="2.39375">
        <ele>126.4</ele>
        <time>2015-03-02T21:10:35.876Z</time>
      </trkpt>
      <trkpt lat="48.8508" lon="2.3937">
        <ele>126.4</ele>
        <time>2015-03-02T21:10:36.880Z</time>
      </trkpt>
      <trkpt lat="48.85079" lon="2.39359">
        <ele>126.3</ele>
        <time>2015-03-02T21:10:38.998Z</time>
      </trkpt>
      <trkpt lat="48.85079" lon="2.39352">
        <ele>126.2</ele>
        <time>2015-03-02T21:10:39.865Z</time>
      </trkpt>
      <trkpt lat="48.85079" lon="2.3934">
        <ele>125.8</ele>
        <time>2015-03-02T21:10:41.931Z</time>
      </trkpt>
      <trkpt lat="48.85079" lon="2.39334">
        <ele>125.6</ele>
        <time>2015-03-02T21:10:42.947Z</time>
      </trkpt>
      <trkpt lat="48.85079" lon="2.39322">
        <ele>125.3</ele>
        <time>2015-03-02T21:10:44.914Z</time>
      </trkpt>
      <trkpt lat="48.85079" lon="2.39317">
        <ele>125.3</ele>
        <time>2015-03-02T21:10:45.919Z</time>
      </trkpt>
      <trkpt lat="48.85083" lon="2.39306">
        <ele>125.1</ele>
        <time>2015-03-02T21:10:47.968Z</time>
      </trkpt>
      <trkpt lat="48.85083" lon="2.39302">
        <ele>125</ele>
        <time>2015-03-02T21:10:48.986Z</time>
      </trkpt>
      <trkpt lat="48.85082" lon="2.3929">
        <ele>124.4</ele>
        <time>2015-03-02T21:10:51.929Z</time>
      </trkpt>
      <trkpt lat="48.85083" lon="2.39285">
        <ele>124.9</ele>
        <time>2015-03-02T21:10:52.949Z</time>
      </trkpt>
      <trkpt lat="48.85082" lon="2.39277">
        <ele>125.1</ele>
        <time>2015-03-02T21:10:54.905Z</time>
      </trkpt>
      <trkpt lat="48.85077" lon="2.39273">
        <ele>125.2</ele>
        <time>2015-03-02T21:10:56.019Z</time>
      </trkpt>
      <trkpt lat="48.85063" lon="2.39267">
        <ele>125.6</ele>
        <time>2015-03-02T21:10:56.926Z</time>
      </trkpt>
      <trkpt lat="48.8505" lon="2.3926">
        <ele>125.6</ele>
        <time>2015-03-02T21:10:57.924Z</time>
      </trkpt>
      <trkpt lat="48.85049" lon="2.39251">
        <ele>126.5</ele>
        <time>2015-03-02T21:10:59.952Z</time>
      </trkpt>
      <trkpt lat="48.8505" lon="2.39247">
        <ele>126.4</ele>
        <time>2015-03-02T21:11:00.970Z</time>
      </trkpt>
      <trkpt lat="48.85053" lon="2.39237">
        <ele>125.9</ele>
        <time>2015-03-02T21:11:02.989Z</time>
      </trkpt>
      <trkpt lat="48.85054" lon="2.39232">
        <ele>125.9</ele>
        <time>2015-03-02T21:11:03.902Z</time>
      </trkpt>
      <trkpt lat="48.85056" lon="2.3922">
        <ele>126</ele>
        <time>2015-03-02T21:11:05.938Z</time>
      </trkpt>
      <trkpt lat="48.85056" lon="2.39213">
        <ele>125.8</ele>
        <time>2015-03-02T21:11:06.948Z</time>
      </trkpt>
      <trkpt lat="48.85047" lon="2.39205">
        <ele>124.6</ele>
        <time>2015-03-02T21:11:07.958Z</time>
      </trkpt>
      <trkpt lat="48.85047" lon="2.39192">
        <ele>124.2</ele>
        <time>2015-03-02T21:11:09.974Z</time>
      </trkpt>
      <trkpt lat="48.85048" lon="2.39165">
        <ele>123.6</ele>
        <time>2015-03-02T21:11:13.934Z</time>
      </trkpt>
      <trkpt lat="48.85048" lon="2.39158">
        <ele>123.5</ele>
        <time>2015-03-02T21:11:14.953Z</time>
      </trkpt>
      <trkpt lat="48.85048" lon="2.39151">
        <ele>123.4</ele>
        <time>2015-03-02T21:11:15.866Z</time>
      </trkpt>
      <trkpt lat="48.85048" lon="2.39144">
        <ele>123.2</ele>
        <time>2015-03-02T21:11:16.871Z</time>
      </trkpt>
      <trkpt lat="48.85048" lon="2.39137">
        <ele>123</ele>
        <time>2015-03-02T21:11:17.887Z</time>
      </trkpt>
      <trkpt lat="48.85049" lon="2.3913">
        <ele>122.9</ele>
        <time>2015-03-02T21:11:18.894Z</time>
      </trkpt>
      <trkpt lat="48.85048" lon="2.39122">
        <ele>122.9</ele>
        <time>2015-03-02T21:11:19.908Z</time>
      </trkpt>
      <trkpt lat="48.85047" lon="2.39115">
        <ele>122.9</ele>
        <time>2015-03-02T21:11:20.936Z</time>
      </trkpt>
      <trkpt lat="48.85031" lon="2.39104">
        <ele>123.2</ele>
        <time>2015-03-02T21:11:21.944Z</time>
      </trkpt>
      <trkpt lat="48.85029" lon="2.39096">
        <ele>123.3</ele>
        <time>2015-03-02T21:11:22.882Z</time>
      </trkpt>
      <trkpt lat="48.85026" lon="2.39088">
        <ele>123.2</ele>
        <time>2015-03-02T21:11:23.892Z</time>
      </trkpt>
      <trkpt lat="48.85025" lon="2.3908">
        <ele>123.1</ele>
        <time>2015-03-02T21:11:24.920Z</time>
      </trkpt>
      <trkpt lat="48.85023" lon="2.39072">
        <ele>123</ele>
        <time>2015-03-02T21:11:25.942Z</time>
      </trkpt>
      <trkpt lat="48.85021" lon="2.39064">
        <ele>122.9</ele>
        <time>2015-03-02T21:11:26.959Z</time>
      </trkpt>
      <trkpt lat="48.85019" lon="2.39058">
        <ele>122.7</ele>
        <time>2015-03-02T21:11:27.868Z</time>
      </trkpt>
      <trkpt lat="48.85017" lon="2.39051">
        <ele>122.6</ele>
        <time>2015-03-02T21:11:28.940Z</time>
      </trkpt>
      <trkpt lat="48.85018" lon="2.39037">
        <ele>122.5</ele>
        <time>2015-03-02T21:11:30.878Z</time>
      </trkpt>
      <trkpt lat="48.85017" lon="2.39029">
        <ele>122.4</ele>
        <time>2015-03-02T21:11:31.882Z</time>
      </trkpt>
      <trkpt lat="48.85017" lon="2.39022">
        <ele>122.2</ele>
        <time>2015-03-02T21:11:32.926Z</time>
      </trkpt>
      <trkpt lat="48.85016" lon="2.39014">
        <ele>122</ele>
        <time>2015-03-02T21:11:33.874Z</time>
      </trkpt>
      <trkpt lat="48.85017" lon="2.39007">
        <ele>121.8</ele>
        <time>2015-03-02T21:11:34.882Z</time>
      </trkpt>
      <trkpt lat="48.85017" lon="2.38999">
        <ele>121.4</ele>
        <time>2015-03-02T21:11:35.944Z</time>
      </trkpt>
      <trkpt lat="48.85017" lon="2.38991">
        <ele>121.1</ele>
        <time>2015-03-02T21:11:37.034Z</time>
      </trkpt>
      <trkpt lat="48.85018" lon="2.38983">
        <ele>120.7</ele>
        <time>2015-03-02T21:12:09.030Z</time>
      </trkpt>
      <trkpt lat="48.85023" lon="2.38735">
        <ele>121.2</ele>
        <time>2015-03-02T21:12:12.868Z</time>
      </trkpt>
      <trkpt lat="48.8503" lon="2.3873">
        <ele>121.2</ele>
        <time>2015-03-02T21:12:14.020Z</time>
      </trkpt>
      <trkpt lat="48.85031" lon="2.38724">
        <ele>121.3</ele>
        <time>2015-03-02T21:12:14.917Z</time>
      </trkpt>
      <trkpt lat="48.85033" lon="2.38717">
        <ele>121.2</ele>
        <time>2015-03-02T21:12:15.938Z</time>
      </trkpt>
      <trkpt lat="48.85036" lon="2.3871">
        <ele>121.2</ele>
        <time>2015-03-02T21:12:16.940Z</time>
      </trkpt>
      <trkpt lat="48.85038" lon="2.38703">
        <ele>121.1</ele>
        <time>2015-03-02T21:12:17.956Z</time>
      </trkpt>
      <trkpt lat="48.85042" lon="2.38696">
        <ele>121.1</ele>
        <time>2015-03-02T21:12:18.854Z</time>
      </trkpt>
      <trkpt lat="48.85045" lon="2.3869">
        <ele>121</ele>
        <time>2015-03-02T21:12:19.940Z</time>
      </trkpt>
      <trkpt lat="48.8505" lon="2.38684">
        <ele>120.9</ele>
        <time>2015-03-02T21:12:21.009Z</time>
      </trkpt>
      <trkpt lat="48.85055" lon="2.38677">
        <ele>120.7</ele>
        <time>2015-03-02T21:12:21.882Z</time>
      </trkpt>
      <trkpt lat="48.85065" lon="2.38672">
        <ele>120.6</ele>
        <time>2015-03-02T21:12:22.868Z</time>
      </trkpt>
      <trkpt lat="48.8507" lon="2.38667">
        <ele>120.5</ele>
        <time>2015-03-02T21:12:23.944Z</time>
      </trkpt>
      <trkpt lat="48.85075" lon="2.38661">
        <ele>120.4</ele>
        <time>2015-03-02T21:12:24.913Z</time>
      </trkpt>
      <trkpt lat="48.85081" lon="2.38655">
        <ele>120.3</ele>
        <time>2015-03-02T21:12:25.883Z</time>
      </trkpt>
      <trkpt lat="48.85087" lon="2.38649">
        <ele>120.2</ele>
        <time>2015-03-02T21:12:26.929Z</time>
      </trkpt>
      <trkpt lat="48.85096" lon="2.38644">
        <ele>120.1</ele>
        <time>2015-03-02T21:12:27.941Z</time>
      </trkpt>
      <trkpt lat="48.85098" lon="2.38637">
        <ele>119.7</ele>
        <time>2015-03-02T21:12:28.955Z</time>
      </trkpt>
      <trkpt lat="48.851" lon="2.3863">
        <ele>118.9</ele>
        <time>2015-03-02T21:12:29.886Z</time>
      </trkpt>
      <trkpt lat="48.85103" lon="2.38623">
        <ele>118.4</ele>
        <time>2015-03-02T21:12:30.876Z</time>
      </trkpt>
      <trkpt lat="48.85105" lon="2.38617">
        <ele>118.1</ele>
        <time>2015-03-02T21:12:31.887Z</time>
      </trkpt>
      <trkpt lat="48.85106" lon="2.38609">
        <ele>117.8</ele>
        <time>2015-03-02T21:12:32.921Z</time>
      </trkpt>
      <trkpt lat="48.85107" lon="2.38602">
        <ele>117.4</ele>
        <time>2015-03-02T21:12:33.975Z</time>
      </trkpt>
      <trkpt lat="48.85109" lon="2.38596">
        <ele>116.9</ele>
        <time>2015-03-02T21:12:34.877Z</time>
      </trkpt>
      <trkpt lat="48.85113" lon="2.3859">
        <ele>116.5</ele>
        <time>2015-03-02T21:12:35.883Z</time>
      </trkpt>
      <trkpt lat="48.8512" lon="2.38585">
        <ele>116.1</ele>
        <time>2015-03-02T21:12:36.930Z</time>
      </trkpt>
      <trkpt lat="48.85125" lon="2.38579">
        <ele>115</ele>
        <time>2015-03-02T21:12:37.862Z</time>
      </trkpt>
      <trkpt lat="48.85132" lon="2.38573">
        <ele>114.1</ele>
        <time>2015-03-02T21:12:38.893Z</time>
      </trkpt>
      <trkpt lat="48.85139" lon="2.38568">
        <ele>113.7</ele>
        <time>2015-03-02T21:12:39.897Z</time>
      </trkpt>
      <trkpt lat="48.85146" lon="2.38563">
        <ele>112.7</ele>
        <time>2015-03-02T21:12:40.912Z</time>
      </trkpt>
      <trkpt lat="48.85154" lon="2.38558">
        <ele>112.2</ele>
        <time>2015-03-02T21:12:41.921Z</time>
      </trkpt>
      <trkpt lat="48.8516" lon="2.38552">
        <ele>112</ele>
        <time>2015-03-02T21:12:42.930Z</time>
      </trkpt>
      <trkpt lat="48.85166" lon="2.38547">
        <ele>112</ele>
        <time>2015-03-02T21:12:43.860Z</time>
      </trkpt>
      <trkpt lat="48.85173" lon="2.38541">
        <ele>111.8</ele>
        <time>2015-03-02T21:12:44.966Z</time>
      </trkpt>
      <trkpt lat="48.8518" lon="2.38535">
        <ele>111.4</ele>
        <time>2015-03-02T21:12:45.876Z</time>
      </trkpt>
      <trkpt lat="48.85186" lon="2.38531">
        <ele>110.9</ele>
        <time>2015-03-02T21:12:46.876Z</time>
      </trkpt>
      <trkpt lat="48.85191" lon="2.38526">
        <ele>110.6</ele>
        <time>2015-03-02T21:12:47.893Z</time>
      </trkpt>
      <trkpt lat="48.85196" lon="2.38521">
        <ele>110</ele>
        <time>2015-03-02T21:12:48.906Z</time>
      </trkpt>
      <trkpt lat="48.85202" lon="2.38515">
        <ele>109.2</ele>
        <time>2015-03-02T21:12:49.923Z</time>
      </trkpt>
      <trkpt lat="48.85207" lon="2.3851">
        <ele>108.9</ele>
        <time>2015-03-02T21:12:50.962Z</time>
      </trkpt>
      <trkpt lat="48.85208" lon="2.38499">
        <ele>107.9</ele>
        <time>2015-03-02T21:12:52.876Z</time>
      </trkpt>
      <trkpt lat="48.85202" lon="2.38493">
        <ele>107.2</ele>
        <time>2015-03-02T21:12:53.891Z</time>
      </trkpt>
      <trkpt lat="48.85196" lon="2.38488">
        <ele>106.2</ele>
        <time>2015-03-02T21:12:54.951Z</time>
      </trkpt>
      <trkpt lat="48.8519" lon="2.38483">
        <ele>105.3</ele>
        <time>2015-03-02T21:12:55.870Z</time>
      </trkpt>
      <trkpt lat="48.85186" lon="2.38479">
        <ele>105</ele>
        <time>2015-03-02T21:12:56.918Z</time>
      </trkpt>
      <trkpt lat="48.85181" lon="2.38474">
        <ele>104.3</ele>
        <time>2015-03-02T21:12:57.924Z</time>
      </trkpt>
      <trkpt lat="48.85176" lon="2.38469">
        <ele>104.1</ele>
        <time>2015-03-02T21:12:58.963Z</time>
      </trkpt>
      <trkpt lat="48.85171" lon="2.38461">
        <ele>103.8</ele>
        <time>2015-03-02T21:12:59.977Z</time>
      </trkpt>
      <trkpt lat="48.8516" lon="2.38452">
        <ele>102.9</ele>
        <time>2015-03-02T21:13:00.944Z</time>
      </trkpt>
      <trkpt lat="48.8515" lon="2.38445">
        <ele>102.5</ele>
        <time>2015-03-02T21:13:01.957Z</time>
      </trkpt>
      <trkpt lat="48.85137" lon="2.38438">
        <ele>101.6</ele>
        <time>2015-03-02T21:13:02.964Z</time>
      </trkpt>
      <trkpt lat="48.85131" lon="2.38433">
        <ele>101.3</ele>
        <time>2015-03-02T21:13:03.901Z</time>
      </trkpt>
      <trkpt lat="48.85126" lon="2.38429">
        <ele>101.2</ele>
        <time>2015-03-02T21:13:04.907Z</time>
      </trkpt>
      <trkpt lat="48.85126" lon="2.38417">
        <ele>100.8</ele>
        <time>2015-03-02T21:13:07.952Z</time>
      </trkpt>
      <trkpt lat="48.85122" lon="2.38411">
        <ele>100</ele>
        <time>2015-03-02T21:13:08.968Z</time>
      </trkpt>
      <trkpt lat="48.85115" lon="2.38405">
        <ele>98.5</ele>
        <time>2015-03-02T21:13:09.880Z</time>
      </trkpt>
      <trkpt lat="48.8511" lon="2.38399">
        <ele>97.4</ele>
        <time>2015-03-02T21:13:10.890Z</time>
      </trkpt>
      <trkpt lat="48.85104" lon="2.38394">
        <ele>96.9</ele>
        <time>2015-03-02T21:13:11.900Z</time>
      </trkpt>
      <trkpt lat="48.85102" lon="2.38389">
        <ele>96.2</ele>
        <time>2015-03-02T21:13:12.914Z</time>
      </trkpt>
      <trkpt lat="48.85098" lon="2.38381">
        <ele>95.8</ele>
        <time>2015-03-02T21:13:14.920Z</time>
      </trkpt>
      <trkpt lat="48.85097" lon="2.38377">
        <ele>95.4</ele>
        <time>2015-03-02T21:13:15.924Z</time>
      </trkpt>
      <trkpt lat="48.85102" lon="2.38366">
        <ele>94.9</ele>
        <time>2015-03-02T21:13:18.949Z</time>
      </trkpt>
      <trkpt lat="48.85103" lon="2.38362">
        <ele>94.6</ele>
        <time>2015-03-02T21:13:19.903Z</time>
      </trkpt>
      <trkpt lat="48.851" lon="2.38353">
        <ele>93.9</ele>
        <time>2015-03-02T21:13:21.927Z</time>
      </trkpt>
      <trkpt lat="48.85098" lon="2.38348">
        <ele>93.4</ele>
        <time>2015-03-02T21:13:23.010Z</time>
      </trkpt>
      <trkpt lat="48.85095" lon="2.38337">
        <ele>92</ele>
        <time>2015-03-02T21:13:24.966Z</time>
      </trkpt>
      <trkpt lat="48.85093" lon="2.3833">
        <ele>91.6</ele>
        <time>2015-03-02T21:13:26.011Z</time>
      </trkpt>
      <trkpt lat="48.85091" lon="2.38323">
        <ele>91.3</ele>
        <time>2015-03-02T21:13:26.951Z</time>
      </trkpt>
      <trkpt lat="48.85088" lon="2.38316">
        <ele>91.1</ele>
        <time>2015-03-02T21:13:27.885Z</time>
      </trkpt>
      <trkpt lat="48.85086" lon="2.38308">
        <ele>90.7</ele>
        <time>2015-03-02T21:13:28.903Z</time>
      </trkpt>
      <trkpt lat="48.85083" lon="2.383">
        <ele>90.4</ele>
        <time>2015-03-02T21:13:29.914Z</time>
      </trkpt>
      <trkpt lat="48.8508" lon="2.38292">
        <ele>90.1</ele>
        <time>2015-03-02T21:13:30.942Z</time>
      </trkpt>
      <trkpt lat="48.85078" lon="2.38285">
        <ele>89.8</ele>
        <time>2015-03-02T21:13:31.970Z</time>
      </trkpt>
      <trkpt lat="48.85075" lon="2.38277">
        <ele>89.7</ele>
        <time>2015-03-02T21:13:32.996Z</time>
      </trkpt>
      <trkpt lat="48.85074" lon="2.3827">
        <ele>89.9</ele>
        <time>2015-03-02T21:13:33.881Z</time>
      </trkpt>
      <trkpt lat="48.85072" lon="2.38263">
        <ele>89.7</ele>
        <time>2015-03-02T21:13:34.888Z</time>
      </trkpt>
      <trkpt lat="48.8507" lon="2.38256">
        <ele>89.9</ele>
        <time>2015-03-02T21:13:35.897Z</time>
      </trkpt>
      <trkpt lat="48.85068" lon="2.38248">
        <ele>89.8</ele>
        <time>2015-03-02T21:13:36.908Z</time>
      </trkpt>
      <trkpt lat="48.85068" lon="2.38242">
        <ele>89.6</ele>
        <time>2015-03-02T21:13:37.926Z</time>
      </trkpt>
      <trkpt lat="48.85068" lon="2.3823">
        <ele>88.9</ele>
        <time>2015-03-02T21:13:39.950Z</time>
      </trkpt>
      <trkpt lat="48.8507" lon="2.38225">
        <ele>89.1</ele>
        <time>2015-03-02T21:13:40.958Z</time>
      </trkpt>
      <trkpt lat="48.85074" lon="2.3822">
        <ele>89</ele>
        <time>2015-03-02T21:13:41.986Z</time>
      </trkpt>
      <trkpt lat="48.85077" lon="2.38215">
        <ele>89</ele>
        <time>2015-03-02T21:13:42.882Z</time>
      </trkpt>
      <trkpt lat="48.85079" lon="2.38203">
        <ele>88.5</ele>
        <time>2015-03-02T21:13:44.956Z</time>
      </trkpt>
      <trkpt lat="48.85081" lon="2.38197">
        <ele>88.6</ele>
        <time>2015-03-02T21:13:45.972Z</time>
      </trkpt>
      <trkpt lat="48.85084" lon="2.38185">
        <ele>88.4</ele>
        <time>2015-03-02T21:13:47.894Z</time>
      </trkpt>
      <trkpt lat="48.85086" lon="2.38179">
        <ele>88</ele>
        <time>2015-03-02T21:13:48.909Z</time>
      </trkpt>
      <trkpt lat="48.85088" lon="2.38166">
        <ele>88.2</ele>
        <time>2015-03-02T21:13:50.921Z</time>
      </trkpt>
      <trkpt lat="48.85087" lon="2.38159">
        <ele>88.1</ele>
        <time>2015-03-02T21:13:51.961Z</time>
      </trkpt>
      <trkpt lat="48.85088" lon="2.3815">
        <ele>88.4</ele>
        <time>2015-03-02T21:13:53.883Z</time>
      </trkpt>
      <trkpt lat="48.85087" lon="2.38145">
        <ele>88.7</ele>
        <time>2015-03-02T21:13:54.899Z</time>
      </trkpt>
      <trkpt lat="48.85088" lon="2.38133">
        <ele>88.2</ele>
        <time>2015-03-02T21:13:56.935Z</time>
      </trkpt>
      <trkpt lat="48.85087" lon="2.38127">
        <ele>87.6</ele>
        <time>2015-03-02T21:13:57.946Z</time>
      </trkpt>
      <trkpt lat="48.85085" lon="2.3812">
        <ele>87</ele>
        <time>2015-03-02T21:13:58.968Z</time>
      </trkpt>
      <trkpt lat="48.85083" lon="2.38114">
        <ele>86.7</ele>
        <time>2015-03-02T21:13:59.905Z</time>
      </trkpt>
      <trkpt lat="48.85081" lon="2.38107">
        <ele>87</ele>
        <time>2015-03-02T21:14:00.949Z</time>
      </trkpt>
      <trkpt lat="48.8508" lon="2.381">
        <ele>86.9</ele>
        <time>2015-03-02T21:14:01.961Z</time>
      </trkpt>
      <trkpt lat="48.85078" lon="2.38086">
        <ele>87.1</ele>
        <time>2015-03-02T21:14:03.865Z</time>
      </trkpt>
      <trkpt lat="48.85077" lon="2.38079">
        <ele>87.1</ele>
        <time>2015-03-02T21:14:04.900Z</time>
      </trkpt>
      <trkpt lat="48.85078" lon="2.38067">
        <ele>86.9</ele>
        <time>2015-03-02T21:14:06.857Z</time>
      </trkpt>
      <trkpt lat="48.85078" lon="2.38061">
        <ele>86.8</ele>
        <time>2015-03-02T21:14:07.966Z</time>
      </trkpt>
      <trkpt lat="48.85079" lon="2.3805">
        <ele>87.3</ele>
        <time>2015-03-02T21:14:10.016Z</time>
      </trkpt>
      <trkpt lat="48.85078" lon="2.38044">
        <ele>87.4</ele>
        <time>2015-03-02T21:14:10.895Z</time>
      </trkpt>
      <trkpt lat="48.85078" lon="2.38033">
        <ele>87.7</ele>
        <time>2015-03-02T21:14:12.900Z</time>
      </trkpt>
      <trkpt lat="48.85078" lon="2.38027">
        <ele>87.6</ele>
        <time>2015-03-02T21:14:13.912Z</time>
      </trkpt>
      <trkpt lat="48.85077" lon="2.38015">
        <ele>88.3</ele>
        <time>2015-03-02T21:14:15.961Z</time>
      </trkpt>
      <trkpt lat="48.85077" lon="2.38009">
        <ele>87.9</ele>
        <time>2015-03-02T21:14:16.882Z</time>
      </trkpt>
      <trkpt lat="48.85081" lon="2.37999">
        <ele>88.3</ele>
        <time>2015-03-02T21:14:18.901Z</time>
      </trkpt>
      <trkpt lat="48.85083" lon="2.37995">
        <ele>88.7</ele>
        <time>2015-03-02T21:14:19.905Z</time>
      </trkpt>
      <trkpt lat="48.85085" lon="2.37983">
        <ele>88.4</ele>
        <time>2015-03-02T21:14:21.943Z</time>
      </trkpt>
      <trkpt lat="48.85086" lon="2.37978">
        <ele>88.3</ele>
        <time>2015-03-02T21:14:22.953Z</time>
      </trkpt>
      <trkpt lat="48.85089" lon="2.37972">
        <ele>88.3</ele>
        <time>2015-03-02T21:14:23.890Z</time>
      </trkpt>
      <trkpt lat="48.85091" lon="2.37966">
        <ele>88</ele>
        <time>2015-03-02T21:14:24.886Z</time>
      </trkpt>
      <trkpt lat="48.85094" lon="2.37961">
        <ele>87.6</ele>
        <time>2015-03-02T21:14:25.901Z</time>
      </trkpt>
      <trkpt lat="48.85096" lon="2.37954">
        <ele>87.1</ele>
        <time>2015-03-02T21:14:26.939Z</time>
      </trkpt>
      <trkpt lat="48.851" lon="2.37943">
        <ele>87</ele>
        <time>2015-03-02T21:14:28.880Z</time>
      </trkpt>
      <trkpt lat="48.851" lon="2.37938">
        <ele>87.1</ele>
        <time>2015-03-02T21:14:29.904Z</time>
      </trkpt>
      <trkpt lat="48.85097" lon="2.37931">
        <ele>86.7</ele>
        <time>2015-03-02T21:14:30.916Z</time>
      </trkpt>
      <trkpt lat="48.85095" lon="2.37925">
        <ele>86.5</ele>
        <time>2015-03-02T21:14:31.924Z</time>
      </trkpt>
      <trkpt lat="48.85089" lon="2.37919">
        <ele>86.2</ele>
        <time>2015-03-02T21:14:32.936Z</time>
      </trkpt>
      <trkpt lat="48.85088" lon="2.37914">
        <ele>86</ele>
        <time>2015-03-02T21:14:33.943Z</time>
      </trkpt>
      <trkpt lat="48.85085" lon="2.37902">
        <ele>85.7</ele>
        <time>2015-03-02T21:14:35.894Z</time>
      </trkpt>
      <trkpt lat="48.85082" lon="2.37895">
        <ele>85.7</ele>
        <time>2015-03-02T21:14:36.900Z</time>
      </trkpt>
      <trkpt lat="48.85078" lon="2.37889">
        <ele>86</ele>
        <time>2015-03-02T21:14:37.925Z</time>
      </trkpt>
      <trkpt lat="48.85077" lon="2.37883">
        <ele>86.4</ele>
        <time>2015-03-02T21:14:38.939Z</time>
      </trkpt>
      <trkpt lat="48.85074" lon="2.37876">
        <ele>87.3</ele>
        <time>2015-03-02T21:14:39.949Z</time>
      </trkpt>
      <trkpt lat="48.85071" lon="2.37871">
        <ele>88.1</ele>
        <time>2015-03-02T21:14:40.952Z</time>
      </trkpt>
      <trkpt lat="48.85068" lon="2.3786">
        <ele>89</ele>
        <time>2015-03-02T21:14:42.959Z</time>
      </trkpt>
      <trkpt lat="48.85066" lon="2.37854">
        <ele>89.6</ele>
        <time>2015-03-02T21:14:43.972Z</time>
      </trkpt>
      <trkpt lat="48.85063" lon="2.37848">
        <ele>90.1</ele>
        <time>2015-03-02T21:14:44.922Z</time>
      </trkpt>
      <trkpt lat="48.85061" lon="2.37841">
        <ele>90.4</ele>
        <time>2015-03-02T21:14:45.924Z</time>
      </trkpt>
      <trkpt lat="48.85059" lon="2.37828">
        <ele>91.1</ele>
        <time>2015-03-02T21:14:47.873Z</time>
      </trkpt>
      <trkpt lat="48.8506" lon="2.37823">
        <ele>91.5</ele>
        <time>2015-03-02T21:14:48.874Z</time>
      </trkpt>
      <trkpt lat="48.85063" lon="2.37817">
        <ele>92.1</ele>
        <time>2015-03-02T21:14:49.882Z</time>
      </trkpt>
      <trkpt lat="48.85066" lon="2.37812">
        <ele>92.5</ele>
        <time>2015-03-02T21:14:50.903Z</time>
      </trkpt>
      <trkpt lat="48.85071" lon="2.37803">
        <ele>92.9</ele>
        <time>2015-03-02T21:14:52.904Z</time>
      </trkpt>
      <trkpt lat="48.85074" lon="2.37798">
        <ele>92.9</ele>
        <time>2015-03-02T21:14:53.962Z</time>
      </trkpt>
      <trkpt lat="48.85074" lon="2.37785">
        <ele>92.8</ele>
        <time>2015-03-02T21:14:56.929Z</time>
      </trkpt>
      <trkpt lat="48.85075" lon="2.3778">
        <ele>93</ele>
        <time>2015-03-02T21:14:57.938Z</time>
      </trkpt>
      <trkpt lat="48.8508" lon="2.37769">
        <ele>93</ele>
        <time>2015-03-02T21:14:59.881Z</time>
      </trkpt>
      <trkpt lat="48.85084" lon="2.37765">
        <ele>93.4</ele>
        <time>2015-03-02T21:15:00.897Z</time>
      </trkpt>
      <trkpt lat="48.85088" lon="2.3776">
        <ele>93.6</ele>
        <time>2015-03-02T21:15:01.913Z</time>
      </trkpt>
      <trkpt lat="48.85092" lon="2.37754">
        <ele>94</ele>
        <time>2015-03-02T21:15:02.929Z</time>
      </trkpt>
      <trkpt lat="48.85096" lon="2.37749">
        <ele>94.7</ele>
        <time>2015-03-02T21:15:03.939Z</time>
      </trkpt>
      <trkpt lat="48.85099" lon="2.37743">
        <ele>95.2</ele>
        <time>2015-03-02T21:15:04.958Z</time>
      </trkpt>
      <trkpt lat="48.851" lon="2.37731">
        <ele>96.4</ele>
        <time>2015-03-02T21:15:06.878Z</time>
      </trkpt>
      <trkpt lat="48.851" lon="2.37724">
        <ele>97</ele>
        <time>2015-03-02T21:15:07.922Z</time>
      </trkpt>
      <trkpt lat="48.85103" lon="2.37712">
        <ele>98</ele>
        <time>2015-03-02T21:15:09.884Z</time>
      </trkpt>
      <trkpt lat="48.85104" lon="2.37706">
        <ele>98.6</ele>
        <time>2015-03-02T21:15:10.895Z</time>
      </trkpt>
      <trkpt lat="48.85107" lon="2.37695">
        <ele>99.4</ele>
        <time>2015-03-02T21:15:12.941Z</time>
      </trkpt>
      <trkpt lat="48.85106" lon="2.37689">
        <ele>99.9</ele>
        <time>2015-03-02T21:15:13.947Z</time>
      </trkpt>
      <trkpt lat="48.85106" lon="2.37677">
        <ele>100.2</ele>
        <time>2015-03-02T21:15:15.893Z</time>
      </trkpt>
      <trkpt lat="48.85103" lon="2.37671">
        <ele>100.5</ele>
        <time>2015-03-02T21:15:16.922Z</time>
      </trkpt>
      <trkpt lat="48.851" lon="2.3766">
        <ele>101.5</ele>
        <time>2015-03-02T21:15:18.939Z</time>
      </trkpt>
      <trkpt lat="48.85102" lon="2.37656">
        <ele>102</ele>
        <time>2015-03-02T21:15:19.946Z</time>
      </trkpt>
      <trkpt lat="48.85108" lon="2.37647">
        <ele>102.6</ele>
        <time>2015-03-02T21:15:21.862Z</time>
      </trkpt>
      <trkpt lat="48.85111" lon="2.37642">
        <ele>103.1</ele>
        <time>2015-03-02T21:15:22.886Z</time>
      </trkpt>
      <trkpt lat="48.85117" lon="2.37633">
        <ele>104.1</ele>
        <time>2015-03-02T21:15:24.912Z</time>
      </trkpt>
      <trkpt lat="48.85119" lon="2.37628">
        <ele>104.2</ele>
        <time>2015-03-02T21:15:25.944Z</time>
      </trkpt>
      <trkpt lat="48.85122" lon="2.37618">
        <ele>104.4</ele>
        <time>2015-03-02T21:15:27.877Z</time>
      </trkpt>
      <trkpt lat="48.85124" lon="2.37613">
        <ele>104.5</ele>
        <time>2015-03-02T21:15:28.978Z</time>
      </trkpt>
      <trkpt lat="48.85131" lon="2.37605">
        <ele>104.8</ele>
        <time>2015-03-02T21:15:30.877Z</time>
      </trkpt>
      <trkpt lat="48.85134" lon="2.37601">
        <ele>105.3</ele>
        <time>2015-03-02T21:15:31.895Z</time>
      </trkpt>
      <trkpt lat="48.8514" lon="2.37593">
        <ele>106</ele>
        <time>2015-03-02T21:15:33.892Z</time>
      </trkpt>
      <trkpt lat="48.85142" lon="2.37588">
        <ele>106.3</ele>
        <time>2015-03-02T21:15:34.904Z</time>
      </trkpt>
      <trkpt lat="48.85145" lon="2.37579">
        <ele>106.8</ele>
        <time>2015-03-02T21:15:36.944Z</time>
      </trkpt>
      <trkpt lat="48.85146" lon="2.37575">
        <ele>107.1</ele>
        <time>2015-03-02T21:15:37.951Z</time>
      </trkpt>
      <trkpt lat="48.85148" lon="2.37567">
        <ele>107.9</ele>
        <time>2015-03-02T21:15:39.902Z</time>
      </trkpt>
      <trkpt lat="48.8515" lon="2.37562">
        <ele>108.4</ele>
        <time>2015-03-02T21:15:40.898Z</time>
      </trkpt>
      <trkpt lat="48.85154" lon="2.37554">
        <ele>109</ele>
        <time>2015-03-02T21:15:42.925Z</time>
      </trkpt>
      <trkpt lat="48.85155" lon="2.37549">
        <ele>109.5</ele>
        <time>2015-03-02T21:15:43.966Z</time>
      </trkpt>
      <trkpt lat="48.85158" lon="2.37539">
        <ele>110.2</ele>
        <time>2015-03-02T21:15:45.879Z</time>
      </trkpt>
      <trkpt lat="48.85157" lon="2.37535">
        <ele>110.6</ele>
        <time>2015-03-02T21:15:46.937Z</time>
      </trkpt>
      <trkpt lat="48.85157" lon="2.37525">
        <ele>111.5</ele>
        <time>2015-03-02T21:15:48.951Z</time>
      </trkpt>
      <trkpt lat="48.85158" lon="2.37521">
        <ele>112.1</ele>
        <time>2015-03-02T21:15:49.966Z</time>
      </trkpt>
      <trkpt lat="48.85159" lon="2.37513">
        <ele>113.1</ele>
        <time>2015-03-02T21:15:51.876Z</time>
      </trkpt>
      <trkpt lat="48.85159" lon="2.37507">
        <ele>113.4</ele>
        <time>2015-03-02T21:15:52.894Z</time>
      </trkpt>
      <trkpt lat="48.85159" lon="2.37495">
        <ele>114.2</ele>
        <time>2015-03-02T21:15:54.904Z</time>
      </trkpt>
      <trkpt lat="48.85156" lon="2.37489">
        <ele>114.4</ele>
        <time>2015-03-02T21:15:55.949Z</time>
      </trkpt>
      <trkpt lat="48.85151" lon="2.37479">
        <ele>114.8</ele>
        <time>2015-03-02T21:15:57.856Z</time>
      </trkpt>
      <trkpt lat="48.8515" lon="2.37475">
        <ele>114.9</ele>
        <time>2015-03-02T21:15:58.884Z</time>
      </trkpt>
      <trkpt lat="48.85149" lon="2.37464">
        <ele>114.9</ele>
        <time>2015-03-02T21:16:00.919Z</time>
      </trkpt>
      <trkpt lat="48.85149" lon="2.37459">
        <ele>115.1</ele>
        <time>2015-03-02T21:16:01.964Z</time>
      </trkpt>
      <trkpt lat="48.8515" lon="2.37448">
        <ele>115.1</ele>
        <time>2015-03-02T21:16:03.880Z</time>
      </trkpt>
      <trkpt lat="48.85151" lon="2.37443">
        <ele>115</ele>
        <time>2015-03-02T21:16:04.894Z</time>
      </trkpt>
      <trkpt lat="48.85157" lon="2.37435">
        <ele>114.9</ele>
        <time>2015-03-02T21:16:06.941Z</time>
      </trkpt>
      <trkpt lat="48.85161" lon="2.37432">
        <ele>115.3</ele>
        <time>2015-03-02T21:16:07.950Z</time>
      </trkpt>
      <trkpt lat="48.85165" lon="2.37422">
        <ele>115.9</ele>
        <time>2015-03-02T21:16:09.973Z</time>
      </trkpt>
      <trkpt lat="48.85168" lon="2.37417">
        <ele>116.6</ele>
        <time>2015-03-02T21:16:10.887Z</time>
      </trkpt>
      <trkpt lat="48.85172" lon="2.37411">
        <ele>117.1</ele>
        <time>2015-03-02T21:16:11.895Z</time>
      </trkpt>
      <trkpt lat="48.85175" lon="2.37405">
        <ele>117.5</ele>
        <time>2015-03-02T21:16:12.913Z</time>
      </trkpt>
      <trkpt lat="48.8518" lon="2.37394">
        <ele>117.7</ele>
        <time>2015-03-02T21:16:14.931Z</time>
      </trkpt>
      <trkpt lat="48.85186" lon="2.3739">
        <ele>117.6</ele>
        <time>2015-03-02T21:16:15.936Z</time>
      </trkpt>
      <trkpt lat="48.85193" lon="2.37382">
        <ele>117.7</ele>
        <time>2015-03-02T21:16:17.858Z</time>
      </trkpt>
      <trkpt lat="48.85195" lon="2.37377">
        <ele>117.8</ele>
        <time>2015-03-02T21:16:18.875Z</time>
      </trkpt>
      <trkpt lat="48.85199" lon="2.37367">
        <ele>117.4</ele>
        <time>2015-03-02T21:16:20.892Z</time>
      </trkpt>
      <trkpt lat="48.852" lon="2.37362">
        <ele>117.2</ele>
        <time>2015-03-02T21:16:21.907Z</time>
      </trkpt>
      <trkpt lat="48.85203" lon="2.37351">
        <ele>117</ele>
        <time>2015-03-02T21:16:23.924Z</time>
      </trkpt>
      <trkpt lat="48.85205" lon="2.37345">
        <ele>116.9</ele>
        <time>2015-03-02T21:16:24.951Z</time>
      </trkpt>
      <trkpt lat="48.85207" lon="2.37333">
        <ele>117</ele>
        <time>2015-03-02T21:16:26.890Z</time>
      </trkpt>
      <trkpt lat="48.85209" lon="2.37327">
        <ele>117</ele>
        <time>2015-03-02T21:16:27.905Z</time>
      </trkpt>
      <trkpt lat="48.85209" lon="2.37316">
        <ele>117.2</ele>
        <time>2015-03-02T21:16:29.963Z</time>
      </trkpt>
      <trkpt lat="48.85207" lon="2.37311">
        <ele>116.9</ele>
        <time>2015-03-02T21:16:30.875Z</time>
      </trkpt>
      <trkpt lat="48.85207" lon="2.37298">
        <ele>116.5</ele>
        <time>2015-03-02T21:16:33.924Z</time>
      </trkpt>
      <trkpt lat="48.85208" lon="2.37293">
        <ele>116.5</ele>
        <time>2015-03-02T21:16:34.934Z</time>
      </trkpt>
      <trkpt lat="48.8521" lon="2.37285">
        <ele>116.6</ele>
        <time>2015-03-02T21:16:36.877Z</time>
      </trkpt>
      <trkpt lat="48.85213" lon="2.3728">
        <ele>116.5</ele>
        <time>2015-03-02T21:16:37.895Z</time>
      </trkpt>
      <trkpt lat="48.85216" lon="2.37272">
        <ele>116.8</ele>
        <time>2015-03-02T21:16:39.860Z</time>
      </trkpt>
      <trkpt lat="48.85217" lon="2.37267">
        <ele>116.7</ele>
        <time>2015-03-02T21:16:40.893Z</time>
      </trkpt>
      <trkpt lat="48.8522" lon="2.37258">
        <ele>116.7</ele>
        <time>2015-03-02T21:16:42.946Z</time>
      </trkpt>
      <trkpt lat="48.85222" lon="2.37254">
        <ele>116.8</ele>
        <time>2015-03-02T21:16:43.851Z</time>
      </trkpt>
      <trkpt lat="48.85227" lon="2.37245">
        <ele>116.1</ele>
        <time>2015-03-02T21:16:46.922Z</time>
      </trkpt>
      <trkpt lat="48.85227" lon="2.37242">
        <ele>115.9</ele>
        <time>2015-03-02T21:16:47.997Z</time>
      </trkpt>
      <trkpt lat="48.85226" lon="2.37232">
        <ele>114.6</ele>
        <time>2015-03-02T21:16:50.920Z</time>
      </trkpt>
      <trkpt lat="48.85227" lon="2.37229">
        <ele>115.1</ele>
        <time>2015-03-02T21:16:51.925Z</time>
      </trkpt>
      <trkpt lat="48.8523" lon="2.37219">
        <ele>116.2</ele>
        <time>2015-03-02T21:16:53.892Z</time>
      </trkpt>
      <trkpt lat="48.85232" lon="2.37214">
        <ele>116.6</ele>
        <time>2015-03-02T21:16:55.080Z</time>
      </trkpt>
      <trkpt lat="48.85235" lon="2.37203">
        <ele>117.6</ele>
        <time>2015-03-02T21:16:56.987Z</time>
      </trkpt>
      <trkpt lat="48.85238" lon="2.37198">
        <ele>118.3</ele>
        <time>2015-03-02T21:16:57.885Z</time>
      </trkpt>
      <trkpt lat="48.85237" lon="2.37188">
        <ele>119.4</ele>
        <time>2015-03-02T21:16:59.947Z</time>
      </trkpt>
      <trkpt lat="48.85236" lon="2.37183">
        <ele>119.8</ele>
        <time>2015-03-02T21:17:00.885Z</time>
      </trkpt>
      <trkpt lat="48.85231" lon="2.37172">
        <ele>120.2</ele>
        <time>2015-03-02T21:17:03.008Z</time>
      </trkpt>
      <trkpt lat="48.85231" lon="2.37167">
        <ele>120.6</ele>
        <time>2015-03-02T21:17:03.886Z</time>
      </trkpt>
      <trkpt lat="48.8523" lon="2.37157">
        <ele>121.5</ele>
        <time>2015-03-02T21:17:05.921Z</time>
      </trkpt>
      <trkpt lat="48.85229" lon="2.37152">
        <ele>122</ele>
        <time>2015-03-02T21:17:06.935Z</time>
      </trkpt>
      <trkpt lat="48.85228" lon="2.3714">
        <ele>122.3</ele>
        <time>2015-03-02T21:17:08.901Z</time>
      </trkpt>
      <trkpt lat="48.85228" lon="2.37136">
        <ele>122.1</ele>
        <time>2015-03-02T21:17:09.939Z</time>
      </trkpt>
      <trkpt lat="48.85232" lon="2.37124">
        <ele>122</ele>
        <time>2015-03-02T21:17:15.012Z</time>
      </trkpt>
      <trkpt lat="48.85235" lon="2.3712">
        <ele>121.4</ele>
        <time>2015-03-02T21:17:15.874Z</time>
      </trkpt>
      <trkpt lat="48.85241" lon="2.37112">
        <ele>120.6</ele>
        <time>2015-03-02T21:17:17.874Z</time>
      </trkpt>
      <trkpt lat="48.85245" lon="2.37108">
        <ele>120.3</ele>
        <time>2015-03-02T21:17:18.883Z</time>
      </trkpt>
      <trkpt lat="48.85251" lon="2.371">
        <ele>119.6</ele>
        <time>2015-03-02T21:17:20.904Z</time>
      </trkpt>
      <trkpt lat="48.85255" lon="2.37098">
        <ele>119.5</ele>
        <time>2015-03-02T21:17:21.852Z</time>
      </trkpt>
      <trkpt lat="48.85262" lon="2.37092">
        <ele>119.7</ele>
        <time>2015-03-02T21:17:23.873Z</time>
      </trkpt>
      <trkpt lat="48.85267" lon="2.3709">
        <ele>119.5</ele>
        <time>2015-03-02T21:17:24.898Z</time>
      </trkpt>
      <trkpt lat="48.85273" lon="2.37087">
        <ele>119.5</ele>
        <time>2015-03-02T21:17:25.912Z</time>
      </trkpt>
      <trkpt lat="48.85279" lon="2.37083">
        <ele>119.5</ele>
        <time>2015-03-02T21:17:26.954Z</time>
      </trkpt>
      <trkpt lat="48.85284" lon="2.37077">
        <ele>119.6</ele>
        <time>2015-03-02T21:17:28.970Z</time>
      </trkpt>
      <trkpt lat="48.85286" lon="2.37075">
        <ele>119.7</ele>
        <time>2015-03-02T21:17:29.927Z</time>
      </trkpt>
      <trkpt lat="48.85289" lon="2.37063">
        <ele>121.7</ele>
        <time>2015-03-02T21:17:33.852Z</time>
      </trkpt>
      <trkpt lat="48.85291" lon="2.37059">
        <ele>121.9</ele>
        <time>2015-03-02T21:17:34.882Z</time>
      </trkpt>
      <trkpt lat="48.85298" lon="2.37051">
        <ele>122.7</ele>
        <time>2015-03-02T21:17:37.930Z</time>
      </trkpt>
      <trkpt lat="48.85299" lon="2.37049">
        <ele>123</ele>
        <time>2015-03-02T21:17:38.879Z</time>
      </trkpt>
      <trkpt lat="48.85301" lon="2.37047">
        <ele>122.9</ele>
        <time>2015-03-02T21:17:51.953Z</time>
      </trkpt>
      <trkpt lat="48.85312" lon="2.37018">
        <ele>124.7</ele>
        <time>2015-03-02T21:17:52.960Z</time>
      </trkpt>
      <trkpt lat="48.85316" lon="2.37006">
        <ele>122.4</ele>
        <time>2015-03-02T21:17:57.867Z</time>
      </trkpt>
      <trkpt lat="48.85316" lon="2.37003">
        <ele>122.1</ele>
        <time>2015-03-02T21:17:58.899Z</time>
      </trkpt>
      <trkpt lat="48.85317" lon="2.37">
        <ele>121.5</ele>
        <time>2015-03-02T21:19:44.013Z</time>
      </trkpt>
      <trkpt lat="48.85337" lon="2.36956">
        <ele>127.5</ele>
        <time>2015-03-02T21:19:44.937Z</time>
      </trkpt>
      <trkpt lat="48.8534" lon="2.36944">
        <ele>127.5</ele>
        <time>2015-03-02T21:19:50.547Z</time>
      </trkpt>
      <trkpt lat="48.85341" lon="2.36942">
        <ele>127.5</ele>
        <time>2015-03-02T21:19:50.937Z</time>
      </trkpt>
      <trkpt lat="48.85346" lon="2.36932">
        <ele>125.8</ele>
        <time>2015-03-02T21:19:55.956Z</time>
      </trkpt>
      <trkpt lat="48.85348" lon="2.36931">
        <ele>123.8</ele>
        <time>2015-03-02T21:19:56.965Z</time>
      </trkpt>
      <trkpt lat="48.8535" lon="2.36928">
        <ele>118.3</ele>
        <time>2015-03-02T21:20:23.891Z</time>
      </trkpt>
      <trkpt lat="48.85362" lon="2.36908">
        <ele>100.6</ele>
        <time>2015-03-02T21:20:24.899Z</time>
      </trkpt>
      <trkpt lat="48.85365" lon="2.36895">
        <ele>99.1</ele>
        <time>2015-03-02T21:20:52.971Z</time>
      </trkpt>
      <trkpt lat="48.85371" lon="2.36887">
        <ele>98.2</ele>
        <time>2015-03-02T21:20:53.896Z</time>
      </trkpt>
      <trkpt lat="48.85372" lon="2.36876">
        <ele>98</ele>
        <time>2015-03-02T21:20:58.977Z</time>
      </trkpt>
      <trkpt lat="48.85373" lon="2.36872">
        <ele>97.7</ele>
        <time>2015-03-02T21:20:59.898Z</time>
      </trkpt>
      <trkpt lat="48.85376" lon="2.36861">
        <ele>96.9</ele>
        <time>2015-03-02T21:21:02.941Z</time>
      </trkpt>
      <trkpt lat="48.85377" lon="2.36857">
        <ele>96.7</ele>
        <time>2015-03-02T21:21:03.962Z</time>
      </trkpt>
      <trkpt lat="48.85382" lon="2.36847">
        <ele>96.5</ele>
        <time>2015-03-02T21:21:05.892Z</time>
      </trkpt>
      <trkpt lat="48.85386" lon="2.36842">
        <ele>96.4</ele>
        <time>2015-03-02T21:21:06.916Z</time>
      </trkpt>
      <trkpt lat="48.85389" lon="2.36836">
        <ele>96.1</ele>
        <time>2015-03-02T21:21:07.849Z</time>
      </trkpt>
      <trkpt lat="48.85392" lon="2.3683">
        <ele>96</ele>
        <time>2015-03-02T21:21:08.898Z</time>
      </trkpt>
      <trkpt lat="48.85394" lon="2.36824">
        <ele>95.8</ele>
        <time>2015-03-02T21:21:09.899Z</time>
      </trkpt>
      <trkpt lat="48.85398" lon="2.36818">
        <ele>95.6</ele>
        <time>2015-03-02T21:21:10.932Z</time>
      </trkpt>
      <trkpt lat="48.85403" lon="2.36812">
        <ele>95.4</ele>
        <time>2015-03-02T21:21:11.923Z</time>
      </trkpt>
      <trkpt lat="48.85408" lon="2.36805">
        <ele>95</ele>
        <time>2015-03-02T21:21:12.925Z</time>
      </trkpt>
      <trkpt lat="48.85416" lon="2.36798">
        <ele>94.5</ele>
        <time>2015-03-02T21:21:14.043Z</time>
      </trkpt>
      <trkpt lat="48.85424" lon="2.36792">
        <ele>94.2</ele>
        <time>2015-03-02T21:21:14.899Z</time>
      </trkpt>
      <trkpt lat="48.85431" lon="2.36785">
        <ele>93.8</ele>
        <time>2015-03-02T21:21:15.895Z</time>
      </trkpt>
      <trkpt lat="48.85436" lon="2.36779">
        <ele>93.3</ele>
        <time>2015-03-02T21:21:16.899Z</time>
      </trkpt>
      <trkpt lat="48.85442" lon="2.36773">
        <ele>92.6</ele>
        <time>2015-03-02T21:21:17.910Z</time>
      </trkpt>
      <trkpt lat="48.85448" lon="2.36765">
        <ele>91.8</ele>
        <time>2015-03-02T21:21:19.943Z</time>
      </trkpt>
      <trkpt lat="48.8545" lon="2.36763">
        <ele>91.5</ele>
        <time>2015-03-02T21:21:20.955Z</time>
      </trkpt>
      <trkpt lat="48.85449" lon="2.36747">
        <ele>91.3</ele>
        <time>2015-03-02T21:21:32.922Z</time>
      </trkpt>
      <trkpt lat="48.85414" lon="2.3673">
        <ele>91</ele>
        <time>2015-03-02T21:21:33.882Z</time>
      </trkpt>
      <trkpt lat="48.85406" lon="2.36728">
        <ele>91</ele>
        <time>2015-03-02T21:21:34.886Z</time>
      </trkpt>
      <trkpt lat="48.85399" lon="2.36725">
        <ele>90.9</ele>
        <time>2015-03-02T21:21:35.905Z</time>
      </trkpt>
      <trkpt lat="48.85393" lon="2.36721">
        <ele>90.9</ele>
        <time>2015-03-02T21:21:36.941Z</time>
      </trkpt>
      <trkpt lat="48.8538" lon="2.36718">
        <ele>90.4</ele>
        <time>2015-03-02T21:21:37.947Z</time>
      </trkpt>
      <trkpt lat="48.85374" lon="2.36716">
        <ele>90.3</ele>
        <time>2015-03-02T21:21:38.869Z</time>
      </trkpt>
      <trkpt lat="48.8537" lon="2.36712">
        <ele>90.3</ele>
        <time>2015-03-02T21:21:39.880Z</time>
      </trkpt>
      <trkpt lat="48.85367" lon="2.36708">
        <ele>90.7</ele>
        <time>2015-03-02T21:21:40.895Z</time>
      </trkpt>
      <trkpt lat="48.85362" lon="2.36702">
        <ele>91.9</ele>
        <time>2015-03-02T21:21:41.931Z</time>
      </trkpt>
      <trkpt lat="48.85359" lon="2.36695">
        <ele>93</ele>
        <time>2015-03-02T21:21:43.083Z</time>
      </trkpt>
      <trkpt lat="48.85356" lon="2.3669">
        <ele>93.1</ele>
        <time>2015-03-02T21:21:43.876Z</time>
      </trkpt>
      <trkpt lat="48.85351" lon="2.36686">
        <ele>93.7</ele>
        <time>2015-03-02T21:21:44.915Z</time>
      </trkpt>
      <trkpt lat="48.85347" lon="2.3668">
        <ele>94.3</ele>
        <time>2015-03-02T21:21:45.920Z</time>
      </trkpt>
      <trkpt lat="48.85345" lon="2.3667">
        <ele>94.1</ele>
        <time>2015-03-02T21:21:47.952Z</time>
      </trkpt>
      <trkpt lat="48.85345" lon="2.36666">
        <ele>94.5</ele>
        <time>2015-03-02T21:21:48.882Z</time>
      </trkpt>
      <trkpt lat="48.85345" lon="2.36656">
        <ele>95.4</ele>
        <time>2015-03-02T21:21:50.960Z</time>
      </trkpt>
      <trkpt lat="48.85346" lon="2.36651">
        <ele>95.9</ele>
        <time>2015-03-02T21:21:51.882Z</time>
      </trkpt>
      <trkpt lat="48.85347" lon="2.36638">
        <ele>96.5</ele>
        <time>2015-03-02T21:21:53.864Z</time>
      </trkpt>
      <trkpt lat="48.85348" lon="2.36632">
        <ele>96.7</ele>
        <time>2015-03-02T21:21:54.878Z</time>
      </trkpt>
      <trkpt lat="48.85348" lon="2.36621">
        <ele>96.7</ele>
        <time>2015-03-02T21:21:56.914Z</time>
      </trkpt>
      <trkpt lat="48.85347" lon="2.36616">
        <ele>96.8</ele>
        <time>2015-03-02T21:21:57.952Z</time>
      </trkpt>
      <trkpt lat="48.85345" lon="2.36606">
        <ele>97.3</ele>
        <time>2015-03-02T21:21:59.867Z</time>
      </trkpt>
      <trkpt lat="48.85343" lon="2.366">
        <ele>97.7</ele>
        <time>2015-03-02T21:22:00.888Z</time>
      </trkpt>
      <trkpt lat="48.8534" lon="2.36589">
        <ele>98.2</ele>
        <time>2015-03-02T21:22:02.923Z</time>
      </trkpt>
      <trkpt lat="48.85337" lon="2.36583">
        <ele>98.5</ele>
        <time>2015-03-02T21:22:03.939Z</time>
      </trkpt>
      <trkpt lat="48.85337" lon="2.36572">
        <ele>98.5</ele>
        <time>2015-03-02T21:22:05.966Z</time>
      </trkpt>
      <trkpt lat="48.85338" lon="2.36567">
        <ele>98.4</ele>
        <time>2015-03-02T21:22:06.872Z</time>
      </trkpt>
      <trkpt lat="48.85342" lon="2.36557">
        <ele>98.1</ele>
        <time>2015-03-02T21:22:08.911Z</time>
      </trkpt>
      <trkpt lat="48.85343" lon="2.36553">
        <ele>98.3</ele>
        <time>2015-03-02T21:22:09.924Z</time>
      </trkpt>
      <trkpt lat="48.85341" lon="2.36541">
        <ele>98.8</ele>
        <time>2015-03-02T21:22:11.951Z</time>
      </trkpt>
      <trkpt lat="48.85341" lon="2.36534">
        <ele>98.8</ele>
        <time>2015-03-02T21:22:12.961Z</time>
      </trkpt>
      <trkpt lat="48.85343" lon="2.36528">
        <ele>99</ele>
        <time>2015-03-02T21:22:13.873Z</time>
      </trkpt>
      <trkpt lat="48.85346" lon="2.36522">
        <ele>99.3</ele>
        <time>2015-03-02T21:22:14.913Z</time>
      </trkpt>
      <trkpt lat="48.85351" lon="2.36511">
        <ele>99.6</ele>
        <time>2015-03-02T21:22:16.950Z</time>
      </trkpt>
      <trkpt lat="48.85355" lon="2.36506">
        <ele>99.8</ele>
        <time>2015-03-02T21:22:17.890Z</time>
      </trkpt>
      <trkpt lat="48.8536" lon="2.365">
        <ele>100</ele>
        <time>2015-03-02T21:22:18.942Z</time>
      </trkpt>
      <trkpt lat="48.85366" lon="2.36493">
        <ele>99.9</ele>
        <time>2015-03-02T21:22:19.946Z</time>
      </trkpt>
      <trkpt lat="48.8537" lon="2.36486">
        <ele>99.9</ele>
        <time>2015-03-02T21:22:20.951Z</time>
      </trkpt>
      <trkpt lat="48.85375" lon="2.36479">
        <ele>100.2</ele>
        <time>2015-03-02T21:22:21.978Z</time>
      </trkpt>
      <trkpt lat="48.85379" lon="2.36474">
        <ele>100.8</ele>
        <time>2015-03-02T21:22:22.871Z</time>
      </trkpt>
      <trkpt lat="48.85384" lon="2.36469">
        <ele>101.3</ele>
        <time>2015-03-02T21:22:23.876Z</time>
      </trkpt>
      <trkpt lat="48.85388" lon="2.36463">
        <ele>101.6</ele>
        <time>2015-03-02T21:22:24.892Z</time>
      </trkpt>
      <trkpt lat="48.85394" lon="2.36457">
        <ele>101.9</ele>
        <time>2015-03-02T21:22:25.922Z</time>
      </trkpt>
      <trkpt lat="48.85399" lon="2.3645">
        <ele>101.9</ele>
        <time>2015-03-02T21:22:26.943Z</time>
      </trkpt>
      <trkpt lat="48.85404" lon="2.36444">
        <ele>102.3</ele>
        <time>2015-03-02T21:22:27.959Z</time>
      </trkpt>
      <trkpt lat="48.85406" lon="2.36432">
        <ele>102.6</ele>
        <time>2015-03-02T21:22:29.885Z</time>
      </trkpt>
      <trkpt lat="48.85408" lon="2.36406">
        <ele>104.3</ele>
        <time>2015-03-02T21:22:33.978Z</time>
      </trkpt>
      <trkpt lat="48.8541" lon="2.36395">
        <ele>105.2</ele>
        <time>2015-03-02T21:22:35.884Z</time>
      </trkpt>
      <trkpt lat="48.85415" lon="2.3639">
        <ele>105.7</ele>
        <time>2015-03-02T21:22:36.894Z</time>
      </trkpt>
      <trkpt lat="48.85419" lon="2.3638">
        <ele>106.6</ele>
        <time>2015-03-02T21:22:38.959Z</time>
      </trkpt>
      <trkpt lat="48.85419" lon="2.36374">
        <ele>106.9</ele>
        <time>2015-03-02T21:22:39.959Z</time>
      </trkpt>
      <trkpt lat="48.85422" lon="2.36363">
        <ele>107.5</ele>
        <time>2015-03-02T21:22:41.848Z</time>
      </trkpt>
      <trkpt lat="48.85425" lon="2.36358">
        <ele>107.7</ele>
        <time>2015-03-02T21:22:42.898Z</time>
      </trkpt>
      <trkpt lat="48.85429" lon="2.36347">
        <ele>108.5</ele>
        <time>2015-03-02T21:22:44.921Z</time>
      </trkpt>
      <trkpt lat="48.85431" lon="2.36341">
        <ele>108.9</ele>
        <time>2015-03-02T21:22:45.888Z</time>
      </trkpt>
      <trkpt lat="48.85435" lon="2.3633">
        <ele>109.7</ele>
        <time>2015-03-02T21:22:47.865Z</time>
      </trkpt>
      <trkpt lat="48.85438" lon="2.36324">
        <ele>110</ele>
        <time>2015-03-02T21:22:48.879Z</time>
      </trkpt>
      <trkpt lat="48.85444" lon="2.36315">
        <ele>110.1</ele>
        <time>2015-03-02T21:22:50.903Z</time>
      </trkpt>
      <trkpt lat="48.85448" lon="2.36311">
        <ele>110.1</ele>
        <time>2015-03-02T21:22:51.909Z</time>
      </trkpt>
      <trkpt lat="48.85453" lon="2.36307">
        <ele>110.2</ele>
        <time>2015-03-02T21:22:52.930Z</time>
      </trkpt>
      <trkpt lat="48.85457" lon="2.36302">
        <ele>110.3</ele>
        <time>2015-03-02T21:22:53.944Z</time>
      </trkpt>
      <trkpt lat="48.85462" lon="2.36291">
        <ele>110.7</ele>
        <time>2015-03-02T21:22:55.863Z</time>
      </trkpt>
      <trkpt lat="48.85463" lon="2.36286">
        <ele>111.1</ele>
        <time>2015-03-02T21:22:56.915Z</time>
      </trkpt>
      <trkpt lat="48.85464" lon="2.36275">
        <ele>111.6</ele>
        <time>2015-03-02T21:22:58.920Z</time>
      </trkpt>
      <trkpt lat="48.85467" lon="2.36269">
        <ele>111.8</ele>
        <time>2015-03-02T21:22:59.934Z</time>
      </trkpt>
      <trkpt lat="48.8547" lon="2.36264">
        <ele>111.7</ele>
        <time>2015-03-02T21:23:00.931Z</time>
      </trkpt>
      <trkpt lat="48.85473" lon="2.36258">
        <ele>111.4</ele>
        <time>2015-03-02T21:23:01.945Z</time>
      </trkpt>
      <trkpt lat="48.85475" lon="2.36251">
        <ele>111.2</ele>
        <time>2015-03-02T21:23:02.959Z</time>
      </trkpt>
      <trkpt lat="48.85477" lon="2.36244">
        <ele>111</ele>
        <time>2015-03-02T21:23:03.946Z</time>
      </trkpt>
      <trkpt lat="48.85477" lon="2.36236">
        <ele>110.9</ele>
        <time>2015-03-02T21:23:04.891Z</time>
      </trkpt>
      <trkpt lat="48.85477" lon="2.36227">
        <ele>110.9</ele>
        <time>2015-03-02T21:23:05.901Z</time>
      </trkpt>
      <trkpt lat="48.85477" lon="2.3622">
        <ele>110.8</ele>
        <time>2015-03-02T21:23:06.918Z</time>
      </trkpt>
      <trkpt lat="48.85477" lon="2.36212">
        <ele>110.9</ele>
        <time>2015-03-02T21:23:07.926Z</time>
      </trkpt>
      <trkpt lat="48.85478" lon="2.36203">
        <ele>110.9</ele>
        <time>2015-03-02T21:23:08.937Z</time>
      </trkpt>
      <trkpt lat="48.85478" lon="2.36193">
        <ele>110.9</ele>
        <time>2015-03-02T21:23:09.945Z</time>
      </trkpt>
      <trkpt lat="48.85474" lon="2.36183">
        <ele>111</ele>
        <time>2015-03-02T21:23:10.851Z</time>
      </trkpt>
      <trkpt lat="48.85469" lon="2.36174">
        <ele>110.9</ele>
        <time>2015-03-02T21:23:11.866Z</time>
      </trkpt>
      <trkpt lat="48.85468" lon="2.36164">
        <ele>110.8</ele>
        <time>2015-03-02T21:23:13.277Z</time>
      </trkpt>
      <trkpt lat="48.85468" lon="2.36155">
        <ele>110.6</ele>
        <time>2015-03-02T21:23:13.886Z</time>
      </trkpt>
      <trkpt lat="48.85469" lon="2.36145">
        <ele>110.5</ele>
        <time>2015-03-02T21:23:14.895Z</time>
      </trkpt>
      <trkpt lat="48.8547" lon="2.36136">
        <ele>110.4</ele>
        <time>2015-03-02T21:23:15.902Z</time>
      </trkpt>
      <trkpt lat="48.8547" lon="2.36127">
        <ele>110.4</ele>
        <time>2015-03-02T21:23:16.912Z</time>
      </trkpt>
      <trkpt lat="48.85472" lon="2.36118">
        <ele>110.5</ele>
        <time>2015-03-02T21:23:17.921Z</time>
      </trkpt>
      <trkpt lat="48.85474" lon="2.3611">
        <ele>110.4</ele>
        <time>2015-03-02T21:23:18.837Z</time>
      </trkpt>
      <trkpt lat="48.85477" lon="2.36099">
        <ele>110.5</ele>
        <time>2015-03-02T21:23:19.846Z</time>
      </trkpt>
      <trkpt lat="48.85481" lon="2.36088">
        <ele>110.9</ele>
        <time>2015-03-02T21:23:20.891Z</time>
      </trkpt>
      <trkpt lat="48.85484" lon="2.36077">
        <ele>111.1</ele>
        <time>2015-03-02T21:23:21.907Z</time>
      </trkpt>
      <trkpt lat="48.85489" lon="2.36067">
        <ele>111.4</ele>
        <time>2015-03-02T21:23:22.917Z</time>
      </trkpt>
      <trkpt lat="48.85498" lon="2.36054">
        <ele>111.9</ele>
        <time>2015-03-02T21:23:23.956Z</time>
      </trkpt>
      <trkpt lat="48.85508" lon="2.36043">
        <ele>112.9</ele>
        <time>2015-03-02T21:23:24.857Z</time>
      </trkpt>
      <trkpt lat="48.85515" lon="2.36032">
        <ele>113.6</ele>
        <time>2015-03-02T21:23:25.868Z</time>
      </trkpt>
      <trkpt lat="48.8552" lon="2.36021">
        <ele>114.2</ele>
        <time>2015-03-02T21:23:26.894Z</time>
      </trkpt>
      <trkpt lat="48.85526" lon="2.36011">
        <ele>114.9</ele>
        <time>2015-03-02T21:23:27.903Z</time>
      </trkpt>
      <trkpt lat="48.85529" lon="2.35999">
        <ele>116.1</ele>
        <time>2015-03-02T21:23:28.860Z</time>
      </trkpt>
      <trkpt lat="48.85532" lon="2.35987">
        <ele>117.1</ele>
        <time>2015-03-02T21:23:29.884Z</time>
      </trkpt>
      <trkpt lat="48.85536" lon="2.35979">
        <ele>117.8</ele>
        <time>2015-03-02T21:23:30.908Z</time>
      </trkpt>
      <trkpt lat="48.85538" lon="2.35973">
        <ele>118.4</ele>
        <time>2015-03-02T21:23:31.914Z</time>
      </trkpt>
      <trkpt lat="48.8554" lon="2.35964">
        <ele>119.1</ele>
        <time>2015-03-02T21:23:32.922Z</time>
      </trkpt>
      <trkpt lat="48.85542" lon="2.35954">
        <ele>119.8</ele>
        <time>2015-03-02T21:23:33.928Z</time>
      </trkpt>
      <trkpt lat="48.85543" lon="2.35945">
        <ele>120.3</ele>
        <time>2015-03-02T21:23:34.939Z</time>
      </trkpt>
      <trkpt lat="48.85546" lon="2.35935">
        <ele>120.5</ele>
        <time>2015-03-02T21:23:35.869Z</time>
      </trkpt>
      <trkpt lat="48.85549" lon="2.35925">
        <ele>120.7</ele>
        <time>2015-03-02T21:23:36.860Z</time>
      </trkpt>
      <trkpt lat="48.85553" lon="2.35914">
        <ele>121.1</ele>
        <time>2015-03-02T21:23:37.860Z</time>
      </trkpt>
      <trkpt lat="48.85556" lon="2.35904">
        <ele>121.2</ele>
        <time>2015-03-02T21:23:38.888Z</time>
      </trkpt>
      <trkpt lat="48.8556" lon="2.35893">
        <ele>120.8</ele>
        <time>2015-03-02T21:23:39.888Z</time>
      </trkpt>
      <trkpt lat="48.85562" lon="2.35883">
        <ele>120.6</ele>
        <time>2015-03-02T21:23:40.894Z</time>
      </trkpt>
      <trkpt lat="48.85563" lon="2.35872">
        <ele>120.7</ele>
        <time>2015-03-02T21:23:41.900Z</time>
      </trkpt>
      <trkpt lat="48.85563" lon="2.35862">
        <ele>120.6</ele>
        <time>2015-03-02T21:23:42.917Z</time>
      </trkpt>
      <trkpt lat="48.85562" lon="2.35853">
        <ele>120.8</ele>
        <time>2015-03-02T21:23:43.923Z</time>
      </trkpt>
      <trkpt lat="48.8556" lon="2.35846">
        <ele>121</ele>
        <time>2015-03-02T21:23:44.926Z</time>
      </trkpt>
      <trkpt lat="48.85556" lon="2.35839">
        <ele>121.1</ele>
        <time>2015-03-02T21:23:45.936Z</time>
      </trkpt>
      <trkpt lat="48.85553" lon="2.35827">
        <ele>121.2</ele>
        <time>2015-03-02T21:23:47.879Z</time>
      </trkpt>
      <trkpt lat="48.85556" lon="2.35821">
        <ele>121.6</ele>
        <time>2015-03-02T21:23:48.877Z</time>
      </trkpt>
      <trkpt lat="48.85559" lon="2.35815">
        <ele>121.8</ele>
        <time>2015-03-02T21:23:49.868Z</time>
      </trkpt>
      <trkpt lat="48.85562" lon="2.3581">
        <ele>121.8</ele>
        <time>2015-03-02T21:23:50.905Z</time>
      </trkpt>
      <trkpt lat="48.85569" lon="2.35805">
        <ele>122.3</ele>
        <time>2015-03-02T21:23:52.922Z</time>
      </trkpt>
      <trkpt lat="48.85572" lon="2.35802">
        <ele>122.3</ele>
        <time>2015-03-02T21:23:53.932Z</time>
      </trkpt>
      <trkpt lat="48.85579" lon="2.35797">
        <ele>122.6</ele>
        <time>2015-03-02T21:23:55.860Z</time>
      </trkpt>
      <trkpt lat="48.85583" lon="2.35793">
        <ele>123</ele>
        <time>2015-03-02T21:23:56.923Z</time>
      </trkpt>
      <trkpt lat="48.85588" lon="2.35784">
        <ele>122.8</ele>
        <time>2015-03-02T21:23:58.859Z</time>
      </trkpt>
      <trkpt lat="48.85589" lon="2.3578">
        <ele>122.8</ele>
        <time>2015-03-02T21:23:59.878Z</time>
      </trkpt>
      <trkpt lat="48.85593" lon="2.3577">
        <ele>123</ele>
        <time>2015-03-02T21:24:01.931Z</time>
      </trkpt>
      <trkpt lat="48.85594" lon="2.35764">
        <ele>123.2</ele>
        <time>2015-03-02T21:24:02.954Z</time>
      </trkpt>
      <trkpt lat="48.85596" lon="2.35758">
        <ele>123.4</ele>
        <time>2015-03-02T21:24:03.883Z</time>
      </trkpt>
      <trkpt lat="48.856" lon="2.35752">
        <ele>123.8</ele>
        <time>2015-03-02T21:24:04.874Z</time>
      </trkpt>
      <trkpt lat="48.85604" lon="2.35747">
        <ele>124.1</ele>
        <time>2015-03-02T21:24:05.887Z</time>
      </trkpt>
      <trkpt lat="48.85608" lon="2.3574">
        <ele>124.3</ele>
        <time>2015-03-02T21:24:06.890Z</time>
      </trkpt>
      <trkpt lat="48.85612" lon="2.35733">
        <ele>124.3</ele>
        <time>2015-03-02T21:24:07.900Z</time>
      </trkpt>
      <trkpt lat="48.85616" lon="2.35727">
        <ele>124.2</ele>
        <time>2015-03-02T21:24:08.911Z</time>
      </trkpt>
      <trkpt lat="48.8562" lon="2.3572">
        <ele>124</ele>
        <time>2015-03-02T21:24:09.859Z</time>
      </trkpt>
      <trkpt lat="48.85624" lon="2.35713">
        <ele>123.8</ele>
        <time>2015-03-02T21:24:10.858Z</time>
      </trkpt>
      <trkpt lat="48.85628" lon="2.35706">
        <ele>123.5</ele>
        <time>2015-03-02T21:24:11.860Z</time>
      </trkpt>
      <trkpt lat="48.8563" lon="2.35701">
        <ele>123.4</ele>
        <time>2015-03-02T21:24:12.858Z</time>
      </trkpt>
      <trkpt lat="48.85634" lon="2.35695">
        <ele>123.4</ele>
        <time>2015-03-02T21:24:13.875Z</time>
      </trkpt>
      <trkpt lat="48.85637" lon="2.35688">
        <ele>123.5</ele>
        <time>2015-03-02T21:24:14.908Z</time>
      </trkpt>
      <trkpt lat="48.85642" lon="2.35677">
        <ele>122.3</ele>
        <time>2015-03-02T21:24:16.858Z</time>
      </trkpt>
      <trkpt lat="48.85643" lon="2.35675">
        <ele>122.1</ele>
        <time>2015-03-02T21:24:17.872Z</time>
      </trkpt>
      <trkpt lat="48.85637" lon="2.35668">
        <ele>120.7</ele>
        <time>2015-03-02T21:24:20.914Z</time>
      </trkpt>
      <trkpt lat="48.85633" lon="2.35665">
        <ele>120.4</ele>
        <time>2015-03-02T21:24:21.873Z</time>
      </trkpt>
      <trkpt lat="48.85629" lon="2.35656">
        <ele>120.3</ele>
        <time>2015-03-02T21:24:24.937Z</time>
      </trkpt>
      <trkpt lat="48.85628" lon="2.35653">
        <ele>119.9</ele>
        <time>2015-03-02T21:24:25.950Z</time>
      </trkpt>
      <trkpt lat="48.85629" lon="2.35642">
        <ele>119.6</ele>
        <time>2015-03-02T21:24:27.917Z</time>
      </trkpt>
      <trkpt lat="48.8563" lon="2.35636">
        <ele>119.5</ele>
        <time>2015-03-02T21:24:28.926Z</time>
      </trkpt>
      <trkpt lat="48.85632" lon="2.35626">
        <ele>119.4</ele>
        <time>2015-03-02T21:24:30.850Z</time>
      </trkpt>
      <trkpt lat="48.85633" lon="2.35622">
        <ele>119.4</ele>
        <time>2015-03-02T21:24:31.873Z</time>
      </trkpt>
      <trkpt lat="48.85636" lon="2.35611">
        <ele>118.9</ele>
        <time>2015-03-02T21:24:33.895Z</time>
      </trkpt>
      <trkpt lat="48.85636" lon="2.35605">
        <ele>118.7</ele>
        <time>2015-03-02T21:24:34.964Z</time>
      </trkpt>
      <trkpt lat="48.85636" lon="2.35595">
        <ele>118.3</ele>
        <time>2015-03-02T21:24:36.861Z</time>
      </trkpt>
      <trkpt lat="48.85635" lon="2.3559">
        <ele>118.5</ele>
        <time>2015-03-02T21:24:37.879Z</time>
      </trkpt>
      <trkpt lat="48.85631" lon="2.35581">
        <ele>118.9</ele>
        <time>2015-03-02T21:24:39.890Z</time>
      </trkpt>
      <trkpt lat="48.85634" lon="2.35573">
        <ele>119.1</ele>
        <time>2015-03-02T21:24:40.902Z</time>
      </trkpt>
      <trkpt lat="48.85641" lon="2.35563">
        <ele>119.1</ele>
        <time>2015-03-02T21:24:41.921Z</time>
      </trkpt>
      <trkpt lat="48.85645" lon="2.35552">
        <ele>119.2</ele>
        <time>2015-03-02T21:24:42.923Z</time>
      </trkpt>
      <trkpt lat="48.85648" lon="2.35541">
        <ele>119.3</ele>
        <time>2015-03-02T21:24:43.928Z</time>
      </trkpt>
      <trkpt lat="48.8565" lon="2.35528">
        <ele>119.2</ele>
        <time>2015-03-02T21:24:44.930Z</time>
      </trkpt>
      <trkpt lat="48.85653" lon="2.35517">
        <ele>119.1</ele>
        <time>2015-03-02T21:24:45.945Z</time>
      </trkpt>
      <trkpt lat="48.85656" lon="2.35506">
        <ele>119</ele>
        <time>2015-03-02T21:24:46.950Z</time>
      </trkpt>
      <trkpt lat="48.85659" lon="2.35495">
        <ele>118.8</ele>
        <time>2015-03-02T21:24:47.855Z</time>
      </trkpt>
      <trkpt lat="48.85662" lon="2.35485">
        <ele>118.7</ele>
        <time>2015-03-02T21:24:48.857Z</time>
      </trkpt>
      <trkpt lat="48.85663" lon="2.35475">
        <ele>118.5</ele>
        <time>2015-03-02T21:24:49.863Z</time>
      </trkpt>
      <trkpt lat="48.85663" lon="2.35465">
        <ele>118.4</ele>
        <time>2015-03-02T21:24:50.895Z</time>
      </trkpt>
      <trkpt lat="48.85664" lon="2.35457">
        <ele>118.4</ele>
        <time>2015-03-02T21:24:51.906Z</time>
      </trkpt>
      <trkpt lat="48.85665" lon="2.35449">
        <ele>118.5</ele>
        <time>2015-03-02T21:24:52.911Z</time>
      </trkpt>
      <trkpt lat="48.85664" lon="2.35442">
        <ele>118.7</ele>
        <time>2015-03-02T21:24:53.924Z</time>
      </trkpt>
      <trkpt lat="48.85663" lon="2.35434">
        <ele>118.5</ele>
        <time>2015-03-02T21:24:54.932Z</time>
      </trkpt>
      <trkpt lat="48.8566" lon="2.35428">
        <ele>117.9</ele>
        <time>2015-03-02T21:24:55.945Z</time>
      </trkpt>
      <trkpt lat="48.85657" lon="2.35422">
        <ele>117.8</ele>
        <time>2015-03-02T21:24:56.954Z</time>
      </trkpt>
      <trkpt lat="48.85657" lon="2.35412">
        <ele>117.6</ele>
        <time>2015-03-02T21:24:58.865Z</time>
      </trkpt>
      <trkpt lat="48.85657" lon="2.35404">
        <ele>117</ele>
        <time>2015-03-02T21:24:59.874Z</time>
      </trkpt>
      <trkpt lat="48.85659" lon="2.35391">
        <ele>117.1</ele>
        <time>2015-03-02T21:25:01.905Z</time>
      </trkpt>
      <trkpt lat="48.8566" lon="2.35384">
        <ele>117.5</ele>
        <time>2015-03-02T21:25:02.962Z</time>
      </trkpt>
      <trkpt lat="48.85663" lon="2.35376">
        <ele>117.7</ele>
        <time>2015-03-02T21:25:03.837Z</time>
      </trkpt>
      <trkpt lat="48.85666" lon="2.35369">
        <ele>118.1</ele>
        <time>2015-03-02T21:25:04.870Z</time>
      </trkpt>
      <trkpt lat="48.85669" lon="2.35362">
        <ele>118.5</ele>
        <time>2015-03-02T21:25:05.864Z</time>
      </trkpt>
      <trkpt lat="48.85673" lon="2.35356">
        <ele>119</ele>
        <time>2015-03-02T21:25:06.873Z</time>
      </trkpt>
      <trkpt lat="48.8568" lon="2.35351">
        <ele>119.8</ele>
        <time>2015-03-02T21:25:07.886Z</time>
      </trkpt>
      <trkpt lat="48.85683" lon="2.35345">
        <ele>120.4</ele>
        <time>2015-03-02T21:25:08.894Z</time>
      </trkpt>
      <trkpt lat="48.85686" lon="2.35333">
        <ele>120.8</ele>
        <time>2015-03-02T21:25:10.954Z</time>
      </trkpt>
      <trkpt lat="48.85689" lon="2.35327">
        <ele>121.1</ele>
        <time>2015-03-02T21:25:11.859Z</time>
      </trkpt>
      <trkpt lat="48.85692" lon="2.35321">
        <ele>121.5</ele>
        <time>2015-03-02T21:25:12.869Z</time>
      </trkpt>
      <trkpt lat="48.85696" lon="2.35314">
        <ele>121.8</ele>
        <time>2015-03-02T21:25:13.965Z</time>
      </trkpt>
      <trkpt lat="48.857" lon="2.35308">
        <ele>122</ele>
        <time>2015-03-02T21:25:14.902Z</time>
      </trkpt>
      <trkpt lat="48.85704" lon="2.35302">
        <ele>122.5</ele>
        <time>2015-03-02T21:25:15.858Z</time>
      </trkpt>
      <trkpt lat="48.85709" lon="2.35296">
        <ele>122.9</ele>
        <time>2015-03-02T21:25:16.903Z</time>
      </trkpt>
      <trkpt lat="48.85714" lon="2.35289">
        <ele>123.2</ele>
        <time>2015-03-02T21:25:17.918Z</time>
      </trkpt>
      <trkpt lat="48.85717" lon="2.35281">
        <ele>123.3</ele>
        <time>2015-03-02T21:25:18.890Z</time>
      </trkpt>
      <trkpt lat="48.85721" lon="2.35274">
        <ele>123.5</ele>
        <time>2015-03-02T21:25:19.913Z</time>
      </trkpt>
      <trkpt lat="48.85724" lon="2.35265">
        <ele>123.5</ele>
        <time>2015-03-02T21:25:20.974Z</time>
      </trkpt>
      <trkpt lat="48.85726" lon="2.35257">
        <ele>123.6</ele>
        <time>2015-03-02T21:25:21.857Z</time>
      </trkpt>
      <trkpt lat="48.85729" lon="2.3525">
        <ele>123.6</ele>
        <time>2015-03-02T21:25:22.862Z</time>
      </trkpt>
      <trkpt lat="48.85733" lon="2.35244">
        <ele>123.6</ele>
        <time>2015-03-02T21:25:23.994Z</time>
      </trkpt>
      <trkpt lat="48.85738" lon="2.35237">
        <ele>123.2</ele>
        <time>2015-03-02T21:25:24.858Z</time>
      </trkpt>
      <trkpt lat="48.85742" lon="2.35229">
        <ele>122.3</ele>
        <time>2015-03-02T21:25:25.870Z</time>
      </trkpt>
      <trkpt lat="48.85743" lon="2.35219">
        <ele>121.3</ele>
        <time>2015-03-02T21:25:26.921Z</time>
      </trkpt>
      <trkpt lat="48.85742" lon="2.35209">
        <ele>120.7</ele>
        <time>2015-03-02T21:25:27.925Z</time>
      </trkpt>
      <trkpt lat="48.85742" lon="2.35201">
        <ele>121.2</ele>
        <time>2015-03-02T21:25:28.953Z</time>
      </trkpt>
      <trkpt lat="48.85742" lon="2.35193">
        <ele>121.3</ele>
        <time>2015-03-02T21:25:29.963Z</time>
      </trkpt>
      <trkpt lat="48.85739" lon="2.35181">
        <ele>121.1</ele>
        <time>2015-03-02T21:25:31.968Z</time>
      </trkpt>
      <trkpt lat="48.85739" lon="2.35174">
        <ele>120.9</ele>
        <time>2015-03-02T21:25:32.999Z</time>
      </trkpt>
      <trkpt lat="48.8574" lon="2.35167">
        <ele>120.7</ele>
        <time>2015-03-02T21:25:33.874Z</time>
      </trkpt>
      <trkpt lat="48.85742" lon="2.35159">
        <ele>121.3</ele>
        <time>2015-03-02T21:25:34.891Z</time>
      </trkpt>
      <trkpt lat="48.85744" lon="2.35153">
        <ele>122.1</ele>
        <time>2015-03-02T21:25:35.965Z</time>
      </trkpt>
      <trkpt lat="48.85748" lon="2.35148">
        <ele>122.7</ele>
        <time>2015-03-02T21:25:36.977Z</time>
      </trkpt>
      <trkpt lat="48.85752" lon="2.35141">
        <ele>122.9</ele>
        <time>2015-03-02T21:25:37.888Z</time>
      </trkpt>
      <trkpt lat="48.85755" lon="2.3513">
        <ele>123</ele>
        <time>2015-03-02T21:25:38.917Z</time>
      </trkpt>
      <trkpt lat="48.85758" lon="2.3512">
        <ele>122.9</ele>
        <time>2015-03-02T21:25:39.911Z</time>
      </trkpt>
      <trkpt lat="48.85761" lon="2.35111">
        <ele>122.9</ele>
        <time>2015-03-02T21:25:40.939Z</time>
      </trkpt>
      <trkpt lat="48.85766" lon="2.35103">
        <ele>122.7</ele>
        <time>2015-03-02T21:25:41.854Z</time>
      </trkpt>
      <trkpt lat="48.85771" lon="2.35094">
        <ele>122.9</ele>
        <time>2015-03-02T21:25:42.870Z</time>
      </trkpt>
      <trkpt lat="48.85775" lon="2.35084">
        <ele>122.7</ele>
        <time>2015-03-02T21:25:43.892Z</time>
      </trkpt>
      <trkpt lat="48.85776" lon="2.35072">
        <ele>122.9</ele>
        <time>2015-03-02T21:25:44.907Z</time>
      </trkpt>
      <trkpt lat="48.85778" lon="2.35062">
        <ele>123.1</ele>
        <time>2015-03-02T21:25:46.038Z</time>
      </trkpt>
      <trkpt lat="48.85776" lon="2.35052">
        <ele>123.2</ele>
        <time>2015-03-02T21:25:46.885Z</time>
      </trkpt>
      <trkpt lat="48.85774" lon="2.35044">
        <ele>123.6</ele>
        <time>2015-03-02T21:25:47.979Z</time>
      </trkpt>
      <trkpt lat="48.85774" lon="2.35035">
        <ele>123.8</ele>
        <time>2015-03-02T21:25:48.885Z</time>
      </trkpt>
      <trkpt lat="48.85775" lon="2.35028">
        <ele>123.8</ele>
        <time>2015-03-02T21:25:49.914Z</time>
      </trkpt>
      <trkpt lat="48.85776" lon="2.35021">
        <ele>123.9</ele>
        <time>2015-03-02T21:25:50.925Z</time>
      </trkpt>
      <trkpt lat="48.85779" lon="2.35015">
        <ele>123.8</ele>
        <time>2015-03-02T21:25:51.864Z</time>
      </trkpt>
      <trkpt lat="48.85782" lon="2.35008">
        <ele>123.6</ele>
        <time>2015-03-02T21:25:52.874Z</time>
      </trkpt>
      <trkpt lat="48.85783" lon="2.34999">
        <ele>123.2</ele>
        <time>2015-03-02T21:25:53.901Z</time>
      </trkpt>
      <trkpt lat="48.85784" lon="2.3499">
        <ele>123.1</ele>
        <time>2015-03-02T21:25:54.934Z</time>
      </trkpt>
      <trkpt lat="48.85785" lon="2.34983">
        <ele>123</ele>
        <time>2015-03-02T21:25:55.940Z</time>
      </trkpt>
      <trkpt lat="48.85788" lon="2.34977">
        <ele>122.8</ele>
        <time>2015-03-02T21:25:56.952Z</time>
      </trkpt>
      <trkpt lat="48.85795" lon="2.34969">
        <ele>122.7</ele>
        <time>2015-03-02T21:25:58.938Z</time>
      </trkpt>
      <trkpt lat="48.85798" lon="2.34963">
        <ele>122.4</ele>
        <time>2015-03-02T21:25:59.953Z</time>
      </trkpt>
      <trkpt lat="48.85803" lon="2.34955">
        <ele>122.4</ele>
        <time>2015-03-02T21:26:00.836Z</time>
      </trkpt>
      <trkpt lat="48.85806" lon="2.34949">
        <ele>122.3</ele>
        <time>2015-03-02T21:26:01.840Z</time>
      </trkpt>
      <trkpt lat="48.8581" lon="2.34941">
        <ele>122.4</ele>
        <time>2015-03-02T21:26:03.837Z</time>
      </trkpt>
      <trkpt lat="48.85813" lon="2.34932">
        <ele>122.4</ele>
        <time>2015-03-02T21:26:03.909Z</time>
      </trkpt>
      <trkpt lat="48.85815" lon="2.34923">
        <ele>122</ele>
        <time>2015-03-02T21:26:04.921Z</time>
      </trkpt>
      <trkpt lat="48.85817" lon="2.34914">
        <ele>122</ele>
        <time>2015-03-02T21:26:05.936Z</time>
      </trkpt>
      <trkpt lat="48.85819" lon="2.34904">
        <ele>122</ele>
        <time>2015-03-02T21:26:06.866Z</time>
      </trkpt>
      <trkpt lat="48.85821" lon="2.34896">
        <ele>122.1</ele>
        <time>2015-03-02T21:26:07.856Z</time>
      </trkpt>
      <trkpt lat="48.85823" lon="2.34888">
        <ele>122.1</ele>
        <time>2015-03-02T21:26:08.904Z</time>
      </trkpt>
      <trkpt lat="48.85824" lon="2.34882">
        <ele>122.3</ele>
        <time>2015-03-02T21:26:09.928Z</time>
      </trkpt>
      <trkpt lat="48.85825" lon="2.34875">
        <ele>122.3</ele>
        <time>2015-03-02T21:26:10.932Z</time>
      </trkpt>
      <trkpt lat="48.85826" lon="2.34869">
        <ele>122.4</ele>
        <time>2015-03-02T21:26:11.833Z</time>
      </trkpt>
      <trkpt lat="48.85827" lon="2.34858">
        <ele>122.5</ele>
        <time>2015-03-02T21:26:13.864Z</time>
      </trkpt>
      <trkpt lat="48.85828" lon="2.34854">
        <ele>122.4</ele>
        <time>2015-03-02T21:26:14.916Z</time>
      </trkpt>
      <trkpt lat="48.85831" lon="2.34844">
        <ele>122.7</ele>
        <time>2015-03-02T21:26:46.958Z</time>
      </trkpt>
      <trkpt lat="48.85839" lon="2.34815">
        <ele>124.8</ele>
        <time>2015-03-02T21:26:47.886Z</time>
      </trkpt>
      <trkpt lat="48.85843" lon="2.34806">
        <ele>124.8</ele>
        <time>2015-03-02T21:26:50.959Z</time>
      </trkpt>
      <trkpt lat="48.85845" lon="2.34802">
        <ele>125.3</ele>
        <time>2015-03-02T21:26:52.057Z</time>
      </trkpt>
      <trkpt lat="48.85847" lon="2.34791">
        <ele>125.8</ele>
        <time>2015-03-02T21:26:53.896Z</time>
      </trkpt>
      <trkpt lat="48.85847" lon="2.34785">
        <ele>126.2</ele>
        <time>2015-03-02T21:26:54.905Z</time>
      </trkpt>
      <trkpt lat="48.85849" lon="2.34773">
        <ele>127.3</ele>
        <time>2015-03-02T21:26:56.941Z</time>
      </trkpt>
      <trkpt lat="48.85851" lon="2.34769">
        <ele>127.6</ele>
        <time>2015-03-02T21:26:57.951Z</time>
      </trkpt>
      <trkpt lat="48.85858" lon="2.3476">
        <ele>128.3</ele>
        <time>2015-03-02T21:26:59.869Z</time>
      </trkpt>
      <trkpt lat="48.85863" lon="2.34756">
        <ele>128.6</ele>
        <time>2015-03-02T21:27:00.880Z</time>
      </trkpt>
      <trkpt lat="48.8587" lon="2.34752">
        <ele>128.7</ele>
        <time>2015-03-02T21:27:01.883Z</time>
      </trkpt>
      <trkpt lat="48.85875" lon="2.34748">
        <ele>129</ele>
        <time>2015-03-02T21:27:02.951Z</time>
      </trkpt>
      <trkpt lat="48.85881" lon="2.34741">
        <ele>128.9</ele>
        <time>2015-03-02T21:27:08.968Z</time>
      </trkpt>
      <trkpt lat="48.85883" lon="2.34739">
        <ele>128.8</ele>
        <time>2015-03-02T21:27:09.906Z</time>
      </trkpt>
      <trkpt lat="48.85889" lon="2.34735">
        <ele>129</ele>
        <time>2015-03-02T21:27:12.062Z</time>
      </trkpt>
      <trkpt lat="48.85892" lon="2.34733">
        <ele>128.8</ele>
        <time>2015-03-02T21:27:12.953Z</time>
      </trkpt>
      <trkpt lat="48.85899" lon="2.34728">
        <ele>129.2</ele>
        <time>2015-03-02T21:27:15.878Z</time>
      </trkpt>
      <trkpt lat="48.85904" lon="2.34726">
        <ele>129.6</ele>
        <time>2015-03-02T21:27:16.878Z</time>
      </trkpt>
      <trkpt lat="48.85913" lon="2.34721">
        <ele>129.4</ele>
        <time>2015-03-02T21:27:18.913Z</time>
      </trkpt>
      <trkpt lat="48.85918" lon="2.34718">
        <ele>129.5</ele>
        <time>2015-03-02T21:27:19.924Z</time>
      </trkpt>
      <trkpt lat="48.85923" lon="2.34715">
        <ele>129.3</ele>
        <time>2015-03-02T21:27:20.971Z</time>
      </trkpt>
      <trkpt lat="48.85929" lon="2.34714">
        <ele>129.6</ele>
        <time>2015-03-02T21:27:21.858Z</time>
      </trkpt>
      <trkpt lat="48.85934" lon="2.34713">
        <ele>129.8</ele>
        <time>2015-03-02T21:27:22.855Z</time>
      </trkpt>
      <trkpt lat="48.8594" lon="2.34713">
        <ele>130.2</ele>
        <time>2015-03-02T21:27:23.856Z</time>
      </trkpt>
      <trkpt lat="48.85948" lon="2.34718">
        <ele>131.8</ele>
        <time>2015-03-02T21:27:27.954Z</time>
      </trkpt>
      <trkpt lat="48.85949" lon="2.34719">
        <ele>132.5</ele>
        <time>2015-03-02T21:27:28.844Z</time>
      </trkpt>
      <trkpt lat="48.85949" lon="2.34719">
        <ele>132.5</ele>
        <time>2015-03-02T21:27:58.918Z</time>
      </trkpt>
      <trkpt lat="48.85955" lon="2.3476">
        <ele>146.6</ele>
        <time>2015-03-02T21:28:07.885Z</time>
      </trkpt>
    </trkseg>
  </trk>
</gpx>